<?xml version="1.0" encoding="UTF-8" standalone="no" ?>
<gpx xmlns="http://www.topografix.com/GPX/1/1" xmlns:xsi="http://www.w3.org/2001/XMLSchema-instance" xsi:schemaLocation="http://www.topografix.com/GPX/1/1 http://www.topografix.com/GPX/1/1/gpx.xsd" version="1.1" creator="VisuGPX - https://www.visugpx.com">
  <metadata>
    <name>Pic de Sesque</name>
    <desc><![CDATA[[url]https://plus.google.com/photos/105108571230570121986/albums/5870809182732812433?banner=pwa[/url]
[img]https://lh5.googleusercontent.com/-TnkLG5R-cSU/UXlOFDKv3rI/AAAAAAAALbo/JMzNFSeS5MA/w646-h485/2013.04.24  Sesques 008.jpg[/img]]]></desc>
  </metadata>
  <trk>
    <name><![CDATA[TracÃ© actuel: 24 AVR 2013 06:17-split-split]]></name>
    <trkseg>
      <trkpt lat="42.89767" lon="-0.5529">
        <ele>1177</ele>
        <time>2013-04-24T05:32:47Z</time>
      </trkpt>
      <trkpt lat="42.89764" lon="-0.55288">
        <ele>1178</ele>
        <time>2013-04-24T05:32:54Z</time>
      </trkpt>
      <trkpt lat="42.89762" lon="-0.55284">
        <ele>1180</ele>
        <time>2013-04-24T05:33:09Z</time>
      </trkpt>
      <trkpt lat="42.8976" lon="-0.55283">
        <ele>1182</ele>
        <time>2013-04-24T05:33:15Z</time>
      </trkpt>
      <trkpt lat="42.89747" lon="-0.55288">
        <ele>1184</ele>
        <time>2013-04-24T05:33:29Z</time>
      </trkpt>
      <trkpt lat="42.89737" lon="-0.5529">
        <ele>1186</ele>
        <time>2013-04-24T05:33:44Z</time>
      </trkpt>
      <trkpt lat="42.89721" lon="-0.55294">
        <ele>1189</ele>
        <time>2013-04-24T05:34:00Z</time>
      </trkpt>
      <trkpt lat="42.89714" lon="-0.55302">
        <ele>1192</ele>
        <time>2013-04-24T05:34:17Z</time>
      </trkpt>
      <trkpt lat="42.89712" lon="-0.55308">
        <ele>1193</ele>
        <time>2013-04-24T05:34:22Z</time>
      </trkpt>
      <trkpt lat="42.89704" lon="-0.55313">
        <ele>1196</ele>
        <time>2013-04-24T05:34:34Z</time>
      </trkpt>
      <trkpt lat="42.89696" lon="-0.55316">
        <ele>1198</ele>
        <time>2013-04-24T05:34:44Z</time>
      </trkpt>
      <trkpt lat="42.89689" lon="-0.55323">
        <ele>1201</ele>
        <time>2013-04-24T05:34:58Z</time>
      </trkpt>
      <trkpt lat="42.89688" lon="-0.55333">
        <ele>1204</ele>
        <time>2013-04-24T05:35:11Z</time>
      </trkpt>
      <trkpt lat="42.89682" lon="-0.55344">
        <ele>1207</ele>
        <time>2013-04-24T05:35:24Z</time>
      </trkpt>
      <trkpt lat="42.89678" lon="-0.55352">
        <ele>1210</ele>
        <time>2013-04-24T05:35:37Z</time>
      </trkpt>
      <trkpt lat="42.89671" lon="-0.55362">
        <ele>1213</ele>
        <time>2013-04-24T05:35:51Z</time>
      </trkpt>
      <trkpt lat="42.89664" lon="-0.5536">
        <ele>1216</ele>
        <time>2013-04-24T05:36:04Z</time>
      </trkpt>
      <trkpt lat="42.89659" lon="-0.55366">
        <ele>1220</ele>
        <time>2013-04-24T05:36:16Z</time>
      </trkpt>
      <trkpt lat="42.89652" lon="-0.55367">
        <ele>1223</ele>
        <time>2013-04-24T05:36:32Z</time>
      </trkpt>
      <trkpt lat="42.89645" lon="-0.55371">
        <ele>1225</ele>
        <time>2013-04-24T05:36:48Z</time>
      </trkpt>
      <trkpt lat="42.89638" lon="-0.55376">
        <ele>1228</ele>
        <time>2013-04-24T05:37:04Z</time>
      </trkpt>
      <trkpt lat="42.89629" lon="-0.55379">
        <ele>1232</ele>
        <time>2013-04-24T05:37:19Z</time>
      </trkpt>
      <trkpt lat="42.89621" lon="-0.55384">
        <ele>1235</ele>
        <time>2013-04-24T05:37:31Z</time>
      </trkpt>
      <trkpt lat="42.89622" lon="-0.55382">
        <ele>1238</ele>
        <time>2013-04-24T05:37:49Z</time>
      </trkpt>
      <trkpt lat="42.89615" lon="-0.55373">
        <ele>1240</ele>
        <time>2013-04-24T05:38:04Z</time>
      </trkpt>
      <trkpt lat="42.89604" lon="-0.55372">
        <ele>1237</ele>
        <time>2013-04-24T05:38:17Z</time>
      </trkpt>
      <trkpt lat="42.89602" lon="-0.55372">
        <ele>1237</ele>
        <time>2013-04-24T05:38:19Z</time>
      </trkpt>
      <trkpt lat="42.89587" lon="-0.55377">
        <ele>1235</ele>
        <time>2013-04-24T05:38:34Z</time>
      </trkpt>
      <trkpt lat="42.89586" lon="-0.55377">
        <ele>1236</ele>
        <time>2013-04-24T05:38:35Z</time>
      </trkpt>
      <trkpt lat="42.89581" lon="-0.55379">
        <ele>1236</ele>
        <time>2013-04-24T05:38:40Z</time>
      </trkpt>
      <trkpt lat="42.89577" lon="-0.55381">
        <ele>1236</ele>
        <time>2013-04-24T05:38:43Z</time>
      </trkpt>
      <trkpt lat="42.89562" lon="-0.5538">
        <ele>1239</ele>
        <time>2013-04-24T05:38:58Z</time>
      </trkpt>
      <trkpt lat="42.89544" lon="-0.55382">
        <ele>1241</ele>
        <time>2013-04-24T05:39:12Z</time>
      </trkpt>
      <trkpt lat="42.89531" lon="-0.55378">
        <ele>1241</ele>
        <time>2013-04-24T05:39:24Z</time>
      </trkpt>
      <trkpt lat="42.89524" lon="-0.55377">
        <ele>1241</ele>
        <time>2013-04-24T05:39:30Z</time>
      </trkpt>
      <trkpt lat="42.89515" lon="-0.55371">
        <ele>1240</ele>
        <time>2013-04-24T05:39:41Z</time>
      </trkpt>
      <trkpt lat="42.89502" lon="-0.55359">
        <ele>1240</ele>
        <time>2013-04-24T05:39:53Z</time>
      </trkpt>
      <trkpt lat="42.89499" lon="-0.55358">
        <ele>1240</ele>
        <time>2013-04-24T05:39:55Z</time>
      </trkpt>
      <trkpt lat="42.89478" lon="-0.55359">
        <ele>1238</ele>
        <time>2013-04-24T05:40:10Z</time>
      </trkpt>
      <trkpt lat="42.89462" lon="-0.55355">
        <ele>1239</ele>
        <time>2013-04-24T05:40:24Z</time>
      </trkpt>
      <trkpt lat="42.8945" lon="-0.55348">
        <ele>1239</ele>
        <time>2013-04-24T05:40:35Z</time>
      </trkpt>
      <trkpt lat="42.89436" lon="-0.55346">
        <ele>1237</ele>
        <time>2013-04-24T05:40:48Z</time>
      </trkpt>
      <trkpt lat="42.89423" lon="-0.55344">
        <ele>1238</ele>
        <time>2013-04-24T05:41:00Z</time>
      </trkpt>
      <trkpt lat="42.8942" lon="-0.55346">
        <ele>1238</ele>
        <time>2013-04-24T05:41:02Z</time>
      </trkpt>
      <trkpt lat="42.89408" lon="-0.55337">
        <ele>1238</ele>
        <time>2013-04-24T05:41:13Z</time>
      </trkpt>
      <trkpt lat="42.894" lon="-0.55331">
        <ele>1239</ele>
        <time>2013-04-24T05:41:22Z</time>
      </trkpt>
      <trkpt lat="42.89393" lon="-0.55333">
        <ele>1239</ele>
        <time>2013-04-24T05:41:27Z</time>
      </trkpt>
      <trkpt lat="42.89378" lon="-0.55336">
        <ele>1240</ele>
        <time>2013-04-24T05:41:40Z</time>
      </trkpt>
      <trkpt lat="42.89367" lon="-0.55329">
        <ele>1240</ele>
        <time>2013-04-24T05:41:52Z</time>
      </trkpt>
      <trkpt lat="42.89362" lon="-0.55323">
        <ele>1240</ele>
        <time>2013-04-24T05:41:57Z</time>
      </trkpt>
      <trkpt lat="42.89355" lon="-0.5532">
        <ele>1240</ele>
        <time>2013-04-24T05:42:01Z</time>
      </trkpt>
      <trkpt lat="42.89337" lon="-0.55311">
        <ele>1242</ele>
        <time>2013-04-24T05:42:17Z</time>
      </trkpt>
      <trkpt lat="42.89324" lon="-0.55307">
        <ele>1244</ele>
        <time>2013-04-24T05:42:30Z</time>
      </trkpt>
      <trkpt lat="42.89314" lon="-0.55302">
        <ele>1244</ele>
        <time>2013-04-24T05:42:42Z</time>
      </trkpt>
      <trkpt lat="42.89301" lon="-0.55293">
        <ele>1244</ele>
        <time>2013-04-24T05:42:55Z</time>
      </trkpt>
      <trkpt lat="42.89286" lon="-0.55284">
        <ele>1245</ele>
        <time>2013-04-24T05:43:08Z</time>
      </trkpt>
      <trkpt lat="42.89271" lon="-0.55272">
        <ele>1246</ele>
        <time>2013-04-24T05:43:21Z</time>
      </trkpt>
      <trkpt lat="42.89258" lon="-0.5527">
        <ele>1247</ele>
        <time>2013-04-24T05:43:34Z</time>
      </trkpt>
      <trkpt lat="42.89246" lon="-0.55253">
        <ele>1250</ele>
        <time>2013-04-24T05:43:47Z</time>
      </trkpt>
      <trkpt lat="42.89241" lon="-0.55243">
        <ele>1251</ele>
        <time>2013-04-24T05:43:55Z</time>
      </trkpt>
      <trkpt lat="42.89239" lon="-0.55237">
        <ele>1251</ele>
        <time>2013-04-24T05:43:59Z</time>
      </trkpt>
      <trkpt lat="42.89228" lon="-0.55226">
        <ele>1250</ele>
        <time>2013-04-24T05:44:12Z</time>
      </trkpt>
      <trkpt lat="42.89217" lon="-0.55212">
        <ele>1252</ele>
        <time>2013-04-24T05:44:24Z</time>
      </trkpt>
      <trkpt lat="42.89206" lon="-0.55203">
        <ele>1250</ele>
        <time>2013-04-24T05:44:38Z</time>
      </trkpt>
      <trkpt lat="42.89205" lon="-0.55201">
        <ele>1250</ele>
        <time>2013-04-24T05:44:39Z</time>
      </trkpt>
      <trkpt lat="42.89199" lon="-0.55188">
        <ele>1249</ele>
        <time>2013-04-24T05:44:47Z</time>
      </trkpt>
      <trkpt lat="42.89197" lon="-0.55184">
        <ele>1250</ele>
        <time>2013-04-24T05:44:50Z</time>
      </trkpt>
      <trkpt lat="42.89187" lon="-0.55168">
        <ele>1252</ele>
        <time>2013-04-24T05:45:03Z</time>
      </trkpt>
      <trkpt lat="42.89185" lon="-0.55163">
        <ele>1254</ele>
        <time>2013-04-24T05:45:10Z</time>
      </trkpt>
      <trkpt lat="42.89181" lon="-0.55149">
        <ele>1256</ele>
        <time>2013-04-24T05:45:23Z</time>
      </trkpt>
      <trkpt lat="42.89178" lon="-0.55145">
        <ele>1258</ele>
        <time>2013-04-24T05:45:29Z</time>
      </trkpt>
      <trkpt lat="42.8917" lon="-0.55131">
        <ele>1259</ele>
        <time>2013-04-24T05:45:42Z</time>
      </trkpt>
      <trkpt lat="42.89169" lon="-0.5512">
        <ele>1260</ele>
        <time>2013-04-24T05:45:50Z</time>
      </trkpt>
      <trkpt lat="42.89166" lon="-0.55101">
        <ele>1261</ele>
        <time>2013-04-24T05:46:04Z</time>
      </trkpt>
      <trkpt lat="42.89162" lon="-0.55084">
        <ele>1262</ele>
        <time>2013-04-24T05:46:16Z</time>
      </trkpt>
      <trkpt lat="42.89158" lon="-0.55068">
        <ele>1264</ele>
        <time>2013-04-24T05:46:29Z</time>
      </trkpt>
      <trkpt lat="42.89155" lon="-0.55055">
        <ele>1267</ele>
        <time>2013-04-24T05:46:40Z</time>
      </trkpt>
      <trkpt lat="42.89153" lon="-0.55052">
        <ele>1267</ele>
        <time>2013-04-24T05:46:43Z</time>
      </trkpt>
      <trkpt lat="42.89151" lon="-0.55033">
        <ele>1269</ele>
        <time>2013-04-24T05:46:55Z</time>
      </trkpt>
      <trkpt lat="42.89151" lon="-0.55027">
        <ele>1269</ele>
        <time>2013-04-24T05:46:58Z</time>
      </trkpt>
      <trkpt lat="42.89147" lon="-0.55007">
        <ele>1270</ele>
        <time>2013-04-24T05:47:11Z</time>
      </trkpt>
      <trkpt lat="42.89147" lon="-0.55006">
        <ele>1270</ele>
        <time>2013-04-24T05:47:12Z</time>
      </trkpt>
      <trkpt lat="42.89137" lon="-0.54991">
        <ele>1270</ele>
        <time>2013-04-24T05:47:25Z</time>
      </trkpt>
      <trkpt lat="42.89135" lon="-0.5498">
        <ele>1270</ele>
        <time>2013-04-24T05:47:38Z</time>
      </trkpt>
      <trkpt lat="42.89138" lon="-0.54963">
        <ele>1271</ele>
        <time>2013-04-24T05:47:50Z</time>
      </trkpt>
      <trkpt lat="42.8914" lon="-0.54944">
        <ele>1273</ele>
        <time>2013-04-24T05:48:04Z</time>
      </trkpt>
      <trkpt lat="42.89141" lon="-0.54924">
        <ele>1275</ele>
        <time>2013-04-24T05:48:18Z</time>
      </trkpt>
      <trkpt lat="42.89148" lon="-0.54913">
        <ele>1277</ele>
        <time>2013-04-24T05:48:32Z</time>
      </trkpt>
      <trkpt lat="42.89146" lon="-0.54902">
        <ele>1280</ele>
        <time>2013-04-24T05:48:43Z</time>
      </trkpt>
      <trkpt lat="42.89149" lon="-0.549">
        <ele>1282</ele>
        <time>2013-04-24T05:48:53Z</time>
      </trkpt>
      <trkpt lat="42.89148" lon="-0.54895">
        <ele>1283</ele>
        <time>2013-04-24T05:49:04Z</time>
      </trkpt>
      <trkpt lat="42.89145" lon="-0.54891">
        <ele>1285</ele>
        <time>2013-04-24T05:49:18Z</time>
      </trkpt>
      <trkpt lat="42.89146" lon="-0.54885">
        <ele>1287</ele>
        <time>2013-04-24T05:49:30Z</time>
      </trkpt>
      <trkpt lat="42.8915" lon="-0.54877">
        <ele>1290</ele>
        <time>2013-04-24T05:49:43Z</time>
      </trkpt>
      <trkpt lat="42.8915" lon="-0.54877">
        <ele>1290</ele>
        <time>2013-04-24T05:49:44Z</time>
      </trkpt>
      <trkpt lat="42.89151" lon="-0.54869">
        <ele>1292</ele>
        <time>2013-04-24T05:49:56Z</time>
      </trkpt>
      <trkpt lat="42.89152" lon="-0.54869">
        <ele>1293</ele>
        <time>2013-04-24T05:49:57Z</time>
      </trkpt>
      <trkpt lat="42.89157" lon="-0.54875">
        <ele>1295</ele>
        <time>2013-04-24T05:50:09Z</time>
      </trkpt>
      <trkpt lat="42.89161" lon="-0.54882">
        <ele>1296</ele>
        <time>2013-04-24T05:50:19Z</time>
      </trkpt>
      <trkpt lat="42.89163" lon="-0.54888">
        <ele>1296</ele>
        <time>2013-04-24T05:50:25Z</time>
      </trkpt>
      <trkpt lat="42.89167" lon="-0.54892">
        <ele>1299</ele>
        <time>2013-04-24T05:50:35Z</time>
      </trkpt>
      <trkpt lat="42.89179" lon="-0.54878">
        <ele>1300</ele>
        <time>2013-04-24T05:50:49Z</time>
      </trkpt>
      <trkpt lat="42.89179" lon="-0.54868">
        <ele>1301</ele>
        <time>2013-04-24T05:51:01Z</time>
      </trkpt>
      <trkpt lat="42.8918" lon="-0.5486">
        <ele>1301</ele>
        <time>2013-04-24T05:51:13Z</time>
      </trkpt>
      <trkpt lat="42.89186" lon="-0.5486">
        <ele>1301</ele>
        <time>2013-04-24T05:51:21Z</time>
      </trkpt>
      <trkpt lat="42.89193" lon="-0.5485">
        <ele>1303</ele>
        <time>2013-04-24T05:51:35Z</time>
      </trkpt>
      <trkpt lat="42.89193" lon="-0.54847">
        <ele>1304</ele>
        <time>2013-04-24T05:51:39Z</time>
      </trkpt>
      <trkpt lat="42.892" lon="-0.54839">
        <ele>1306</ele>
        <time>2013-04-24T05:51:49Z</time>
      </trkpt>
      <trkpt lat="42.89205" lon="-0.54832">
        <ele>1308</ele>
        <time>2013-04-24T05:52:02Z</time>
      </trkpt>
      <trkpt lat="42.89214" lon="-0.54822">
        <ele>1310</ele>
        <time>2013-04-24T05:52:17Z</time>
      </trkpt>
      <trkpt lat="42.89221" lon="-0.54806">
        <ele>1312</ele>
        <time>2013-04-24T05:52:32Z</time>
      </trkpt>
      <trkpt lat="42.89224" lon="-0.54788">
        <ele>1315</ele>
        <time>2013-04-24T05:52:47Z</time>
      </trkpt>
      <trkpt lat="42.89225" lon="-0.54783">
        <ele>1315</ele>
        <time>2013-04-24T05:52:52Z</time>
      </trkpt>
      <trkpt lat="42.89226" lon="-0.54772">
        <ele>1317</ele>
        <time>2013-04-24T05:53:01Z</time>
      </trkpt>
      <trkpt lat="42.89226" lon="-0.54765">
        <ele>1318</ele>
        <time>2013-04-24T05:53:09Z</time>
      </trkpt>
      <trkpt lat="42.89226" lon="-0.54762">
        <ele>1319</ele>
        <time>2013-04-24T05:53:12Z</time>
      </trkpt>
      <trkpt lat="42.89226" lon="-0.54761">
        <ele>1320</ele>
        <time>2013-04-24T05:53:13Z</time>
      </trkpt>
      <trkpt lat="42.89225" lon="-0.54751">
        <ele>1321</ele>
        <time>2013-04-24T05:53:24Z</time>
      </trkpt>
      <trkpt lat="42.89227" lon="-0.5474">
        <ele>1322</ele>
        <time>2013-04-24T05:53:33Z</time>
      </trkpt>
      <trkpt lat="42.89233" lon="-0.5473">
        <ele>1324</ele>
        <time>2013-04-24T05:53:43Z</time>
      </trkpt>
      <trkpt lat="42.89233" lon="-0.54728">
        <ele>1324</ele>
        <time>2013-04-24T05:53:45Z</time>
      </trkpt>
      <trkpt lat="42.89238" lon="-0.54715">
        <ele>1326</ele>
        <time>2013-04-24T05:53:58Z</time>
      </trkpt>
      <trkpt lat="42.89239" lon="-0.54709">
        <ele>1327</ele>
        <time>2013-04-24T05:54:03Z</time>
      </trkpt>
      <trkpt lat="42.89241" lon="-0.54697">
        <ele>1329</ele>
        <time>2013-04-24T05:54:16Z</time>
      </trkpt>
      <trkpt lat="42.89247" lon="-0.54685">
        <ele>1330</ele>
        <time>2013-04-24T05:54:28Z</time>
      </trkpt>
      <trkpt lat="42.89254" lon="-0.54678">
        <ele>1331</ele>
        <time>2013-04-24T05:54:40Z</time>
      </trkpt>
      <trkpt lat="42.89258" lon="-0.54673">
        <ele>1332</ele>
        <time>2013-04-24T05:54:52Z</time>
      </trkpt>
      <trkpt lat="42.89266" lon="-0.54665">
        <ele>1332</ele>
        <time>2013-04-24T05:54:59Z</time>
      </trkpt>
      <trkpt lat="42.89269" lon="-0.54662">
        <ele>1333</ele>
        <time>2013-04-24T05:55:01Z</time>
      </trkpt>
      <trkpt lat="42.89279" lon="-0.54645">
        <ele>1333</ele>
        <time>2013-04-24T05:55:15Z</time>
      </trkpt>
      <trkpt lat="42.8929" lon="-0.5463">
        <ele>1335</ele>
        <time>2013-04-24T05:55:30Z</time>
      </trkpt>
      <trkpt lat="42.89293" lon="-0.54615">
        <ele>1337</ele>
        <time>2013-04-24T05:55:41Z</time>
      </trkpt>
      <trkpt lat="42.89295" lon="-0.54603">
        <ele>1338</ele>
        <time>2013-04-24T05:55:49Z</time>
      </trkpt>
      <trkpt lat="42.89303" lon="-0.54589">
        <ele>1340</ele>
        <time>2013-04-24T05:56:02Z</time>
      </trkpt>
      <trkpt lat="42.89301" lon="-0.54576">
        <ele>1341</ele>
        <time>2013-04-24T05:56:14Z</time>
      </trkpt>
      <trkpt lat="42.89298" lon="-0.54563">
        <ele>1344</ele>
        <time>2013-04-24T05:56:24Z</time>
      </trkpt>
      <trkpt lat="42.89295" lon="-0.54559">
        <ele>1344</ele>
        <time>2013-04-24T05:56:27Z</time>
      </trkpt>
      <trkpt lat="42.89289" lon="-0.54546">
        <ele>1346</ele>
        <time>2013-04-24T05:56:39Z</time>
      </trkpt>
      <trkpt lat="42.89288" lon="-0.54543">
        <ele>1346</ele>
        <time>2013-04-24T05:56:42Z</time>
      </trkpt>
      <trkpt lat="42.89288" lon="-0.54535">
        <ele>1348</ele>
        <time>2013-04-24T05:56:51Z</time>
      </trkpt>
      <trkpt lat="42.8929" lon="-0.54528">
        <ele>1350</ele>
        <time>2013-04-24T05:57:00Z</time>
      </trkpt>
      <trkpt lat="42.89292" lon="-0.54521">
        <ele>1353</ele>
        <time>2013-04-24T05:57:12Z</time>
      </trkpt>
      <trkpt lat="42.89293" lon="-0.54517">
        <ele>1353</ele>
        <time>2013-04-24T05:57:17Z</time>
      </trkpt>
      <trkpt lat="42.89295" lon="-0.54505">
        <ele>1355</ele>
        <time>2013-04-24T05:57:28Z</time>
      </trkpt>
      <trkpt lat="42.89297" lon="-0.54485">
        <ele>1357</ele>
        <time>2013-04-24T05:57:39Z</time>
      </trkpt>
      <trkpt lat="42.89298" lon="-0.54476">
        <ele>1357</ele>
        <time>2013-04-24T05:57:47Z</time>
      </trkpt>
      <trkpt lat="42.89299" lon="-0.54469">
        <ele>1358</ele>
        <time>2013-04-24T05:57:52Z</time>
      </trkpt>
      <trkpt lat="42.89303" lon="-0.54459">
        <ele>1358</ele>
        <time>2013-04-24T05:58:00Z</time>
      </trkpt>
      <trkpt lat="42.89305" lon="-0.54457">
        <ele>1359</ele>
        <time>2013-04-24T05:58:04Z</time>
      </trkpt>
      <trkpt lat="42.89313" lon="-0.54445">
        <ele>1361</ele>
        <time>2013-04-24T05:58:17Z</time>
      </trkpt>
      <trkpt lat="42.89314" lon="-0.54442">
        <ele>1361</ele>
        <time>2013-04-24T05:58:20Z</time>
      </trkpt>
      <trkpt lat="42.89319" lon="-0.54431">
        <ele>1363</ele>
        <time>2013-04-24T05:58:32Z</time>
      </trkpt>
      <trkpt lat="42.89321" lon="-0.54426">
        <ele>1363</ele>
        <time>2013-04-24T05:58:37Z</time>
      </trkpt>
      <trkpt lat="42.89323" lon="-0.54414">
        <ele>1365</ele>
        <time>2013-04-24T05:58:45Z</time>
      </trkpt>
      <trkpt lat="42.89329" lon="-0.54391">
        <ele>1366</ele>
        <time>2013-04-24T05:59:03Z</time>
      </trkpt>
      <trkpt lat="42.89335" lon="-0.54373">
        <ele>1368</ele>
        <time>2013-04-24T05:59:18Z</time>
      </trkpt>
      <trkpt lat="42.89338" lon="-0.54359">
        <ele>1370</ele>
        <time>2013-04-24T05:59:32Z</time>
      </trkpt>
      <trkpt lat="42.89339" lon="-0.54355">
        <ele>1371</ele>
        <time>2013-04-24T05:59:36Z</time>
      </trkpt>
      <trkpt lat="42.89342" lon="-0.54341">
        <ele>1374</ele>
        <time>2013-04-24T05:59:50Z</time>
      </trkpt>
      <trkpt lat="42.89342" lon="-0.54328">
        <ele>1375</ele>
        <time>2013-04-24T06:00:04Z</time>
      </trkpt>
      <trkpt lat="42.8934" lon="-0.54313">
        <ele>1380</ele>
        <time>2013-04-24T06:00:19Z</time>
      </trkpt>
      <trkpt lat="42.89343" lon="-0.54299">
        <ele>1381</ele>
        <time>2013-04-24T06:00:33Z</time>
      </trkpt>
      <trkpt lat="42.89346" lon="-0.54293">
        <ele>1382</ele>
        <time>2013-04-24T06:00:40Z</time>
      </trkpt>
      <trkpt lat="42.8935" lon="-0.54278">
        <ele>1385</ele>
        <time>2013-04-24T06:00:56Z</time>
      </trkpt>
      <trkpt lat="42.89352" lon="-0.54265">
        <ele>1387</ele>
        <time>2013-04-24T06:01:11Z</time>
      </trkpt>
      <trkpt lat="42.89354" lon="-0.54244">
        <ele>1389</ele>
        <time>2013-04-24T06:01:29Z</time>
      </trkpt>
      <trkpt lat="42.89356" lon="-0.54229">
        <ele>1391</ele>
        <time>2013-04-24T06:01:44Z</time>
      </trkpt>
      <trkpt lat="42.8936" lon="-0.54215">
        <ele>1394</ele>
        <time>2013-04-24T06:01:58Z</time>
      </trkpt>
      <trkpt lat="42.8936" lon="-0.54193">
        <ele>1396</ele>
        <time>2013-04-24T06:02:14Z</time>
      </trkpt>
      <trkpt lat="42.89363" lon="-0.54178">
        <ele>1399</ele>
        <time>2013-04-24T06:02:32Z</time>
      </trkpt>
      <trkpt lat="42.89361" lon="-0.5417">
        <ele>1400</ele>
        <time>2013-04-24T06:02:45Z</time>
      </trkpt>
      <trkpt lat="42.89359" lon="-0.54148">
        <ele>1400</ele>
        <time>2013-04-24T06:03:02Z</time>
      </trkpt>
      <trkpt lat="42.89358" lon="-0.54132">
        <ele>1401</ele>
        <time>2013-04-24T06:03:16Z</time>
      </trkpt>
      <trkpt lat="42.89357" lon="-0.54115">
        <ele>1402</ele>
        <time>2013-04-24T06:03:31Z</time>
      </trkpt>
      <trkpt lat="42.89355" lon="-0.54103">
        <ele>1401</ele>
        <time>2013-04-24T06:03:43Z</time>
      </trkpt>
      <trkpt lat="42.89348" lon="-0.54082">
        <ele>1401</ele>
        <time>2013-04-24T06:03:58Z</time>
      </trkpt>
      <trkpt lat="42.89342" lon="-0.54066">
        <ele>1400</ele>
        <time>2013-04-24T06:04:10Z</time>
      </trkpt>
      <trkpt lat="42.89342" lon="-0.54065">
        <ele>1400</ele>
        <time>2013-04-24T06:04:11Z</time>
      </trkpt>
      <trkpt lat="42.89338" lon="-0.54055">
        <ele>1400</ele>
        <time>2013-04-24T06:04:25Z</time>
      </trkpt>
      <trkpt lat="42.89334" lon="-0.54048">
        <ele>1400</ele>
        <time>2013-04-24T06:04:37Z</time>
      </trkpt>
      <trkpt lat="42.89332" lon="-0.54038">
        <ele>1400</ele>
        <time>2013-04-24T06:04:45Z</time>
      </trkpt>
      <trkpt lat="42.89329" lon="-0.54031">
        <ele>1401</ele>
        <time>2013-04-24T06:04:52Z</time>
      </trkpt>
      <trkpt lat="42.89327" lon="-0.54025">
        <ele>1403</ele>
        <time>2013-04-24T06:05:00Z</time>
      </trkpt>
      <trkpt lat="42.89326" lon="-0.54022">
        <ele>1401</ele>
        <time>2013-04-24T06:05:07Z</time>
      </trkpt>
      <trkpt lat="42.89325" lon="-0.54015">
        <ele>1402</ele>
        <time>2013-04-24T06:05:15Z</time>
      </trkpt>
      <trkpt lat="42.89321" lon="-0.54008">
        <ele>1401</ele>
        <time>2013-04-24T06:05:21Z</time>
      </trkpt>
      <trkpt lat="42.89316" lon="-0.53998">
        <ele>1402</ele>
        <time>2013-04-24T06:05:30Z</time>
      </trkpt>
      <trkpt lat="42.89311" lon="-0.53991">
        <ele>1403</ele>
        <time>2013-04-24T06:05:37Z</time>
      </trkpt>
      <trkpt lat="42.89308" lon="-0.53986">
        <ele>1402</ele>
        <time>2013-04-24T06:05:45Z</time>
      </trkpt>
      <trkpt lat="42.89303" lon="-0.53979">
        <ele>1404</ele>
        <time>2013-04-24T06:05:53Z</time>
      </trkpt>
      <trkpt lat="42.893" lon="-0.53976">
        <ele>1405</ele>
        <time>2013-04-24T06:06:00Z</time>
      </trkpt>
      <trkpt lat="42.89296" lon="-0.53974">
        <ele>1406</ele>
        <time>2013-04-24T06:06:06Z</time>
      </trkpt>
      <trkpt lat="42.89293" lon="-0.5397">
        <ele>1407</ele>
        <time>2013-04-24T06:06:14Z</time>
      </trkpt>
      <trkpt lat="42.89286" lon="-0.53968">
        <ele>1408</ele>
        <time>2013-04-24T06:06:22Z</time>
      </trkpt>
      <trkpt lat="42.89283" lon="-0.53966">
        <ele>1407</ele>
        <time>2013-04-24T06:06:25Z</time>
      </trkpt>
      <trkpt lat="42.8928" lon="-0.5396">
        <ele>1405</ele>
        <time>2013-04-24T06:06:31Z</time>
      </trkpt>
      <trkpt lat="42.89277" lon="-0.53958">
        <ele>1405</ele>
        <time>2013-04-24T06:06:33Z</time>
      </trkpt>
      <trkpt lat="42.89273" lon="-0.53952">
        <ele>1403</ele>
        <time>2013-04-24T06:06:41Z</time>
      </trkpt>
      <trkpt lat="42.8927" lon="-0.53949">
        <ele>1401</ele>
        <time>2013-04-24T06:06:46Z</time>
      </trkpt>
      <trkpt lat="42.89266" lon="-0.53944">
        <ele>1400</ele>
        <time>2013-04-24T06:06:52Z</time>
      </trkpt>
      <trkpt lat="42.89261" lon="-0.53939">
        <ele>1399</ele>
        <time>2013-04-24T06:06:57Z</time>
      </trkpt>
      <trkpt lat="42.89253" lon="-0.53936">
        <ele>1397</ele>
        <time>2013-04-24T06:07:05Z</time>
      </trkpt>
      <trkpt lat="42.89247" lon="-0.53935">
        <ele>1398</ele>
        <time>2013-04-24T06:07:09Z</time>
      </trkpt>
      <trkpt lat="42.89238" lon="-0.53924">
        <ele>1397</ele>
        <time>2013-04-24T06:07:18Z</time>
      </trkpt>
      <trkpt lat="42.89237" lon="-0.53923">
        <ele>1397</ele>
        <time>2013-04-24T06:07:19Z</time>
      </trkpt>
      <trkpt lat="42.89233" lon="-0.53914">
        <ele>1395</ele>
        <time>2013-04-24T06:07:26Z</time>
      </trkpt>
      <trkpt lat="42.89231" lon="-0.53907">
        <ele>1396</ele>
        <time>2013-04-24T06:07:33Z</time>
      </trkpt>
      <trkpt lat="42.8923" lon="-0.53899">
        <ele>1397</ele>
        <time>2013-04-24T06:07:40Z</time>
      </trkpt>
      <trkpt lat="42.89228" lon="-0.53892">
        <ele>1397</ele>
        <time>2013-04-24T06:07:47Z</time>
      </trkpt>
      <trkpt lat="42.89232" lon="-0.53883">
        <ele>1398</ele>
        <time>2013-04-24T06:07:53Z</time>
      </trkpt>
      <trkpt lat="42.89236" lon="-0.53877">
        <ele>1397</ele>
        <time>2013-04-24T06:08:00Z</time>
      </trkpt>
      <trkpt lat="42.89239" lon="-0.53868">
        <ele>1397</ele>
        <time>2013-04-24T06:08:07Z</time>
      </trkpt>
      <trkpt lat="42.89243" lon="-0.53862">
        <ele>1397</ele>
        <time>2013-04-24T06:08:12Z</time>
      </trkpt>
      <trkpt lat="42.8925" lon="-0.53851">
        <ele>1396</ele>
        <time>2013-04-24T06:08:20Z</time>
      </trkpt>
      <trkpt lat="42.89258" lon="-0.53846">
        <ele>1396</ele>
        <time>2013-04-24T06:08:27Z</time>
      </trkpt>
      <trkpt lat="42.89259" lon="-0.53844">
        <ele>1396</ele>
        <time>2013-04-24T06:08:29Z</time>
      </trkpt>
      <trkpt lat="42.89265" lon="-0.53836">
        <ele>1396</ele>
        <time>2013-04-24T06:08:36Z</time>
      </trkpt>
      <trkpt lat="42.89272" lon="-0.53825">
        <ele>1394</ele>
        <time>2013-04-24T06:08:45Z</time>
      </trkpt>
      <trkpt lat="42.89274" lon="-0.53821">
        <ele>1393</ele>
        <time>2013-04-24T06:08:49Z</time>
      </trkpt>
      <trkpt lat="42.89277" lon="-0.53812">
        <ele>1392</ele>
        <time>2013-04-24T06:08:57Z</time>
      </trkpt>
      <trkpt lat="42.89281" lon="-0.53804">
        <ele>1391</ele>
        <time>2013-04-24T06:09:04Z</time>
      </trkpt>
      <trkpt lat="42.89286" lon="-0.53797">
        <ele>1391</ele>
        <time>2013-04-24T06:09:10Z</time>
      </trkpt>
      <trkpt lat="42.89286" lon="-0.53796">
        <ele>1391</ele>
        <time>2013-04-24T06:09:11Z</time>
      </trkpt>
      <trkpt lat="42.8929" lon="-0.53788">
        <ele>1390</ele>
        <time>2013-04-24T06:09:17Z</time>
      </trkpt>
      <trkpt lat="42.89291" lon="-0.5378">
        <ele>1389</ele>
        <time>2013-04-24T06:09:24Z</time>
      </trkpt>
      <trkpt lat="42.89295" lon="-0.53771">
        <ele>1387</ele>
        <time>2013-04-24T06:09:30Z</time>
      </trkpt>
      <trkpt lat="42.89297" lon="-0.53765">
        <ele>1386</ele>
        <time>2013-04-24T06:09:34Z</time>
      </trkpt>
      <trkpt lat="42.893" lon="-0.53754">
        <ele>1385</ele>
        <time>2013-04-24T06:09:41Z</time>
      </trkpt>
      <trkpt lat="42.89302" lon="-0.53741">
        <ele>1385</ele>
        <time>2013-04-24T06:09:50Z</time>
      </trkpt>
      <trkpt lat="42.89304" lon="-0.53732">
        <ele>1384</ele>
        <time>2013-04-24T06:09:56Z</time>
      </trkpt>
      <trkpt lat="42.89305" lon="-0.53727">
        <ele>1384</ele>
        <time>2013-04-24T06:09:59Z</time>
      </trkpt>
      <trkpt lat="42.89307" lon="-0.53716">
        <ele>1384</ele>
        <time>2013-04-24T06:10:06Z</time>
      </trkpt>
      <trkpt lat="42.89309" lon="-0.53707">
        <ele>1384</ele>
        <time>2013-04-24T06:10:12Z</time>
      </trkpt>
      <trkpt lat="42.8931" lon="-0.537">
        <ele>1383</ele>
        <time>2013-04-24T06:10:18Z</time>
      </trkpt>
      <trkpt lat="42.89313" lon="-0.53692">
        <ele>1382</ele>
        <time>2013-04-24T06:10:25Z</time>
      </trkpt>
      <trkpt lat="42.89317" lon="-0.53682">
        <ele>1383</ele>
        <time>2013-04-24T06:10:32Z</time>
      </trkpt>
      <trkpt lat="42.89322" lon="-0.53674">
        <ele>1383</ele>
        <time>2013-04-24T06:10:39Z</time>
      </trkpt>
      <trkpt lat="42.89326" lon="-0.53663">
        <ele>1384</ele>
        <time>2013-04-24T06:10:46Z</time>
      </trkpt>
      <trkpt lat="42.89327" lon="-0.53657">
        <ele>1385</ele>
        <time>2013-04-24T06:10:53Z</time>
      </trkpt>
      <trkpt lat="42.8933" lon="-0.53654">
        <ele>1388</ele>
        <time>2013-04-24T06:11:01Z</time>
      </trkpt>
      <trkpt lat="42.89332" lon="-0.53649">
        <ele>1388</ele>
        <time>2013-04-24T06:11:07Z</time>
      </trkpt>
      <trkpt lat="42.89335" lon="-0.53645">
        <ele>1389</ele>
        <time>2013-04-24T06:11:11Z</time>
      </trkpt>
      <trkpt lat="42.8934" lon="-0.53641">
        <ele>1390</ele>
        <time>2013-04-24T06:11:19Z</time>
      </trkpt>
      <trkpt lat="42.89342" lon="-0.53638">
        <ele>1390</ele>
        <time>2013-04-24T06:11:23Z</time>
      </trkpt>
      <trkpt lat="42.89351" lon="-0.53637">
        <ele>1390</ele>
        <time>2013-04-24T06:11:29Z</time>
      </trkpt>
      <trkpt lat="42.89361" lon="-0.53634">
        <ele>1390</ele>
        <time>2013-04-24T06:11:37Z</time>
      </trkpt>
      <trkpt lat="42.89368" lon="-0.53629">
        <ele>1391</ele>
        <time>2013-04-24T06:11:43Z</time>
      </trkpt>
      <trkpt lat="42.89371" lon="-0.53628">
        <ele>1391</ele>
        <time>2013-04-24T06:11:49Z</time>
      </trkpt>
      <trkpt lat="42.89379" lon="-0.53623">
        <ele>1392</ele>
        <time>2013-04-24T06:11:56Z</time>
      </trkpt>
      <trkpt lat="42.89381" lon="-0.53623">
        <ele>1393</ele>
        <time>2013-04-24T06:12:03Z</time>
      </trkpt>
      <trkpt lat="42.89385" lon="-0.5362">
        <ele>1394</ele>
        <time>2013-04-24T06:12:09Z</time>
      </trkpt>
      <trkpt lat="42.8939" lon="-0.53618">
        <ele>1395</ele>
        <time>2013-04-24T06:12:16Z</time>
      </trkpt>
      <trkpt lat="42.89395" lon="-0.53618">
        <ele>1396</ele>
        <time>2013-04-24T06:12:21Z</time>
      </trkpt>
      <trkpt lat="42.89403" lon="-0.53617">
        <ele>1398</ele>
        <time>2013-04-24T06:12:29Z</time>
      </trkpt>
      <trkpt lat="42.89408" lon="-0.53613">
        <ele>1398</ele>
        <time>2013-04-24T06:12:35Z</time>
      </trkpt>
      <trkpt lat="42.89414" lon="-0.53613">
        <ele>1400</ele>
        <time>2013-04-24T06:12:41Z</time>
      </trkpt>
      <trkpt lat="42.89416" lon="-0.53613">
        <ele>1400</ele>
        <time>2013-04-24T06:12:44Z</time>
      </trkpt>
      <trkpt lat="42.89426" lon="-0.53612">
        <ele>1401</ele>
        <time>2013-04-24T06:12:51Z</time>
      </trkpt>
      <trkpt lat="42.89436" lon="-0.53606">
        <ele>1404</ele>
        <time>2013-04-24T06:13:02Z</time>
      </trkpt>
      <trkpt lat="42.89441" lon="-0.53602">
        <ele>1406</ele>
        <time>2013-04-24T06:13:10Z</time>
      </trkpt>
      <trkpt lat="42.89446" lon="-0.53601">
        <ele>1407</ele>
        <time>2013-04-24T06:13:18Z</time>
      </trkpt>
      <trkpt lat="42.89447" lon="-0.53601">
        <ele>1407</ele>
        <time>2013-04-24T06:13:19Z</time>
      </trkpt>
      <trkpt lat="42.89451" lon="-0.53599">
        <ele>1409</ele>
        <time>2013-04-24T06:13:28Z</time>
      </trkpt>
      <trkpt lat="42.89453" lon="-0.53598">
        <ele>1411</ele>
        <time>2013-04-24T06:13:34Z</time>
      </trkpt>
      <trkpt lat="42.89455" lon="-0.536">
        <ele>1412</ele>
        <time>2013-04-24T06:13:42Z</time>
      </trkpt>
      <trkpt lat="42.89458" lon="-0.536">
        <ele>1413</ele>
        <time>2013-04-24T06:13:48Z</time>
      </trkpt>
      <trkpt lat="42.8946" lon="-0.53599">
        <ele>1414</ele>
        <time>2013-04-24T06:13:55Z</time>
      </trkpt>
      <trkpt lat="42.89462" lon="-0.53593">
        <ele>1416</ele>
        <time>2013-04-24T06:14:01Z</time>
      </trkpt>
      <trkpt lat="42.89461" lon="-0.5359">
        <ele>1416</ele>
        <time>2013-04-24T06:14:04Z</time>
      </trkpt>
      <trkpt lat="42.8946" lon="-0.53587">
        <ele>1416</ele>
        <time>2013-04-24T06:14:06Z</time>
      </trkpt>
      <trkpt lat="42.8946" lon="-0.53578">
        <ele>1418</ele>
        <time>2013-04-24T06:14:13Z</time>
      </trkpt>
      <trkpt lat="42.89463" lon="-0.53573">
        <ele>1419</ele>
        <time>2013-04-24T06:14:21Z</time>
      </trkpt>
      <trkpt lat="42.89468" lon="-0.53565">
        <ele>1419</ele>
        <time>2013-04-24T06:14:28Z</time>
      </trkpt>
      <trkpt lat="42.89471" lon="-0.5356">
        <ele>1418</ele>
        <time>2013-04-24T06:14:32Z</time>
      </trkpt>
      <trkpt lat="42.89476" lon="-0.53556">
        <ele>1417</ele>
        <time>2013-04-24T06:14:38Z</time>
      </trkpt>
      <trkpt lat="42.89482" lon="-0.5355">
        <ele>1416</ele>
        <time>2013-04-24T06:14:46Z</time>
      </trkpt>
      <trkpt lat="42.8949" lon="-0.53545">
        <ele>1416</ele>
        <time>2013-04-24T06:14:55Z</time>
      </trkpt>
      <trkpt lat="42.89493" lon="-0.53541">
        <ele>1414</ele>
        <time>2013-04-24T06:15:02Z</time>
      </trkpt>
      <trkpt lat="42.89494" lon="-0.5354">
        <ele>1415</ele>
        <time>2013-04-24T06:15:03Z</time>
      </trkpt>
      <trkpt lat="42.89505" lon="-0.53538">
        <ele>1414</ele>
        <time>2013-04-24T06:15:11Z</time>
      </trkpt>
      <trkpt lat="42.89515" lon="-0.53536">
        <ele>1413</ele>
        <time>2013-04-24T06:15:18Z</time>
      </trkpt>
      <trkpt lat="42.89521" lon="-0.53535">
        <ele>1412</ele>
        <time>2013-04-24T06:15:25Z</time>
      </trkpt>
      <trkpt lat="42.89532" lon="-0.53535">
        <ele>1411</ele>
        <time>2013-04-24T06:15:34Z</time>
      </trkpt>
      <trkpt lat="42.89539" lon="-0.53533">
        <ele>1410</ele>
        <time>2013-04-24T06:15:41Z</time>
      </trkpt>
      <trkpt lat="42.89546" lon="-0.53534">
        <ele>1409</ele>
        <time>2013-04-24T06:15:48Z</time>
      </trkpt>
      <trkpt lat="42.89551" lon="-0.53532">
        <ele>1409</ele>
        <time>2013-04-24T06:15:54Z</time>
      </trkpt>
      <trkpt lat="42.89553" lon="-0.53532">
        <ele>1409</ele>
        <time>2013-04-24T06:15:57Z</time>
      </trkpt>
      <trkpt lat="42.89559" lon="-0.53533">
        <ele>1408</ele>
        <time>2013-04-24T06:16:03Z</time>
      </trkpt>
      <trkpt lat="42.89569" lon="-0.53534">
        <ele>1409</ele>
        <time>2013-04-24T06:16:11Z</time>
      </trkpt>
      <trkpt lat="42.89579" lon="-0.53538">
        <ele>1409</ele>
        <time>2013-04-24T06:16:18Z</time>
      </trkpt>
      <trkpt lat="42.89588" lon="-0.53541">
        <ele>1409</ele>
        <time>2013-04-24T06:16:26Z</time>
      </trkpt>
      <trkpt lat="42.89593" lon="-0.53541">
        <ele>1409</ele>
        <time>2013-04-24T06:16:36Z</time>
      </trkpt>
      <trkpt lat="42.89601" lon="-0.53538">
        <ele>1410</ele>
        <time>2013-04-24T06:16:43Z</time>
      </trkpt>
      <trkpt lat="42.89608" lon="-0.53537">
        <ele>1411</ele>
        <time>2013-04-24T06:16:50Z</time>
      </trkpt>
      <trkpt lat="42.89611" lon="-0.53537">
        <ele>1411</ele>
        <time>2013-04-24T06:16:55Z</time>
      </trkpt>
      <trkpt lat="42.89618" lon="-0.53541">
        <ele>1412</ele>
        <time>2013-04-24T06:17:02Z</time>
      </trkpt>
      <trkpt lat="42.8962" lon="-0.53544">
        <ele>1413</ele>
        <time>2013-04-24T06:17:07Z</time>
      </trkpt>
      <trkpt lat="42.89622" lon="-0.53546">
        <ele>1414</ele>
        <time>2013-04-24T06:17:15Z</time>
      </trkpt>
      <trkpt lat="42.89625" lon="-0.53548">
        <ele>1414</ele>
        <time>2013-04-24T06:17:22Z</time>
      </trkpt>
      <trkpt lat="42.89628" lon="-0.53545">
        <ele>1414</ele>
        <time>2013-04-24T06:17:29Z</time>
      </trkpt>
      <trkpt lat="42.89631" lon="-0.53545">
        <ele>1414</ele>
        <time>2013-04-24T06:17:38Z</time>
      </trkpt>
      <trkpt lat="42.89635" lon="-0.53545">
        <ele>1414</ele>
        <time>2013-04-24T06:17:47Z</time>
      </trkpt>
      <trkpt lat="42.89639" lon="-0.53545">
        <ele>1415</ele>
        <time>2013-04-24T06:17:56Z</time>
      </trkpt>
      <trkpt lat="42.89639" lon="-0.53543">
        <ele>1415</ele>
        <time>2013-04-24T06:17:58Z</time>
      </trkpt>
      <trkpt lat="42.89641" lon="-0.53534">
        <ele>1417</ele>
        <time>2013-04-24T06:18:05Z</time>
      </trkpt>
      <trkpt lat="42.89641" lon="-0.53528">
        <ele>1416</ele>
        <time>2013-04-24T06:18:12Z</time>
      </trkpt>
      <trkpt lat="42.89639" lon="-0.53529">
        <ele>1417</ele>
        <time>2013-04-24T06:18:18Z</time>
      </trkpt>
      <trkpt lat="42.89641" lon="-0.53526">
        <ele>1416</ele>
        <time>2013-04-24T06:18:25Z</time>
      </trkpt>
      <trkpt lat="42.89642" lon="-0.53519">
        <ele>1415</ele>
        <time>2013-04-24T06:18:31Z</time>
      </trkpt>
      <trkpt lat="42.89641" lon="-0.53513">
        <ele>1415</ele>
        <time>2013-04-24T06:18:39Z</time>
      </trkpt>
      <trkpt lat="42.8964" lon="-0.53511">
        <ele>1415</ele>
        <time>2013-04-24T06:18:41Z</time>
      </trkpt>
      <trkpt lat="42.8964" lon="-0.53505">
        <ele>1414</ele>
        <time>2013-04-24T06:18:47Z</time>
      </trkpt>
      <trkpt lat="42.89641" lon="-0.53501">
        <ele>1415</ele>
        <time>2013-04-24T06:18:53Z</time>
      </trkpt>
      <trkpt lat="42.89641" lon="-0.53496">
        <ele>1415</ele>
        <time>2013-04-24T06:18:58Z</time>
      </trkpt>
      <trkpt lat="42.8964" lon="-0.53491">
        <ele>1415</ele>
        <time>2013-04-24T06:19:04Z</time>
      </trkpt>
      <trkpt lat="42.89641" lon="-0.53488">
        <ele>1415</ele>
        <time>2013-04-24T06:19:10Z</time>
      </trkpt>
      <trkpt lat="42.89641" lon="-0.53486">
        <ele>1415</ele>
        <time>2013-04-24T06:19:12Z</time>
      </trkpt>
      <trkpt lat="42.89641" lon="-0.53483">
        <ele>1416</ele>
        <time>2013-04-24T06:19:16Z</time>
      </trkpt>
      <trkpt lat="42.89643" lon="-0.53473">
        <ele>1417</ele>
        <time>2013-04-24T06:19:23Z</time>
      </trkpt>
      <trkpt lat="42.89642" lon="-0.5347">
        <ele>1417</ele>
        <time>2013-04-24T06:19:26Z</time>
      </trkpt>
      <trkpt lat="42.89641" lon="-0.53455">
        <ele>1418</ele>
        <time>2013-04-24T06:19:34Z</time>
      </trkpt>
      <trkpt lat="42.89641" lon="-0.5345">
        <ele>1418</ele>
        <time>2013-04-24T06:19:37Z</time>
      </trkpt>
      <trkpt lat="42.89642" lon="-0.5344">
        <ele>1419</ele>
        <time>2013-04-24T06:19:45Z</time>
      </trkpt>
      <trkpt lat="42.89647" lon="-0.53435">
        <ele>1421</ele>
        <time>2013-04-24T06:19:53Z</time>
      </trkpt>
      <trkpt lat="42.89655" lon="-0.53431">
        <ele>1420</ele>
        <time>2013-04-24T06:20:01Z</time>
      </trkpt>
      <trkpt lat="42.8966" lon="-0.53423">
        <ele>1420</ele>
        <time>2013-04-24T06:20:08Z</time>
      </trkpt>
      <trkpt lat="42.89664" lon="-0.53415">
        <ele>1419</ele>
        <time>2013-04-24T06:20:16Z</time>
      </trkpt>
      <trkpt lat="42.89669" lon="-0.53408">
        <ele>1418</ele>
        <time>2013-04-24T06:20:22Z</time>
      </trkpt>
      <trkpt lat="42.89675" lon="-0.534">
        <ele>1419</ele>
        <time>2013-04-24T06:20:30Z</time>
      </trkpt>
      <trkpt lat="42.8968" lon="-0.53393">
        <ele>1420</ele>
        <time>2013-04-24T06:20:37Z</time>
      </trkpt>
      <trkpt lat="42.89684" lon="-0.5338">
        <ele>1419</ele>
        <time>2013-04-24T06:20:47Z</time>
      </trkpt>
      <trkpt lat="42.89693" lon="-0.53369">
        <ele>1418</ele>
        <time>2013-04-24T06:20:58Z</time>
      </trkpt>
      <trkpt lat="42.89701" lon="-0.53357">
        <ele>1417</ele>
        <time>2013-04-24T06:21:08Z</time>
      </trkpt>
      <trkpt lat="42.89706" lon="-0.53349">
        <ele>1416</ele>
        <time>2013-04-24T06:21:15Z</time>
      </trkpt>
      <trkpt lat="42.89712" lon="-0.53342">
        <ele>1417</ele>
        <time>2013-04-24T06:21:23Z</time>
      </trkpt>
      <trkpt lat="42.89716" lon="-0.53336">
        <ele>1417</ele>
        <time>2013-04-24T06:21:29Z</time>
      </trkpt>
      <trkpt lat="42.89722" lon="-0.53327">
        <ele>1417</ele>
        <time>2013-04-24T06:21:37Z</time>
      </trkpt>
      <trkpt lat="42.89729" lon="-0.53321">
        <ele>1417</ele>
        <time>2013-04-24T06:21:44Z</time>
      </trkpt>
      <trkpt lat="42.89737" lon="-0.53318">
        <ele>1416</ele>
        <time>2013-04-24T06:21:53Z</time>
      </trkpt>
      <trkpt lat="42.89742" lon="-0.53319">
        <ele>1416</ele>
        <time>2013-04-24T06:22:00Z</time>
      </trkpt>
      <trkpt lat="42.89745" lon="-0.53318">
        <ele>1415</ele>
        <time>2013-04-24T06:22:06Z</time>
      </trkpt>
      <trkpt lat="42.89747" lon="-0.53317">
        <ele>1415</ele>
        <time>2013-04-24T06:22:08Z</time>
      </trkpt>
      <trkpt lat="42.89757" lon="-0.53313">
        <ele>1415</ele>
        <time>2013-04-24T06:22:17Z</time>
      </trkpt>
      <trkpt lat="42.89766" lon="-0.53309">
        <ele>1414</ele>
        <time>2013-04-24T06:22:25Z</time>
      </trkpt>
      <trkpt lat="42.89773" lon="-0.53307">
        <ele>1414</ele>
        <time>2013-04-24T06:22:33Z</time>
      </trkpt>
      <trkpt lat="42.89778" lon="-0.53309">
        <ele>1414</ele>
        <time>2013-04-24T06:22:41Z</time>
      </trkpt>
      <trkpt lat="42.89782" lon="-0.53309">
        <ele>1413</ele>
        <time>2013-04-24T06:22:48Z</time>
      </trkpt>
      <trkpt lat="42.89785" lon="-0.53307">
        <ele>1413</ele>
        <time>2013-04-24T06:22:56Z</time>
      </trkpt>
      <trkpt lat="42.89789" lon="-0.53302">
        <ele>1413</ele>
        <time>2013-04-24T06:23:05Z</time>
      </trkpt>
      <trkpt lat="42.89794" lon="-0.53296">
        <ele>1412</ele>
        <time>2013-04-24T06:23:09Z</time>
      </trkpt>
      <trkpt lat="42.89805" lon="-0.53287">
        <ele>1411</ele>
        <time>2013-04-24T06:23:19Z</time>
      </trkpt>
      <trkpt lat="42.89808" lon="-0.53282">
        <ele>1413</ele>
        <time>2013-04-24T06:23:25Z</time>
      </trkpt>
      <trkpt lat="42.89811" lon="-0.53278">
        <ele>1411</ele>
        <time>2013-04-24T06:23:28Z</time>
      </trkpt>
      <trkpt lat="42.89815" lon="-0.53276">
        <ele>1410</ele>
        <time>2013-04-24T06:23:32Z</time>
      </trkpt>
      <trkpt lat="42.8982" lon="-0.53269">
        <ele>1413</ele>
        <time>2013-04-24T06:23:40Z</time>
      </trkpt>
      <trkpt lat="42.89821" lon="-0.53265">
        <ele>1414</ele>
        <time>2013-04-24T06:23:46Z</time>
      </trkpt>
      <trkpt lat="42.89823" lon="-0.53264">
        <ele>1415</ele>
        <time>2013-04-24T06:23:55Z</time>
      </trkpt>
      <trkpt lat="42.89825" lon="-0.53263">
        <ele>1415</ele>
        <time>2013-04-24T06:24:00Z</time>
      </trkpt>
      <trkpt lat="42.89828" lon="-0.53265">
        <ele>1415</ele>
        <time>2013-04-24T06:24:07Z</time>
      </trkpt>
      <trkpt lat="42.89827" lon="-0.53263">
        <ele>1416</ele>
        <time>2013-04-24T06:24:13Z</time>
      </trkpt>
      <trkpt lat="42.89826" lon="-0.53263">
        <ele>1416</ele>
        <time>2013-04-24T06:24:14Z</time>
      </trkpt>
      <trkpt lat="42.89819" lon="-0.53264">
        <ele>1414</ele>
        <time>2013-04-24T06:24:21Z</time>
      </trkpt>
      <trkpt lat="42.89812" lon="-0.53259">
        <ele>1415</ele>
        <time>2013-04-24T06:24:28Z</time>
      </trkpt>
      <trkpt lat="42.89808" lon="-0.53253">
        <ele>1415</ele>
        <time>2013-04-24T06:24:33Z</time>
      </trkpt>
      <trkpt lat="42.89803" lon="-0.53244">
        <ele>1416</ele>
        <time>2013-04-24T06:24:40Z</time>
      </trkpt>
      <trkpt lat="42.89793" lon="-0.53233">
        <ele>1416</ele>
        <time>2013-04-24T06:24:49Z</time>
      </trkpt>
      <trkpt lat="42.89789" lon="-0.53225">
        <ele>1418</ele>
        <time>2013-04-24T06:24:56Z</time>
      </trkpt>
      <trkpt lat="42.89786" lon="-0.53219">
        <ele>1420</ele>
        <time>2013-04-24T06:25:03Z</time>
      </trkpt>
      <trkpt lat="42.89782" lon="-0.53212">
        <ele>1421</ele>
        <time>2013-04-24T06:25:11Z</time>
      </trkpt>
      <trkpt lat="42.89778" lon="-0.53201">
        <ele>1423</ele>
        <time>2013-04-24T06:25:19Z</time>
      </trkpt>
      <trkpt lat="42.89769" lon="-0.5319">
        <ele>1423</ele>
        <time>2013-04-24T06:25:26Z</time>
      </trkpt>
      <trkpt lat="42.89767" lon="-0.53181">
        <ele>1425</ele>
        <time>2013-04-24T06:25:34Z</time>
      </trkpt>
      <trkpt lat="42.89762" lon="-0.53174">
        <ele>1426</ele>
        <time>2013-04-24T06:25:41Z</time>
      </trkpt>
      <trkpt lat="42.89761" lon="-0.5317">
        <ele>1414</ele>
        <time>2013-04-24T06:25:46Z</time>
      </trkpt>
      <trkpt lat="42.89761" lon="-0.53169">
        <ele>1416</ele>
        <time>2013-04-24T06:25:47Z</time>
      </trkpt>
      <trkpt lat="42.89764" lon="-0.53161">
        <ele>1419</ele>
        <time>2013-04-24T06:25:55Z</time>
      </trkpt>
      <trkpt lat="42.89765" lon="-0.53161">
        <ele>1419</ele>
        <time>2013-04-24T06:25:56Z</time>
      </trkpt>
      <trkpt lat="42.8977" lon="-0.53168">
        <ele>1421</ele>
        <time>2013-04-24T06:26:04Z</time>
      </trkpt>
      <trkpt lat="42.89773" lon="-0.53167">
        <ele>1423</ele>
        <time>2013-04-24T06:26:11Z</time>
      </trkpt>
      <trkpt lat="42.89775" lon="-0.53167">
        <ele>1424</ele>
        <time>2013-04-24T06:26:18Z</time>
      </trkpt>
      <trkpt lat="42.89781" lon="-0.53173">
        <ele>1426</ele>
        <time>2013-04-24T06:26:28Z</time>
      </trkpt>
      <trkpt lat="42.89784" lon="-0.53177">
        <ele>1428</ele>
        <time>2013-04-24T06:26:35Z</time>
      </trkpt>
      <trkpt lat="42.89788" lon="-0.53182">
        <ele>1430</ele>
        <time>2013-04-24T06:26:45Z</time>
      </trkpt>
      <trkpt lat="42.89791" lon="-0.53184">
        <ele>1432</ele>
        <time>2013-04-24T06:26:54Z</time>
      </trkpt>
      <trkpt lat="42.89792" lon="-0.53181">
        <ele>1432</ele>
        <time>2013-04-24T06:26:59Z</time>
      </trkpt>
      <trkpt lat="42.89795" lon="-0.53174">
        <ele>1434</ele>
        <time>2013-04-24T06:27:08Z</time>
      </trkpt>
      <trkpt lat="42.89797" lon="-0.53165">
        <ele>1436</ele>
        <time>2013-04-24T06:27:18Z</time>
      </trkpt>
      <trkpt lat="42.89797" lon="-0.53157">
        <ele>1439</ele>
        <time>2013-04-24T06:27:27Z</time>
      </trkpt>
      <trkpt lat="42.89799" lon="-0.5315">
        <ele>1439</ele>
        <time>2013-04-24T06:27:36Z</time>
      </trkpt>
      <trkpt lat="42.89802" lon="-0.53149">
        <ele>1440</ele>
        <time>2013-04-24T06:27:42Z</time>
      </trkpt>
      <trkpt lat="42.89806" lon="-0.53151">
        <ele>1441</ele>
        <time>2013-04-24T06:27:49Z</time>
      </trkpt>
      <trkpt lat="42.89809" lon="-0.53152">
        <ele>1443</ele>
        <time>2013-04-24T06:27:56Z</time>
      </trkpt>
      <trkpt lat="42.89812" lon="-0.53156">
        <ele>1444</ele>
        <time>2013-04-24T06:28:05Z</time>
      </trkpt>
      <trkpt lat="42.89814" lon="-0.53152">
        <ele>1445</ele>
        <time>2013-04-24T06:28:12Z</time>
      </trkpt>
      <trkpt lat="42.89815" lon="-0.53146">
        <ele>1446</ele>
        <time>2013-04-24T06:28:17Z</time>
      </trkpt>
      <trkpt lat="42.89818" lon="-0.53144">
        <ele>1448</ele>
        <time>2013-04-24T06:28:26Z</time>
      </trkpt>
      <trkpt lat="42.89822" lon="-0.53147">
        <ele>1450</ele>
        <time>2013-04-24T06:28:36Z</time>
      </trkpt>
      <trkpt lat="42.89823" lon="-0.5314">
        <ele>1452</ele>
        <time>2013-04-24T06:28:43Z</time>
      </trkpt>
      <trkpt lat="42.89826" lon="-0.53133">
        <ele>1453</ele>
        <time>2013-04-24T06:28:52Z</time>
      </trkpt>
      <trkpt lat="42.8983" lon="-0.53139">
        <ele>1454</ele>
        <time>2013-04-24T06:29:01Z</time>
      </trkpt>
      <trkpt lat="42.89834" lon="-0.53144">
        <ele>1457</ele>
        <time>2013-04-24T06:29:08Z</time>
      </trkpt>
      <trkpt lat="42.89837" lon="-0.5315">
        <ele>1458</ele>
        <time>2013-04-24T06:29:17Z</time>
      </trkpt>
      <trkpt lat="42.8984" lon="-0.53153">
        <ele>1458</ele>
        <time>2013-04-24T06:29:24Z</time>
      </trkpt>
      <trkpt lat="42.89844" lon="-0.5315">
        <ele>1460</ele>
        <time>2013-04-24T06:29:32Z</time>
      </trkpt>
      <trkpt lat="42.89844" lon="-0.53146">
        <ele>1464</ele>
        <time>2013-04-24T06:29:37Z</time>
      </trkpt>
      <trkpt lat="42.89844" lon="-0.53145">
        <ele>1462</ele>
        <time>2013-04-24T06:29:38Z</time>
      </trkpt>
      <trkpt lat="42.89848" lon="-0.53143">
        <ele>1462</ele>
        <time>2013-04-24T06:29:46Z</time>
      </trkpt>
      <trkpt lat="42.89849" lon="-0.53138">
        <ele>1465</ele>
        <time>2013-04-24T06:29:55Z</time>
      </trkpt>
      <trkpt lat="42.89848" lon="-0.53136">
        <ele>1463</ele>
        <time>2013-04-24T06:29:58Z</time>
      </trkpt>
      <trkpt lat="42.89849" lon="-0.53133">
        <ele>1466</ele>
        <time>2013-04-24T06:30:02Z</time>
      </trkpt>
      <trkpt lat="42.89849" lon="-0.53131">
        <ele>1467</ele>
        <time>2013-04-24T06:30:04Z</time>
      </trkpt>
      <trkpt lat="42.89848" lon="-0.53135">
        <ele>1466</ele>
        <time>2013-04-24T06:30:07Z</time>
      </trkpt>
      <trkpt lat="42.89849" lon="-0.53127">
        <ele>1469</ele>
        <time>2013-04-24T06:30:08Z</time>
      </trkpt>
      <trkpt lat="42.89848" lon="-0.53119">
        <ele>1469</ele>
        <time>2013-04-24T06:30:18Z</time>
      </trkpt>
      <trkpt lat="42.8985" lon="-0.53116">
        <ele>1470</ele>
        <time>2013-04-24T06:30:25Z</time>
      </trkpt>
      <trkpt lat="42.89853" lon="-0.53113">
        <ele>1471</ele>
        <time>2013-04-24T06:30:33Z</time>
      </trkpt>
      <trkpt lat="42.89853" lon="-0.53111">
        <ele>1474</ele>
        <time>2013-04-24T06:30:35Z</time>
      </trkpt>
      <trkpt lat="42.89853" lon="-0.5311">
        <ele>1469</ele>
        <time>2013-04-24T06:30:36Z</time>
      </trkpt>
      <trkpt lat="42.89853" lon="-0.53109">
        <ele>1473</ele>
        <time>2013-04-24T06:30:37Z</time>
      </trkpt>
      <trkpt lat="42.89854" lon="-0.53105">
        <ele>1473</ele>
        <time>2013-04-24T06:30:43Z</time>
      </trkpt>
      <trkpt lat="42.89854" lon="-0.53101">
        <ele>1475</ele>
        <time>2013-04-24T06:30:50Z</time>
      </trkpt>
      <trkpt lat="42.89856" lon="-0.531">
        <ele>1476</ele>
        <time>2013-04-24T06:30:56Z</time>
      </trkpt>
      <trkpt lat="42.89859" lon="-0.53102">
        <ele>1477</ele>
        <time>2013-04-24T06:31:03Z</time>
      </trkpt>
      <trkpt lat="42.89855" lon="-0.53092">
        <ele>1479</ele>
        <time>2013-04-24T06:31:12Z</time>
      </trkpt>
      <trkpt lat="42.89856" lon="-0.53084">
        <ele>1481</ele>
        <time>2013-04-24T06:31:21Z</time>
      </trkpt>
      <trkpt lat="42.89857" lon="-0.53078">
        <ele>1482</ele>
        <time>2013-04-24T06:31:29Z</time>
      </trkpt>
      <trkpt lat="42.89858" lon="-0.53073">
        <ele>1484</ele>
        <time>2013-04-24T06:31:38Z</time>
      </trkpt>
      <trkpt lat="42.8986" lon="-0.53071">
        <ele>1485</ele>
        <time>2013-04-24T06:31:44Z</time>
      </trkpt>
      <trkpt lat="42.89862" lon="-0.53073">
        <ele>1486</ele>
        <time>2013-04-24T06:31:51Z</time>
      </trkpt>
      <trkpt lat="42.89865" lon="-0.53079">
        <ele>1488</ele>
        <time>2013-04-24T06:31:59Z</time>
      </trkpt>
      <trkpt lat="42.89869" lon="-0.53085">
        <ele>1489</ele>
        <time>2013-04-24T06:32:08Z</time>
      </trkpt>
      <trkpt lat="42.89873" lon="-0.53091">
        <ele>1490</ele>
        <time>2013-04-24T06:32:17Z</time>
      </trkpt>
      <trkpt lat="42.89873" lon="-0.53093">
        <ele>1491</ele>
        <time>2013-04-24T06:32:20Z</time>
      </trkpt>
      <trkpt lat="42.89876" lon="-0.53102">
        <ele>1492</ele>
        <time>2013-04-24T06:32:28Z</time>
      </trkpt>
      <trkpt lat="42.8988" lon="-0.53107">
        <ele>1494</ele>
        <time>2013-04-24T06:32:35Z</time>
      </trkpt>
      <trkpt lat="42.89882" lon="-0.53111">
        <ele>1494</ele>
        <time>2013-04-24T06:32:41Z</time>
      </trkpt>
      <trkpt lat="42.89885" lon="-0.53113">
        <ele>1494</ele>
        <time>2013-04-24T06:32:47Z</time>
      </trkpt>
      <trkpt lat="42.89888" lon="-0.53115">
        <ele>1496</ele>
        <time>2013-04-24T06:32:53Z</time>
      </trkpt>
      <trkpt lat="42.89891" lon="-0.53116">
        <ele>1497</ele>
        <time>2013-04-24T06:33:00Z</time>
      </trkpt>
      <trkpt lat="42.89892" lon="-0.53117">
        <ele>1498</ele>
        <time>2013-04-24T06:33:04Z</time>
      </trkpt>
      <trkpt lat="42.89894" lon="-0.5312">
        <ele>1498</ele>
        <time>2013-04-24T06:33:11Z</time>
      </trkpt>
      <trkpt lat="42.89897" lon="-0.53124">
        <ele>1498</ele>
        <time>2013-04-24T06:33:17Z</time>
      </trkpt>
      <trkpt lat="42.89897" lon="-0.53128">
        <ele>1498</ele>
        <time>2013-04-24T06:33:23Z</time>
      </trkpt>
      <trkpt lat="42.89899" lon="-0.53129">
        <ele>1499</ele>
        <time>2013-04-24T06:33:30Z</time>
      </trkpt>
      <trkpt lat="42.899" lon="-0.5313">
        <ele>1500</ele>
        <time>2013-04-24T06:33:34Z</time>
      </trkpt>
      <trkpt lat="42.89904" lon="-0.5313">
        <ele>1501</ele>
        <time>2013-04-24T06:33:41Z</time>
      </trkpt>
      <trkpt lat="42.89909" lon="-0.53132">
        <ele>1503</ele>
        <time>2013-04-24T06:33:47Z</time>
      </trkpt>
      <trkpt lat="42.89913" lon="-0.53136">
        <ele>1504</ele>
        <time>2013-04-24T06:33:56Z</time>
      </trkpt>
      <trkpt lat="42.89914" lon="-0.53137">
        <ele>1505</ele>
        <time>2013-04-24T06:34:02Z</time>
      </trkpt>
      <trkpt lat="42.89917" lon="-0.5314">
        <ele>1507</ele>
        <time>2013-04-24T06:34:09Z</time>
      </trkpt>
      <trkpt lat="42.89919" lon="-0.53141">
        <ele>1507</ele>
        <time>2013-04-24T06:34:13Z</time>
      </trkpt>
      <trkpt lat="42.89923" lon="-0.53145">
        <ele>1508</ele>
        <time>2013-04-24T06:34:18Z</time>
      </trkpt>
      <trkpt lat="42.89926" lon="-0.53148">
        <ele>1510</ele>
        <time>2013-04-24T06:34:25Z</time>
      </trkpt>
      <trkpt lat="42.8993" lon="-0.53149">
        <ele>1511</ele>
        <time>2013-04-24T06:34:31Z</time>
      </trkpt>
      <trkpt lat="42.89934" lon="-0.5315">
        <ele>1511</ele>
        <time>2013-04-24T06:34:36Z</time>
      </trkpt>
      <trkpt lat="42.89937" lon="-0.53153">
        <ele>1513</ele>
        <time>2013-04-24T06:34:43Z</time>
      </trkpt>
      <trkpt lat="42.89937" lon="-0.53158">
        <ele>1514</ele>
        <time>2013-04-24T06:34:49Z</time>
      </trkpt>
      <trkpt lat="42.89938" lon="-0.53164">
        <ele>1515</ele>
        <time>2013-04-24T06:34:57Z</time>
      </trkpt>
      <trkpt lat="42.89942" lon="-0.53165">
        <ele>1516</ele>
        <time>2013-04-24T06:35:04Z</time>
      </trkpt>
      <trkpt lat="42.89943" lon="-0.53158">
        <ele>1518</ele>
        <time>2013-04-24T06:35:12Z</time>
      </trkpt>
      <trkpt lat="42.89944" lon="-0.53161">
        <ele>1519</ele>
        <time>2013-04-24T06:35:19Z</time>
      </trkpt>
      <trkpt lat="42.89947" lon="-0.53163">
        <ele>1520</ele>
        <time>2013-04-24T06:35:26Z</time>
      </trkpt>
      <trkpt lat="42.89951" lon="-0.53163">
        <ele>1522</ele>
        <time>2013-04-24T06:35:33Z</time>
      </trkpt>
      <trkpt lat="42.89954" lon="-0.53165">
        <ele>1523</ele>
        <time>2013-04-24T06:35:41Z</time>
      </trkpt>
      <trkpt lat="42.89955" lon="-0.53166">
        <ele>1524</ele>
        <time>2013-04-24T06:35:49Z</time>
      </trkpt>
      <trkpt lat="42.89959" lon="-0.53169">
        <ele>1525</ele>
        <time>2013-04-24T06:35:56Z</time>
      </trkpt>
      <trkpt lat="42.89962" lon="-0.53168">
        <ele>1526</ele>
        <time>2013-04-24T06:36:03Z</time>
      </trkpt>
      <trkpt lat="42.89966" lon="-0.53169">
        <ele>1528</ele>
        <time>2013-04-24T06:36:11Z</time>
      </trkpt>
      <trkpt lat="42.89969" lon="-0.53168">
        <ele>1530</ele>
        <time>2013-04-24T06:36:19Z</time>
      </trkpt>
      <trkpt lat="42.89972" lon="-0.53165">
        <ele>1531</ele>
        <time>2013-04-24T06:36:27Z</time>
      </trkpt>
      <trkpt lat="42.89975" lon="-0.53169">
        <ele>1532</ele>
        <time>2013-04-24T06:36:35Z</time>
      </trkpt>
      <trkpt lat="42.89979" lon="-0.53168">
        <ele>1533</ele>
        <time>2013-04-24T06:36:43Z</time>
      </trkpt>
      <trkpt lat="42.89978" lon="-0.53165">
        <ele>1533</ele>
        <time>2013-04-24T06:36:50Z</time>
      </trkpt>
      <trkpt lat="42.89981" lon="-0.53162">
        <ele>1534</ele>
        <time>2013-04-24T06:36:58Z</time>
      </trkpt>
      <trkpt lat="42.89978" lon="-0.53157">
        <ele>1535</ele>
        <time>2013-04-24T06:37:04Z</time>
      </trkpt>
      <trkpt lat="42.89976" lon="-0.53153">
        <ele>1536</ele>
        <time>2013-04-24T06:37:11Z</time>
      </trkpt>
      <trkpt lat="42.89975" lon="-0.53151">
        <ele>1536</ele>
        <time>2013-04-24T06:37:18Z</time>
      </trkpt>
      <trkpt lat="42.89974" lon="-0.53149">
        <ele>1536</ele>
        <time>2013-04-24T06:37:27Z</time>
      </trkpt>
      <trkpt lat="42.89971" lon="-0.53148">
        <ele>1537</ele>
        <time>2013-04-24T06:37:35Z</time>
      </trkpt>
      <trkpt lat="42.89968" lon="-0.53142">
        <ele>1537</ele>
        <time>2013-04-24T06:37:45Z</time>
      </trkpt>
      <trkpt lat="42.89968" lon="-0.53138">
        <ele>1539</ele>
        <time>2013-04-24T06:37:52Z</time>
      </trkpt>
      <trkpt lat="42.89967" lon="-0.53136">
        <ele>1539</ele>
        <time>2013-04-24T06:37:53Z</time>
      </trkpt>
      <trkpt lat="42.89962" lon="-0.53133">
        <ele>1539</ele>
        <time>2013-04-24T06:38:00Z</time>
      </trkpt>
      <trkpt lat="42.89964" lon="-0.53134">
        <ele>1541</ele>
        <time>2013-04-24T06:38:08Z</time>
      </trkpt>
      <trkpt lat="42.89967" lon="-0.53134">
        <ele>1542</ele>
        <time>2013-04-24T06:38:16Z</time>
      </trkpt>
      <trkpt lat="42.89969" lon="-0.53132">
        <ele>1543</ele>
        <time>2013-04-24T06:38:22Z</time>
      </trkpt>
      <trkpt lat="42.8997" lon="-0.53131">
        <ele>1544</ele>
        <time>2013-04-24T06:38:29Z</time>
      </trkpt>
      <trkpt lat="42.89968" lon="-0.53127">
        <ele>1545</ele>
        <time>2013-04-24T06:38:37Z</time>
      </trkpt>
      <trkpt lat="42.89968" lon="-0.53126">
        <ele>1546</ele>
        <time>2013-04-24T06:38:46Z</time>
      </trkpt>
      <trkpt lat="42.89968" lon="-0.5312">
        <ele>1548</ele>
        <time>2013-04-24T06:38:50Z</time>
      </trkpt>
      <trkpt lat="42.89967" lon="-0.53113">
        <ele>1549</ele>
        <time>2013-04-24T06:38:58Z</time>
      </trkpt>
      <trkpt lat="42.89965" lon="-0.5311">
        <ele>1550</ele>
        <time>2013-04-24T06:39:06Z</time>
      </trkpt>
      <trkpt lat="42.89968" lon="-0.53111">
        <ele>1552</ele>
        <time>2013-04-24T06:39:13Z</time>
      </trkpt>
      <trkpt lat="42.89967" lon="-0.53107">
        <ele>1552</ele>
        <time>2013-04-24T06:39:18Z</time>
      </trkpt>
      <trkpt lat="42.89965" lon="-0.53102">
        <ele>1553</ele>
        <time>2013-04-24T06:39:23Z</time>
      </trkpt>
      <trkpt lat="42.89963" lon="-0.53097">
        <ele>1553</ele>
        <time>2013-04-24T06:39:31Z</time>
      </trkpt>
      <trkpt lat="42.89962" lon="-0.53096">
        <ele>1554</ele>
        <time>2013-04-24T06:39:45Z</time>
      </trkpt>
      <trkpt lat="42.89961" lon="-0.53091">
        <ele>1554</ele>
        <time>2013-04-24T06:39:52Z</time>
      </trkpt>
      <trkpt lat="42.8996" lon="-0.53086">
        <ele>1554</ele>
        <time>2013-04-24T06:39:57Z</time>
      </trkpt>
      <trkpt lat="42.89961" lon="-0.53079">
        <ele>1555</ele>
        <time>2013-04-24T06:40:03Z</time>
      </trkpt>
      <trkpt lat="42.89962" lon="-0.53067">
        <ele>1556</ele>
        <time>2013-04-24T06:40:11Z</time>
      </trkpt>
      <trkpt lat="42.8996" lon="-0.53062">
        <ele>1557</ele>
        <time>2013-04-24T06:40:17Z</time>
      </trkpt>
      <trkpt lat="42.89959" lon="-0.53054">
        <ele>1558</ele>
        <time>2013-04-24T06:40:25Z</time>
      </trkpt>
      <trkpt lat="42.89959" lon="-0.53051">
        <ele>1558</ele>
        <time>2013-04-24T06:40:31Z</time>
      </trkpt>
      <trkpt lat="42.89958" lon="-0.5305">
        <ele>1560</ele>
        <time>2013-04-24T06:40:37Z</time>
      </trkpt>
      <trkpt lat="42.89961" lon="-0.53047">
        <ele>1563</ele>
        <time>2013-04-24T06:40:45Z</time>
      </trkpt>
      <trkpt lat="42.89963" lon="-0.53044">
        <ele>1563</ele>
        <time>2013-04-24T06:40:53Z</time>
      </trkpt>
      <trkpt lat="42.89963" lon="-0.53043">
        <ele>1567</ele>
        <time>2013-04-24T06:41:00Z</time>
      </trkpt>
      <trkpt lat="42.89965" lon="-0.53047">
        <ele>1564</ele>
        <time>2013-04-24T06:41:06Z</time>
      </trkpt>
      <trkpt lat="42.89965" lon="-0.53047">
        <ele>1566</ele>
        <time>2013-04-24T06:41:08Z</time>
      </trkpt>
      <trkpt lat="42.89969" lon="-0.53045">
        <ele>1567</ele>
        <time>2013-04-24T06:41:14Z</time>
      </trkpt>
      <trkpt lat="42.8997" lon="-0.53046">
        <ele>1568</ele>
        <time>2013-04-24T06:41:19Z</time>
      </trkpt>
      <trkpt lat="42.89973" lon="-0.53044">
        <ele>1569</ele>
        <time>2013-04-24T06:41:26Z</time>
      </trkpt>
      <trkpt lat="42.89974" lon="-0.53043">
        <ele>1571</ele>
        <time>2013-04-24T06:41:34Z</time>
      </trkpt>
      <trkpt lat="42.89977" lon="-0.53043">
        <ele>1573</ele>
        <time>2013-04-24T06:41:40Z</time>
      </trkpt>
      <trkpt lat="42.8998" lon="-0.53044">
        <ele>1574</ele>
        <time>2013-04-24T06:41:46Z</time>
      </trkpt>
      <trkpt lat="42.89983" lon="-0.53048">
        <ele>1575</ele>
        <time>2013-04-24T06:41:54Z</time>
      </trkpt>
      <trkpt lat="42.89987" lon="-0.53048">
        <ele>1576</ele>
        <time>2013-04-24T06:42:00Z</time>
      </trkpt>
      <trkpt lat="42.89989" lon="-0.53043">
        <ele>1577</ele>
        <time>2013-04-24T06:42:06Z</time>
      </trkpt>
      <trkpt lat="42.89991" lon="-0.53037">
        <ele>1578</ele>
        <time>2013-04-24T06:42:11Z</time>
      </trkpt>
      <trkpt lat="42.89992" lon="-0.5303">
        <ele>1579</ele>
        <time>2013-04-24T06:42:19Z</time>
      </trkpt>
      <trkpt lat="42.89992" lon="-0.53027">
        <ele>1580</ele>
        <time>2013-04-24T06:42:25Z</time>
      </trkpt>
      <trkpt lat="42.89989" lon="-0.53024">
        <ele>1581</ele>
        <time>2013-04-24T06:42:29Z</time>
      </trkpt>
      <trkpt lat="42.89986" lon="-0.53019">
        <ele>1581</ele>
        <time>2013-04-24T06:42:35Z</time>
      </trkpt>
      <trkpt lat="42.89983" lon="-0.53015">
        <ele>1583</ele>
        <time>2013-04-24T06:42:42Z</time>
      </trkpt>
      <trkpt lat="42.89983" lon="-0.53009">
        <ele>1584</ele>
        <time>2013-04-24T06:42:50Z</time>
      </trkpt>
      <trkpt lat="42.89984" lon="-0.53005">
        <ele>1585</ele>
        <time>2013-04-24T06:42:58Z</time>
      </trkpt>
      <trkpt lat="42.89984" lon="-0.53003">
        <ele>1585</ele>
        <time>2013-04-24T06:43:02Z</time>
      </trkpt>
      <trkpt lat="42.89992" lon="-0.53029">
        <ele>1586</ele>
        <time>2013-04-24T06:43:19Z</time>
      </trkpt>
      <trkpt lat="42.89985" lon="-0.52985">
        <ele>1586</ele>
        <time>2013-04-24T06:43:20Z</time>
      </trkpt>
      <trkpt lat="42.89989" lon="-0.52992">
        <ele>1586</ele>
        <time>2013-04-24T06:43:29Z</time>
      </trkpt>
      <trkpt lat="42.89991" lon="-0.52987">
        <ele>1589</ele>
        <time>2013-04-24T06:43:36Z</time>
      </trkpt>
      <trkpt lat="42.89995" lon="-0.52985">
        <ele>1588</ele>
        <time>2013-04-24T06:43:45Z</time>
      </trkpt>
      <trkpt lat="42.89998" lon="-0.52981">
        <ele>1591</ele>
        <time>2013-04-24T06:43:54Z</time>
      </trkpt>
      <trkpt lat="42.90001" lon="-0.52979">
        <ele>1590</ele>
        <time>2013-04-24T06:44:00Z</time>
      </trkpt>
      <trkpt lat="42.90002" lon="-0.52978">
        <ele>1591</ele>
        <time>2013-04-24T06:44:04Z</time>
      </trkpt>
      <trkpt lat="42.89999" lon="-0.52971">
        <ele>1592</ele>
        <time>2013-04-24T06:44:11Z</time>
      </trkpt>
      <trkpt lat="42.89996" lon="-0.52966">
        <ele>1592</ele>
        <time>2013-04-24T06:44:18Z</time>
      </trkpt>
      <trkpt lat="42.89997" lon="-0.52965">
        <ele>1592</ele>
        <time>2013-04-24T06:44:25Z</time>
      </trkpt>
      <trkpt lat="42.89996" lon="-0.52962">
        <ele>1592</ele>
        <time>2013-04-24T06:44:33Z</time>
      </trkpt>
      <trkpt lat="42.89996" lon="-0.52959">
        <ele>1593</ele>
        <time>2013-04-24T06:44:40Z</time>
      </trkpt>
      <trkpt lat="42.89995" lon="-0.5296">
        <ele>1593</ele>
        <time>2013-04-24T06:44:48Z</time>
      </trkpt>
      <trkpt lat="42.89993" lon="-0.52959">
        <ele>1593</ele>
        <time>2013-04-24T06:45:08Z</time>
      </trkpt>
      <trkpt lat="42.89992" lon="-0.52958">
        <ele>1593</ele>
        <time>2013-04-24T06:45:19Z</time>
      </trkpt>
      <trkpt lat="42.89993" lon="-0.52959">
        <ele>1593</ele>
        <time>2013-04-24T06:45:31Z</time>
      </trkpt>
      <trkpt lat="42.89994" lon="-0.52958">
        <ele>1593</ele>
        <time>2013-04-24T06:45:53Z</time>
      </trkpt>
      <trkpt lat="42.89994" lon="-0.52959">
        <ele>1594</ele>
        <time>2013-04-24T06:46:08Z</time>
      </trkpt>
      <trkpt lat="42.89993" lon="-0.52961">
        <ele>1594</ele>
        <time>2013-04-24T06:46:17Z</time>
      </trkpt>
      <trkpt lat="42.89992" lon="-0.52962">
        <ele>1594</ele>
        <time>2013-04-24T06:46:34Z</time>
      </trkpt>
      <trkpt lat="42.89992" lon="-0.52962">
        <ele>1592</ele>
        <time>2013-04-24T06:46:50Z</time>
      </trkpt>
      <trkpt lat="42.89992" lon="-0.52962">
        <ele>1594</ele>
        <time>2013-04-24T06:46:51Z</time>
      </trkpt>
      <trkpt lat="42.89993" lon="-0.52961">
        <ele>1593</ele>
        <time>2013-04-24T06:47:07Z</time>
      </trkpt>
      <trkpt lat="42.89993" lon="-0.5296">
        <ele>1594</ele>
        <time>2013-04-24T06:47:14Z</time>
      </trkpt>
      <trkpt lat="42.89993" lon="-0.5296">
        <ele>1593</ele>
        <time>2013-04-24T06:47:27Z</time>
      </trkpt>
      <trkpt lat="42.89993" lon="-0.52959">
        <ele>1594</ele>
        <time>2013-04-24T06:47:35Z</time>
      </trkpt>
      <trkpt lat="42.89992" lon="-0.52961">
        <ele>1594</ele>
        <time>2013-04-24T06:47:43Z</time>
      </trkpt>
      <trkpt lat="42.89992" lon="-0.52959">
        <ele>1593</ele>
        <time>2013-04-24T06:47:55Z</time>
      </trkpt>
      <trkpt lat="42.89993" lon="-0.52961">
        <ele>1593</ele>
        <time>2013-04-24T06:48:04Z</time>
      </trkpt>
      <trkpt lat="42.89993" lon="-0.52963">
        <ele>1593</ele>
        <time>2013-04-24T06:48:13Z</time>
      </trkpt>
      <trkpt lat="42.89991" lon="-0.52964">
        <ele>1593</ele>
        <time>2013-04-24T06:48:26Z</time>
      </trkpt>
      <trkpt lat="42.89993" lon="-0.52964">
        <ele>1593</ele>
        <time>2013-04-24T06:48:40Z</time>
      </trkpt>
      <trkpt lat="42.89995" lon="-0.52966">
        <ele>1593</ele>
        <time>2013-04-24T06:48:54Z</time>
      </trkpt>
      <trkpt lat="42.89993" lon="-0.52968">
        <ele>1593</ele>
        <time>2013-04-24T06:49:04Z</time>
      </trkpt>
      <trkpt lat="42.89992" lon="-0.52966">
        <ele>1593</ele>
        <time>2013-04-24T06:49:15Z</time>
      </trkpt>
      <trkpt lat="42.89994" lon="-0.52963">
        <ele>1593</ele>
        <time>2013-04-24T06:49:26Z</time>
      </trkpt>
      <trkpt lat="42.89995" lon="-0.52964">
        <ele>1593</ele>
        <time>2013-04-24T06:49:40Z</time>
      </trkpt>
      <trkpt lat="42.89995" lon="-0.52964">
        <ele>1594</ele>
        <time>2013-04-24T06:49:52Z</time>
      </trkpt>
      <trkpt lat="42.89994" lon="-0.52964">
        <ele>1593</ele>
        <time>2013-04-24T06:50:03Z</time>
      </trkpt>
      <trkpt lat="42.89994" lon="-0.52961">
        <ele>1594</ele>
        <time>2013-04-24T06:50:21Z</time>
      </trkpt>
      <trkpt lat="42.89993" lon="-0.52963">
        <ele>1594</ele>
        <time>2013-04-24T06:50:31Z</time>
      </trkpt>
      <trkpt lat="42.89994" lon="-0.52962">
        <ele>1594</ele>
        <time>2013-04-24T06:50:44Z</time>
      </trkpt>
      <trkpt lat="42.89994" lon="-0.52965">
        <ele>1594</ele>
        <time>2013-04-24T06:51:03Z</time>
      </trkpt>
      <trkpt lat="42.89993" lon="-0.52966">
        <ele>1594</ele>
        <time>2013-04-24T06:51:21Z</time>
      </trkpt>
      <trkpt lat="42.89993" lon="-0.52966">
        <ele>1594</ele>
        <time>2013-04-24T06:51:37Z</time>
      </trkpt>
      <trkpt lat="42.89994" lon="-0.52965">
        <ele>1594</ele>
        <time>2013-04-24T06:52:00Z</time>
      </trkpt>
      <trkpt lat="42.89994" lon="-0.52967">
        <ele>1594</ele>
        <time>2013-04-24T06:52:22Z</time>
      </trkpt>
      <trkpt lat="42.89994" lon="-0.52965">
        <ele>1594</ele>
        <time>2013-04-24T06:52:42Z</time>
      </trkpt>
      <trkpt lat="42.89994" lon="-0.52963">
        <ele>1594</ele>
        <time>2013-04-24T06:52:58Z</time>
      </trkpt>
      <trkpt lat="42.89995" lon="-0.52963">
        <ele>1594</ele>
        <time>2013-04-24T06:53:15Z</time>
      </trkpt>
      <trkpt lat="42.89994" lon="-0.52963">
        <ele>1594</ele>
        <time>2013-04-24T06:53:35Z</time>
      </trkpt>
      <trkpt lat="42.89995" lon="-0.52964">
        <ele>1594</ele>
        <time>2013-04-24T06:53:56Z</time>
      </trkpt>
      <trkpt lat="42.89996" lon="-0.52963">
        <ele>1594</ele>
        <time>2013-04-24T06:54:19Z</time>
      </trkpt>
      <trkpt lat="42.89995" lon="-0.52964">
        <ele>1594</ele>
        <time>2013-04-24T06:54:45Z</time>
      </trkpt>
      <trkpt lat="42.89995" lon="-0.52964">
        <ele>1594</ele>
        <time>2013-04-24T06:55:06Z</time>
      </trkpt>
      <trkpt lat="42.89994" lon="-0.52964">
        <ele>1594</ele>
        <time>2013-04-24T06:55:28Z</time>
      </trkpt>
      <trkpt lat="42.89994" lon="-0.52963">
        <ele>1594</ele>
        <time>2013-04-24T06:55:51Z</time>
      </trkpt>
      <trkpt lat="42.89994" lon="-0.52964">
        <ele>1594</ele>
        <time>2013-04-24T06:56:14Z</time>
      </trkpt>
      <trkpt lat="42.89995" lon="-0.52965">
        <ele>1595</ele>
        <time>2013-04-24T06:56:33Z</time>
      </trkpt>
      <trkpt lat="42.89995" lon="-0.52965">
        <ele>1594</ele>
        <time>2013-04-24T06:56:59Z</time>
      </trkpt>
      <trkpt lat="42.89994" lon="-0.52966">
        <ele>1594</ele>
        <time>2013-04-24T06:57:16Z</time>
      </trkpt>
      <trkpt lat="42.89994" lon="-0.52964">
        <ele>1594</ele>
        <time>2013-04-24T06:57:37Z</time>
      </trkpt>
      <trkpt lat="42.89993" lon="-0.52963">
        <ele>1594</ele>
        <time>2013-04-24T06:57:53Z</time>
      </trkpt>
      <trkpt lat="42.89993" lon="-0.52961">
        <ele>1595</ele>
        <time>2013-04-24T06:58:02Z</time>
      </trkpt>
      <trkpt lat="42.89993" lon="-0.52961">
        <ele>1594</ele>
        <time>2013-04-24T06:58:09Z</time>
      </trkpt>
      <trkpt lat="42.89993" lon="-0.52961">
        <ele>1595</ele>
        <time>2013-04-24T06:58:13Z</time>
      </trkpt>
      <trkpt lat="42.89993" lon="-0.52961">
        <ele>1594</ele>
        <time>2013-04-24T06:58:26Z</time>
      </trkpt>
      <trkpt lat="42.89993" lon="-0.52961">
        <ele>1595</ele>
        <time>2013-04-24T06:58:49Z</time>
      </trkpt>
      <trkpt lat="42.89997" lon="-0.52961">
        <ele>1595</ele>
        <time>2013-04-24T06:59:11Z</time>
      </trkpt>
      <trkpt lat="42.89994" lon="-0.52961">
        <ele>1595</ele>
        <time>2013-04-24T06:59:23Z</time>
      </trkpt>
      <trkpt lat="42.89994" lon="-0.52963">
        <ele>1595</ele>
        <time>2013-04-24T06:59:41Z</time>
      </trkpt>
      <trkpt lat="42.89995" lon="-0.52963">
        <ele>1595</ele>
        <time>2013-04-24T07:00:07Z</time>
      </trkpt>
      <trkpt lat="42.89994" lon="-0.52963">
        <ele>1595</ele>
        <time>2013-04-24T07:00:28Z</time>
      </trkpt>
      <trkpt lat="42.89995" lon="-0.52963">
        <ele>1595</ele>
        <time>2013-04-24T07:00:48Z</time>
      </trkpt>
      <trkpt lat="42.89996" lon="-0.52963">
        <ele>1595</ele>
        <time>2013-04-24T07:01:09Z</time>
      </trkpt>
      <trkpt lat="42.89997" lon="-0.52962">
        <ele>1595</ele>
        <time>2013-04-24T07:01:33Z</time>
      </trkpt>
      <trkpt lat="42.89996" lon="-0.52962">
        <ele>1595</ele>
        <time>2013-04-24T07:01:51Z</time>
      </trkpt>
      <trkpt lat="42.89995" lon="-0.52963">
        <ele>1595</ele>
        <time>2013-04-24T07:02:11Z</time>
      </trkpt>
      <trkpt lat="42.89996" lon="-0.52963">
        <ele>1596</ele>
        <time>2013-04-24T07:02:32Z</time>
      </trkpt>
      <trkpt lat="42.89997" lon="-0.52963">
        <ele>1595</ele>
        <time>2013-04-24T07:02:48Z</time>
      </trkpt>
      <trkpt lat="42.89996" lon="-0.52964">
        <ele>1595</ele>
        <time>2013-04-24T07:03:08Z</time>
      </trkpt>
      <trkpt lat="42.89996" lon="-0.52964">
        <ele>1596</ele>
        <time>2013-04-24T07:03:27Z</time>
      </trkpt>
      <trkpt lat="42.89996" lon="-0.52962">
        <ele>1596</ele>
        <time>2013-04-24T07:03:50Z</time>
      </trkpt>
      <trkpt lat="42.89997" lon="-0.52963">
        <ele>1596</ele>
        <time>2013-04-24T07:04:09Z</time>
      </trkpt>
      <trkpt lat="42.89998" lon="-0.52964">
        <ele>1596</ele>
        <time>2013-04-24T07:04:34Z</time>
      </trkpt>
      <trkpt lat="42.89997" lon="-0.52967">
        <ele>1597</ele>
        <time>2013-04-24T07:04:51Z</time>
      </trkpt>
      <trkpt lat="42.89997" lon="-0.52964">
        <ele>1596</ele>
        <time>2013-04-24T07:05:13Z</time>
      </trkpt>
      <trkpt lat="42.89996" lon="-0.52965">
        <ele>1597</ele>
        <time>2013-04-24T07:05:29Z</time>
      </trkpt>
      <trkpt lat="42.89998" lon="-0.52966">
        <ele>1596</ele>
        <time>2013-04-24T07:05:43Z</time>
      </trkpt>
      <trkpt lat="42.89999" lon="-0.52966">
        <ele>1596</ele>
        <time>2013-04-24T07:06:01Z</time>
      </trkpt>
      <trkpt lat="42.89999" lon="-0.52966">
        <ele>1596</ele>
        <time>2013-04-24T07:06:20Z</time>
      </trkpt>
      <trkpt lat="42.89999" lon="-0.52967">
        <ele>1597</ele>
        <time>2013-04-24T07:06:34Z</time>
      </trkpt>
      <trkpt lat="42.89996" lon="-0.52966">
        <ele>1596</ele>
        <time>2013-04-24T07:06:52Z</time>
      </trkpt>
      <trkpt lat="42.89994" lon="-0.52963">
        <ele>1597</ele>
        <time>2013-04-24T07:07:10Z</time>
      </trkpt>
      <trkpt lat="42.89995" lon="-0.52964">
        <ele>1597</ele>
        <time>2013-04-24T07:07:25Z</time>
      </trkpt>
      <trkpt lat="42.89994" lon="-0.52965">
        <ele>1597</ele>
        <time>2013-04-24T07:07:46Z</time>
      </trkpt>
      <trkpt lat="42.89995" lon="-0.52961">
        <ele>1597</ele>
        <time>2013-04-24T07:08:00Z</time>
      </trkpt>
      <trkpt lat="42.89994" lon="-0.52961">
        <ele>1597</ele>
        <time>2013-04-24T07:08:14Z</time>
      </trkpt>
      <trkpt lat="42.89996" lon="-0.52963">
        <ele>1597</ele>
        <time>2013-04-24T07:08:26Z</time>
      </trkpt>
      <trkpt lat="42.89995" lon="-0.52963">
        <ele>1597</ele>
        <time>2013-04-24T07:08:41Z</time>
      </trkpt>
      <trkpt lat="42.89995" lon="-0.52963">
        <ele>1597</ele>
        <time>2013-04-24T07:08:55Z</time>
      </trkpt>
      <trkpt lat="42.89995" lon="-0.52963">
        <ele>1598</ele>
        <time>2013-04-24T07:09:03Z</time>
      </trkpt>
      <trkpt lat="42.89995" lon="-0.52962">
        <ele>1598</ele>
        <time>2013-04-24T07:09:07Z</time>
      </trkpt>
      <trkpt lat="42.89994" lon="-0.52961">
        <ele>1598</ele>
        <time>2013-04-24T07:09:13Z</time>
      </trkpt>
      <trkpt lat="42.89993" lon="-0.52961">
        <ele>1598</ele>
        <time>2013-04-24T07:09:21Z</time>
      </trkpt>
      <trkpt lat="42.89994" lon="-0.52963">
        <ele>1598</ele>
        <time>2013-04-24T07:09:30Z</time>
      </trkpt>
      <trkpt lat="42.89993" lon="-0.52963">
        <ele>1598</ele>
        <time>2013-04-24T07:09:39Z</time>
      </trkpt>
      <trkpt lat="42.89993" lon="-0.52961">
        <ele>1598</ele>
        <time>2013-04-24T07:09:48Z</time>
      </trkpt>
      <trkpt lat="42.89993" lon="-0.52959">
        <ele>1598</ele>
        <time>2013-04-24T07:09:52Z</time>
      </trkpt>
      <trkpt lat="42.90005" lon="-0.52952">
        <ele>1598</ele>
        <time>2013-04-24T07:10:02Z</time>
      </trkpt>
      <trkpt lat="42.90013" lon="-0.52946">
        <ele>1597</ele>
        <time>2013-04-24T07:10:12Z</time>
      </trkpt>
      <trkpt lat="42.90019" lon="-0.52943">
        <ele>1597</ele>
        <time>2013-04-24T07:10:19Z</time>
      </trkpt>
      <trkpt lat="42.90025" lon="-0.52941">
        <ele>1596</ele>
        <time>2013-04-24T07:10:27Z</time>
      </trkpt>
      <trkpt lat="42.90033" lon="-0.52938">
        <ele>1596</ele>
        <time>2013-04-24T07:10:36Z</time>
      </trkpt>
      <trkpt lat="42.9004" lon="-0.52934">
        <ele>1596</ele>
        <time>2013-04-24T07:10:43Z</time>
      </trkpt>
      <trkpt lat="42.90046" lon="-0.52932">
        <ele>1596</ele>
        <time>2013-04-24T07:10:50Z</time>
      </trkpt>
      <trkpt lat="42.90051" lon="-0.52928">
        <ele>1596</ele>
        <time>2013-04-24T07:10:58Z</time>
      </trkpt>
      <trkpt lat="42.90055" lon="-0.52925">
        <ele>1598</ele>
        <time>2013-04-24T07:11:05Z</time>
      </trkpt>
      <trkpt lat="42.90062" lon="-0.52921">
        <ele>1598</ele>
        <time>2013-04-24T07:11:15Z</time>
      </trkpt>
      <trkpt lat="42.90066" lon="-0.52918">
        <ele>1598</ele>
        <time>2013-04-24T07:11:22Z</time>
      </trkpt>
      <trkpt lat="42.90071" lon="-0.52912">
        <ele>1598</ele>
        <time>2013-04-24T07:11:30Z</time>
      </trkpt>
      <trkpt lat="42.90075" lon="-0.52906">
        <ele>1598</ele>
        <time>2013-04-24T07:11:38Z</time>
      </trkpt>
      <trkpt lat="42.90078" lon="-0.52903">
        <ele>1598</ele>
        <time>2013-04-24T07:11:45Z</time>
      </trkpt>
      <trkpt lat="42.90083" lon="-0.529">
        <ele>1599</ele>
        <time>2013-04-24T07:11:52Z</time>
      </trkpt>
      <trkpt lat="42.90089" lon="-0.52896">
        <ele>1599</ele>
        <time>2013-04-24T07:12:01Z</time>
      </trkpt>
      <trkpt lat="42.90094" lon="-0.52892">
        <ele>1599</ele>
        <time>2013-04-24T07:12:10Z</time>
      </trkpt>
      <trkpt lat="42.90095" lon="-0.52893">
        <ele>1599</ele>
        <time>2013-04-24T07:12:12Z</time>
      </trkpt>
      <trkpt lat="42.90097" lon="-0.52893">
        <ele>1599</ele>
        <time>2013-04-24T07:12:15Z</time>
      </trkpt>
      <trkpt lat="42.90098" lon="-0.52892">
        <ele>1599</ele>
        <time>2013-04-24T07:12:17Z</time>
      </trkpt>
      <trkpt lat="42.901" lon="-0.5289">
        <ele>1600</ele>
        <time>2013-04-24T07:12:20Z</time>
      </trkpt>
      <trkpt lat="42.90105" lon="-0.52886">
        <ele>1600</ele>
        <time>2013-04-24T07:12:28Z</time>
      </trkpt>
      <trkpt lat="42.90112" lon="-0.5288">
        <ele>1599</ele>
        <time>2013-04-24T07:12:37Z</time>
      </trkpt>
      <trkpt lat="42.90116" lon="-0.52874">
        <ele>1599</ele>
        <time>2013-04-24T07:12:44Z</time>
      </trkpt>
      <trkpt lat="42.9012" lon="-0.52867">
        <ele>1600</ele>
        <time>2013-04-24T07:12:51Z</time>
      </trkpt>
      <trkpt lat="42.90124" lon="-0.52862">
        <ele>1599</ele>
        <time>2013-04-24T07:12:58Z</time>
      </trkpt>
      <trkpt lat="42.90128" lon="-0.52858">
        <ele>1599</ele>
        <time>2013-04-24T07:13:06Z</time>
      </trkpt>
      <trkpt lat="42.90131" lon="-0.52855">
        <ele>1599</ele>
        <time>2013-04-24T07:13:13Z</time>
      </trkpt>
      <trkpt lat="42.90133" lon="-0.52851">
        <ele>1599</ele>
        <time>2013-04-24T07:13:21Z</time>
      </trkpt>
      <trkpt lat="42.90137" lon="-0.5285">
        <ele>1596</ele>
        <time>2013-04-24T07:13:27Z</time>
      </trkpt>
      <trkpt lat="42.90143" lon="-0.52852">
        <ele>1597</ele>
        <time>2013-04-24T07:13:34Z</time>
      </trkpt>
      <trkpt lat="42.90144" lon="-0.52854">
        <ele>1597</ele>
        <time>2013-04-24T07:13:36Z</time>
      </trkpt>
      <trkpt lat="42.90147" lon="-0.52853">
        <ele>1597</ele>
        <time>2013-04-24T07:13:41Z</time>
      </trkpt>
      <trkpt lat="42.90149" lon="-0.52847">
        <ele>1598</ele>
        <time>2013-04-24T07:13:45Z</time>
      </trkpt>
      <trkpt lat="42.90151" lon="-0.52839">
        <ele>1599</ele>
        <time>2013-04-24T07:13:52Z</time>
      </trkpt>
      <trkpt lat="42.90153" lon="-0.52836">
        <ele>1600</ele>
        <time>2013-04-24T07:14:00Z</time>
      </trkpt>
      <trkpt lat="42.90157" lon="-0.52831">
        <ele>1601</ele>
        <time>2013-04-24T07:14:07Z</time>
      </trkpt>
      <trkpt lat="42.9016" lon="-0.52826">
        <ele>1601</ele>
        <time>2013-04-24T07:14:16Z</time>
      </trkpt>
      <trkpt lat="42.90164" lon="-0.5282">
        <ele>1602</ele>
        <time>2013-04-24T07:14:23Z</time>
      </trkpt>
      <trkpt lat="42.90165" lon="-0.52809">
        <ele>1603</ele>
        <time>2013-04-24T07:14:30Z</time>
      </trkpt>
      <trkpt lat="42.90165" lon="-0.52803">
        <ele>1603</ele>
        <time>2013-04-24T07:14:38Z</time>
      </trkpt>
      <trkpt lat="42.90164" lon="-0.52804">
        <ele>1603</ele>
        <time>2013-04-24T07:14:48Z</time>
      </trkpt>
      <trkpt lat="42.90163" lon="-0.52802">
        <ele>1603</ele>
        <time>2013-04-24T07:14:57Z</time>
      </trkpt>
      <trkpt lat="42.90161" lon="-0.52801">
        <ele>1603</ele>
        <time>2013-04-24T07:15:15Z</time>
      </trkpt>
      <trkpt lat="42.90163" lon="-0.52793">
        <ele>1603</ele>
        <time>2013-04-24T07:15:21Z</time>
      </trkpt>
      <trkpt lat="42.90165" lon="-0.52785">
        <ele>1603</ele>
        <time>2013-04-24T07:15:28Z</time>
      </trkpt>
      <trkpt lat="42.90167" lon="-0.52781">
        <ele>1604</ele>
        <time>2013-04-24T07:15:36Z</time>
      </trkpt>
      <trkpt lat="42.90171" lon="-0.52777">
        <ele>1605</ele>
        <time>2013-04-24T07:15:42Z</time>
      </trkpt>
      <trkpt lat="42.90174" lon="-0.5277">
        <ele>1605</ele>
        <time>2013-04-24T07:15:49Z</time>
      </trkpt>
      <trkpt lat="42.90175" lon="-0.52768">
        <ele>1605</ele>
        <time>2013-04-24T07:15:51Z</time>
      </trkpt>
      <trkpt lat="42.90178" lon="-0.52762">
        <ele>1605</ele>
        <time>2013-04-24T07:15:57Z</time>
      </trkpt>
      <trkpt lat="42.90182" lon="-0.52754">
        <ele>1605</ele>
        <time>2013-04-24T07:16:04Z</time>
      </trkpt>
      <trkpt lat="42.90184" lon="-0.52741">
        <ele>1606</ele>
        <time>2013-04-24T07:16:13Z</time>
      </trkpt>
      <trkpt lat="42.90188" lon="-0.52737">
        <ele>1606</ele>
        <time>2013-04-24T07:16:20Z</time>
      </trkpt>
      <trkpt lat="42.90193" lon="-0.52732">
        <ele>1606</ele>
        <time>2013-04-24T07:16:27Z</time>
      </trkpt>
      <trkpt lat="42.90197" lon="-0.52727">
        <ele>1606</ele>
        <time>2013-04-24T07:16:33Z</time>
      </trkpt>
      <trkpt lat="42.902" lon="-0.52725">
        <ele>1606</ele>
        <time>2013-04-24T07:16:38Z</time>
      </trkpt>
      <trkpt lat="42.90205" lon="-0.52724">
        <ele>1607</ele>
        <time>2013-04-24T07:16:44Z</time>
      </trkpt>
      <trkpt lat="42.90206" lon="-0.52723">
        <ele>1607</ele>
        <time>2013-04-24T07:16:45Z</time>
      </trkpt>
      <trkpt lat="42.9021" lon="-0.52723">
        <ele>1608</ele>
        <time>2013-04-24T07:16:52Z</time>
      </trkpt>
      <trkpt lat="42.90215" lon="-0.52718">
        <ele>1609</ele>
        <time>2013-04-24T07:17:00Z</time>
      </trkpt>
      <trkpt lat="42.90217" lon="-0.5271">
        <ele>1609</ele>
        <time>2013-04-24T07:17:07Z</time>
      </trkpt>
      <trkpt lat="42.90219" lon="-0.52702">
        <ele>1610</ele>
        <time>2013-04-24T07:17:15Z</time>
      </trkpt>
      <trkpt lat="42.9022" lon="-0.52697">
        <ele>1611</ele>
        <time>2013-04-24T07:17:21Z</time>
      </trkpt>
      <trkpt lat="42.90219" lon="-0.5269">
        <ele>1611</ele>
        <time>2013-04-24T07:17:29Z</time>
      </trkpt>
      <trkpt lat="42.90218" lon="-0.52684">
        <ele>1612</ele>
        <time>2013-04-24T07:17:37Z</time>
      </trkpt>
      <trkpt lat="42.90219" lon="-0.5268">
        <ele>1613</ele>
        <time>2013-04-24T07:17:43Z</time>
      </trkpt>
      <trkpt lat="42.9022" lon="-0.52675">
        <ele>1614</ele>
        <time>2013-04-24T07:17:50Z</time>
      </trkpt>
      <trkpt lat="42.90221" lon="-0.52668">
        <ele>1615</ele>
        <time>2013-04-24T07:17:57Z</time>
      </trkpt>
      <trkpt lat="42.90223" lon="-0.52661">
        <ele>1616</ele>
        <time>2013-04-24T07:18:04Z</time>
      </trkpt>
      <trkpt lat="42.90224" lon="-0.52661">
        <ele>1616</ele>
        <time>2013-04-24T07:18:06Z</time>
      </trkpt>
      <trkpt lat="42.90225" lon="-0.52656">
        <ele>1617</ele>
        <time>2013-04-24T07:18:12Z</time>
      </trkpt>
      <trkpt lat="42.90226" lon="-0.52647">
        <ele>1618</ele>
        <time>2013-04-24T07:18:20Z</time>
      </trkpt>
      <trkpt lat="42.90228" lon="-0.52642">
        <ele>1619</ele>
        <time>2013-04-24T07:18:27Z</time>
      </trkpt>
      <trkpt lat="42.9023" lon="-0.52636">
        <ele>1619</ele>
        <time>2013-04-24T07:18:33Z</time>
      </trkpt>
      <trkpt lat="42.9023" lon="-0.5263">
        <ele>1620</ele>
        <time>2013-04-24T07:18:40Z</time>
      </trkpt>
      <trkpt lat="42.9023" lon="-0.52624">
        <ele>1621</ele>
        <time>2013-04-24T07:18:47Z</time>
      </trkpt>
      <trkpt lat="42.90231" lon="-0.52616">
        <ele>1623</ele>
        <time>2013-04-24T07:18:54Z</time>
      </trkpt>
      <trkpt lat="42.90231" lon="-0.52609">
        <ele>1623</ele>
        <time>2013-04-24T07:19:02Z</time>
      </trkpt>
      <trkpt lat="42.90231" lon="-0.52604">
        <ele>1624</ele>
        <time>2013-04-24T07:19:08Z</time>
      </trkpt>
      <trkpt lat="42.90235" lon="-0.52601">
        <ele>1625</ele>
        <time>2013-04-24T07:19:16Z</time>
      </trkpt>
      <trkpt lat="42.90238" lon="-0.52594">
        <ele>1626</ele>
        <time>2013-04-24T07:19:25Z</time>
      </trkpt>
      <trkpt lat="42.9024" lon="-0.52587">
        <ele>1628</ele>
        <time>2013-04-24T07:19:34Z</time>
      </trkpt>
      <trkpt lat="42.90241" lon="-0.52582">
        <ele>1629</ele>
        <time>2013-04-24T07:19:42Z</time>
      </trkpt>
      <trkpt lat="42.90244" lon="-0.52577">
        <ele>1629</ele>
        <time>2013-04-24T07:19:50Z</time>
      </trkpt>
      <trkpt lat="42.90246" lon="-0.5257">
        <ele>1631</ele>
        <time>2013-04-24T07:19:58Z</time>
      </trkpt>
      <trkpt lat="42.90247" lon="-0.52564">
        <ele>1631</ele>
        <time>2013-04-24T07:20:06Z</time>
      </trkpt>
      <trkpt lat="42.90249" lon="-0.52558">
        <ele>1632</ele>
        <time>2013-04-24T07:20:15Z</time>
      </trkpt>
      <trkpt lat="42.9025" lon="-0.52553">
        <ele>1634</ele>
        <time>2013-04-24T07:20:23Z</time>
      </trkpt>
      <trkpt lat="42.9025" lon="-0.52547">
        <ele>1634</ele>
        <time>2013-04-24T07:20:33Z</time>
      </trkpt>
      <trkpt lat="42.90253" lon="-0.52548">
        <ele>1636</ele>
        <time>2013-04-24T07:20:40Z</time>
      </trkpt>
      <trkpt lat="42.90258" lon="-0.52547">
        <ele>1637</ele>
        <time>2013-04-24T07:20:48Z</time>
      </trkpt>
      <trkpt lat="42.90259" lon="-0.52544">
        <ele>1638</ele>
        <time>2013-04-24T07:20:51Z</time>
      </trkpt>
      <trkpt lat="42.9026" lon="-0.5254">
        <ele>1639</ele>
        <time>2013-04-24T07:20:59Z</time>
      </trkpt>
      <trkpt lat="42.90263" lon="-0.52538">
        <ele>1641</ele>
        <time>2013-04-24T07:21:07Z</time>
      </trkpt>
      <trkpt lat="42.90267" lon="-0.5254">
        <ele>1643</ele>
        <time>2013-04-24T07:21:16Z</time>
      </trkpt>
      <trkpt lat="42.90267" lon="-0.5254">
        <ele>1643</ele>
        <time>2013-04-24T07:21:20Z</time>
      </trkpt>
      <trkpt lat="42.90266" lon="-0.52538">
        <ele>1643</ele>
        <time>2013-04-24T07:21:22Z</time>
      </trkpt>
      <trkpt lat="42.90266" lon="-0.52536">
        <ele>1644</ele>
        <time>2013-04-24T07:21:29Z</time>
      </trkpt>
      <trkpt lat="42.9027" lon="-0.52539">
        <ele>1645</ele>
        <time>2013-04-24T07:21:36Z</time>
      </trkpt>
      <trkpt lat="42.90269" lon="-0.52534">
        <ele>1645</ele>
        <time>2013-04-24T07:21:43Z</time>
      </trkpt>
      <trkpt lat="42.90269" lon="-0.5253">
        <ele>1647</ele>
        <time>2013-04-24T07:21:50Z</time>
      </trkpt>
      <trkpt lat="42.90273" lon="-0.5253">
        <ele>1648</ele>
        <time>2013-04-24T07:21:58Z</time>
      </trkpt>
      <trkpt lat="42.90277" lon="-0.5253">
        <ele>1649</ele>
        <time>2013-04-24T07:22:06Z</time>
      </trkpt>
      <trkpt lat="42.9028" lon="-0.52527">
        <ele>1650</ele>
        <time>2013-04-24T07:22:12Z</time>
      </trkpt>
      <trkpt lat="42.9028" lon="-0.52527">
        <ele>1651</ele>
        <time>2013-04-24T07:22:17Z</time>
      </trkpt>
      <trkpt lat="42.9028" lon="-0.52524">
        <ele>1652</ele>
        <time>2013-04-24T07:22:23Z</time>
      </trkpt>
      <trkpt lat="42.90277" lon="-0.52521">
        <ele>1652</ele>
        <time>2013-04-24T07:22:30Z</time>
      </trkpt>
      <trkpt lat="42.90276" lon="-0.52518">
        <ele>1653</ele>
        <time>2013-04-24T07:22:36Z</time>
      </trkpt>
      <trkpt lat="42.90279" lon="-0.52517">
        <ele>1654</ele>
        <time>2013-04-24T07:22:43Z</time>
      </trkpt>
      <trkpt lat="42.90285" lon="-0.52518">
        <ele>1656</ele>
        <time>2013-04-24T07:22:51Z</time>
      </trkpt>
      <trkpt lat="42.9029" lon="-0.5252">
        <ele>1656</ele>
        <time>2013-04-24T07:23:00Z</time>
      </trkpt>
      <trkpt lat="42.90292" lon="-0.52519">
        <ele>1657</ele>
        <time>2013-04-24T07:23:07Z</time>
      </trkpt>
      <trkpt lat="42.9029" lon="-0.52514">
        <ele>1658</ele>
        <time>2013-04-24T07:23:16Z</time>
      </trkpt>
      <trkpt lat="42.90289" lon="-0.52508">
        <ele>1659</ele>
        <time>2013-04-24T07:23:25Z</time>
      </trkpt>
      <trkpt lat="42.90286" lon="-0.52505">
        <ele>1660</ele>
        <time>2013-04-24T07:23:32Z</time>
      </trkpt>
      <trkpt lat="42.90282" lon="-0.52502">
        <ele>1660</ele>
        <time>2013-04-24T07:23:40Z</time>
      </trkpt>
      <trkpt lat="42.90283" lon="-0.52501">
        <ele>1661</ele>
        <time>2013-04-24T07:23:45Z</time>
      </trkpt>
      <trkpt lat="42.90283" lon="-0.52497">
        <ele>1662</ele>
        <time>2013-04-24T07:23:51Z</time>
      </trkpt>
      <trkpt lat="42.90284" lon="-0.52492">
        <ele>1664</ele>
        <time>2013-04-24T07:23:59Z</time>
      </trkpt>
      <trkpt lat="42.90286" lon="-0.52489">
        <ele>1666</ele>
        <time>2013-04-24T07:24:08Z</time>
      </trkpt>
      <trkpt lat="42.90287" lon="-0.52487">
        <ele>1667</ele>
        <time>2013-04-24T07:24:16Z</time>
      </trkpt>
      <trkpt lat="42.90286" lon="-0.52481">
        <ele>1668</ele>
        <time>2013-04-24T07:24:25Z</time>
      </trkpt>
      <trkpt lat="42.90286" lon="-0.52474">
        <ele>1668</ele>
        <time>2013-04-24T07:24:32Z</time>
      </trkpt>
      <trkpt lat="42.90285" lon="-0.52468">
        <ele>1668</ele>
        <time>2013-04-24T07:24:39Z</time>
      </trkpt>
      <trkpt lat="42.90284" lon="-0.52462">
        <ele>1666</ele>
        <time>2013-04-24T07:24:46Z</time>
      </trkpt>
      <trkpt lat="42.9028" lon="-0.52453">
        <ele>1665</ele>
        <time>2013-04-24T07:24:54Z</time>
      </trkpt>
      <trkpt lat="42.90278" lon="-0.52448">
        <ele>1663</ele>
        <time>2013-04-24T07:25:00Z</time>
      </trkpt>
      <trkpt lat="42.90276" lon="-0.52442">
        <ele>1662</ele>
        <time>2013-04-24T07:25:07Z</time>
      </trkpt>
      <trkpt lat="42.90276" lon="-0.52433">
        <ele>1661</ele>
        <time>2013-04-24T07:25:15Z</time>
      </trkpt>
      <trkpt lat="42.90278" lon="-0.52425">
        <ele>1661</ele>
        <time>2013-04-24T07:25:24Z</time>
      </trkpt>
      <trkpt lat="42.90278" lon="-0.52418">
        <ele>1661</ele>
        <time>2013-04-24T07:25:34Z</time>
      </trkpt>
      <trkpt lat="42.9028" lon="-0.52413">
        <ele>1663</ele>
        <time>2013-04-24T07:25:43Z</time>
      </trkpt>
      <trkpt lat="42.90284" lon="-0.52407">
        <ele>1663</ele>
        <time>2013-04-24T07:25:51Z</time>
      </trkpt>
      <trkpt lat="42.90285" lon="-0.524">
        <ele>1664</ele>
        <time>2013-04-24T07:26:00Z</time>
      </trkpt>
      <trkpt lat="42.90284" lon="-0.52387">
        <ele>1663</ele>
        <time>2013-04-24T07:26:12Z</time>
      </trkpt>
      <trkpt lat="42.90284" lon="-0.52381">
        <ele>1665</ele>
        <time>2013-04-24T07:26:22Z</time>
      </trkpt>
      <trkpt lat="42.90283" lon="-0.52375">
        <ele>1664</ele>
        <time>2013-04-24T07:26:29Z</time>
      </trkpt>
      <trkpt lat="42.90282" lon="-0.52368">
        <ele>1665</ele>
        <time>2013-04-24T07:26:37Z</time>
      </trkpt>
      <trkpt lat="42.90282" lon="-0.5236">
        <ele>1666</ele>
        <time>2013-04-24T07:26:44Z</time>
      </trkpt>
      <trkpt lat="42.90282" lon="-0.52356">
        <ele>1666</ele>
        <time>2013-04-24T07:26:50Z</time>
      </trkpt>
      <trkpt lat="42.90283" lon="-0.52348">
        <ele>1666</ele>
        <time>2013-04-24T07:26:59Z</time>
      </trkpt>
      <trkpt lat="42.90282" lon="-0.52338">
        <ele>1666</ele>
        <time>2013-04-24T07:27:08Z</time>
      </trkpt>
      <trkpt lat="42.90281" lon="-0.52327">
        <ele>1667</ele>
        <time>2013-04-24T07:27:18Z</time>
      </trkpt>
      <trkpt lat="42.9028" lon="-0.52325">
        <ele>1668</ele>
        <time>2013-04-24T07:27:21Z</time>
      </trkpt>
      <trkpt lat="42.9028" lon="-0.52321">
        <ele>1668</ele>
        <time>2013-04-24T07:27:25Z</time>
      </trkpt>
      <trkpt lat="42.90278" lon="-0.52318">
        <ele>1668</ele>
        <time>2013-04-24T07:27:27Z</time>
      </trkpt>
      <trkpt lat="42.90277" lon="-0.52315">
        <ele>1668</ele>
        <time>2013-04-24T07:27:30Z</time>
      </trkpt>
      <trkpt lat="42.90276" lon="-0.5231">
        <ele>1669</ele>
        <time>2013-04-24T07:27:37Z</time>
      </trkpt>
      <trkpt lat="42.90276" lon="-0.52307">
        <ele>1669</ele>
        <time>2013-04-24T07:27:45Z</time>
      </trkpt>
      <trkpt lat="42.90275" lon="-0.52301">
        <ele>1670</ele>
        <time>2013-04-24T07:27:52Z</time>
      </trkpt>
      <trkpt lat="42.90272" lon="-0.52294">
        <ele>1672</ele>
        <time>2013-04-24T07:28:01Z</time>
      </trkpt>
      <trkpt lat="42.90271" lon="-0.5229">
        <ele>1673</ele>
        <time>2013-04-24T07:28:08Z</time>
      </trkpt>
      <trkpt lat="42.90269" lon="-0.52284">
        <ele>1674</ele>
        <time>2013-04-24T07:28:16Z</time>
      </trkpt>
      <trkpt lat="42.9027" lon="-0.52282">
        <ele>1675</ele>
        <time>2013-04-24T07:28:23Z</time>
      </trkpt>
      <trkpt lat="42.90272" lon="-0.52281">
        <ele>1676</ele>
        <time>2013-04-24T07:28:31Z</time>
      </trkpt>
      <trkpt lat="42.90274" lon="-0.52279">
        <ele>1678</ele>
        <time>2013-04-24T07:28:40Z</time>
      </trkpt>
      <trkpt lat="42.90275" lon="-0.52278">
        <ele>1679</ele>
        <time>2013-04-24T07:28:46Z</time>
      </trkpt>
      <trkpt lat="42.90272" lon="-0.52274">
        <ele>1680</ele>
        <time>2013-04-24T07:28:53Z</time>
      </trkpt>
      <trkpt lat="42.90269" lon="-0.52272">
        <ele>1680</ele>
        <time>2013-04-24T07:28:59Z</time>
      </trkpt>
      <trkpt lat="42.90266" lon="-0.52267">
        <ele>1680</ele>
        <time>2013-04-24T07:29:08Z</time>
      </trkpt>
      <trkpt lat="42.90266" lon="-0.52262">
        <ele>1681</ele>
        <time>2013-04-24T07:29:14Z</time>
      </trkpt>
      <trkpt lat="42.90266" lon="-0.52261">
        <ele>1681</ele>
        <time>2013-04-24T07:29:15Z</time>
      </trkpt>
      <trkpt lat="42.90264" lon="-0.52257">
        <ele>1682</ele>
        <time>2013-04-24T07:29:21Z</time>
      </trkpt>
      <trkpt lat="42.90262" lon="-0.52252">
        <ele>1683</ele>
        <time>2013-04-24T07:29:28Z</time>
      </trkpt>
      <trkpt lat="42.90259" lon="-0.52248">
        <ele>1684</ele>
        <time>2013-04-24T07:29:35Z</time>
      </trkpt>
      <trkpt lat="42.90258" lon="-0.52241">
        <ele>1685</ele>
        <time>2013-04-24T07:29:43Z</time>
      </trkpt>
      <trkpt lat="42.90257" lon="-0.52235">
        <ele>1686</ele>
        <time>2013-04-24T07:29:53Z</time>
      </trkpt>
      <trkpt lat="42.90259" lon="-0.52235">
        <ele>1688</ele>
        <time>2013-04-24T07:30:00Z</time>
      </trkpt>
      <trkpt lat="42.90266" lon="-0.52234">
        <ele>1689</ele>
        <time>2013-04-24T07:30:09Z</time>
      </trkpt>
      <trkpt lat="42.9027" lon="-0.52234">
        <ele>1690</ele>
        <time>2013-04-24T07:30:16Z</time>
      </trkpt>
      <trkpt lat="42.90272" lon="-0.52229">
        <ele>1692</ele>
        <time>2013-04-24T07:30:24Z</time>
      </trkpt>
      <trkpt lat="42.90271" lon="-0.52225">
        <ele>1693</ele>
        <time>2013-04-24T07:30:29Z</time>
      </trkpt>
      <trkpt lat="42.90267" lon="-0.52218">
        <ele>1693</ele>
        <time>2013-04-24T07:30:37Z</time>
      </trkpt>
      <trkpt lat="42.90267" lon="-0.52215">
        <ele>1694</ele>
        <time>2013-04-24T07:30:43Z</time>
      </trkpt>
      <trkpt lat="42.90269" lon="-0.52211">
        <ele>1695</ele>
        <time>2013-04-24T07:30:51Z</time>
      </trkpt>
      <trkpt lat="42.9027" lon="-0.52206">
        <ele>1696</ele>
        <time>2013-04-24T07:30:58Z</time>
      </trkpt>
      <trkpt lat="42.90272" lon="-0.52203">
        <ele>1697</ele>
        <time>2013-04-24T07:31:06Z</time>
      </trkpt>
      <trkpt lat="42.90275" lon="-0.52204">
        <ele>1698</ele>
        <time>2013-04-24T07:31:13Z</time>
      </trkpt>
      <trkpt lat="42.90277" lon="-0.52206">
        <ele>1699</ele>
        <time>2013-04-24T07:31:20Z</time>
      </trkpt>
      <trkpt lat="42.90281" lon="-0.52208">
        <ele>1700</ele>
        <time>2013-04-24T07:31:30Z</time>
      </trkpt>
      <trkpt lat="42.90283" lon="-0.52206">
        <ele>1701</ele>
        <time>2013-04-24T07:31:36Z</time>
      </trkpt>
      <trkpt lat="42.90282" lon="-0.522">
        <ele>1702</ele>
        <time>2013-04-24T07:31:44Z</time>
      </trkpt>
      <trkpt lat="42.90281" lon="-0.52195">
        <ele>1703</ele>
        <time>2013-04-24T07:31:51Z</time>
      </trkpt>
      <trkpt lat="42.90284" lon="-0.52193">
        <ele>1704</ele>
        <time>2013-04-24T07:31:58Z</time>
      </trkpt>
      <trkpt lat="42.90286" lon="-0.52196">
        <ele>1705</ele>
        <time>2013-04-24T07:32:04Z</time>
      </trkpt>
      <trkpt lat="42.90289" lon="-0.52195">
        <ele>1706</ele>
        <time>2013-04-24T07:32:12Z</time>
      </trkpt>
      <trkpt lat="42.90289" lon="-0.52191">
        <ele>1708</ele>
        <time>2013-04-24T07:32:19Z</time>
      </trkpt>
      <trkpt lat="42.90289" lon="-0.52185">
        <ele>1709</ele>
        <time>2013-04-24T07:32:27Z</time>
      </trkpt>
      <trkpt lat="42.9029" lon="-0.52182">
        <ele>1710</ele>
        <time>2013-04-24T07:32:35Z</time>
      </trkpt>
      <trkpt lat="42.9029" lon="-0.52188">
        <ele>1711</ele>
        <time>2013-04-24T07:32:43Z</time>
      </trkpt>
      <trkpt lat="42.90292" lon="-0.52189">
        <ele>1711</ele>
        <time>2013-04-24T07:32:50Z</time>
      </trkpt>
      <trkpt lat="42.90294" lon="-0.52184">
        <ele>1713</ele>
        <time>2013-04-24T07:32:58Z</time>
      </trkpt>
      <trkpt lat="42.90295" lon="-0.52182">
        <ele>1713</ele>
        <time>2013-04-24T07:33:04Z</time>
      </trkpt>
      <trkpt lat="42.90297" lon="-0.5218">
        <ele>1715</ele>
        <time>2013-04-24T07:33:11Z</time>
      </trkpt>
      <trkpt lat="42.90298" lon="-0.52177">
        <ele>1716</ele>
        <time>2013-04-24T07:33:18Z</time>
      </trkpt>
      <trkpt lat="42.90298" lon="-0.52175">
        <ele>1716</ele>
        <time>2013-04-24T07:33:25Z</time>
      </trkpt>
      <trkpt lat="42.90298" lon="-0.52174">
        <ele>1717</ele>
        <time>2013-04-24T07:33:35Z</time>
      </trkpt>
      <trkpt lat="42.90299" lon="-0.52171">
        <ele>1718</ele>
        <time>2013-04-24T07:33:43Z</time>
      </trkpt>
      <trkpt lat="42.903" lon="-0.5217">
        <ele>1718</ele>
        <time>2013-04-24T07:33:50Z</time>
      </trkpt>
      <trkpt lat="42.90302" lon="-0.52169">
        <ele>1720</ele>
        <time>2013-04-24T07:33:58Z</time>
      </trkpt>
      <trkpt lat="42.90302" lon="-0.52164">
        <ele>1721</ele>
        <time>2013-04-24T07:34:07Z</time>
      </trkpt>
      <trkpt lat="42.90302" lon="-0.52159">
        <ele>1722</ele>
        <time>2013-04-24T07:34:18Z</time>
      </trkpt>
      <trkpt lat="42.90301" lon="-0.52155">
        <ele>1723</ele>
        <time>2013-04-24T07:34:27Z</time>
      </trkpt>
      <trkpt lat="42.90302" lon="-0.52152">
        <ele>1723</ele>
        <time>2013-04-24T07:34:32Z</time>
      </trkpt>
      <trkpt lat="42.90301" lon="-0.52147">
        <ele>1724</ele>
        <time>2013-04-24T07:34:40Z</time>
      </trkpt>
      <trkpt lat="42.90301" lon="-0.52145">
        <ele>1725</ele>
        <time>2013-04-24T07:34:46Z</time>
      </trkpt>
      <trkpt lat="42.90301" lon="-0.52143">
        <ele>1726</ele>
        <time>2013-04-24T07:34:51Z</time>
      </trkpt>
      <trkpt lat="42.90301" lon="-0.52139">
        <ele>1726</ele>
        <time>2013-04-24T07:34:59Z</time>
      </trkpt>
      <trkpt lat="42.90302" lon="-0.52134">
        <ele>1727</ele>
        <time>2013-04-24T07:35:07Z</time>
      </trkpt>
      <trkpt lat="42.90302" lon="-0.52132">
        <ele>1727</ele>
        <time>2013-04-24T07:35:13Z</time>
      </trkpt>
      <trkpt lat="42.90302" lon="-0.52128">
        <ele>1728</ele>
        <time>2013-04-24T07:35:20Z</time>
      </trkpt>
      <trkpt lat="42.90302" lon="-0.52127">
        <ele>1729</ele>
        <time>2013-04-24T07:35:28Z</time>
      </trkpt>
      <trkpt lat="42.90302" lon="-0.52123">
        <ele>1730</ele>
        <time>2013-04-24T07:35:34Z</time>
      </trkpt>
      <trkpt lat="42.90303" lon="-0.52121">
        <ele>1731</ele>
        <time>2013-04-24T07:35:42Z</time>
      </trkpt>
      <trkpt lat="42.90305" lon="-0.52119">
        <ele>1732</ele>
        <time>2013-04-24T07:35:48Z</time>
      </trkpt>
      <trkpt lat="42.90307" lon="-0.52115">
        <ele>1734</ele>
        <time>2013-04-24T07:35:57Z</time>
      </trkpt>
      <trkpt lat="42.90309" lon="-0.52112">
        <ele>1736</ele>
        <time>2013-04-24T07:36:04Z</time>
      </trkpt>
      <trkpt lat="42.90309" lon="-0.52112">
        <ele>1736</ele>
        <time>2013-04-24T07:36:05Z</time>
      </trkpt>
      <trkpt lat="42.90312" lon="-0.52113">
        <ele>1737</ele>
        <time>2013-04-24T07:36:13Z</time>
      </trkpt>
      <trkpt lat="42.90316" lon="-0.5211">
        <ele>1738</ele>
        <time>2013-04-24T07:36:21Z</time>
      </trkpt>
      <trkpt lat="42.90317" lon="-0.52104">
        <ele>1739</ele>
        <time>2013-04-24T07:36:29Z</time>
      </trkpt>
      <trkpt lat="42.90319" lon="-0.52097">
        <ele>1740</ele>
        <time>2013-04-24T07:36:37Z</time>
      </trkpt>
      <trkpt lat="42.9032" lon="-0.52092">
        <ele>1741</ele>
        <time>2013-04-24T07:36:45Z</time>
      </trkpt>
      <trkpt lat="42.9032" lon="-0.52088">
        <ele>1741</ele>
        <time>2013-04-24T07:36:51Z</time>
      </trkpt>
      <trkpt lat="42.90321" lon="-0.52085">
        <ele>1743</ele>
        <time>2013-04-24T07:36:59Z</time>
      </trkpt>
      <trkpt lat="42.90324" lon="-0.5208">
        <ele>1744</ele>
        <time>2013-04-24T07:37:08Z</time>
      </trkpt>
      <trkpt lat="42.90325" lon="-0.52074">
        <ele>1746</ele>
        <time>2013-04-24T07:37:17Z</time>
      </trkpt>
      <trkpt lat="42.90326" lon="-0.52071">
        <ele>1747</ele>
        <time>2013-04-24T07:37:25Z</time>
      </trkpt>
      <trkpt lat="42.90328" lon="-0.5207">
        <ele>1749</ele>
        <time>2013-04-24T07:37:32Z</time>
      </trkpt>
      <trkpt lat="42.90329" lon="-0.52068">
        <ele>1750</ele>
        <time>2013-04-24T07:37:39Z</time>
      </trkpt>
      <trkpt lat="42.90331" lon="-0.52068">
        <ele>1750</ele>
        <time>2013-04-24T07:37:46Z</time>
      </trkpt>
      <trkpt lat="42.90334" lon="-0.52065">
        <ele>1751</ele>
        <time>2013-04-24T07:37:53Z</time>
      </trkpt>
      <trkpt lat="42.90338" lon="-0.52063">
        <ele>1752</ele>
        <time>2013-04-24T07:37:59Z</time>
      </trkpt>
      <trkpt lat="42.90341" lon="-0.52061">
        <ele>1753</ele>
        <time>2013-04-24T07:38:07Z</time>
      </trkpt>
      <trkpt lat="42.90345" lon="-0.52061">
        <ele>1754</ele>
        <time>2013-04-24T07:38:14Z</time>
      </trkpt>
      <trkpt lat="42.90349" lon="-0.5206">
        <ele>1755</ele>
        <time>2013-04-24T07:38:20Z</time>
      </trkpt>
      <trkpt lat="42.90353" lon="-0.52059">
        <ele>1755</ele>
        <time>2013-04-24T07:38:27Z</time>
      </trkpt>
      <trkpt lat="42.90356" lon="-0.52059">
        <ele>1757</ele>
        <time>2013-04-24T07:38:35Z</time>
      </trkpt>
      <trkpt lat="42.90359" lon="-0.5206">
        <ele>1758</ele>
        <time>2013-04-24T07:38:42Z</time>
      </trkpt>
      <trkpt lat="42.90361" lon="-0.52063">
        <ele>1759</ele>
        <time>2013-04-24T07:38:48Z</time>
      </trkpt>
      <trkpt lat="42.90365" lon="-0.52066">
        <ele>1761</ele>
        <time>2013-04-24T07:38:58Z</time>
      </trkpt>
      <trkpt lat="42.90369" lon="-0.5207">
        <ele>1762</ele>
        <time>2013-04-24T07:39:06Z</time>
      </trkpt>
      <trkpt lat="42.90374" lon="-0.52072">
        <ele>1763</ele>
        <time>2013-04-24T07:39:14Z</time>
      </trkpt>
      <trkpt lat="42.90378" lon="-0.52071">
        <ele>1764</ele>
        <time>2013-04-24T07:39:21Z</time>
      </trkpt>
      <trkpt lat="42.90381" lon="-0.52074">
        <ele>1766</ele>
        <time>2013-04-24T07:39:28Z</time>
      </trkpt>
      <trkpt lat="42.90384" lon="-0.52076">
        <ele>1766</ele>
        <time>2013-04-24T07:39:35Z</time>
      </trkpt>
      <trkpt lat="42.90386" lon="-0.5208">
        <ele>1768</ele>
        <time>2013-04-24T07:39:43Z</time>
      </trkpt>
      <trkpt lat="42.90388" lon="-0.52084">
        <ele>1769</ele>
        <time>2013-04-24T07:39:50Z</time>
      </trkpt>
      <trkpt lat="42.90389" lon="-0.52087">
        <ele>1770</ele>
        <time>2013-04-24T07:39:57Z</time>
      </trkpt>
      <trkpt lat="42.90388" lon="-0.52088">
        <ele>1770</ele>
        <time>2013-04-24T07:40:07Z</time>
      </trkpt>
      <trkpt lat="42.90389" lon="-0.52091">
        <ele>1770</ele>
        <time>2013-04-24T07:40:13Z</time>
      </trkpt>
      <trkpt lat="42.90391" lon="-0.52092">
        <ele>1772</ele>
        <time>2013-04-24T07:40:20Z</time>
      </trkpt>
      <trkpt lat="42.90394" lon="-0.52088">
        <ele>1773</ele>
        <time>2013-04-24T07:40:28Z</time>
      </trkpt>
      <trkpt lat="42.90397" lon="-0.52086">
        <ele>1774</ele>
        <time>2013-04-24T07:40:35Z</time>
      </trkpt>
      <trkpt lat="42.904" lon="-0.52083">
        <ele>1775</ele>
        <time>2013-04-24T07:40:42Z</time>
      </trkpt>
      <trkpt lat="42.90404" lon="-0.52079">
        <ele>1776</ele>
        <time>2013-04-24T07:40:50Z</time>
      </trkpt>
      <trkpt lat="42.90406" lon="-0.52075">
        <ele>1778</ele>
        <time>2013-04-24T07:40:57Z</time>
      </trkpt>
      <trkpt lat="42.90408" lon="-0.52073">
        <ele>1779</ele>
        <time>2013-04-24T07:41:04Z</time>
      </trkpt>
      <trkpt lat="42.90408" lon="-0.5207">
        <ele>1780</ele>
        <time>2013-04-24T07:41:11Z</time>
      </trkpt>
      <trkpt lat="42.90409" lon="-0.52066">
        <ele>1781</ele>
        <time>2013-04-24T07:41:19Z</time>
      </trkpt>
      <trkpt lat="42.9041" lon="-0.52063">
        <ele>1782</ele>
        <time>2013-04-24T07:41:26Z</time>
      </trkpt>
      <trkpt lat="42.9041" lon="-0.52058">
        <ele>1784</ele>
        <time>2013-04-24T07:41:33Z</time>
      </trkpt>
      <trkpt lat="42.90409" lon="-0.52056">
        <ele>1785</ele>
        <time>2013-04-24T07:41:42Z</time>
      </trkpt>
      <trkpt lat="42.90409" lon="-0.52054">
        <ele>1787</ele>
        <time>2013-04-24T07:41:49Z</time>
      </trkpt>
      <trkpt lat="42.90409" lon="-0.52051">
        <ele>1787</ele>
        <time>2013-04-24T07:41:56Z</time>
      </trkpt>
      <trkpt lat="42.90408" lon="-0.52048">
        <ele>1788</ele>
        <time>2013-04-24T07:42:05Z</time>
      </trkpt>
      <trkpt lat="42.90406" lon="-0.52045">
        <ele>1788</ele>
        <time>2013-04-24T07:42:13Z</time>
      </trkpt>
      <trkpt lat="42.90407" lon="-0.52044">
        <ele>1789</ele>
        <time>2013-04-24T07:42:21Z</time>
      </trkpt>
      <trkpt lat="42.90407" lon="-0.52039">
        <ele>1790</ele>
        <time>2013-04-24T07:42:28Z</time>
      </trkpt>
      <trkpt lat="42.90409" lon="-0.52039">
        <ele>1791</ele>
        <time>2013-04-24T07:42:35Z</time>
      </trkpt>
      <trkpt lat="42.90409" lon="-0.52042">
        <ele>1792</ele>
        <time>2013-04-24T07:42:41Z</time>
      </trkpt>
      <trkpt lat="42.9041" lon="-0.52042">
        <ele>1792</ele>
        <time>2013-04-24T07:42:47Z</time>
      </trkpt>
      <trkpt lat="42.90412" lon="-0.52039">
        <ele>1793</ele>
        <time>2013-04-24T07:42:53Z</time>
      </trkpt>
      <trkpt lat="42.90413" lon="-0.52035">
        <ele>1794</ele>
        <time>2013-04-24T07:43:01Z</time>
      </trkpt>
      <trkpt lat="42.90413" lon="-0.5203">
        <ele>1795</ele>
        <time>2013-04-24T07:43:07Z</time>
      </trkpt>
      <trkpt lat="42.90412" lon="-0.52022">
        <ele>1796</ele>
        <time>2013-04-24T07:43:15Z</time>
      </trkpt>
      <trkpt lat="42.90413" lon="-0.52017">
        <ele>1797</ele>
        <time>2013-04-24T07:43:22Z</time>
      </trkpt>
      <trkpt lat="42.90413" lon="-0.52015">
        <ele>1797</ele>
        <time>2013-04-24T07:43:28Z</time>
      </trkpt>
      <trkpt lat="42.90412" lon="-0.52013">
        <ele>1798</ele>
        <time>2013-04-24T07:43:36Z</time>
      </trkpt>
      <trkpt lat="42.90411" lon="-0.52011">
        <ele>1799</ele>
        <time>2013-04-24T07:43:44Z</time>
      </trkpt>
      <trkpt lat="42.90408" lon="-0.52006">
        <ele>1800</ele>
        <time>2013-04-24T07:43:52Z</time>
      </trkpt>
      <trkpt lat="42.90404" lon="-0.52001">
        <ele>1803</ele>
        <time>2013-04-24T07:44:00Z</time>
      </trkpt>
      <trkpt lat="42.90402" lon="-0.51994">
        <ele>1803</ele>
        <time>2013-04-24T07:44:08Z</time>
      </trkpt>
      <trkpt lat="42.904" lon="-0.5199">
        <ele>1805</ele>
        <time>2013-04-24T07:44:15Z</time>
      </trkpt>
      <trkpt lat="42.90397" lon="-0.51984">
        <ele>1805</ele>
        <time>2013-04-24T07:44:22Z</time>
      </trkpt>
      <trkpt lat="42.90396" lon="-0.51981">
        <ele>1806</ele>
        <time>2013-04-24T07:44:26Z</time>
      </trkpt>
      <trkpt lat="42.90393" lon="-0.51974">
        <ele>1807</ele>
        <time>2013-04-24T07:44:33Z</time>
      </trkpt>
      <trkpt lat="42.9039" lon="-0.51969">
        <ele>1808</ele>
        <time>2013-04-24T07:44:41Z</time>
      </trkpt>
      <trkpt lat="42.90386" lon="-0.51966">
        <ele>1810</ele>
        <time>2013-04-24T07:44:47Z</time>
      </trkpt>
      <trkpt lat="42.90383" lon="-0.51964">
        <ele>1811</ele>
        <time>2013-04-24T07:44:53Z</time>
      </trkpt>
      <trkpt lat="42.90381" lon="-0.51961">
        <ele>1812</ele>
        <time>2013-04-24T07:44:59Z</time>
      </trkpt>
      <trkpt lat="42.90378" lon="-0.51957">
        <ele>1813</ele>
        <time>2013-04-24T07:45:07Z</time>
      </trkpt>
      <trkpt lat="42.90377" lon="-0.51953">
        <ele>1815</ele>
        <time>2013-04-24T07:45:14Z</time>
      </trkpt>
      <trkpt lat="42.90375" lon="-0.5195">
        <ele>1816</ele>
        <time>2013-04-24T07:45:20Z</time>
      </trkpt>
      <trkpt lat="42.90372" lon="-0.51948">
        <ele>1817</ele>
        <time>2013-04-24T07:45:27Z</time>
      </trkpt>
      <trkpt lat="42.9037" lon="-0.51945">
        <ele>1818</ele>
        <time>2013-04-24T07:45:33Z</time>
      </trkpt>
      <trkpt lat="42.90367" lon="-0.51943">
        <ele>1818</ele>
        <time>2013-04-24T07:45:39Z</time>
      </trkpt>
      <trkpt lat="42.90364" lon="-0.51942">
        <ele>1819</ele>
        <time>2013-04-24T07:45:46Z</time>
      </trkpt>
      <trkpt lat="42.90361" lon="-0.5194">
        <ele>1821</ele>
        <time>2013-04-24T07:45:52Z</time>
      </trkpt>
      <trkpt lat="42.90358" lon="-0.51938">
        <ele>1821</ele>
        <time>2013-04-24T07:45:59Z</time>
      </trkpt>
      <trkpt lat="42.90355" lon="-0.51934">
        <ele>1822</ele>
        <time>2013-04-24T07:46:06Z</time>
      </trkpt>
      <trkpt lat="42.90351" lon="-0.51932">
        <ele>1824</ele>
        <time>2013-04-24T07:46:13Z</time>
      </trkpt>
      <trkpt lat="42.90347" lon="-0.51929">
        <ele>1824</ele>
        <time>2013-04-24T07:46:20Z</time>
      </trkpt>
      <trkpt lat="42.90344" lon="-0.51927">
        <ele>1825</ele>
        <time>2013-04-24T07:46:27Z</time>
      </trkpt>
      <trkpt lat="42.90341" lon="-0.51925">
        <ele>1826</ele>
        <time>2013-04-24T07:46:34Z</time>
      </trkpt>
      <trkpt lat="42.90339" lon="-0.51923">
        <ele>1827</ele>
        <time>2013-04-24T07:46:40Z</time>
      </trkpt>
      <trkpt lat="42.90338" lon="-0.51921">
        <ele>1828</ele>
        <time>2013-04-24T07:46:46Z</time>
      </trkpt>
      <trkpt lat="42.90336" lon="-0.51917">
        <ele>1829</ele>
        <time>2013-04-24T07:46:53Z</time>
      </trkpt>
      <trkpt lat="42.90337" lon="-0.5192">
        <ele>1830</ele>
        <time>2013-04-24T07:47:02Z</time>
      </trkpt>
      <trkpt lat="42.90336" lon="-0.51921">
        <ele>1830</ele>
        <time>2013-04-24T07:47:16Z</time>
      </trkpt>
      <trkpt lat="42.90334" lon="-0.51919">
        <ele>1830</ele>
        <time>2013-04-24T07:47:29Z</time>
      </trkpt>
      <trkpt lat="42.90336" lon="-0.51922">
        <ele>1830</ele>
        <time>2013-04-24T07:47:43Z</time>
      </trkpt>
      <trkpt lat="42.90336" lon="-0.51918">
        <ele>1830</ele>
        <time>2013-04-24T07:48:00Z</time>
      </trkpt>
      <trkpt lat="42.90337" lon="-0.51919">
        <ele>1830</ele>
        <time>2013-04-24T07:48:14Z</time>
      </trkpt>
      <trkpt lat="42.90336" lon="-0.51917">
        <ele>1830</ele>
        <time>2013-04-24T07:48:19Z</time>
      </trkpt>
      <trkpt lat="42.90335" lon="-0.51915">
        <ele>1830</ele>
        <time>2013-04-24T07:48:30Z</time>
      </trkpt>
      <trkpt lat="42.90337" lon="-0.51916">
        <ele>1830</ele>
        <time>2013-04-24T07:48:45Z</time>
      </trkpt>
      <trkpt lat="42.90337" lon="-0.51915">
        <ele>1830</ele>
        <time>2013-04-24T07:49:01Z</time>
      </trkpt>
      <trkpt lat="42.90338" lon="-0.51914">
        <ele>1830</ele>
        <time>2013-04-24T07:49:21Z</time>
      </trkpt>
      <trkpt lat="42.90338" lon="-0.51916">
        <ele>1830</ele>
        <time>2013-04-24T07:49:35Z</time>
      </trkpt>
      <trkpt lat="42.90339" lon="-0.51917">
        <ele>1830</ele>
        <time>2013-04-24T07:49:50Z</time>
      </trkpt>
      <trkpt lat="42.90339" lon="-0.51912">
        <ele>1829</ele>
        <time>2013-04-24T07:50:05Z</time>
      </trkpt>
      <trkpt lat="42.9034" lon="-0.51911">
        <ele>1830</ele>
        <time>2013-04-24T07:50:18Z</time>
      </trkpt>
      <trkpt lat="42.9034" lon="-0.51912">
        <ele>1829</ele>
        <time>2013-04-24T07:50:28Z</time>
      </trkpt>
      <trkpt lat="42.9034" lon="-0.51909">
        <ele>1830</ele>
        <time>2013-04-24T07:50:36Z</time>
      </trkpt>
      <trkpt lat="42.90342" lon="-0.51907">
        <ele>1831</ele>
        <time>2013-04-24T07:50:42Z</time>
      </trkpt>
      <trkpt lat="42.90343" lon="-0.51907">
        <ele>1832</ele>
        <time>2013-04-24T07:50:50Z</time>
      </trkpt>
      <trkpt lat="42.90343" lon="-0.51907">
        <ele>1832</ele>
        <time>2013-04-24T07:50:58Z</time>
      </trkpt>
      <trkpt lat="42.90345" lon="-0.51907">
        <ele>1833</ele>
        <time>2013-04-24T07:51:06Z</time>
      </trkpt>
      <trkpt lat="42.90347" lon="-0.51908">
        <ele>1835</ele>
        <time>2013-04-24T07:51:16Z</time>
      </trkpt>
      <trkpt lat="42.9035" lon="-0.51909">
        <ele>1836</ele>
        <time>2013-04-24T07:51:25Z</time>
      </trkpt>
      <trkpt lat="42.90352" lon="-0.51909">
        <ele>1837</ele>
        <time>2013-04-24T07:51:31Z</time>
      </trkpt>
      <trkpt lat="42.90355" lon="-0.5191">
        <ele>1838</ele>
        <time>2013-04-24T07:51:40Z</time>
      </trkpt>
      <trkpt lat="42.90357" lon="-0.51909">
        <ele>1840</ele>
        <time>2013-04-24T07:51:48Z</time>
      </trkpt>
      <trkpt lat="42.90359" lon="-0.51907">
        <ele>1840</ele>
        <time>2013-04-24T07:51:56Z</time>
      </trkpt>
      <trkpt lat="42.90363" lon="-0.51907">
        <ele>1841</ele>
        <time>2013-04-24T07:52:04Z</time>
      </trkpt>
      <trkpt lat="42.90365" lon="-0.51904">
        <ele>1842</ele>
        <time>2013-04-24T07:52:12Z</time>
      </trkpt>
      <trkpt lat="42.90363" lon="-0.51901">
        <ele>1842</ele>
        <time>2013-04-24T07:52:19Z</time>
      </trkpt>
      <trkpt lat="42.90363" lon="-0.51898">
        <ele>1844</ele>
        <time>2013-04-24T07:52:27Z</time>
      </trkpt>
      <trkpt lat="42.9036" lon="-0.51895">
        <ele>1845</ele>
        <time>2013-04-24T07:52:35Z</time>
      </trkpt>
      <trkpt lat="42.90358" lon="-0.51892">
        <ele>1846</ele>
        <time>2013-04-24T07:52:42Z</time>
      </trkpt>
      <trkpt lat="42.90355" lon="-0.51888">
        <ele>1847</ele>
        <time>2013-04-24T07:52:48Z</time>
      </trkpt>
      <trkpt lat="42.90353" lon="-0.51886">
        <ele>1848</ele>
        <time>2013-04-24T07:52:54Z</time>
      </trkpt>
      <trkpt lat="42.90352" lon="-0.51883">
        <ele>1848</ele>
        <time>2013-04-24T07:53:02Z</time>
      </trkpt>
      <trkpt lat="42.90351" lon="-0.51883">
        <ele>1848</ele>
        <time>2013-04-24T07:53:14Z</time>
      </trkpt>
      <trkpt lat="42.90351" lon="-0.5188">
        <ele>1848</ele>
        <time>2013-04-24T07:53:20Z</time>
      </trkpt>
      <trkpt lat="42.90351" lon="-0.51878">
        <ele>1849</ele>
        <time>2013-04-24T07:53:29Z</time>
      </trkpt>
      <trkpt lat="42.90352" lon="-0.51877">
        <ele>1849</ele>
        <time>2013-04-24T07:53:41Z</time>
      </trkpt>
      <trkpt lat="42.90354" lon="-0.51877">
        <ele>1849</ele>
        <time>2013-04-24T07:53:50Z</time>
      </trkpt>
      <trkpt lat="42.90351" lon="-0.51878">
        <ele>1849</ele>
        <time>2013-04-24T07:53:59Z</time>
      </trkpt>
      <trkpt lat="42.9035" lon="-0.51877">
        <ele>1848</ele>
        <time>2013-04-24T07:54:07Z</time>
      </trkpt>
      <trkpt lat="42.90351" lon="-0.5188">
        <ele>1848</ele>
        <time>2013-04-24T07:54:23Z</time>
      </trkpt>
      <trkpt lat="42.90351" lon="-0.51881">
        <ele>1848</ele>
        <time>2013-04-24T07:54:43Z</time>
      </trkpt>
      <trkpt lat="42.90352" lon="-0.51879">
        <ele>1848</ele>
        <time>2013-04-24T07:55:02Z</time>
      </trkpt>
      <trkpt lat="42.90352" lon="-0.51879">
        <ele>1848</ele>
        <time>2013-04-24T07:55:13Z</time>
      </trkpt>
      <trkpt lat="42.90352" lon="-0.5188">
        <ele>1848</ele>
        <time>2013-04-24T07:55:30Z</time>
      </trkpt>
      <trkpt lat="42.90353" lon="-0.5188">
        <ele>1848</ele>
        <time>2013-04-24T07:55:52Z</time>
      </trkpt>
      <trkpt lat="42.90353" lon="-0.5188">
        <ele>1848</ele>
        <time>2013-04-24T07:56:18Z</time>
      </trkpt>
      <trkpt lat="42.90353" lon="-0.5188">
        <ele>1848</ele>
        <time>2013-04-24T07:56:31Z</time>
      </trkpt>
      <trkpt lat="42.90352" lon="-0.5188">
        <ele>1848</ele>
        <time>2013-04-24T07:56:50Z</time>
      </trkpt>
      <trkpt lat="42.90351" lon="-0.5188">
        <ele>1848</ele>
        <time>2013-04-24T07:57:10Z</time>
      </trkpt>
      <trkpt lat="42.90352" lon="-0.5188">
        <ele>1849</ele>
        <time>2013-04-24T07:57:28Z</time>
      </trkpt>
      <trkpt lat="42.90352" lon="-0.5188">
        <ele>1848</ele>
        <time>2013-04-24T07:57:50Z</time>
      </trkpt>
      <trkpt lat="42.90351" lon="-0.51879">
        <ele>1849</ele>
        <time>2013-04-24T07:58:11Z</time>
      </trkpt>
      <trkpt lat="42.90352" lon="-0.5188">
        <ele>1849</ele>
        <time>2013-04-24T07:58:27Z</time>
      </trkpt>
      <trkpt lat="42.90353" lon="-0.51879">
        <ele>1849</ele>
        <time>2013-04-24T07:58:41Z</time>
      </trkpt>
      <trkpt lat="42.90353" lon="-0.5188">
        <ele>1849</ele>
        <time>2013-04-24T07:59:02Z</time>
      </trkpt>
      <trkpt lat="42.90353" lon="-0.5188">
        <ele>1849</ele>
        <time>2013-04-24T07:59:28Z</time>
      </trkpt>
      <trkpt lat="42.90352" lon="-0.5188">
        <ele>1849</ele>
        <time>2013-04-24T07:59:52Z</time>
      </trkpt>
      <trkpt lat="42.90352" lon="-0.51881">
        <ele>1849</ele>
        <time>2013-04-24T08:00:16Z</time>
      </trkpt>
      <trkpt lat="42.90352" lon="-0.51881">
        <ele>1849</ele>
        <time>2013-04-24T08:00:46Z</time>
      </trkpt>
      <trkpt lat="42.90352" lon="-0.5188">
        <ele>1849</ele>
        <time>2013-04-24T08:01:11Z</time>
      </trkpt>
      <trkpt lat="42.90351" lon="-0.5188">
        <ele>1849</ele>
        <time>2013-04-24T08:01:30Z</time>
      </trkpt>
      <trkpt lat="42.90352" lon="-0.5188">
        <ele>1849</ele>
        <time>2013-04-24T08:01:52Z</time>
      </trkpt>
      <trkpt lat="42.90353" lon="-0.51882">
        <ele>1849</ele>
        <time>2013-04-24T08:02:14Z</time>
      </trkpt>
      <trkpt lat="42.90354" lon="-0.5188">
        <ele>1849</ele>
        <time>2013-04-24T08:02:34Z</time>
      </trkpt>
      <trkpt lat="42.90353" lon="-0.51881">
        <ele>1849</ele>
        <time>2013-04-24T08:02:58Z</time>
      </trkpt>
      <trkpt lat="42.90353" lon="-0.5188">
        <ele>1849</ele>
        <time>2013-04-24T08:03:15Z</time>
      </trkpt>
      <trkpt lat="42.90353" lon="-0.51882">
        <ele>1849</ele>
        <time>2013-04-24T08:03:29Z</time>
      </trkpt>
      <trkpt lat="42.90354" lon="-0.5188">
        <ele>1849</ele>
        <time>2013-04-24T08:03:42Z</time>
      </trkpt>
      <trkpt lat="42.90353" lon="-0.51882">
        <ele>1849</ele>
        <time>2013-04-24T08:03:53Z</time>
      </trkpt>
      <trkpt lat="42.90354" lon="-0.51882">
        <ele>1850</ele>
        <time>2013-04-24T08:04:15Z</time>
      </trkpt>
      <trkpt lat="42.90354" lon="-0.51881">
        <ele>1849</ele>
        <time>2013-04-24T08:04:26Z</time>
      </trkpt>
      <trkpt lat="42.90354" lon="-0.51876">
        <ele>1850</ele>
        <time>2013-04-24T08:04:29Z</time>
      </trkpt>
      <trkpt lat="42.90354" lon="-0.51877">
        <ele>1850</ele>
        <time>2013-04-24T08:04:33Z</time>
      </trkpt>
      <trkpt lat="42.90355" lon="-0.51876">
        <ele>1850</ele>
        <time>2013-04-24T08:04:45Z</time>
      </trkpt>
      <trkpt lat="42.90355" lon="-0.51878">
        <ele>1850</ele>
        <time>2013-04-24T08:04:54Z</time>
      </trkpt>
      <trkpt lat="42.90354" lon="-0.51877">
        <ele>1850</ele>
        <time>2013-04-24T08:05:03Z</time>
      </trkpt>
      <trkpt lat="42.90355" lon="-0.51877">
        <ele>1849</ele>
        <time>2013-04-24T08:05:10Z</time>
      </trkpt>
      <trkpt lat="42.90357" lon="-0.51881">
        <ele>1850</ele>
        <time>2013-04-24T08:05:21Z</time>
      </trkpt>
      <trkpt lat="42.90357" lon="-0.5188">
        <ele>1850</ele>
        <time>2013-04-24T08:05:32Z</time>
      </trkpt>
      <trkpt lat="42.90357" lon="-0.5188">
        <ele>1850</ele>
        <time>2013-04-24T08:05:44Z</time>
      </trkpt>
      <trkpt lat="42.90357" lon="-0.5188">
        <ele>1850</ele>
        <time>2013-04-24T08:05:51Z</time>
      </trkpt>
      <trkpt lat="42.90356" lon="-0.51879">
        <ele>1850</ele>
        <time>2013-04-24T08:05:58Z</time>
      </trkpt>
      <trkpt lat="42.90356" lon="-0.51878">
        <ele>1850</ele>
        <time>2013-04-24T08:06:08Z</time>
      </trkpt>
      <trkpt lat="42.90355" lon="-0.51874">
        <ele>1851</ele>
        <time>2013-04-24T08:06:15Z</time>
      </trkpt>
      <trkpt lat="42.90356" lon="-0.5187">
        <ele>1852</ele>
        <time>2013-04-24T08:06:22Z</time>
      </trkpt>
      <trkpt lat="42.90357" lon="-0.51867">
        <ele>1852</ele>
        <time>2013-04-24T08:06:28Z</time>
      </trkpt>
      <trkpt lat="42.90358" lon="-0.51861">
        <ele>1853</ele>
        <time>2013-04-24T08:06:35Z</time>
      </trkpt>
      <trkpt lat="42.90358" lon="-0.51859">
        <ele>1854</ele>
        <time>2013-04-24T08:06:38Z</time>
      </trkpt>
      <trkpt lat="42.90358" lon="-0.51856">
        <ele>1854</ele>
        <time>2013-04-24T08:06:40Z</time>
      </trkpt>
      <trkpt lat="42.90357" lon="-0.51855">
        <ele>1854</ele>
        <time>2013-04-24T08:06:41Z</time>
      </trkpt>
      <trkpt lat="42.90358" lon="-0.51854">
        <ele>1854</ele>
        <time>2013-04-24T08:06:42Z</time>
      </trkpt>
      <trkpt lat="42.90359" lon="-0.51851">
        <ele>1855</ele>
        <time>2013-04-24T08:06:48Z</time>
      </trkpt>
      <trkpt lat="42.90359" lon="-0.51849">
        <ele>1855</ele>
        <time>2013-04-24T08:06:50Z</time>
      </trkpt>
      <trkpt lat="42.90358" lon="-0.51847">
        <ele>1855</ele>
        <time>2013-04-24T08:06:51Z</time>
      </trkpt>
      <trkpt lat="42.90359" lon="-0.51845">
        <ele>1856</ele>
        <time>2013-04-24T08:06:59Z</time>
      </trkpt>
      <trkpt lat="42.90359" lon="-0.51843">
        <ele>1858</ele>
        <time>2013-04-24T08:07:05Z</time>
      </trkpt>
      <trkpt lat="42.90359" lon="-0.51834">
        <ele>1859</ele>
        <time>2013-04-24T08:07:13Z</time>
      </trkpt>
      <trkpt lat="42.90359" lon="-0.51832">
        <ele>1858</ele>
        <time>2013-04-24T08:07:14Z</time>
      </trkpt>
      <trkpt lat="42.90359" lon="-0.5183">
        <ele>1859</ele>
        <time>2013-04-24T08:07:15Z</time>
      </trkpt>
      <trkpt lat="42.90359" lon="-0.51824">
        <ele>1861</ele>
        <time>2013-04-24T08:07:20Z</time>
      </trkpt>
      <trkpt lat="42.9036" lon="-0.5182">
        <ele>1861</ele>
        <time>2013-04-24T08:07:27Z</time>
      </trkpt>
      <trkpt lat="42.90362" lon="-0.51818">
        <ele>1863</ele>
        <time>2013-04-24T08:07:34Z</time>
      </trkpt>
      <trkpt lat="42.90362" lon="-0.51812">
        <ele>1864</ele>
        <time>2013-04-24T08:07:41Z</time>
      </trkpt>
      <trkpt lat="42.90364" lon="-0.51808">
        <ele>1865</ele>
        <time>2013-04-24T08:07:47Z</time>
      </trkpt>
      <trkpt lat="42.90365" lon="-0.51802">
        <ele>1866</ele>
        <time>2013-04-24T08:07:55Z</time>
      </trkpt>
      <trkpt lat="42.90365" lon="-0.51801">
        <ele>1867</ele>
        <time>2013-04-24T08:07:57Z</time>
      </trkpt>
      <trkpt lat="42.90364" lon="-0.51792">
        <ele>1867</ele>
        <time>2013-04-24T08:08:04Z</time>
      </trkpt>
      <trkpt lat="42.90366" lon="-0.51788">
        <ele>1868</ele>
        <time>2013-04-24T08:08:12Z</time>
      </trkpt>
      <trkpt lat="42.90367" lon="-0.51782">
        <ele>1869</ele>
        <time>2013-04-24T08:08:19Z</time>
      </trkpt>
      <trkpt lat="42.90367" lon="-0.51781">
        <ele>1870</ele>
        <time>2013-04-24T08:08:21Z</time>
      </trkpt>
      <trkpt lat="42.90368" lon="-0.51776">
        <ele>1871</ele>
        <time>2013-04-24T08:08:28Z</time>
      </trkpt>
      <trkpt lat="42.90369" lon="-0.51773">
        <ele>1871</ele>
        <time>2013-04-24T08:08:30Z</time>
      </trkpt>
      <trkpt lat="42.9037" lon="-0.51769">
        <ele>1872</ele>
        <time>2013-04-24T08:08:38Z</time>
      </trkpt>
      <trkpt lat="42.90371" lon="-0.51766">
        <ele>1873</ele>
        <time>2013-04-24T08:08:43Z</time>
      </trkpt>
      <trkpt lat="42.90372" lon="-0.51764">
        <ele>1873</ele>
        <time>2013-04-24T08:08:45Z</time>
      </trkpt>
      <trkpt lat="42.90373" lon="-0.5176">
        <ele>1875</ele>
        <time>2013-04-24T08:08:52Z</time>
      </trkpt>
      <trkpt lat="42.90373" lon="-0.51762">
        <ele>1874</ele>
        <time>2013-04-24T08:08:53Z</time>
      </trkpt>
      <trkpt lat="42.90374" lon="-0.51768">
        <ele>1876</ele>
        <time>2013-04-24T08:09:01Z</time>
      </trkpt>
      <trkpt lat="42.90374" lon="-0.51768">
        <ele>1876</ele>
        <time>2013-04-24T08:09:02Z</time>
      </trkpt>
      <trkpt lat="42.90376" lon="-0.51773">
        <ele>1876</ele>
        <time>2013-04-24T08:09:07Z</time>
      </trkpt>
      <trkpt lat="42.90378" lon="-0.51779">
        <ele>1879</ele>
        <time>2013-04-24T08:09:15Z</time>
      </trkpt>
      <trkpt lat="42.90378" lon="-0.51784">
        <ele>1879</ele>
        <time>2013-04-24T08:09:24Z</time>
      </trkpt>
      <trkpt lat="42.90378" lon="-0.5178">
        <ele>1879</ele>
        <time>2013-04-24T08:09:39Z</time>
      </trkpt>
      <trkpt lat="42.90379" lon="-0.51777">
        <ele>1879</ele>
        <time>2013-04-24T08:09:45Z</time>
      </trkpt>
      <trkpt lat="42.9038" lon="-0.51774">
        <ele>1881</ele>
        <time>2013-04-24T08:09:53Z</time>
      </trkpt>
      <trkpt lat="42.90382" lon="-0.51776">
        <ele>1882</ele>
        <time>2013-04-24T08:09:56Z</time>
      </trkpt>
      <trkpt lat="42.90386" lon="-0.5178">
        <ele>1883</ele>
        <time>2013-04-24T08:10:03Z</time>
      </trkpt>
      <trkpt lat="42.9039" lon="-0.51777">
        <ele>1884</ele>
        <time>2013-04-24T08:10:09Z</time>
      </trkpt>
      <trkpt lat="42.90394" lon="-0.51772">
        <ele>1883</ele>
        <time>2013-04-24T08:10:15Z</time>
      </trkpt>
      <trkpt lat="42.904" lon="-0.51764">
        <ele>1882</ele>
        <time>2013-04-24T08:10:22Z</time>
      </trkpt>
      <trkpt lat="42.90408" lon="-0.51756">
        <ele>1881</ele>
        <time>2013-04-24T08:10:30Z</time>
      </trkpt>
      <trkpt lat="42.90414" lon="-0.5175">
        <ele>1881</ele>
        <time>2013-04-24T08:10:37Z</time>
      </trkpt>
      <trkpt lat="42.9042" lon="-0.51745">
        <ele>1882</ele>
        <time>2013-04-24T08:10:43Z</time>
      </trkpt>
      <trkpt lat="42.90424" lon="-0.51742">
        <ele>1883</ele>
        <time>2013-04-24T08:10:48Z</time>
      </trkpt>
      <trkpt lat="42.90425" lon="-0.51742">
        <ele>1883</ele>
        <time>2013-04-24T08:10:49Z</time>
      </trkpt>
      <trkpt lat="42.90426" lon="-0.51739">
        <ele>1884</ele>
        <time>2013-04-24T08:10:51Z</time>
      </trkpt>
      <trkpt lat="42.9043" lon="-0.51734">
        <ele>1885</ele>
        <time>2013-04-24T08:10:57Z</time>
      </trkpt>
      <trkpt lat="42.90431" lon="-0.51734">
        <ele>1885</ele>
        <time>2013-04-24T08:10:58Z</time>
      </trkpt>
      <trkpt lat="42.90431" lon="-0.51727">
        <ele>1886</ele>
        <time>2013-04-24T08:11:04Z</time>
      </trkpt>
      <trkpt lat="42.90429" lon="-0.51718">
        <ele>1887</ele>
        <time>2013-04-24T08:11:11Z</time>
      </trkpt>
      <trkpt lat="42.90428" lon="-0.51713">
        <ele>1889</ele>
        <time>2013-04-24T08:11:16Z</time>
      </trkpt>
      <trkpt lat="42.90427" lon="-0.51705">
        <ele>1891</ele>
        <time>2013-04-24T08:11:23Z</time>
      </trkpt>
      <trkpt lat="42.90425" lon="-0.51699">
        <ele>1891</ele>
        <time>2013-04-24T08:11:29Z</time>
      </trkpt>
      <trkpt lat="42.90428" lon="-0.51696">
        <ele>1892</ele>
        <time>2013-04-24T08:11:36Z</time>
      </trkpt>
      <trkpt lat="42.90428" lon="-0.51695">
        <ele>1893</ele>
        <time>2013-04-24T08:11:39Z</time>
      </trkpt>
      <trkpt lat="42.90425" lon="-0.51685">
        <ele>1894</ele>
        <time>2013-04-24T08:11:47Z</time>
      </trkpt>
      <trkpt lat="42.90426" lon="-0.51684">
        <ele>1896</ele>
        <time>2013-04-24T08:11:52Z</time>
      </trkpt>
      <trkpt lat="42.90428" lon="-0.51685">
        <ele>1897</ele>
        <time>2013-04-24T08:11:55Z</time>
      </trkpt>
      <trkpt lat="42.90432" lon="-0.51687">
        <ele>1898</ele>
        <time>2013-04-24T08:12:01Z</time>
      </trkpt>
      <trkpt lat="42.90433" lon="-0.51687">
        <ele>1898</ele>
        <time>2013-04-24T08:12:02Z</time>
      </trkpt>
      <trkpt lat="42.90438" lon="-0.51688">
        <ele>1899</ele>
        <time>2013-04-24T08:12:09Z</time>
      </trkpt>
      <trkpt lat="42.90441" lon="-0.51684">
        <ele>1900</ele>
        <time>2013-04-24T08:12:17Z</time>
      </trkpt>
      <trkpt lat="42.90439" lon="-0.51679">
        <ele>1901</ele>
        <time>2013-04-24T08:12:24Z</time>
      </trkpt>
      <trkpt lat="42.90437" lon="-0.51673">
        <ele>1902</ele>
        <time>2013-04-24T08:12:31Z</time>
      </trkpt>
      <trkpt lat="42.90437" lon="-0.51674">
        <ele>1902</ele>
        <time>2013-04-24T08:12:36Z</time>
      </trkpt>
      <trkpt lat="42.90432" lon="-0.51664">
        <ele>1904</ele>
        <time>2013-04-24T08:12:43Z</time>
      </trkpt>
      <trkpt lat="42.90431" lon="-0.51657">
        <ele>1904</ele>
        <time>2013-04-24T08:12:49Z</time>
      </trkpt>
      <trkpt lat="42.9043" lon="-0.51655">
        <ele>1905</ele>
        <time>2013-04-24T08:12:51Z</time>
      </trkpt>
      <trkpt lat="42.90428" lon="-0.5165">
        <ele>1905</ele>
        <time>2013-04-24T08:12:56Z</time>
      </trkpt>
      <trkpt lat="42.90426" lon="-0.51645">
        <ele>1906</ele>
        <time>2013-04-24T08:13:04Z</time>
      </trkpt>
      <trkpt lat="42.90427" lon="-0.51642">
        <ele>1907</ele>
        <time>2013-04-24T08:13:11Z</time>
      </trkpt>
      <trkpt lat="42.90426" lon="-0.5164">
        <ele>1907</ele>
        <time>2013-04-24T08:13:14Z</time>
      </trkpt>
      <trkpt lat="42.90426" lon="-0.51637">
        <ele>1908</ele>
        <time>2013-04-24T08:13:21Z</time>
      </trkpt>
      <trkpt lat="42.90426" lon="-0.51637">
        <ele>1909</ele>
        <time>2013-04-24T08:13:27Z</time>
      </trkpt>
      <trkpt lat="42.90425" lon="-0.51633">
        <ele>1910</ele>
        <time>2013-04-24T08:13:33Z</time>
      </trkpt>
      <trkpt lat="42.90426" lon="-0.51631">
        <ele>1910</ele>
        <time>2013-04-24T08:13:42Z</time>
      </trkpt>
      <trkpt lat="42.90427" lon="-0.51635">
        <ele>1910</ele>
        <time>2013-04-24T08:13:49Z</time>
      </trkpt>
      <trkpt lat="42.90428" lon="-0.51637">
        <ele>1911</ele>
        <time>2013-04-24T08:13:55Z</time>
      </trkpt>
      <trkpt lat="42.90432" lon="-0.51638">
        <ele>1912</ele>
        <time>2013-04-24T08:14:02Z</time>
      </trkpt>
      <trkpt lat="42.90436" lon="-0.51637">
        <ele>1913</ele>
        <time>2013-04-24T08:14:06Z</time>
      </trkpt>
      <trkpt lat="42.90438" lon="-0.51637">
        <ele>1914</ele>
        <time>2013-04-24T08:14:09Z</time>
      </trkpt>
      <trkpt lat="42.9044" lon="-0.51639">
        <ele>1915</ele>
        <time>2013-04-24T08:14:17Z</time>
      </trkpt>
      <trkpt lat="42.90442" lon="-0.51641">
        <ele>1916</ele>
        <time>2013-04-24T08:14:23Z</time>
      </trkpt>
      <trkpt lat="42.90443" lon="-0.51642">
        <ele>1917</ele>
        <time>2013-04-24T08:14:29Z</time>
      </trkpt>
      <trkpt lat="42.90445" lon="-0.51641">
        <ele>1917</ele>
        <time>2013-04-24T08:14:34Z</time>
      </trkpt>
      <trkpt lat="42.90446" lon="-0.51641">
        <ele>1917</ele>
        <time>2013-04-24T08:14:44Z</time>
      </trkpt>
      <trkpt lat="42.90448" lon="-0.51642">
        <ele>1918</ele>
        <time>2013-04-24T08:14:53Z</time>
      </trkpt>
      <trkpt lat="42.90445" lon="-0.51636">
        <ele>1918</ele>
        <time>2013-04-24T08:15:00Z</time>
      </trkpt>
      <trkpt lat="42.90444" lon="-0.51632">
        <ele>1918</ele>
        <time>2013-04-24T08:15:03Z</time>
      </trkpt>
      <trkpt lat="42.90443" lon="-0.5163">
        <ele>1919</ele>
        <time>2013-04-24T08:15:05Z</time>
      </trkpt>
      <trkpt lat="42.90439" lon="-0.51622">
        <ele>1921</ele>
        <time>2013-04-24T08:15:13Z</time>
      </trkpt>
      <trkpt lat="42.90439" lon="-0.51621">
        <ele>1921</ele>
        <time>2013-04-24T08:15:14Z</time>
      </trkpt>
      <trkpt lat="42.90435" lon="-0.51615">
        <ele>1922</ele>
        <time>2013-04-24T08:15:20Z</time>
      </trkpt>
      <trkpt lat="42.90434" lon="-0.51613">
        <ele>1922</ele>
        <time>2013-04-24T08:15:27Z</time>
      </trkpt>
      <trkpt lat="42.90433" lon="-0.51611">
        <ele>1923</ele>
        <time>2013-04-24T08:15:33Z</time>
      </trkpt>
      <trkpt lat="42.90435" lon="-0.51614">
        <ele>1923</ele>
        <time>2013-04-24T08:15:42Z</time>
      </trkpt>
      <trkpt lat="42.90442" lon="-0.51619">
        <ele>1925</ele>
        <time>2013-04-24T08:15:50Z</time>
      </trkpt>
      <trkpt lat="42.90446" lon="-0.51623">
        <ele>1925</ele>
        <time>2013-04-24T08:15:57Z</time>
      </trkpt>
      <trkpt lat="42.90451" lon="-0.51624">
        <ele>1926</ele>
        <time>2013-04-24T08:16:02Z</time>
      </trkpt>
      <trkpt lat="42.90454" lon="-0.51627">
        <ele>1928</ele>
        <time>2013-04-24T08:16:08Z</time>
      </trkpt>
      <trkpt lat="42.90456" lon="-0.51632">
        <ele>1929</ele>
        <time>2013-04-24T08:16:16Z</time>
      </trkpt>
      <trkpt lat="42.90456" lon="-0.51632">
        <ele>1929</ele>
        <time>2013-04-24T08:16:17Z</time>
      </trkpt>
      <trkpt lat="42.90461" lon="-0.51636">
        <ele>1930</ele>
        <time>2013-04-24T08:16:25Z</time>
      </trkpt>
      <trkpt lat="42.90463" lon="-0.51638">
        <ele>1930</ele>
        <time>2013-04-24T08:16:31Z</time>
      </trkpt>
      <trkpt lat="42.90466" lon="-0.51642">
        <ele>1931</ele>
        <time>2013-04-24T08:16:39Z</time>
      </trkpt>
      <trkpt lat="42.90468" lon="-0.51644">
        <ele>1932</ele>
        <time>2013-04-24T08:16:45Z</time>
      </trkpt>
      <trkpt lat="42.9047" lon="-0.51647">
        <ele>1933</ele>
        <time>2013-04-24T08:16:54Z</time>
      </trkpt>
      <trkpt lat="42.90473" lon="-0.51646">
        <ele>1934</ele>
        <time>2013-04-24T08:17:00Z</time>
      </trkpt>
      <trkpt lat="42.90476" lon="-0.51648">
        <ele>1934</ele>
        <time>2013-04-24T08:17:07Z</time>
      </trkpt>
      <trkpt lat="42.90478" lon="-0.51648">
        <ele>1934</ele>
        <time>2013-04-24T08:17:10Z</time>
      </trkpt>
      <trkpt lat="42.90482" lon="-0.5165">
        <ele>1936</ele>
        <time>2013-04-24T08:17:17Z</time>
      </trkpt>
      <trkpt lat="42.90484" lon="-0.51653">
        <ele>1936</ele>
        <time>2013-04-24T08:17:30Z</time>
      </trkpt>
      <trkpt lat="42.90484" lon="-0.51654">
        <ele>1936</ele>
        <time>2013-04-24T08:17:38Z</time>
      </trkpt>
      <trkpt lat="42.90484" lon="-0.51649">
        <ele>1936</ele>
        <time>2013-04-24T08:17:46Z</time>
      </trkpt>
      <trkpt lat="42.90483" lon="-0.51647">
        <ele>1937</ele>
        <time>2013-04-24T08:17:49Z</time>
      </trkpt>
      <trkpt lat="42.9048" lon="-0.51638">
        <ele>1937</ele>
        <time>2013-04-24T08:17:57Z</time>
      </trkpt>
      <trkpt lat="42.9048" lon="-0.51637">
        <ele>1938</ele>
        <time>2013-04-24T08:17:59Z</time>
      </trkpt>
      <trkpt lat="42.90478" lon="-0.5163">
        <ele>1940</ele>
        <time>2013-04-24T08:18:07Z</time>
      </trkpt>
      <trkpt lat="42.90476" lon="-0.51623">
        <ele>1941</ele>
        <time>2013-04-24T08:18:15Z</time>
      </trkpt>
      <trkpt lat="42.90475" lon="-0.51619">
        <ele>1942</ele>
        <time>2013-04-24T08:18:22Z</time>
      </trkpt>
      <trkpt lat="42.90478" lon="-0.51625">
        <ele>1942</ele>
        <time>2013-04-24T08:18:31Z</time>
      </trkpt>
      <trkpt lat="42.90481" lon="-0.51626">
        <ele>1942</ele>
        <time>2013-04-24T08:18:34Z</time>
      </trkpt>
      <trkpt lat="42.90485" lon="-0.51626">
        <ele>1943</ele>
        <time>2013-04-24T08:18:38Z</time>
      </trkpt>
      <trkpt lat="42.90488" lon="-0.51625">
        <ele>1944</ele>
        <time>2013-04-24T08:18:43Z</time>
      </trkpt>
      <trkpt lat="42.9049" lon="-0.51625">
        <ele>1945</ele>
        <time>2013-04-24T08:18:47Z</time>
      </trkpt>
      <trkpt lat="42.90496" lon="-0.51624">
        <ele>1946</ele>
        <time>2013-04-24T08:18:54Z</time>
      </trkpt>
      <trkpt lat="42.90498" lon="-0.51624">
        <ele>1947</ele>
        <time>2013-04-24T08:18:57Z</time>
      </trkpt>
      <trkpt lat="42.90503" lon="-0.51624">
        <ele>1948</ele>
        <time>2013-04-24T08:19:05Z</time>
      </trkpt>
      <trkpt lat="42.90505" lon="-0.51623">
        <ele>1949</ele>
        <time>2013-04-24T08:19:09Z</time>
      </trkpt>
      <trkpt lat="42.90511" lon="-0.51621">
        <ele>1950</ele>
        <time>2013-04-24T08:19:18Z</time>
      </trkpt>
      <trkpt lat="42.90515" lon="-0.51619">
        <ele>1952</ele>
        <time>2013-04-24T08:19:24Z</time>
      </trkpt>
      <trkpt lat="42.90518" lon="-0.5162">
        <ele>1953</ele>
        <time>2013-04-24T08:19:31Z</time>
      </trkpt>
      <trkpt lat="42.90522" lon="-0.5162">
        <ele>1954</ele>
        <time>2013-04-24T08:19:40Z</time>
      </trkpt>
      <trkpt lat="42.90523" lon="-0.51618">
        <ele>1954</ele>
        <time>2013-04-24T08:19:48Z</time>
      </trkpt>
      <trkpt lat="42.90524" lon="-0.51618">
        <ele>1955</ele>
        <time>2013-04-24T08:20:04Z</time>
      </trkpt>
      <trkpt lat="42.90524" lon="-0.51617">
        <ele>1955</ele>
        <time>2013-04-24T08:20:19Z</time>
      </trkpt>
      <trkpt lat="42.90522" lon="-0.51617">
        <ele>1955</ele>
        <time>2013-04-24T08:20:30Z</time>
      </trkpt>
      <trkpt lat="42.90528" lon="-0.51618">
        <ele>1957</ele>
        <time>2013-04-24T08:20:37Z</time>
      </trkpt>
      <trkpt lat="42.90534" lon="-0.51615">
        <ele>1958</ele>
        <time>2013-04-24T08:20:44Z</time>
      </trkpt>
      <trkpt lat="42.90539" lon="-0.51613">
        <ele>1960</ele>
        <time>2013-04-24T08:20:51Z</time>
      </trkpt>
      <trkpt lat="42.90542" lon="-0.51608">
        <ele>1962</ele>
        <time>2013-04-24T08:20:58Z</time>
      </trkpt>
      <trkpt lat="42.90542" lon="-0.51604">
        <ele>1962</ele>
        <time>2013-04-24T08:21:00Z</time>
      </trkpt>
      <trkpt lat="42.90547" lon="-0.51598">
        <ele>1964</ele>
        <time>2013-04-24T08:21:08Z</time>
      </trkpt>
      <trkpt lat="42.90554" lon="-0.51599">
        <ele>1965</ele>
        <time>2013-04-24T08:21:14Z</time>
      </trkpt>
      <trkpt lat="42.90558" lon="-0.51593">
        <ele>1966</ele>
        <time>2013-04-24T08:21:22Z</time>
      </trkpt>
      <trkpt lat="42.90559" lon="-0.51593">
        <ele>1966</ele>
        <time>2013-04-24T08:21:23Z</time>
      </trkpt>
      <trkpt lat="42.90563" lon="-0.51583">
        <ele>1968</ele>
        <time>2013-04-24T08:21:32Z</time>
      </trkpt>
      <trkpt lat="42.90568" lon="-0.51581">
        <ele>1969</ele>
        <time>2013-04-24T08:21:39Z</time>
      </trkpt>
      <trkpt lat="42.90569" lon="-0.51578">
        <ele>1970</ele>
        <time>2013-04-24T08:21:43Z</time>
      </trkpt>
      <trkpt lat="42.90575" lon="-0.51577">
        <ele>1971</ele>
        <time>2013-04-24T08:21:49Z</time>
      </trkpt>
      <trkpt lat="42.90578" lon="-0.51578">
        <ele>1973</ele>
        <time>2013-04-24T08:21:56Z</time>
      </trkpt>
      <trkpt lat="42.90585" lon="-0.5158">
        <ele>1975</ele>
        <time>2013-04-24T08:22:04Z</time>
      </trkpt>
      <trkpt lat="42.90589" lon="-0.51577">
        <ele>1976</ele>
        <time>2013-04-24T08:22:11Z</time>
      </trkpt>
      <trkpt lat="42.90593" lon="-0.51576">
        <ele>1977</ele>
        <time>2013-04-24T08:22:16Z</time>
      </trkpt>
      <trkpt lat="42.90596" lon="-0.51577">
        <ele>1979</ele>
        <time>2013-04-24T08:22:23Z</time>
      </trkpt>
      <trkpt lat="42.90597" lon="-0.51577">
        <ele>1979</ele>
        <time>2013-04-24T08:22:25Z</time>
      </trkpt>
      <trkpt lat="42.906" lon="-0.51574">
        <ele>1979</ele>
        <time>2013-04-24T08:22:32Z</time>
      </trkpt>
      <trkpt lat="42.90601" lon="-0.51572">
        <ele>1980</ele>
        <time>2013-04-24T08:22:36Z</time>
      </trkpt>
      <trkpt lat="42.90598" lon="-0.51567">
        <ele>1980</ele>
        <time>2013-04-24T08:22:41Z</time>
      </trkpt>
      <trkpt lat="42.90594" lon="-0.51561">
        <ele>1982</ele>
        <time>2013-04-24T08:22:47Z</time>
      </trkpt>
      <trkpt lat="42.9059" lon="-0.51557">
        <ele>1982</ele>
        <time>2013-04-24T08:22:53Z</time>
      </trkpt>
      <trkpt lat="42.90589" lon="-0.51555">
        <ele>1983</ele>
        <time>2013-04-24T08:22:58Z</time>
      </trkpt>
      <trkpt lat="42.90587" lon="-0.51553">
        <ele>1984</ele>
        <time>2013-04-24T08:23:04Z</time>
      </trkpt>
      <trkpt lat="42.90585" lon="-0.51551">
        <ele>1984</ele>
        <time>2013-04-24T08:23:08Z</time>
      </trkpt>
      <trkpt lat="42.90583" lon="-0.51547">
        <ele>1986</ele>
        <time>2013-04-24T08:23:14Z</time>
      </trkpt>
      <trkpt lat="42.90581" lon="-0.51544">
        <ele>1986</ele>
        <time>2013-04-24T08:23:19Z</time>
      </trkpt>
      <trkpt lat="42.90578" lon="-0.51541">
        <ele>1987</ele>
        <time>2013-04-24T08:23:25Z</time>
      </trkpt>
      <trkpt lat="42.90577" lon="-0.51538">
        <ele>1987</ele>
        <time>2013-04-24T08:23:27Z</time>
      </trkpt>
      <trkpt lat="42.90572" lon="-0.51529">
        <ele>1989</ele>
        <time>2013-04-24T08:23:34Z</time>
      </trkpt>
      <trkpt lat="42.9057" lon="-0.51525">
        <ele>1989</ele>
        <time>2013-04-24T08:23:39Z</time>
      </trkpt>
      <trkpt lat="42.90567" lon="-0.5152">
        <ele>1990</ele>
        <time>2013-04-24T08:23:47Z</time>
      </trkpt>
      <trkpt lat="42.90565" lon="-0.51515">
        <ele>1991</ele>
        <time>2013-04-24T08:23:54Z</time>
      </trkpt>
      <trkpt lat="42.90563" lon="-0.51514">
        <ele>1992</ele>
        <time>2013-04-24T08:24:01Z</time>
      </trkpt>
      <trkpt lat="42.90563" lon="-0.51514">
        <ele>1992</ele>
        <time>2013-04-24T08:24:04Z</time>
      </trkpt>
      <trkpt lat="42.90561" lon="-0.51514">
        <ele>1993</ele>
        <time>2013-04-24T08:24:11Z</time>
      </trkpt>
      <trkpt lat="42.9056" lon="-0.51513">
        <ele>1994</ele>
        <time>2013-04-24T08:24:17Z</time>
      </trkpt>
      <trkpt lat="42.90558" lon="-0.51513">
        <ele>1995</ele>
        <time>2013-04-24T08:24:25Z</time>
      </trkpt>
      <trkpt lat="42.90557" lon="-0.51511">
        <ele>1996</ele>
        <time>2013-04-24T08:24:30Z</time>
      </trkpt>
      <trkpt lat="42.90556" lon="-0.51509">
        <ele>1997</ele>
        <time>2013-04-24T08:24:35Z</time>
      </trkpt>
      <trkpt lat="42.90554" lon="-0.51507">
        <ele>1997</ele>
        <time>2013-04-24T08:24:40Z</time>
      </trkpt>
      <trkpt lat="42.90552" lon="-0.51503">
        <ele>1998</ele>
        <time>2013-04-24T08:24:47Z</time>
      </trkpt>
      <trkpt lat="42.90551" lon="-0.51502">
        <ele>1999</ele>
        <time>2013-04-24T08:24:50Z</time>
      </trkpt>
      <trkpt lat="42.9055" lon="-0.515">
        <ele>2000</ele>
        <time>2013-04-24T08:24:56Z</time>
      </trkpt>
      <trkpt lat="42.90547" lon="-0.51495">
        <ele>2001</ele>
        <time>2013-04-24T08:25:02Z</time>
      </trkpt>
      <trkpt lat="42.90547" lon="-0.51492">
        <ele>2002</ele>
        <time>2013-04-24T08:25:08Z</time>
      </trkpt>
      <trkpt lat="42.90547" lon="-0.5149">
        <ele>2002</ele>
        <time>2013-04-24T08:25:10Z</time>
      </trkpt>
      <trkpt lat="42.90554" lon="-0.5149">
        <ele>2003</ele>
        <time>2013-04-24T08:25:17Z</time>
      </trkpt>
      <trkpt lat="42.9056" lon="-0.51499">
        <ele>2004</ele>
        <time>2013-04-24T08:25:24Z</time>
      </trkpt>
      <trkpt lat="42.90561" lon="-0.51497">
        <ele>2005</ele>
        <time>2013-04-24T08:25:29Z</time>
      </trkpt>
      <trkpt lat="42.90566" lon="-0.51496">
        <ele>2006</ele>
        <time>2013-04-24T08:25:36Z</time>
      </trkpt>
      <trkpt lat="42.90567" lon="-0.51496">
        <ele>2007</ele>
        <time>2013-04-24T08:25:41Z</time>
      </trkpt>
      <trkpt lat="42.90569" lon="-0.51495">
        <ele>2008</ele>
        <time>2013-04-24T08:25:47Z</time>
      </trkpt>
      <trkpt lat="42.90572" lon="-0.51494">
        <ele>2009</ele>
        <time>2013-04-24T08:25:53Z</time>
      </trkpt>
      <trkpt lat="42.90571" lon="-0.51493">
        <ele>2009</ele>
        <time>2013-04-24T08:25:58Z</time>
      </trkpt>
      <trkpt lat="42.90569" lon="-0.5149">
        <ele>2009</ele>
        <time>2013-04-24T08:26:04Z</time>
      </trkpt>
      <trkpt lat="42.90565" lon="-0.51486">
        <ele>2011</ele>
        <time>2013-04-24T08:26:10Z</time>
      </trkpt>
      <trkpt lat="42.90562" lon="-0.5148">
        <ele>2013</ele>
        <time>2013-04-24T08:26:17Z</time>
      </trkpt>
      <trkpt lat="42.9056" lon="-0.51476">
        <ele>2014</ele>
        <time>2013-04-24T08:26:24Z</time>
      </trkpt>
      <trkpt lat="42.9056" lon="-0.5147">
        <ele>2013</ele>
        <time>2013-04-24T08:26:28Z</time>
      </trkpt>
      <trkpt lat="42.90567" lon="-0.51471">
        <ele>2016</ele>
        <time>2013-04-24T08:26:36Z</time>
      </trkpt>
      <trkpt lat="42.90569" lon="-0.51476">
        <ele>2016</ele>
        <time>2013-04-24T08:26:43Z</time>
      </trkpt>
      <trkpt lat="42.90574" lon="-0.51473">
        <ele>2018</ele>
        <time>2013-04-24T08:26:49Z</time>
      </trkpt>
      <trkpt lat="42.90576" lon="-0.51475">
        <ele>2018</ele>
        <time>2013-04-24T08:26:55Z</time>
      </trkpt>
      <trkpt lat="42.90582" lon="-0.51481">
        <ele>2018</ele>
        <time>2013-04-24T08:27:01Z</time>
      </trkpt>
      <trkpt lat="42.90586" lon="-0.51482">
        <ele>2019</ele>
        <time>2013-04-24T08:27:09Z</time>
      </trkpt>
      <trkpt lat="42.90587" lon="-0.51481">
        <ele>2020</ele>
        <time>2013-04-24T08:27:10Z</time>
      </trkpt>
      <trkpt lat="42.90589" lon="-0.51476">
        <ele>2021</ele>
        <time>2013-04-24T08:27:17Z</time>
      </trkpt>
      <trkpt lat="42.90594" lon="-0.51475">
        <ele>2022</ele>
        <time>2013-04-24T08:27:24Z</time>
      </trkpt>
      <trkpt lat="42.90596" lon="-0.51475">
        <ele>2024</ele>
        <time>2013-04-24T08:27:31Z</time>
      </trkpt>
      <trkpt lat="42.90603" lon="-0.51472">
        <ele>2025</ele>
        <time>2013-04-24T08:27:39Z</time>
      </trkpt>
      <trkpt lat="42.90605" lon="-0.51471">
        <ele>2026</ele>
        <time>2013-04-24T08:27:46Z</time>
      </trkpt>
      <trkpt lat="42.9061" lon="-0.5147">
        <ele>2028</ele>
        <time>2013-04-24T08:27:55Z</time>
      </trkpt>
      <trkpt lat="42.90611" lon="-0.51469">
        <ele>2028</ele>
        <time>2013-04-24T08:27:58Z</time>
      </trkpt>
      <trkpt lat="42.90614" lon="-0.51465">
        <ele>2029</ele>
        <time>2013-04-24T08:28:05Z</time>
      </trkpt>
      <trkpt lat="42.90614" lon="-0.51465">
        <ele>2029</ele>
        <time>2013-04-24T08:28:06Z</time>
      </trkpt>
      <trkpt lat="42.90615" lon="-0.5146">
        <ele>2030</ele>
        <time>2013-04-24T08:28:13Z</time>
      </trkpt>
      <trkpt lat="42.90616" lon="-0.51458">
        <ele>2031</ele>
        <time>2013-04-24T08:28:14Z</time>
      </trkpt>
      <trkpt lat="42.90616" lon="-0.51452">
        <ele>2031</ele>
        <time>2013-04-24T08:28:21Z</time>
      </trkpt>
      <trkpt lat="42.90614" lon="-0.51447">
        <ele>2031</ele>
        <time>2013-04-24T08:28:29Z</time>
      </trkpt>
      <trkpt lat="42.9061" lon="-0.51444">
        <ele>2032</ele>
        <time>2013-04-24T08:28:36Z</time>
      </trkpt>
      <trkpt lat="42.90606" lon="-0.51437">
        <ele>2034</ele>
        <time>2013-04-24T08:28:45Z</time>
      </trkpt>
      <trkpt lat="42.90603" lon="-0.51427">
        <ele>2035</ele>
        <time>2013-04-24T08:28:54Z</time>
      </trkpt>
      <trkpt lat="42.90601" lon="-0.51425">
        <ele>2036</ele>
        <time>2013-04-24T08:29:01Z</time>
      </trkpt>
      <trkpt lat="42.906" lon="-0.51423">
        <ele>2037</ele>
        <time>2013-04-24T08:29:08Z</time>
      </trkpt>
      <trkpt lat="42.906" lon="-0.5142">
        <ele>2038</ele>
        <time>2013-04-24T08:29:13Z</time>
      </trkpt>
      <trkpt lat="42.90594" lon="-0.51412">
        <ele>2039</ele>
        <time>2013-04-24T08:29:20Z</time>
      </trkpt>
      <trkpt lat="42.90589" lon="-0.51407">
        <ele>2040</ele>
        <time>2013-04-24T08:29:26Z</time>
      </trkpt>
      <trkpt lat="42.90587" lon="-0.51404">
        <ele>2041</ele>
        <time>2013-04-24T08:29:32Z</time>
      </trkpt>
      <trkpt lat="42.90584" lon="-0.514">
        <ele>2042</ele>
        <time>2013-04-24T08:29:39Z</time>
      </trkpt>
      <trkpt lat="42.90583" lon="-0.51398">
        <ele>2044</ele>
        <time>2013-04-24T08:29:45Z</time>
      </trkpt>
      <trkpt lat="42.9058" lon="-0.51395">
        <ele>2044</ele>
        <time>2013-04-24T08:29:51Z</time>
      </trkpt>
      <trkpt lat="42.90577" lon="-0.51388">
        <ele>2045</ele>
        <time>2013-04-24T08:29:57Z</time>
      </trkpt>
      <trkpt lat="42.90574" lon="-0.51388">
        <ele>2047</ele>
        <time>2013-04-24T08:30:04Z</time>
      </trkpt>
      <trkpt lat="42.90573" lon="-0.51388">
        <ele>2048</ele>
        <time>2013-04-24T08:30:09Z</time>
      </trkpt>
      <trkpt lat="42.90572" lon="-0.51388">
        <ele>2048</ele>
        <time>2013-04-24T08:30:11Z</time>
      </trkpt>
      <trkpt lat="42.9057" lon="-0.51389">
        <ele>2048</ele>
        <time>2013-04-24T08:30:17Z</time>
      </trkpt>
      <trkpt lat="42.90573" lon="-0.51391">
        <ele>2048</ele>
        <time>2013-04-24T08:30:23Z</time>
      </trkpt>
      <trkpt lat="42.90581" lon="-0.51399">
        <ele>2049</ele>
        <time>2013-04-24T08:30:30Z</time>
      </trkpt>
      <trkpt lat="42.90584" lon="-0.51404">
        <ele>2050</ele>
        <time>2013-04-24T08:30:36Z</time>
      </trkpt>
      <trkpt lat="42.90588" lon="-0.51404">
        <ele>2052</ele>
        <time>2013-04-24T08:30:43Z</time>
      </trkpt>
      <trkpt lat="42.90589" lon="-0.51402">
        <ele>2052</ele>
        <time>2013-04-24T08:30:45Z</time>
      </trkpt>
      <trkpt lat="42.90592" lon="-0.514">
        <ele>2053</ele>
        <time>2013-04-24T08:30:51Z</time>
      </trkpt>
      <trkpt lat="42.90596" lon="-0.51396">
        <ele>2054</ele>
        <time>2013-04-24T08:30:58Z</time>
      </trkpt>
      <trkpt lat="42.90597" lon="-0.51397">
        <ele>2055</ele>
        <time>2013-04-24T08:31:04Z</time>
      </trkpt>
      <trkpt lat="42.90598" lon="-0.51396">
        <ele>2056</ele>
        <time>2013-04-24T08:31:06Z</time>
      </trkpt>
      <trkpt lat="42.90604" lon="-0.51394">
        <ele>2057</ele>
        <time>2013-04-24T08:31:13Z</time>
      </trkpt>
      <trkpt lat="42.90606" lon="-0.51392">
        <ele>2058</ele>
        <time>2013-04-24T08:31:20Z</time>
      </trkpt>
      <trkpt lat="42.90607" lon="-0.51391">
        <ele>2059</ele>
        <time>2013-04-24T08:31:24Z</time>
      </trkpt>
      <trkpt lat="42.90609" lon="-0.5139">
        <ele>2059</ele>
        <time>2013-04-24T08:31:26Z</time>
      </trkpt>
      <trkpt lat="42.90612" lon="-0.51391">
        <ele>2061</ele>
        <time>2013-04-24T08:31:33Z</time>
      </trkpt>
      <trkpt lat="42.90615" lon="-0.51388">
        <ele>2062</ele>
        <time>2013-04-24T08:31:39Z</time>
      </trkpt>
      <trkpt lat="42.90617" lon="-0.51391">
        <ele>2063</ele>
        <time>2013-04-24T08:31:45Z</time>
      </trkpt>
      <trkpt lat="42.90617" lon="-0.5139">
        <ele>2063</ele>
        <time>2013-04-24T08:31:46Z</time>
      </trkpt>
      <trkpt lat="42.90621" lon="-0.51385">
        <ele>2065</ele>
        <time>2013-04-24T08:31:52Z</time>
      </trkpt>
      <trkpt lat="42.90625" lon="-0.51383">
        <ele>2066</ele>
        <time>2013-04-24T08:31:58Z</time>
      </trkpt>
      <trkpt lat="42.90627" lon="-0.51384">
        <ele>2066</ele>
        <time>2013-04-24T08:32:04Z</time>
      </trkpt>
      <trkpt lat="42.90629" lon="-0.51387">
        <ele>2067</ele>
        <time>2013-04-24T08:32:09Z</time>
      </trkpt>
      <trkpt lat="42.90632" lon="-0.51387">
        <ele>2068</ele>
        <time>2013-04-24T08:32:17Z</time>
      </trkpt>
      <trkpt lat="42.90633" lon="-0.51387">
        <ele>2068</ele>
        <time>2013-04-24T08:32:18Z</time>
      </trkpt>
      <trkpt lat="42.90636" lon="-0.51384">
        <ele>2069</ele>
        <time>2013-04-24T08:32:24Z</time>
      </trkpt>
      <trkpt lat="42.9064" lon="-0.51382">
        <ele>2071</ele>
        <time>2013-04-24T08:32:31Z</time>
      </trkpt>
      <trkpt lat="42.90643" lon="-0.51381">
        <ele>2072</ele>
        <time>2013-04-24T08:32:37Z</time>
      </trkpt>
      <trkpt lat="42.90647" lon="-0.51378">
        <ele>2073</ele>
        <time>2013-04-24T08:32:44Z</time>
      </trkpt>
      <trkpt lat="42.90652" lon="-0.51376">
        <ele>2074</ele>
        <time>2013-04-24T08:32:51Z</time>
      </trkpt>
      <trkpt lat="42.90654" lon="-0.51378">
        <ele>2075</ele>
        <time>2013-04-24T08:32:56Z</time>
      </trkpt>
      <trkpt lat="42.90656" lon="-0.51377">
        <ele>2075</ele>
        <time>2013-04-24T08:32:58Z</time>
      </trkpt>
      <trkpt lat="42.9066" lon="-0.51376">
        <ele>2076</ele>
        <time>2013-04-24T08:33:04Z</time>
      </trkpt>
      <trkpt lat="42.90662" lon="-0.51376">
        <ele>2077</ele>
        <time>2013-04-24T08:33:08Z</time>
      </trkpt>
      <trkpt lat="42.90666" lon="-0.51375">
        <ele>2078</ele>
        <time>2013-04-24T08:33:16Z</time>
      </trkpt>
      <trkpt lat="42.90669" lon="-0.51373">
        <ele>2078</ele>
        <time>2013-04-24T08:33:21Z</time>
      </trkpt>
      <trkpt lat="42.90672" lon="-0.51372">
        <ele>2078</ele>
        <time>2013-04-24T08:33:27Z</time>
      </trkpt>
      <trkpt lat="42.90674" lon="-0.51371">
        <ele>2080</ele>
        <time>2013-04-24T08:33:34Z</time>
      </trkpt>
      <trkpt lat="42.90676" lon="-0.51371">
        <ele>2081</ele>
        <time>2013-04-24T08:33:40Z</time>
      </trkpt>
      <trkpt lat="42.90678" lon="-0.51368">
        <ele>2082</ele>
        <time>2013-04-24T08:33:46Z</time>
      </trkpt>
      <trkpt lat="42.90681" lon="-0.51367">
        <ele>2083</ele>
        <time>2013-04-24T08:33:53Z</time>
      </trkpt>
      <trkpt lat="42.90685" lon="-0.51367">
        <ele>2084</ele>
        <time>2013-04-24T08:33:59Z</time>
      </trkpt>
      <trkpt lat="42.90686" lon="-0.51368">
        <ele>2084</ele>
        <time>2013-04-24T08:34:02Z</time>
      </trkpt>
      <trkpt lat="42.9069" lon="-0.51365">
        <ele>2085</ele>
        <time>2013-04-24T08:34:09Z</time>
      </trkpt>
      <trkpt lat="42.90691" lon="-0.51362">
        <ele>2086</ele>
        <time>2013-04-24T08:34:15Z</time>
      </trkpt>
      <trkpt lat="42.90697" lon="-0.51363">
        <ele>2087</ele>
        <time>2013-04-24T08:34:23Z</time>
      </trkpt>
      <trkpt lat="42.90699" lon="-0.51357">
        <ele>2088</ele>
        <time>2013-04-24T08:34:30Z</time>
      </trkpt>
      <trkpt lat="42.90701" lon="-0.51355">
        <ele>2089</ele>
        <time>2013-04-24T08:34:36Z</time>
      </trkpt>
      <trkpt lat="42.90705" lon="-0.51357">
        <ele>2090</ele>
        <time>2013-04-24T08:34:44Z</time>
      </trkpt>
      <trkpt lat="42.90706" lon="-0.51357">
        <ele>2090</ele>
        <time>2013-04-24T08:34:45Z</time>
      </trkpt>
      <trkpt lat="42.90711" lon="-0.51358">
        <ele>2091</ele>
        <time>2013-04-24T08:34:53Z</time>
      </trkpt>
      <trkpt lat="42.90712" lon="-0.51358">
        <ele>2092</ele>
        <time>2013-04-24T08:34:55Z</time>
      </trkpt>
      <trkpt lat="42.90716" lon="-0.51357">
        <ele>2092</ele>
        <time>2013-04-24T08:35:02Z</time>
      </trkpt>
      <trkpt lat="42.90719" lon="-0.51355">
        <ele>2093</ele>
        <time>2013-04-24T08:35:07Z</time>
      </trkpt>
      <trkpt lat="42.9072" lon="-0.51353">
        <ele>2094</ele>
        <time>2013-04-24T08:35:12Z</time>
      </trkpt>
      <trkpt lat="42.90724" lon="-0.51354">
        <ele>2096</ele>
        <time>2013-04-24T08:35:20Z</time>
      </trkpt>
      <trkpt lat="42.90727" lon="-0.51357">
        <ele>2096</ele>
        <time>2013-04-24T08:35:26Z</time>
      </trkpt>
      <trkpt lat="42.90729" lon="-0.51356">
        <ele>2098</ele>
        <time>2013-04-24T08:35:33Z</time>
      </trkpt>
      <trkpt lat="42.90728" lon="-0.51352">
        <ele>2098</ele>
        <time>2013-04-24T08:35:42Z</time>
      </trkpt>
      <trkpt lat="42.90726" lon="-0.51348">
        <ele>2098</ele>
        <time>2013-04-24T08:35:51Z</time>
      </trkpt>
      <trkpt lat="42.90725" lon="-0.51346">
        <ele>2099</ele>
        <time>2013-04-24T08:36:00Z</time>
      </trkpt>
      <trkpt lat="42.90725" lon="-0.51345">
        <ele>2098</ele>
        <time>2013-04-24T08:36:01Z</time>
      </trkpt>
      <trkpt lat="42.90724" lon="-0.51342">
        <ele>2099</ele>
        <time>2013-04-24T08:36:07Z</time>
      </trkpt>
      <trkpt lat="42.90722" lon="-0.51336">
        <ele>2101</ele>
        <time>2013-04-24T08:36:15Z</time>
      </trkpt>
      <trkpt lat="42.90721" lon="-0.51332">
        <ele>2101</ele>
        <time>2013-04-24T08:36:21Z</time>
      </trkpt>
      <trkpt lat="42.9072" lon="-0.51329">
        <ele>2101</ele>
        <time>2013-04-24T08:36:23Z</time>
      </trkpt>
      <trkpt lat="42.90719" lon="-0.51329">
        <ele>2103</ele>
        <time>2013-04-24T08:36:30Z</time>
      </trkpt>
      <trkpt lat="42.90716" lon="-0.51324">
        <ele>2104</ele>
        <time>2013-04-24T08:36:39Z</time>
      </trkpt>
      <trkpt lat="42.90712" lon="-0.51317">
        <ele>2105</ele>
        <time>2013-04-24T08:36:47Z</time>
      </trkpt>
      <trkpt lat="42.90711" lon="-0.51316">
        <ele>2107</ele>
        <time>2013-04-24T08:36:56Z</time>
      </trkpt>
      <trkpt lat="42.9071" lon="-0.51314">
        <ele>2107</ele>
        <time>2013-04-24T08:36:59Z</time>
      </trkpt>
      <trkpt lat="42.90709" lon="-0.51312">
        <ele>2108</ele>
        <time>2013-04-24T08:37:01Z</time>
      </trkpt>
      <trkpt lat="42.90707" lon="-0.51308">
        <ele>2108</ele>
        <time>2013-04-24T08:37:08Z</time>
      </trkpt>
      <trkpt lat="42.90705" lon="-0.51307">
        <ele>2110</ele>
        <time>2013-04-24T08:37:13Z</time>
      </trkpt>
      <trkpt lat="42.90707" lon="-0.5131">
        <ele>2110</ele>
        <time>2013-04-24T08:37:23Z</time>
      </trkpt>
      <trkpt lat="42.90711" lon="-0.51321">
        <ele>2110</ele>
        <time>2013-04-24T08:37:35Z</time>
      </trkpt>
      <trkpt lat="42.90712" lon="-0.51321">
        <ele>2110</ele>
        <time>2013-04-24T08:37:48Z</time>
      </trkpt>
      <trkpt lat="42.90715" lon="-0.51319">
        <ele>2110</ele>
        <time>2013-04-24T08:37:55Z</time>
      </trkpt>
      <trkpt lat="42.90719" lon="-0.5132">
        <ele>2112</ele>
        <time>2013-04-24T08:38:04Z</time>
      </trkpt>
      <trkpt lat="42.90721" lon="-0.51321">
        <ele>2113</ele>
        <time>2013-04-24T08:38:10Z</time>
      </trkpt>
      <trkpt lat="42.90725" lon="-0.51319">
        <ele>2113</ele>
        <time>2013-04-24T08:38:17Z</time>
      </trkpt>
      <trkpt lat="42.9073" lon="-0.51317">
        <ele>2114</ele>
        <time>2013-04-24T08:38:21Z</time>
      </trkpt>
      <trkpt lat="42.90733" lon="-0.51321">
        <ele>2115</ele>
        <time>2013-04-24T08:38:29Z</time>
      </trkpt>
      <trkpt lat="42.90737" lon="-0.51321">
        <ele>2116</ele>
        <time>2013-04-24T08:38:36Z</time>
      </trkpt>
      <trkpt lat="42.90738" lon="-0.5132">
        <ele>2116</ele>
        <time>2013-04-24T08:38:38Z</time>
      </trkpt>
      <trkpt lat="42.90743" lon="-0.5132">
        <ele>2117</ele>
        <time>2013-04-24T08:38:45Z</time>
      </trkpt>
      <trkpt lat="42.90746" lon="-0.51319">
        <ele>2118</ele>
        <time>2013-04-24T08:38:51Z</time>
      </trkpt>
      <trkpt lat="42.90749" lon="-0.51316">
        <ele>2118</ele>
        <time>2013-04-24T08:38:55Z</time>
      </trkpt>
      <trkpt lat="42.90752" lon="-0.51317">
        <ele>2120</ele>
        <time>2013-04-24T08:39:02Z</time>
      </trkpt>
      <trkpt lat="42.90753" lon="-0.51317">
        <ele>2120</ele>
        <time>2013-04-24T08:39:08Z</time>
      </trkpt>
      <trkpt lat="42.90755" lon="-0.51316">
        <ele>2121</ele>
        <time>2013-04-24T08:39:10Z</time>
      </trkpt>
      <trkpt lat="42.9076" lon="-0.5131">
        <ele>2121</ele>
        <time>2013-04-24T08:39:17Z</time>
      </trkpt>
      <trkpt lat="42.90761" lon="-0.51309">
        <ele>2122</ele>
        <time>2013-04-24T08:39:22Z</time>
      </trkpt>
      <trkpt lat="42.90763" lon="-0.51305">
        <ele>2124</ele>
        <time>2013-04-24T08:39:29Z</time>
      </trkpt>
      <trkpt lat="42.90767" lon="-0.51298">
        <ele>2124</ele>
        <time>2013-04-24T08:39:35Z</time>
      </trkpt>
      <trkpt lat="42.9077" lon="-0.51296">
        <ele>2126</ele>
        <time>2013-04-24T08:39:44Z</time>
      </trkpt>
      <trkpt lat="42.90772" lon="-0.51292">
        <ele>2127</ele>
        <time>2013-04-24T08:39:50Z</time>
      </trkpt>
      <trkpt lat="42.90773" lon="-0.51284">
        <ele>2128</ele>
        <time>2013-04-24T08:39:56Z</time>
      </trkpt>
      <trkpt lat="42.90775" lon="-0.51281">
        <ele>2128</ele>
        <time>2013-04-24T08:40:00Z</time>
      </trkpt>
      <trkpt lat="42.90777" lon="-0.51279">
        <ele>2129</ele>
        <time>2013-04-24T08:40:07Z</time>
      </trkpt>
      <trkpt lat="42.90777" lon="-0.51279">
        <ele>2129</ele>
        <time>2013-04-24T08:40:09Z</time>
      </trkpt>
      <trkpt lat="42.90779" lon="-0.51268">
        <ele>2131</ele>
        <time>2013-04-24T08:40:17Z</time>
      </trkpt>
      <trkpt lat="42.9078" lon="-0.51266">
        <ele>2131</ele>
        <time>2013-04-24T08:40:23Z</time>
      </trkpt>
      <trkpt lat="42.90781" lon="-0.51263">
        <ele>2132</ele>
        <time>2013-04-24T08:40:29Z</time>
      </trkpt>
      <trkpt lat="42.90782" lon="-0.5126">
        <ele>2133</ele>
        <time>2013-04-24T08:40:34Z</time>
      </trkpt>
      <trkpt lat="42.90783" lon="-0.51261">
        <ele>2133</ele>
        <time>2013-04-24T08:40:36Z</time>
      </trkpt>
      <trkpt lat="42.90785" lon="-0.51258">
        <ele>2134</ele>
        <time>2013-04-24T08:40:42Z</time>
      </trkpt>
      <trkpt lat="42.90785" lon="-0.51257">
        <ele>2134</ele>
        <time>2013-04-24T08:40:48Z</time>
      </trkpt>
      <trkpt lat="42.90785" lon="-0.51256">
        <ele>2135</ele>
        <time>2013-04-24T08:40:51Z</time>
      </trkpt>
      <trkpt lat="42.90786" lon="-0.51254">
        <ele>2135</ele>
        <time>2013-04-24T08:40:53Z</time>
      </trkpt>
      <trkpt lat="42.90789" lon="-0.5125">
        <ele>2136</ele>
        <time>2013-04-24T08:41:00Z</time>
      </trkpt>
      <trkpt lat="42.9079" lon="-0.51247">
        <ele>2136</ele>
        <time>2013-04-24T08:41:05Z</time>
      </trkpt>
      <trkpt lat="42.90793" lon="-0.51242">
        <ele>2138</ele>
        <time>2013-04-24T08:41:12Z</time>
      </trkpt>
      <trkpt lat="42.90794" lon="-0.51242">
        <ele>2138</ele>
        <time>2013-04-24T08:41:16Z</time>
      </trkpt>
      <trkpt lat="42.90798" lon="-0.51231">
        <ele>2139</ele>
        <time>2013-04-24T08:41:23Z</time>
      </trkpt>
      <trkpt lat="42.90801" lon="-0.5123">
        <ele>2140</ele>
        <time>2013-04-24T08:41:31Z</time>
      </trkpt>
      <trkpt lat="42.90803" lon="-0.51223">
        <ele>2141</ele>
        <time>2013-04-24T08:41:38Z</time>
      </trkpt>
      <trkpt lat="42.90805" lon="-0.51218">
        <ele>2142</ele>
        <time>2013-04-24T08:41:45Z</time>
      </trkpt>
      <trkpt lat="42.90806" lon="-0.51214">
        <ele>2143</ele>
        <time>2013-04-24T08:41:51Z</time>
      </trkpt>
      <trkpt lat="42.90808" lon="-0.51212">
        <ele>2144</ele>
        <time>2013-04-24T08:41:58Z</time>
      </trkpt>
      <trkpt lat="42.90809" lon="-0.51212">
        <ele>2144</ele>
        <time>2013-04-24T08:41:59Z</time>
      </trkpt>
      <trkpt lat="42.90812" lon="-0.51207">
        <ele>2145</ele>
        <time>2013-04-24T08:42:07Z</time>
      </trkpt>
      <trkpt lat="42.90812" lon="-0.51208">
        <ele>2145</ele>
        <time>2013-04-24T08:42:09Z</time>
      </trkpt>
      <trkpt lat="42.90815" lon="-0.51204">
        <ele>2147</ele>
        <time>2013-04-24T08:42:16Z</time>
      </trkpt>
      <trkpt lat="42.90817" lon="-0.51201">
        <ele>2148</ele>
        <time>2013-04-24T08:42:22Z</time>
      </trkpt>
      <trkpt lat="42.90817" lon="-0.51201">
        <ele>2148</ele>
        <time>2013-04-24T08:42:24Z</time>
      </trkpt>
      <trkpt lat="42.90819" lon="-0.51196">
        <ele>2149</ele>
        <time>2013-04-24T08:42:31Z</time>
      </trkpt>
      <trkpt lat="42.90821" lon="-0.51193">
        <ele>2150</ele>
        <time>2013-04-24T08:42:36Z</time>
      </trkpt>
      <trkpt lat="42.90822" lon="-0.51193">
        <ele>2150</ele>
        <time>2013-04-24T08:42:39Z</time>
      </trkpt>
      <trkpt lat="42.90825" lon="-0.51189">
        <ele>2150</ele>
        <time>2013-04-24T08:42:45Z</time>
      </trkpt>
      <trkpt lat="42.90826" lon="-0.51189">
        <ele>2151</ele>
        <time>2013-04-24T08:42:49Z</time>
      </trkpt>
      <trkpt lat="42.90828" lon="-0.51187">
        <ele>2151</ele>
        <time>2013-04-24T08:42:51Z</time>
      </trkpt>
      <trkpt lat="42.90827" lon="-0.51186">
        <ele>2152</ele>
        <time>2013-04-24T08:42:58Z</time>
      </trkpt>
      <trkpt lat="42.90828" lon="-0.51184">
        <ele>2152</ele>
        <time>2013-04-24T08:43:01Z</time>
      </trkpt>
      <trkpt lat="42.9083" lon="-0.5118">
        <ele>2153</ele>
        <time>2013-04-24T08:43:06Z</time>
      </trkpt>
      <trkpt lat="42.90832" lon="-0.51178">
        <ele>2153</ele>
        <time>2013-04-24T08:43:11Z</time>
      </trkpt>
      <trkpt lat="42.90835" lon="-0.51176">
        <ele>2154</ele>
        <time>2013-04-24T08:43:17Z</time>
      </trkpt>
      <trkpt lat="42.90837" lon="-0.51173">
        <ele>2154</ele>
        <time>2013-04-24T08:43:22Z</time>
      </trkpt>
      <trkpt lat="42.90839" lon="-0.51172">
        <ele>2155</ele>
        <time>2013-04-24T08:43:28Z</time>
      </trkpt>
      <trkpt lat="42.9084" lon="-0.51171">
        <ele>2155</ele>
        <time>2013-04-24T08:43:29Z</time>
      </trkpt>
      <trkpt lat="42.90841" lon="-0.51169">
        <ele>2155</ele>
        <time>2013-04-24T08:43:31Z</time>
      </trkpt>
      <trkpt lat="42.90843" lon="-0.51167">
        <ele>2156</ele>
        <time>2013-04-24T08:43:38Z</time>
      </trkpt>
      <trkpt lat="42.90846" lon="-0.51164">
        <ele>2157</ele>
        <time>2013-04-24T08:43:44Z</time>
      </trkpt>
      <trkpt lat="42.90846" lon="-0.51164">
        <ele>2158</ele>
        <time>2013-04-24T08:43:45Z</time>
      </trkpt>
      <trkpt lat="42.90849" lon="-0.51162">
        <ele>2159</ele>
        <time>2013-04-24T08:43:52Z</time>
      </trkpt>
      <trkpt lat="42.90852" lon="-0.51161">
        <ele>2160</ele>
        <time>2013-04-24T08:43:58Z</time>
      </trkpt>
      <trkpt lat="42.90855" lon="-0.51158">
        <ele>2160</ele>
        <time>2013-04-24T08:44:04Z</time>
      </trkpt>
      <trkpt lat="42.90857" lon="-0.51156">
        <ele>2161</ele>
        <time>2013-04-24T08:44:09Z</time>
      </trkpt>
      <trkpt lat="42.9086" lon="-0.51151">
        <ele>2162</ele>
        <time>2013-04-24T08:44:15Z</time>
      </trkpt>
      <trkpt lat="42.90861" lon="-0.51145">
        <ele>2163</ele>
        <time>2013-04-24T08:44:21Z</time>
      </trkpt>
      <trkpt lat="42.90862" lon="-0.51143">
        <ele>2163</ele>
        <time>2013-04-24T08:44:27Z</time>
      </trkpt>
      <trkpt lat="42.90864" lon="-0.5114">
        <ele>2165</ele>
        <time>2013-04-24T08:44:33Z</time>
      </trkpt>
      <trkpt lat="42.90866" lon="-0.51136">
        <ele>2165</ele>
        <time>2013-04-24T08:44:38Z</time>
      </trkpt>
      <trkpt lat="42.9087" lon="-0.51134">
        <ele>2166</ele>
        <time>2013-04-24T08:44:45Z</time>
      </trkpt>
      <trkpt lat="42.9087" lon="-0.51135">
        <ele>2166</ele>
        <time>2013-04-24T08:44:47Z</time>
      </trkpt>
      <trkpt lat="42.90873" lon="-0.51134">
        <ele>2167</ele>
        <time>2013-04-24T08:44:53Z</time>
      </trkpt>
      <trkpt lat="42.90875" lon="-0.51131">
        <ele>2168</ele>
        <time>2013-04-24T08:44:59Z</time>
      </trkpt>
      <trkpt lat="42.90877" lon="-0.51128">
        <ele>2169</ele>
        <time>2013-04-24T08:45:05Z</time>
      </trkpt>
      <trkpt lat="42.90878" lon="-0.51128">
        <ele>2169</ele>
        <time>2013-04-24T08:45:07Z</time>
      </trkpt>
      <trkpt lat="42.9088" lon="-0.51125">
        <ele>2170</ele>
        <time>2013-04-24T08:45:12Z</time>
      </trkpt>
      <trkpt lat="42.90883" lon="-0.51121">
        <ele>2171</ele>
        <time>2013-04-24T08:45:17Z</time>
      </trkpt>
      <trkpt lat="42.90886" lon="-0.51119">
        <ele>2171</ele>
        <time>2013-04-24T08:45:23Z</time>
      </trkpt>
      <trkpt lat="42.90888" lon="-0.51117">
        <ele>2172</ele>
        <time>2013-04-24T08:45:28Z</time>
      </trkpt>
      <trkpt lat="42.9089" lon="-0.51117">
        <ele>2173</ele>
        <time>2013-04-24T08:45:33Z</time>
      </trkpt>
      <trkpt lat="42.90892" lon="-0.51116">
        <ele>2173</ele>
        <time>2013-04-24T08:45:39Z</time>
      </trkpt>
      <trkpt lat="42.90893" lon="-0.51116">
        <ele>2174</ele>
        <time>2013-04-24T08:45:45Z</time>
      </trkpt>
      <trkpt lat="42.90894" lon="-0.51114">
        <ele>2175</ele>
        <time>2013-04-24T08:45:50Z</time>
      </trkpt>
      <trkpt lat="42.90896" lon="-0.51113">
        <ele>2176</ele>
        <time>2013-04-24T08:45:55Z</time>
      </trkpt>
      <trkpt lat="42.90899" lon="-0.51111">
        <ele>2177</ele>
        <time>2013-04-24T08:46:01Z</time>
      </trkpt>
      <trkpt lat="42.90899" lon="-0.51109">
        <ele>2177</ele>
        <time>2013-04-24T08:46:05Z</time>
      </trkpt>
      <trkpt lat="42.909" lon="-0.51108">
        <ele>2177</ele>
        <time>2013-04-24T08:46:08Z</time>
      </trkpt>
      <trkpt lat="42.90903" lon="-0.51106">
        <ele>2178</ele>
        <time>2013-04-24T08:46:15Z</time>
      </trkpt>
      <trkpt lat="42.90903" lon="-0.51107">
        <ele>2178</ele>
        <time>2013-04-24T08:46:17Z</time>
      </trkpt>
      <trkpt lat="42.90905" lon="-0.51107">
        <ele>2180</ele>
        <time>2013-04-24T08:46:22Z</time>
      </trkpt>
      <trkpt lat="42.90908" lon="-0.51107">
        <ele>2180</ele>
        <time>2013-04-24T08:46:28Z</time>
      </trkpt>
      <trkpt lat="42.9091" lon="-0.51107">
        <ele>2181</ele>
        <time>2013-04-24T08:46:32Z</time>
      </trkpt>
      <trkpt lat="42.90911" lon="-0.51107">
        <ele>2181</ele>
        <time>2013-04-24T08:46:36Z</time>
      </trkpt>
      <trkpt lat="42.90913" lon="-0.51107">
        <ele>2182</ele>
        <time>2013-04-24T08:46:41Z</time>
      </trkpt>
      <trkpt lat="42.90916" lon="-0.51107">
        <ele>2183</ele>
        <time>2013-04-24T08:46:47Z</time>
      </trkpt>
      <trkpt lat="42.90917" lon="-0.51108">
        <ele>2183</ele>
        <time>2013-04-24T08:46:57Z</time>
      </trkpt>
      <trkpt lat="42.90919" lon="-0.51107">
        <ele>2184</ele>
        <time>2013-04-24T08:47:07Z</time>
      </trkpt>
      <trkpt lat="42.90919" lon="-0.51107">
        <ele>2184</ele>
        <time>2013-04-24T08:47:15Z</time>
      </trkpt>
      <trkpt lat="42.90919" lon="-0.51107">
        <ele>2185</ele>
        <time>2013-04-24T08:47:24Z</time>
      </trkpt>
      <trkpt lat="42.90919" lon="-0.51107">
        <ele>2184</ele>
        <time>2013-04-24T08:47:44Z</time>
      </trkpt>
      <trkpt lat="42.90919" lon="-0.51107">
        <ele>2184</ele>
        <time>2013-04-24T08:47:45Z</time>
      </trkpt>
      <trkpt lat="42.9092" lon="-0.51109">
        <ele>2184</ele>
        <time>2013-04-24T08:47:58Z</time>
      </trkpt>
      <trkpt lat="42.90917" lon="-0.51105">
        <ele>2185</ele>
        <time>2013-04-24T08:48:05Z</time>
      </trkpt>
      <trkpt lat="42.90916" lon="-0.51104">
        <ele>2186</ele>
        <time>2013-04-24T08:48:06Z</time>
      </trkpt>
      <trkpt lat="42.90914" lon="-0.511">
        <ele>2187</ele>
        <time>2013-04-24T08:48:13Z</time>
      </trkpt>
      <trkpt lat="42.9091" lon="-0.51094">
        <ele>2188</ele>
        <time>2013-04-24T08:48:21Z</time>
      </trkpt>
      <trkpt lat="42.90905" lon="-0.51089">
        <ele>2189</ele>
        <time>2013-04-24T08:48:27Z</time>
      </trkpt>
      <trkpt lat="42.90903" lon="-0.51086">
        <ele>2190</ele>
        <time>2013-04-24T08:48:32Z</time>
      </trkpt>
      <trkpt lat="42.90903" lon="-0.51084">
        <ele>2190</ele>
        <time>2013-04-24T08:48:39Z</time>
      </trkpt>
      <trkpt lat="42.90902" lon="-0.51082">
        <ele>2191</ele>
        <time>2013-04-24T08:48:47Z</time>
      </trkpt>
      <trkpt lat="42.90902" lon="-0.51081">
        <ele>2192</ele>
        <time>2013-04-24T08:48:57Z</time>
      </trkpt>
      <trkpt lat="42.909" lon="-0.51078">
        <ele>2192</ele>
        <time>2013-04-24T08:49:03Z</time>
      </trkpt>
      <trkpt lat="42.90896" lon="-0.51075">
        <ele>2193</ele>
        <time>2013-04-24T08:49:09Z</time>
      </trkpt>
      <trkpt lat="42.90895" lon="-0.51074">
        <ele>2193</ele>
        <time>2013-04-24T08:49:15Z</time>
      </trkpt>
      <trkpt lat="42.90898" lon="-0.51075">
        <ele>2194</ele>
        <time>2013-04-24T08:49:21Z</time>
      </trkpt>
      <trkpt lat="42.90901" lon="-0.51074">
        <ele>2195</ele>
        <time>2013-04-24T08:49:27Z</time>
      </trkpt>
      <trkpt lat="42.90901" lon="-0.51074">
        <ele>2196</ele>
        <time>2013-04-24T08:49:28Z</time>
      </trkpt>
      <trkpt lat="42.90904" lon="-0.51072">
        <ele>2197</ele>
        <time>2013-04-24T08:49:35Z</time>
      </trkpt>
      <trkpt lat="42.90908" lon="-0.51071">
        <ele>2198</ele>
        <time>2013-04-24T08:49:41Z</time>
      </trkpt>
      <trkpt lat="42.90909" lon="-0.51071">
        <ele>2198</ele>
        <time>2013-04-24T08:49:46Z</time>
      </trkpt>
      <trkpt lat="42.9091" lon="-0.51071">
        <ele>2198</ele>
        <time>2013-04-24T08:49:47Z</time>
      </trkpt>
      <trkpt lat="42.90916" lon="-0.51069">
        <ele>2200</ele>
        <time>2013-04-24T08:49:54Z</time>
      </trkpt>
      <trkpt lat="42.90923" lon="-0.51069">
        <ele>2202</ele>
        <time>2013-04-24T08:50:02Z</time>
      </trkpt>
      <trkpt lat="42.90927" lon="-0.51071">
        <ele>2203</ele>
        <time>2013-04-24T08:50:09Z</time>
      </trkpt>
      <trkpt lat="42.90929" lon="-0.51076">
        <ele>2204</ele>
        <time>2013-04-24T08:50:16Z</time>
      </trkpt>
      <trkpt lat="42.90934" lon="-0.51082">
        <ele>2205</ele>
        <time>2013-04-24T08:50:24Z</time>
      </trkpt>
      <trkpt lat="42.90935" lon="-0.51082">
        <ele>2205</ele>
        <time>2013-04-24T08:50:25Z</time>
      </trkpt>
      <trkpt lat="42.90937" lon="-0.51083">
        <ele>2205</ele>
        <time>2013-04-24T08:50:28Z</time>
      </trkpt>
      <trkpt lat="42.90941" lon="-0.51086">
        <ele>2207</ele>
        <time>2013-04-24T08:50:36Z</time>
      </trkpt>
      <trkpt lat="42.90946" lon="-0.51091">
        <ele>2208</ele>
        <time>2013-04-24T08:50:44Z</time>
      </trkpt>
      <trkpt lat="42.90949" lon="-0.51093">
        <ele>2209</ele>
        <time>2013-04-24T08:50:50Z</time>
      </trkpt>
      <trkpt lat="42.90953" lon="-0.51094">
        <ele>2210</ele>
        <time>2013-04-24T08:50:57Z</time>
      </trkpt>
      <trkpt lat="42.90957" lon="-0.51096">
        <ele>2210</ele>
        <time>2013-04-24T08:51:05Z</time>
      </trkpt>
      <trkpt lat="42.90959" lon="-0.51096">
        <ele>2211</ele>
        <time>2013-04-24T08:51:10Z</time>
      </trkpt>
      <trkpt lat="42.90962" lon="-0.51097">
        <ele>2212</ele>
        <time>2013-04-24T08:51:15Z</time>
      </trkpt>
      <trkpt lat="42.90962" lon="-0.51097">
        <ele>2213</ele>
        <time>2013-04-24T08:51:18Z</time>
      </trkpt>
      <trkpt lat="42.90966" lon="-0.51099">
        <ele>2212</ele>
        <time>2013-04-24T08:51:25Z</time>
      </trkpt>
      <trkpt lat="42.90966" lon="-0.511">
        <ele>2213</ele>
        <time>2013-04-24T08:51:27Z</time>
      </trkpt>
      <trkpt lat="42.90969" lon="-0.51102">
        <ele>2214</ele>
        <time>2013-04-24T08:51:33Z</time>
      </trkpt>
      <trkpt lat="42.90973" lon="-0.51104">
        <ele>2215</ele>
        <time>2013-04-24T08:51:41Z</time>
      </trkpt>
      <trkpt lat="42.90976" lon="-0.51105">
        <ele>2215</ele>
        <time>2013-04-24T08:51:48Z</time>
      </trkpt>
      <trkpt lat="42.90979" lon="-0.51107">
        <ele>2216</ele>
        <time>2013-04-24T08:51:55Z</time>
      </trkpt>
      <trkpt lat="42.9098" lon="-0.51107">
        <ele>2216</ele>
        <time>2013-04-24T08:51:56Z</time>
      </trkpt>
      <trkpt lat="42.90982" lon="-0.51109">
        <ele>2216</ele>
        <time>2013-04-24T08:52:02Z</time>
      </trkpt>
      <trkpt lat="42.90985" lon="-0.51111">
        <ele>2217</ele>
        <time>2013-04-24T08:52:09Z</time>
      </trkpt>
      <trkpt lat="42.90987" lon="-0.51113">
        <ele>2218</ele>
        <time>2013-04-24T08:52:14Z</time>
      </trkpt>
      <trkpt lat="42.90989" lon="-0.51116">
        <ele>2219</ele>
        <time>2013-04-24T08:52:20Z</time>
      </trkpt>
      <trkpt lat="42.90992" lon="-0.51117">
        <ele>2219</ele>
        <time>2013-04-24T08:52:26Z</time>
      </trkpt>
      <trkpt lat="42.90993" lon="-0.5112">
        <ele>2219</ele>
        <time>2013-04-24T08:52:31Z</time>
      </trkpt>
      <trkpt lat="42.90996" lon="-0.51122">
        <ele>2220</ele>
        <time>2013-04-24T08:52:38Z</time>
      </trkpt>
      <trkpt lat="42.90999" lon="-0.51123">
        <ele>2221</ele>
        <time>2013-04-24T08:52:44Z</time>
      </trkpt>
      <trkpt lat="42.91" lon="-0.51124">
        <ele>2221</ele>
        <time>2013-04-24T08:52:47Z</time>
      </trkpt>
      <trkpt lat="42.91001" lon="-0.51127">
        <ele>2221</ele>
        <time>2013-04-24T08:52:54Z</time>
      </trkpt>
      <trkpt lat="42.91004" lon="-0.5113">
        <ele>2223</ele>
        <time>2013-04-24T08:53:01Z</time>
      </trkpt>
      <trkpt lat="42.91006" lon="-0.51133">
        <ele>2223</ele>
        <time>2013-04-24T08:53:07Z</time>
      </trkpt>
      <trkpt lat="42.91009" lon="-0.51138">
        <ele>2224</ele>
        <time>2013-04-24T08:53:14Z</time>
      </trkpt>
      <trkpt lat="42.91013" lon="-0.51141">
        <ele>2225</ele>
        <time>2013-04-24T08:53:20Z</time>
      </trkpt>
      <trkpt lat="42.91014" lon="-0.51144">
        <ele>2225</ele>
        <time>2013-04-24T08:53:27Z</time>
      </trkpt>
      <trkpt lat="42.91019" lon="-0.51146">
        <ele>2226</ele>
        <time>2013-04-24T08:53:33Z</time>
      </trkpt>
      <trkpt lat="42.91019" lon="-0.51149">
        <ele>2227</ele>
        <time>2013-04-24T08:53:39Z</time>
      </trkpt>
      <trkpt lat="42.91022" lon="-0.51149">
        <ele>2227</ele>
        <time>2013-04-24T08:53:46Z</time>
      </trkpt>
      <trkpt lat="42.91024" lon="-0.51152">
        <ele>2227</ele>
        <time>2013-04-24T08:53:51Z</time>
      </trkpt>
      <trkpt lat="42.91026" lon="-0.51157">
        <ele>2228</ele>
        <time>2013-04-24T08:53:58Z</time>
      </trkpt>
      <trkpt lat="42.91028" lon="-0.51157">
        <ele>2229</ele>
        <time>2013-04-24T08:54:02Z</time>
      </trkpt>
      <trkpt lat="42.9103" lon="-0.51161">
        <ele>2230</ele>
        <time>2013-04-24T08:54:09Z</time>
      </trkpt>
      <trkpt lat="42.91032" lon="-0.51161">
        <ele>2230</ele>
        <time>2013-04-24T08:54:16Z</time>
      </trkpt>
      <trkpt lat="42.91034" lon="-0.51165">
        <ele>2231</ele>
        <time>2013-04-24T08:54:21Z</time>
      </trkpt>
      <trkpt lat="42.91036" lon="-0.51171">
        <ele>2231</ele>
        <time>2013-04-24T08:54:28Z</time>
      </trkpt>
      <trkpt lat="42.91039" lon="-0.51176">
        <ele>2232</ele>
        <time>2013-04-24T08:54:35Z</time>
      </trkpt>
      <trkpt lat="42.91043" lon="-0.51182">
        <ele>2233</ele>
        <time>2013-04-24T08:54:43Z</time>
      </trkpt>
      <trkpt lat="42.91046" lon="-0.51184">
        <ele>2233</ele>
        <time>2013-04-24T08:54:50Z</time>
      </trkpt>
      <trkpt lat="42.91047" lon="-0.51185">
        <ele>2233</ele>
        <time>2013-04-24T08:54:51Z</time>
      </trkpt>
      <trkpt lat="42.9105" lon="-0.51186">
        <ele>2235</ele>
        <time>2013-04-24T08:54:58Z</time>
      </trkpt>
      <trkpt lat="42.91051" lon="-0.51187">
        <ele>2235</ele>
        <time>2013-04-24T08:55:05Z</time>
      </trkpt>
      <trkpt lat="42.91052" lon="-0.51184">
        <ele>2236</ele>
        <time>2013-04-24T08:55:12Z</time>
      </trkpt>
      <trkpt lat="42.91054" lon="-0.51181">
        <ele>2236</ele>
        <time>2013-04-24T08:55:20Z</time>
      </trkpt>
      <trkpt lat="42.91057" lon="-0.5118">
        <ele>2236</ele>
        <time>2013-04-24T08:55:26Z</time>
      </trkpt>
      <trkpt lat="42.9106" lon="-0.51183">
        <ele>2237</ele>
        <time>2013-04-24T08:55:34Z</time>
      </trkpt>
      <trkpt lat="42.91062" lon="-0.51183">
        <ele>2237</ele>
        <time>2013-04-24T08:55:38Z</time>
      </trkpt>
      <trkpt lat="42.91065" lon="-0.51184">
        <ele>2238</ele>
        <time>2013-04-24T08:55:42Z</time>
      </trkpt>
      <trkpt lat="42.91073" lon="-0.51184">
        <ele>2238</ele>
        <time>2013-04-24T08:55:50Z</time>
      </trkpt>
      <trkpt lat="42.91078" lon="-0.51182">
        <ele>2238</ele>
        <time>2013-04-24T08:55:58Z</time>
      </trkpt>
      <trkpt lat="42.91082" lon="-0.51178">
        <ele>2239</ele>
        <time>2013-04-24T08:56:05Z</time>
      </trkpt>
      <trkpt lat="42.91083" lon="-0.51177">
        <ele>2240</ele>
        <time>2013-04-24T08:56:12Z</time>
      </trkpt>
      <trkpt lat="42.91086" lon="-0.51177">
        <ele>2240</ele>
        <time>2013-04-24T08:56:19Z</time>
      </trkpt>
      <trkpt lat="42.91089" lon="-0.51176">
        <ele>2241</ele>
        <time>2013-04-24T08:56:25Z</time>
      </trkpt>
      <trkpt lat="42.91089" lon="-0.51176">
        <ele>2241</ele>
        <time>2013-04-24T08:56:36Z</time>
      </trkpt>
      <trkpt lat="42.91091" lon="-0.51174">
        <ele>2240</ele>
        <time>2013-04-24T08:56:48Z</time>
      </trkpt>
      <trkpt lat="42.91093" lon="-0.51177">
        <ele>2241</ele>
        <time>2013-04-24T08:56:56Z</time>
      </trkpt>
      <trkpt lat="42.91095" lon="-0.51179">
        <ele>2242</ele>
        <time>2013-04-24T08:57:00Z</time>
      </trkpt>
      <trkpt lat="42.91103" lon="-0.5118">
        <ele>2243</ele>
        <time>2013-04-24T08:57:07Z</time>
      </trkpt>
      <trkpt lat="42.91109" lon="-0.51181">
        <ele>2245</ele>
        <time>2013-04-24T08:57:16Z</time>
      </trkpt>
      <trkpt lat="42.91114" lon="-0.51185">
        <ele>2246</ele>
        <time>2013-04-24T08:57:24Z</time>
      </trkpt>
      <trkpt lat="42.91115" lon="-0.51189">
        <ele>2247</ele>
        <time>2013-04-24T08:57:31Z</time>
      </trkpt>
      <trkpt lat="42.9112" lon="-0.51193">
        <ele>2247</ele>
        <time>2013-04-24T08:57:39Z</time>
      </trkpt>
      <trkpt lat="42.91124" lon="-0.51196">
        <ele>2248</ele>
        <time>2013-04-24T08:57:44Z</time>
      </trkpt>
      <trkpt lat="42.91124" lon="-0.51199">
        <ele>2249</ele>
        <time>2013-04-24T08:57:52Z</time>
      </trkpt>
      <trkpt lat="42.91125" lon="-0.51201">
        <ele>2250</ele>
        <time>2013-04-24T08:57:59Z</time>
      </trkpt>
      <trkpt lat="42.91126" lon="-0.51201">
        <ele>2251</ele>
        <time>2013-04-24T08:58:00Z</time>
      </trkpt>
      <trkpt lat="42.91132" lon="-0.51201">
        <ele>2251</ele>
        <time>2013-04-24T08:58:06Z</time>
      </trkpt>
      <trkpt lat="42.91136" lon="-0.51202">
        <ele>2252</ele>
        <time>2013-04-24T08:58:11Z</time>
      </trkpt>
      <trkpt lat="42.9114" lon="-0.51204">
        <ele>2253</ele>
        <time>2013-04-24T08:58:19Z</time>
      </trkpt>
      <trkpt lat="42.91142" lon="-0.51204">
        <ele>2253</ele>
        <time>2013-04-24T08:58:21Z</time>
      </trkpt>
      <trkpt lat="42.91144" lon="-0.51209">
        <ele>2254</ele>
        <time>2013-04-24T08:58:28Z</time>
      </trkpt>
      <trkpt lat="42.91146" lon="-0.5121">
        <ele>2255</ele>
        <time>2013-04-24T08:58:34Z</time>
      </trkpt>
      <trkpt lat="42.9115" lon="-0.51209">
        <ele>2256</ele>
        <time>2013-04-24T08:58:39Z</time>
      </trkpt>
      <trkpt lat="42.91156" lon="-0.51212">
        <ele>2256</ele>
        <time>2013-04-24T08:58:46Z</time>
      </trkpt>
      <trkpt lat="42.91159" lon="-0.51215">
        <ele>2257</ele>
        <time>2013-04-24T08:58:52Z</time>
      </trkpt>
      <trkpt lat="42.91159" lon="-0.51218">
        <ele>2258</ele>
        <time>2013-04-24T08:58:58Z</time>
      </trkpt>
      <trkpt lat="42.91161" lon="-0.51221">
        <ele>2259</ele>
        <time>2013-04-24T08:59:06Z</time>
      </trkpt>
      <trkpt lat="42.91165" lon="-0.51229">
        <ele>2261</ele>
        <time>2013-04-24T08:59:14Z</time>
      </trkpt>
      <trkpt lat="42.91167" lon="-0.51233">
        <ele>2261</ele>
        <time>2013-04-24T08:59:19Z</time>
      </trkpt>
      <trkpt lat="42.91168" lon="-0.51234">
        <ele>2261</ele>
        <time>2013-04-24T08:59:21Z</time>
      </trkpt>
      <trkpt lat="42.91171" lon="-0.51241">
        <ele>2262</ele>
        <time>2013-04-24T08:59:27Z</time>
      </trkpt>
      <trkpt lat="42.91173" lon="-0.51246">
        <ele>2263</ele>
        <time>2013-04-24T08:59:33Z</time>
      </trkpt>
      <trkpt lat="42.91174" lon="-0.51249">
        <ele>2263</ele>
        <time>2013-04-24T08:59:38Z</time>
      </trkpt>
      <trkpt lat="42.91173" lon="-0.51254">
        <ele>2264</ele>
        <time>2013-04-24T08:59:46Z</time>
      </trkpt>
      <trkpt lat="42.91171" lon="-0.5126">
        <ele>2265</ele>
        <time>2013-04-24T08:59:53Z</time>
      </trkpt>
      <trkpt lat="42.91172" lon="-0.51263">
        <ele>2265</ele>
        <time>2013-04-24T08:59:57Z</time>
      </trkpt>
      <trkpt lat="42.91172" lon="-0.51271">
        <ele>2266</ele>
        <time>2013-04-24T09:00:04Z</time>
      </trkpt>
      <trkpt lat="42.91172" lon="-0.51272">
        <ele>2266</ele>
        <time>2013-04-24T09:00:12Z</time>
      </trkpt>
      <trkpt lat="42.91174" lon="-0.51273">
        <ele>2265</ele>
        <time>2013-04-24T09:00:24Z</time>
      </trkpt>
      <trkpt lat="42.91173" lon="-0.51277">
        <ele>2266</ele>
        <time>2013-04-24T09:00:30Z</time>
      </trkpt>
      <trkpt lat="42.91172" lon="-0.51285">
        <ele>2267</ele>
        <time>2013-04-24T09:00:38Z</time>
      </trkpt>
      <trkpt lat="42.91173" lon="-0.51286">
        <ele>2267</ele>
        <time>2013-04-24T09:00:45Z</time>
      </trkpt>
      <trkpt lat="42.91173" lon="-0.51285">
        <ele>2268</ele>
        <time>2013-04-24T09:00:54Z</time>
      </trkpt>
      <trkpt lat="42.91172" lon="-0.51285">
        <ele>2268</ele>
        <time>2013-04-24T09:01:06Z</time>
      </trkpt>
      <trkpt lat="42.91171" lon="-0.51286">
        <ele>2268</ele>
        <time>2013-04-24T09:01:17Z</time>
      </trkpt>
      <trkpt lat="42.91174" lon="-0.51285">
        <ele>2268</ele>
        <time>2013-04-24T09:01:27Z</time>
      </trkpt>
      <trkpt lat="42.91174" lon="-0.51283">
        <ele>2268</ele>
        <time>2013-04-24T09:01:41Z</time>
      </trkpt>
      <trkpt lat="42.91174" lon="-0.51282">
        <ele>2268</ele>
        <time>2013-04-24T09:01:56Z</time>
      </trkpt>
      <trkpt lat="42.91176" lon="-0.51282">
        <ele>2268</ele>
        <time>2013-04-24T09:02:12Z</time>
      </trkpt>
      <trkpt lat="42.91176" lon="-0.51283">
        <ele>2268</ele>
        <time>2013-04-24T09:02:28Z</time>
      </trkpt>
      <trkpt lat="42.91175" lon="-0.51285">
        <ele>2268</ele>
        <time>2013-04-24T09:02:45Z</time>
      </trkpt>
      <trkpt lat="42.91173" lon="-0.51285">
        <ele>2268</ele>
        <time>2013-04-24T09:02:51Z</time>
      </trkpt>
      <trkpt lat="42.91172" lon="-0.51286">
        <ele>2268</ele>
        <time>2013-04-24T09:03:00Z</time>
      </trkpt>
      <trkpt lat="42.91169" lon="-0.51284">
        <ele>2268</ele>
        <time>2013-04-24T09:03:08Z</time>
      </trkpt>
      <trkpt lat="42.91172" lon="-0.51287">
        <ele>2267</ele>
        <time>2013-04-24T09:03:15Z</time>
      </trkpt>
      <trkpt lat="42.9117" lon="-0.51286">
        <ele>2267</ele>
        <time>2013-04-24T09:03:31Z</time>
      </trkpt>
      <trkpt lat="42.91171" lon="-0.51284">
        <ele>2266</ele>
        <time>2013-04-24T09:03:49Z</time>
      </trkpt>
      <trkpt lat="42.91171" lon="-0.51285">
        <ele>2266</ele>
        <time>2013-04-24T09:04:04Z</time>
      </trkpt>
      <trkpt lat="42.91171" lon="-0.51285">
        <ele>2267</ele>
        <time>2013-04-24T09:04:16Z</time>
      </trkpt>
      <trkpt lat="42.91171" lon="-0.51284">
        <ele>2266</ele>
        <time>2013-04-24T09:04:31Z</time>
      </trkpt>
      <trkpt lat="42.9117" lon="-0.51285">
        <ele>2267</ele>
        <time>2013-04-24T09:04:50Z</time>
      </trkpt>
      <trkpt lat="42.91171" lon="-0.51285">
        <ele>2267</ele>
        <time>2013-04-24T09:05:13Z</time>
      </trkpt>
      <trkpt lat="42.91172" lon="-0.51284">
        <ele>2266</ele>
        <time>2013-04-24T09:05:20Z</time>
      </trkpt>
      <trkpt lat="42.91171" lon="-0.51285">
        <ele>2267</ele>
        <time>2013-04-24T09:05:24Z</time>
      </trkpt>
      <trkpt lat="42.91171" lon="-0.51285">
        <ele>2267</ele>
        <time>2013-04-24T09:05:32Z</time>
      </trkpt>
      <trkpt lat="42.9117" lon="-0.51286">
        <ele>2267</ele>
        <time>2013-04-24T09:05:44Z</time>
      </trkpt>
      <trkpt lat="42.9117" lon="-0.51286">
        <ele>2267</ele>
        <time>2013-04-24T09:05:47Z</time>
      </trkpt>
      <trkpt lat="42.91177" lon="-0.51287">
        <ele>2267</ele>
        <time>2013-04-24T09:05:55Z</time>
      </trkpt>
      <trkpt lat="42.91183" lon="-0.51284">
        <ele>2268</ele>
        <time>2013-04-24T09:06:02Z</time>
      </trkpt>
      <trkpt lat="42.91185" lon="-0.51283">
        <ele>2267</ele>
        <time>2013-04-24T09:06:11Z</time>
      </trkpt>
      <trkpt lat="42.91189" lon="-0.5128">
        <ele>2269</ele>
        <time>2013-04-24T09:06:19Z</time>
      </trkpt>
      <trkpt lat="42.91193" lon="-0.51279">
        <ele>2270</ele>
        <time>2013-04-24T09:06:26Z</time>
      </trkpt>
      <trkpt lat="42.91198" lon="-0.51274">
        <ele>2271</ele>
        <time>2013-04-24T09:06:34Z</time>
      </trkpt>
      <trkpt lat="42.91203" lon="-0.51271">
        <ele>2272</ele>
        <time>2013-04-24T09:06:42Z</time>
      </trkpt>
      <trkpt lat="42.91204" lon="-0.5127">
        <ele>2272</ele>
        <time>2013-04-24T09:06:43Z</time>
      </trkpt>
      <trkpt lat="42.91208" lon="-0.51266">
        <ele>2273</ele>
        <time>2013-04-24T09:06:51Z</time>
      </trkpt>
      <trkpt lat="42.91211" lon="-0.51263">
        <ele>2274</ele>
        <time>2013-04-24T09:06:59Z</time>
      </trkpt>
      <trkpt lat="42.91213" lon="-0.51258">
        <ele>2274</ele>
        <time>2013-04-24T09:07:06Z</time>
      </trkpt>
      <trkpt lat="42.91214" lon="-0.51256">
        <ele>2274</ele>
        <time>2013-04-24T09:07:10Z</time>
      </trkpt>
      <trkpt lat="42.91216" lon="-0.51251">
        <ele>2276</ele>
        <time>2013-04-24T09:07:18Z</time>
      </trkpt>
      <trkpt lat="42.91216" lon="-0.51248">
        <ele>2276</ele>
        <time>2013-04-24T09:07:25Z</time>
      </trkpt>
      <trkpt lat="42.91217" lon="-0.51243">
        <ele>2277</ele>
        <time>2013-04-24T09:07:33Z</time>
      </trkpt>
      <trkpt lat="42.91217" lon="-0.51241">
        <ele>2277</ele>
        <time>2013-04-24T09:07:37Z</time>
      </trkpt>
      <trkpt lat="42.91217" lon="-0.51236">
        <ele>2278</ele>
        <time>2013-04-24T09:07:44Z</time>
      </trkpt>
      <trkpt lat="42.91217" lon="-0.5123">
        <ele>2279</ele>
        <time>2013-04-24T09:07:51Z</time>
      </trkpt>
      <trkpt lat="42.91217" lon="-0.51228">
        <ele>2279</ele>
        <time>2013-04-24T09:07:57Z</time>
      </trkpt>
      <trkpt lat="42.9122" lon="-0.51227">
        <ele>2280</ele>
        <time>2013-04-24T09:08:02Z</time>
      </trkpt>
      <trkpt lat="42.91221" lon="-0.5123">
        <ele>2281</ele>
        <time>2013-04-24T09:08:07Z</time>
      </trkpt>
      <trkpt lat="42.91225" lon="-0.51231">
        <ele>2282</ele>
        <time>2013-04-24T09:08:14Z</time>
      </trkpt>
      <trkpt lat="42.91226" lon="-0.51232">
        <ele>2283</ele>
        <time>2013-04-24T09:08:20Z</time>
      </trkpt>
      <trkpt lat="42.91231" lon="-0.51235">
        <ele>2284</ele>
        <time>2013-04-24T09:08:29Z</time>
      </trkpt>
      <trkpt lat="42.91233" lon="-0.51235">
        <ele>2285</ele>
        <time>2013-04-24T09:08:35Z</time>
      </trkpt>
      <trkpt lat="42.91235" lon="-0.51238">
        <ele>2285</ele>
        <time>2013-04-24T09:08:42Z</time>
      </trkpt>
      <trkpt lat="42.91235" lon="-0.51238">
        <ele>2285</ele>
        <time>2013-04-24T09:08:44Z</time>
      </trkpt>
      <trkpt lat="42.91238" lon="-0.51241">
        <ele>2287</ele>
        <time>2013-04-24T09:08:51Z</time>
      </trkpt>
      <trkpt lat="42.91241" lon="-0.51245">
        <ele>2288</ele>
        <time>2013-04-24T09:08:59Z</time>
      </trkpt>
      <trkpt lat="42.91246" lon="-0.51243">
        <ele>2288</ele>
        <time>2013-04-24T09:09:05Z</time>
      </trkpt>
      <trkpt lat="42.91247" lon="-0.5124">
        <ele>2290</ele>
        <time>2013-04-24T09:09:11Z</time>
      </trkpt>
      <trkpt lat="42.91247" lon="-0.51239">
        <ele>2289</ele>
        <time>2013-04-24T09:09:12Z</time>
      </trkpt>
      <trkpt lat="42.91247" lon="-0.51236">
        <ele>2290</ele>
        <time>2013-04-24T09:09:14Z</time>
      </trkpt>
      <trkpt lat="42.91248" lon="-0.51232">
        <ele>2291</ele>
        <time>2013-04-24T09:09:21Z</time>
      </trkpt>
      <trkpt lat="42.9125" lon="-0.51228">
        <ele>2292</ele>
        <time>2013-04-24T09:09:28Z</time>
      </trkpt>
      <trkpt lat="42.91251" lon="-0.51224">
        <ele>2293</ele>
        <time>2013-04-24T09:09:35Z</time>
      </trkpt>
      <trkpt lat="42.91254" lon="-0.5122">
        <ele>2294</ele>
        <time>2013-04-24T09:09:41Z</time>
      </trkpt>
      <trkpt lat="42.91256" lon="-0.51215">
        <ele>2295</ele>
        <time>2013-04-24T09:09:48Z</time>
      </trkpt>
      <trkpt lat="42.91259" lon="-0.51213">
        <ele>2295</ele>
        <time>2013-04-24T09:09:55Z</time>
      </trkpt>
      <trkpt lat="42.91264" lon="-0.51208">
        <ele>2296</ele>
        <time>2013-04-24T09:10:03Z</time>
      </trkpt>
      <trkpt lat="42.91267" lon="-0.51205">
        <ele>2298</ele>
        <time>2013-04-24T09:10:12Z</time>
      </trkpt>
      <trkpt lat="42.91271" lon="-0.51204">
        <ele>2299</ele>
        <time>2013-04-24T09:10:19Z</time>
      </trkpt>
      <trkpt lat="42.91275" lon="-0.512">
        <ele>2298</ele>
        <time>2013-04-24T09:10:28Z</time>
      </trkpt>
      <trkpt lat="42.91276" lon="-0.51199">
        <ele>2300</ele>
        <time>2013-04-24T09:10:32Z</time>
      </trkpt>
      <trkpt lat="42.91278" lon="-0.51197">
        <ele>2300</ele>
        <time>2013-04-24T09:10:34Z</time>
      </trkpt>
      <trkpt lat="42.91283" lon="-0.51193">
        <ele>2300</ele>
        <time>2013-04-24T09:10:41Z</time>
      </trkpt>
      <trkpt lat="42.91284" lon="-0.51193">
        <ele>2301</ele>
        <time>2013-04-24T09:10:42Z</time>
      </trkpt>
      <trkpt lat="42.91287" lon="-0.51188">
        <ele>2301</ele>
        <time>2013-04-24T09:10:50Z</time>
      </trkpt>
      <trkpt lat="42.91289" lon="-0.51184">
        <ele>2302</ele>
        <time>2013-04-24T09:10:59Z</time>
      </trkpt>
      <trkpt lat="42.9129" lon="-0.51179">
        <ele>2302</ele>
        <time>2013-04-24T09:11:06Z</time>
      </trkpt>
      <trkpt lat="42.91291" lon="-0.51174">
        <ele>2303</ele>
        <time>2013-04-24T09:11:14Z</time>
      </trkpt>
      <trkpt lat="42.91291" lon="-0.51168">
        <ele>2304</ele>
        <time>2013-04-24T09:11:21Z</time>
      </trkpt>
      <trkpt lat="42.9129" lon="-0.51161">
        <ele>2305</ele>
        <time>2013-04-24T09:11:29Z</time>
      </trkpt>
      <trkpt lat="42.91289" lon="-0.51156">
        <ele>2306</ele>
        <time>2013-04-24T09:11:37Z</time>
      </trkpt>
      <trkpt lat="42.91288" lon="-0.51148">
        <ele>2307</ele>
        <time>2013-04-24T09:11:47Z</time>
      </trkpt>
      <trkpt lat="42.91288" lon="-0.51143">
        <ele>2309</ele>
        <time>2013-04-24T09:11:55Z</time>
      </trkpt>
      <trkpt lat="42.9129" lon="-0.51139">
        <ele>2310</ele>
        <time>2013-04-24T09:12:02Z</time>
      </trkpt>
      <trkpt lat="42.9129" lon="-0.51139">
        <ele>2310</ele>
        <time>2013-04-24T09:12:03Z</time>
      </trkpt>
      <trkpt lat="42.91291" lon="-0.51135">
        <ele>2311</ele>
        <time>2013-04-24T09:12:10Z</time>
      </trkpt>
      <trkpt lat="42.91292" lon="-0.5113">
        <ele>2312</ele>
        <time>2013-04-24T09:12:16Z</time>
      </trkpt>
      <trkpt lat="42.91294" lon="-0.51126">
        <ele>2313</ele>
        <time>2013-04-24T09:12:24Z</time>
      </trkpt>
      <trkpt lat="42.91297" lon="-0.51121">
        <ele>2313</ele>
        <time>2013-04-24T09:12:31Z</time>
      </trkpt>
      <trkpt lat="42.91297" lon="-0.5112">
        <ele>2314</ele>
        <time>2013-04-24T09:12:39Z</time>
      </trkpt>
      <trkpt lat="42.91298" lon="-0.51115">
        <ele>2314</ele>
        <time>2013-04-24T09:12:46Z</time>
      </trkpt>
      <trkpt lat="42.91299" lon="-0.51113">
        <ele>2315</ele>
        <time>2013-04-24T09:12:52Z</time>
      </trkpt>
      <trkpt lat="42.913" lon="-0.51108">
        <ele>2316</ele>
        <time>2013-04-24T09:13:00Z</time>
      </trkpt>
      <trkpt lat="42.91301" lon="-0.51105">
        <ele>2317</ele>
        <time>2013-04-24T09:13:07Z</time>
      </trkpt>
      <trkpt lat="42.91304" lon="-0.51101">
        <ele>2318</ele>
        <time>2013-04-24T09:13:14Z</time>
      </trkpt>
      <trkpt lat="42.91306" lon="-0.51098">
        <ele>2319</ele>
        <time>2013-04-24T09:13:22Z</time>
      </trkpt>
      <trkpt lat="42.91308" lon="-0.51096">
        <ele>2321</ele>
        <time>2013-04-24T09:13:29Z</time>
      </trkpt>
      <trkpt lat="42.9131" lon="-0.51092">
        <ele>2321</ele>
        <time>2013-04-24T09:13:35Z</time>
      </trkpt>
      <trkpt lat="42.91312" lon="-0.5109">
        <ele>2322</ele>
        <time>2013-04-24T09:13:42Z</time>
      </trkpt>
      <trkpt lat="42.91315" lon="-0.51085">
        <ele>2323</ele>
        <time>2013-04-24T09:13:49Z</time>
      </trkpt>
      <trkpt lat="42.91316" lon="-0.51085">
        <ele>2324</ele>
        <time>2013-04-24T09:13:55Z</time>
      </trkpt>
      <trkpt lat="42.91319" lon="-0.51082">
        <ele>2324</ele>
        <time>2013-04-24T09:13:59Z</time>
      </trkpt>
      <trkpt lat="42.91321" lon="-0.5108">
        <ele>2325</ele>
        <time>2013-04-24T09:14:05Z</time>
      </trkpt>
      <trkpt lat="42.91324" lon="-0.51077">
        <ele>2326</ele>
        <time>2013-04-24T09:14:13Z</time>
      </trkpt>
      <trkpt lat="42.91326" lon="-0.51074">
        <ele>2327</ele>
        <time>2013-04-24T09:14:21Z</time>
      </trkpt>
      <trkpt lat="42.91328" lon="-0.51072">
        <ele>2327</ele>
        <time>2013-04-24T09:14:28Z</time>
      </trkpt>
      <trkpt lat="42.9133" lon="-0.51069">
        <ele>2327</ele>
        <time>2013-04-24T09:14:35Z</time>
      </trkpt>
      <trkpt lat="42.91333" lon="-0.51066">
        <ele>2329</ele>
        <time>2013-04-24T09:14:42Z</time>
      </trkpt>
      <trkpt lat="42.91336" lon="-0.51063">
        <ele>2330</ele>
        <time>2013-04-24T09:14:49Z</time>
      </trkpt>
      <trkpt lat="42.91338" lon="-0.5106">
        <ele>2331</ele>
        <time>2013-04-24T09:14:56Z</time>
      </trkpt>
      <trkpt lat="42.91341" lon="-0.51057">
        <ele>2331</ele>
        <time>2013-04-24T09:15:04Z</time>
      </trkpt>
      <trkpt lat="42.91343" lon="-0.51055">
        <ele>2331</ele>
        <time>2013-04-24T09:15:11Z</time>
      </trkpt>
      <trkpt lat="42.91347" lon="-0.51052">
        <ele>2335</ele>
        <time>2013-04-24T09:15:19Z</time>
      </trkpt>
      <trkpt lat="42.9135" lon="-0.5105">
        <ele>2335</ele>
        <time>2013-04-24T09:15:26Z</time>
      </trkpt>
      <trkpt lat="42.91353" lon="-0.51045">
        <ele>2336</ele>
        <time>2013-04-24T09:15:34Z</time>
      </trkpt>
      <trkpt lat="42.91357" lon="-0.5104">
        <ele>2337</ele>
        <time>2013-04-24T09:15:42Z</time>
      </trkpt>
      <trkpt lat="42.91356" lon="-0.5104">
        <ele>2338</ele>
        <time>2013-04-24T09:15:50Z</time>
      </trkpt>
      <trkpt lat="42.91359" lon="-0.51036">
        <ele>2338</ele>
        <time>2013-04-24T09:16:01Z</time>
      </trkpt>
      <trkpt lat="42.91362" lon="-0.5103">
        <ele>2339</ele>
        <time>2013-04-24T09:16:10Z</time>
      </trkpt>
      <trkpt lat="42.91365" lon="-0.51025">
        <ele>2340</ele>
        <time>2013-04-24T09:16:19Z</time>
      </trkpt>
      <trkpt lat="42.91368" lon="-0.5102">
        <ele>2341</ele>
        <time>2013-04-24T09:16:27Z</time>
      </trkpt>
      <trkpt lat="42.9137" lon="-0.51015">
        <ele>2343</ele>
        <time>2013-04-24T09:16:34Z</time>
      </trkpt>
      <trkpt lat="42.91371" lon="-0.51009">
        <ele>2344</ele>
        <time>2013-04-24T09:16:41Z</time>
      </trkpt>
      <trkpt lat="42.91376" lon="-0.51003">
        <ele>2345</ele>
        <time>2013-04-24T09:16:50Z</time>
      </trkpt>
      <trkpt lat="42.91379" lon="-0.50997">
        <ele>2346</ele>
        <time>2013-04-24T09:16:58Z</time>
      </trkpt>
      <trkpt lat="42.91381" lon="-0.50994">
        <ele>2347</ele>
        <time>2013-04-24T09:17:03Z</time>
      </trkpt>
      <trkpt lat="42.91382" lon="-0.50991">
        <ele>2347</ele>
        <time>2013-04-24T09:17:08Z</time>
      </trkpt>
      <trkpt lat="42.91383" lon="-0.50989">
        <ele>2348</ele>
        <time>2013-04-24T09:17:10Z</time>
      </trkpt>
      <trkpt lat="42.91385" lon="-0.50986">
        <ele>2349</ele>
        <time>2013-04-24T09:17:17Z</time>
      </trkpt>
      <trkpt lat="42.91388" lon="-0.50982">
        <ele>2349</ele>
        <time>2013-04-24T09:17:22Z</time>
      </trkpt>
      <trkpt lat="42.91389" lon="-0.5098">
        <ele>2349</ele>
        <time>2013-04-24T09:17:24Z</time>
      </trkpt>
      <trkpt lat="42.91393" lon="-0.50974">
        <ele>2351</ele>
        <time>2013-04-24T09:17:31Z</time>
      </trkpt>
      <trkpt lat="42.91397" lon="-0.50971">
        <ele>2352</ele>
        <time>2013-04-24T09:17:38Z</time>
      </trkpt>
      <trkpt lat="42.91399" lon="-0.50967">
        <ele>2352</ele>
        <time>2013-04-24T09:17:45Z</time>
      </trkpt>
      <trkpt lat="42.91399" lon="-0.50966">
        <ele>2353</ele>
        <time>2013-04-24T09:17:46Z</time>
      </trkpt>
      <trkpt lat="42.91402" lon="-0.5096">
        <ele>2353</ele>
        <time>2013-04-24T09:17:53Z</time>
      </trkpt>
      <trkpt lat="42.91406" lon="-0.50957">
        <ele>2355</ele>
        <time>2013-04-24T09:18:00Z</time>
      </trkpt>
      <trkpt lat="42.9141" lon="-0.50953">
        <ele>2356</ele>
        <time>2013-04-24T09:18:07Z</time>
      </trkpt>
      <trkpt lat="42.91413" lon="-0.50947">
        <ele>2357</ele>
        <time>2013-04-24T09:18:14Z</time>
      </trkpt>
      <trkpt lat="42.91413" lon="-0.50947">
        <ele>2357</ele>
        <time>2013-04-24T09:18:15Z</time>
      </trkpt>
      <trkpt lat="42.91414" lon="-0.50945">
        <ele>2357</ele>
        <time>2013-04-24T09:18:17Z</time>
      </trkpt>
      <trkpt lat="42.91417" lon="-0.50941">
        <ele>2358</ele>
        <time>2013-04-24T09:18:24Z</time>
      </trkpt>
      <trkpt lat="42.9142" lon="-0.50937">
        <ele>2360</ele>
        <time>2013-04-24T09:18:32Z</time>
      </trkpt>
      <trkpt lat="42.91422" lon="-0.50934">
        <ele>2361</ele>
        <time>2013-04-24T09:18:37Z</time>
      </trkpt>
      <trkpt lat="42.91423" lon="-0.50933">
        <ele>2360</ele>
        <time>2013-04-24T09:18:41Z</time>
      </trkpt>
      <trkpt lat="42.91426" lon="-0.50927">
        <ele>2362</ele>
        <time>2013-04-24T09:18:48Z</time>
      </trkpt>
      <trkpt lat="42.91428" lon="-0.50926">
        <ele>2363</ele>
        <time>2013-04-24T09:18:56Z</time>
      </trkpt>
      <trkpt lat="42.91431" lon="-0.50919">
        <ele>2364</ele>
        <time>2013-04-24T09:19:02Z</time>
      </trkpt>
      <trkpt lat="42.91434" lon="-0.50915">
        <ele>2365</ele>
        <time>2013-04-24T09:19:09Z</time>
      </trkpt>
      <trkpt lat="42.91435" lon="-0.50914">
        <ele>2365</ele>
        <time>2013-04-24T09:19:16Z</time>
      </trkpt>
      <trkpt lat="42.91438" lon="-0.50909">
        <ele>2367</ele>
        <time>2013-04-24T09:19:22Z</time>
      </trkpt>
      <trkpt lat="42.9144" lon="-0.50907">
        <ele>2367</ele>
        <time>2013-04-24T09:19:29Z</time>
      </trkpt>
      <trkpt lat="42.91442" lon="-0.50905">
        <ele>2368</ele>
        <time>2013-04-24T09:19:33Z</time>
      </trkpt>
      <trkpt lat="42.91447" lon="-0.50902">
        <ele>2370</ele>
        <time>2013-04-24T09:19:42Z</time>
      </trkpt>
      <trkpt lat="42.9145" lon="-0.509">
        <ele>2370</ele>
        <time>2013-04-24T09:19:51Z</time>
      </trkpt>
      <trkpt lat="42.91455" lon="-0.50896">
        <ele>2371</ele>
        <time>2013-04-24T09:20:00Z</time>
      </trkpt>
      <trkpt lat="42.91459" lon="-0.50894">
        <ele>2373</ele>
        <time>2013-04-24T09:20:08Z</time>
      </trkpt>
      <trkpt lat="42.91462" lon="-0.50892">
        <ele>2374</ele>
        <time>2013-04-24T09:20:13Z</time>
      </trkpt>
      <trkpt lat="42.91464" lon="-0.50891">
        <ele>2375</ele>
        <time>2013-04-24T09:20:19Z</time>
      </trkpt>
      <trkpt lat="42.91467" lon="-0.50889">
        <ele>2376</ele>
        <time>2013-04-24T09:20:26Z</time>
      </trkpt>
      <trkpt lat="42.91471" lon="-0.50886">
        <ele>2376</ele>
        <time>2013-04-24T09:20:32Z</time>
      </trkpt>
      <trkpt lat="42.91476" lon="-0.50884">
        <ele>2377</ele>
        <time>2013-04-24T09:20:38Z</time>
      </trkpt>
      <trkpt lat="42.91479" lon="-0.50881">
        <ele>2378</ele>
        <time>2013-04-24T09:20:45Z</time>
      </trkpt>
      <trkpt lat="42.91481" lon="-0.50879">
        <ele>2379</ele>
        <time>2013-04-24T09:20:52Z</time>
      </trkpt>
      <trkpt lat="42.91483" lon="-0.50877">
        <ele>2380</ele>
        <time>2013-04-24T09:20:56Z</time>
      </trkpt>
      <trkpt lat="42.91486" lon="-0.50874">
        <ele>2381</ele>
        <time>2013-04-24T09:21:04Z</time>
      </trkpt>
      <trkpt lat="42.91492" lon="-0.5087">
        <ele>2383</ele>
        <time>2013-04-24T09:21:14Z</time>
      </trkpt>
      <trkpt lat="42.91496" lon="-0.50867">
        <ele>2384</ele>
        <time>2013-04-24T09:21:22Z</time>
      </trkpt>
      <trkpt lat="42.91499" lon="-0.50864">
        <ele>2385</ele>
        <time>2013-04-24T09:21:28Z</time>
      </trkpt>
      <trkpt lat="42.91499" lon="-0.50867">
        <ele>2385</ele>
        <time>2013-04-24T09:21:35Z</time>
      </trkpt>
      <trkpt lat="42.91502" lon="-0.50864">
        <ele>2385</ele>
        <time>2013-04-24T09:21:45Z</time>
      </trkpt>
      <trkpt lat="42.91506" lon="-0.5086">
        <ele>2386</ele>
        <time>2013-04-24T09:21:52Z</time>
      </trkpt>
      <trkpt lat="42.91508" lon="-0.50859">
        <ele>2387</ele>
        <time>2013-04-24T09:21:59Z</time>
      </trkpt>
      <trkpt lat="42.91513" lon="-0.50856">
        <ele>2388</ele>
        <time>2013-04-24T09:22:06Z</time>
      </trkpt>
      <trkpt lat="42.91516" lon="-0.50854">
        <ele>2388</ele>
        <time>2013-04-24T09:22:13Z</time>
      </trkpt>
      <trkpt lat="42.91518" lon="-0.50853">
        <ele>2389</ele>
        <time>2013-04-24T09:22:19Z</time>
      </trkpt>
      <trkpt lat="42.91518" lon="-0.50852">
        <ele>2389</ele>
        <time>2013-04-24T09:22:20Z</time>
      </trkpt>
      <trkpt lat="42.91522" lon="-0.50848">
        <ele>2390</ele>
        <time>2013-04-24T09:22:27Z</time>
      </trkpt>
      <trkpt lat="42.91527" lon="-0.50846">
        <ele>2392</ele>
        <time>2013-04-24T09:22:34Z</time>
      </trkpt>
      <trkpt lat="42.91526" lon="-0.50848">
        <ele>2392</ele>
        <time>2013-04-24T09:22:46Z</time>
      </trkpt>
      <trkpt lat="42.91526" lon="-0.50848">
        <ele>2392</ele>
        <time>2013-04-24T09:22:56Z</time>
      </trkpt>
      <trkpt lat="42.91527" lon="-0.50843">
        <ele>2391</ele>
        <time>2013-04-24T09:23:04Z</time>
      </trkpt>
      <trkpt lat="42.9153" lon="-0.50844">
        <ele>2392</ele>
        <time>2013-04-24T09:23:20Z</time>
      </trkpt>
      <trkpt lat="42.91529" lon="-0.50843">
        <ele>2392</ele>
        <time>2013-04-24T09:23:30Z</time>
      </trkpt>
      <trkpt lat="42.9153" lon="-0.50843">
        <ele>2392</ele>
        <time>2013-04-24T09:23:33Z</time>
      </trkpt>
      <trkpt lat="42.91533" lon="-0.50836">
        <ele>2393</ele>
        <time>2013-04-24T09:23:40Z</time>
      </trkpt>
      <trkpt lat="42.91536" lon="-0.50835">
        <ele>2393</ele>
        <time>2013-04-24T09:23:45Z</time>
      </trkpt>
      <trkpt lat="42.91536" lon="-0.50835">
        <ele>2394</ele>
        <time>2013-04-24T09:23:46Z</time>
      </trkpt>
      <trkpt lat="42.91539" lon="-0.50833">
        <ele>2395</ele>
        <time>2013-04-24T09:23:54Z</time>
      </trkpt>
      <trkpt lat="42.91544" lon="-0.50832">
        <ele>2396</ele>
        <time>2013-04-24T09:24:01Z</time>
      </trkpt>
      <trkpt lat="42.91547" lon="-0.50831">
        <ele>2398</ele>
        <time>2013-04-24T09:24:08Z</time>
      </trkpt>
      <trkpt lat="42.9155" lon="-0.50829">
        <ele>2400</ele>
        <time>2013-04-24T09:24:14Z</time>
      </trkpt>
      <trkpt lat="42.91555" lon="-0.50829">
        <ele>2400</ele>
        <time>2013-04-24T09:24:21Z</time>
      </trkpt>
      <trkpt lat="42.91559" lon="-0.50831">
        <ele>2402</ele>
        <time>2013-04-24T09:24:28Z</time>
      </trkpt>
      <trkpt lat="42.91561" lon="-0.50831">
        <ele>2402</ele>
        <time>2013-04-24T09:24:34Z</time>
      </trkpt>
      <trkpt lat="42.91564" lon="-0.50832">
        <ele>2403</ele>
        <time>2013-04-24T09:24:45Z</time>
      </trkpt>
      <trkpt lat="42.91565" lon="-0.50833">
        <ele>2403</ele>
        <time>2013-04-24T09:24:46Z</time>
      </trkpt>
      <trkpt lat="42.91569" lon="-0.50836">
        <ele>2405</ele>
        <time>2013-04-24T09:24:55Z</time>
      </trkpt>
      <trkpt lat="42.91574" lon="-0.50838">
        <ele>2406</ele>
        <time>2013-04-24T09:25:03Z</time>
      </trkpt>
      <trkpt lat="42.91577" lon="-0.50838">
        <ele>2407</ele>
        <time>2013-04-24T09:25:08Z</time>
      </trkpt>
      <trkpt lat="42.91581" lon="-0.50833">
        <ele>2408</ele>
        <time>2013-04-24T09:25:15Z</time>
      </trkpt>
      <trkpt lat="42.91585" lon="-0.50828">
        <ele>2409</ele>
        <time>2013-04-24T09:25:22Z</time>
      </trkpt>
      <trkpt lat="42.91586" lon="-0.50827">
        <ele>2410</ele>
        <time>2013-04-24T09:25:30Z</time>
      </trkpt>
      <trkpt lat="42.91589" lon="-0.50832">
        <ele>2412</ele>
        <time>2013-04-24T09:25:40Z</time>
      </trkpt>
      <trkpt lat="42.91595" lon="-0.50836">
        <ele>2413</ele>
        <time>2013-04-24T09:25:49Z</time>
      </trkpt>
      <trkpt lat="42.91601" lon="-0.50838">
        <ele>2415</ele>
        <time>2013-04-24T09:25:58Z</time>
      </trkpt>
      <trkpt lat="42.91602" lon="-0.50838">
        <ele>2415</ele>
        <time>2013-04-24T09:26:02Z</time>
      </trkpt>
      <trkpt lat="42.91607" lon="-0.50836">
        <ele>2416</ele>
        <time>2013-04-24T09:26:09Z</time>
      </trkpt>
      <trkpt lat="42.91611" lon="-0.50835">
        <ele>2417</ele>
        <time>2013-04-24T09:26:15Z</time>
      </trkpt>
      <trkpt lat="42.91616" lon="-0.50834">
        <ele>2419</ele>
        <time>2013-04-24T09:26:23Z</time>
      </trkpt>
      <trkpt lat="42.91622" lon="-0.50832">
        <ele>2420</ele>
        <time>2013-04-24T09:26:32Z</time>
      </trkpt>
      <trkpt lat="42.91623" lon="-0.50832">
        <ele>2420</ele>
        <time>2013-04-24T09:26:33Z</time>
      </trkpt>
      <trkpt lat="42.91629" lon="-0.50828">
        <ele>2421</ele>
        <time>2013-04-24T09:26:41Z</time>
      </trkpt>
      <trkpt lat="42.91634" lon="-0.50826">
        <ele>2423</ele>
        <time>2013-04-24T09:26:49Z</time>
      </trkpt>
      <trkpt lat="42.91639" lon="-0.50822">
        <ele>2423</ele>
        <time>2013-04-24T09:26:56Z</time>
      </trkpt>
      <trkpt lat="42.91645" lon="-0.5082">
        <ele>2424</ele>
        <time>2013-04-24T09:27:03Z</time>
      </trkpt>
      <trkpt lat="42.91651" lon="-0.50818">
        <ele>2426</ele>
        <time>2013-04-24T09:27:12Z</time>
      </trkpt>
      <trkpt lat="42.91655" lon="-0.50818">
        <ele>2427</ele>
        <time>2013-04-24T09:27:18Z</time>
      </trkpt>
      <trkpt lat="42.91659" lon="-0.50815">
        <ele>2428</ele>
        <time>2013-04-24T09:27:24Z</time>
      </trkpt>
      <trkpt lat="42.91663" lon="-0.50811">
        <ele>2429</ele>
        <time>2013-04-24T09:27:31Z</time>
      </trkpt>
      <trkpt lat="42.91665" lon="-0.5081">
        <ele>2430</ele>
        <time>2013-04-24T09:27:33Z</time>
      </trkpt>
      <trkpt lat="42.91668" lon="-0.50807">
        <ele>2431</ele>
        <time>2013-04-24T09:27:38Z</time>
      </trkpt>
      <trkpt lat="42.91668" lon="-0.50807">
        <ele>2431</ele>
        <time>2013-04-24T09:27:39Z</time>
      </trkpt>
      <trkpt lat="42.91671" lon="-0.50802">
        <ele>2432</ele>
        <time>2013-04-24T09:27:46Z</time>
      </trkpt>
      <trkpt lat="42.91673" lon="-0.50795">
        <ele>2433</ele>
        <time>2013-04-24T09:27:54Z</time>
      </trkpt>
      <trkpt lat="42.91676" lon="-0.50789">
        <ele>2434</ele>
        <time>2013-04-24T09:28:02Z</time>
      </trkpt>
      <trkpt lat="42.91678" lon="-0.50783">
        <ele>2436</ele>
        <time>2013-04-24T09:28:10Z</time>
      </trkpt>
      <trkpt lat="42.91681" lon="-0.50777">
        <ele>2437</ele>
        <time>2013-04-24T09:28:18Z</time>
      </trkpt>
      <trkpt lat="42.91682" lon="-0.50772">
        <ele>2438</ele>
        <time>2013-04-24T09:28:26Z</time>
      </trkpt>
      <trkpt lat="42.91683" lon="-0.50767">
        <ele>2439</ele>
        <time>2013-04-24T09:28:33Z</time>
      </trkpt>
      <trkpt lat="42.91685" lon="-0.50761">
        <ele>2440</ele>
        <time>2013-04-24T09:28:42Z</time>
      </trkpt>
      <trkpt lat="42.91686" lon="-0.50755">
        <ele>2441</ele>
        <time>2013-04-24T09:28:50Z</time>
      </trkpt>
      <trkpt lat="42.91687" lon="-0.50749">
        <ele>2442</ele>
        <time>2013-04-24T09:28:58Z</time>
      </trkpt>
      <trkpt lat="42.91689" lon="-0.50744">
        <ele>2444</ele>
        <time>2013-04-24T09:29:05Z</time>
      </trkpt>
      <trkpt lat="42.91689" lon="-0.50744">
        <ele>2444</ele>
        <time>2013-04-24T09:29:08Z</time>
      </trkpt>
      <trkpt lat="42.9169" lon="-0.50737">
        <ele>2445</ele>
        <time>2013-04-24T09:29:15Z</time>
      </trkpt>
      <trkpt lat="42.91691" lon="-0.50732">
        <ele>2446</ele>
        <time>2013-04-24T09:29:21Z</time>
      </trkpt>
      <trkpt lat="42.91691" lon="-0.5073">
        <ele>2447</ele>
        <time>2013-04-24T09:29:22Z</time>
      </trkpt>
      <trkpt lat="42.91692" lon="-0.50724">
        <ele>2448</ele>
        <time>2013-04-24T09:29:28Z</time>
      </trkpt>
      <trkpt lat="42.91694" lon="-0.50719">
        <ele>2450</ele>
        <time>2013-04-24T09:29:34Z</time>
      </trkpt>
      <trkpt lat="42.91696" lon="-0.50713">
        <ele>2451</ele>
        <time>2013-04-24T09:29:40Z</time>
      </trkpt>
      <trkpt lat="42.91698" lon="-0.50708">
        <ele>2451</ele>
        <time>2013-04-24T09:29:46Z</time>
      </trkpt>
      <trkpt lat="42.91699" lon="-0.50704">
        <ele>2452</ele>
        <time>2013-04-24T09:29:51Z</time>
      </trkpt>
      <trkpt lat="42.91703" lon="-0.50698">
        <ele>2453</ele>
        <time>2013-04-24T09:30:00Z</time>
      </trkpt>
      <trkpt lat="42.91704" lon="-0.50696">
        <ele>2454</ele>
        <time>2013-04-24T09:30:03Z</time>
      </trkpt>
      <trkpt lat="42.91707" lon="-0.5069">
        <ele>2456</ele>
        <time>2013-04-24T09:30:11Z</time>
      </trkpt>
      <trkpt lat="42.9171" lon="-0.50685">
        <ele>2457</ele>
        <time>2013-04-24T09:30:17Z</time>
      </trkpt>
      <trkpt lat="42.91713" lon="-0.50681">
        <ele>2459</ele>
        <time>2013-04-24T09:30:23Z</time>
      </trkpt>
      <trkpt lat="42.91716" lon="-0.50675">
        <ele>2460</ele>
        <time>2013-04-24T09:30:31Z</time>
      </trkpt>
      <trkpt lat="42.9172" lon="-0.50669">
        <ele>2462</ele>
        <time>2013-04-24T09:30:39Z</time>
      </trkpt>
      <trkpt lat="42.91725" lon="-0.50664">
        <ele>2462</ele>
        <time>2013-04-24T09:30:47Z</time>
      </trkpt>
      <trkpt lat="42.91728" lon="-0.50659">
        <ele>2464</ele>
        <time>2013-04-24T09:30:54Z</time>
      </trkpt>
      <trkpt lat="42.9173" lon="-0.50655">
        <ele>2464</ele>
        <time>2013-04-24T09:31:01Z</time>
      </trkpt>
      <trkpt lat="42.91734" lon="-0.50649">
        <ele>2465</ele>
        <time>2013-04-24T09:31:09Z</time>
      </trkpt>
      <trkpt lat="42.91737" lon="-0.50643">
        <ele>2467</ele>
        <time>2013-04-24T09:31:18Z</time>
      </trkpt>
      <trkpt lat="42.9174" lon="-0.50638">
        <ele>2468</ele>
        <time>2013-04-24T09:31:26Z</time>
      </trkpt>
      <trkpt lat="42.91743" lon="-0.50633">
        <ele>2471</ele>
        <time>2013-04-24T09:31:32Z</time>
      </trkpt>
      <trkpt lat="42.91745" lon="-0.50626">
        <ele>2471</ele>
        <time>2013-04-24T09:31:39Z</time>
      </trkpt>
      <trkpt lat="42.91747" lon="-0.50619">
        <ele>2472</ele>
        <time>2013-04-24T09:31:47Z</time>
      </trkpt>
      <trkpt lat="42.91749" lon="-0.50613">
        <ele>2474</ele>
        <time>2013-04-24T09:31:53Z</time>
      </trkpt>
      <trkpt lat="42.91749" lon="-0.50611">
        <ele>2474</ele>
        <time>2013-04-24T09:31:56Z</time>
      </trkpt>
      <trkpt lat="42.9175" lon="-0.50605">
        <ele>2476</ele>
        <time>2013-04-24T09:32:04Z</time>
      </trkpt>
      <trkpt lat="42.91751" lon="-0.50601">
        <ele>2477</ele>
        <time>2013-04-24T09:32:12Z</time>
      </trkpt>
      <trkpt lat="42.9175" lon="-0.506">
        <ele>2478</ele>
        <time>2013-04-24T09:32:13Z</time>
      </trkpt>
      <trkpt lat="42.9175" lon="-0.50597">
        <ele>2478</ele>
        <time>2013-04-24T09:32:15Z</time>
      </trkpt>
      <trkpt lat="42.91748" lon="-0.50589">
        <ele>2480</ele>
        <time>2013-04-24T09:32:22Z</time>
      </trkpt>
      <trkpt lat="42.91746" lon="-0.50582">
        <ele>2481</ele>
        <time>2013-04-24T09:32:30Z</time>
      </trkpt>
      <trkpt lat="42.91745" lon="-0.50577">
        <ele>2482</ele>
        <time>2013-04-24T09:32:37Z</time>
      </trkpt>
      <trkpt lat="42.91743" lon="-0.50573">
        <ele>2483</ele>
        <time>2013-04-24T09:32:43Z</time>
      </trkpt>
      <trkpt lat="42.91742" lon="-0.50568">
        <ele>2483</ele>
        <time>2013-04-24T09:32:50Z</time>
      </trkpt>
      <trkpt lat="42.91742" lon="-0.50567">
        <ele>2483</ele>
        <time>2013-04-24T09:32:52Z</time>
      </trkpt>
      <trkpt lat="42.9174" lon="-0.50559">
        <ele>2485</ele>
        <time>2013-04-24T09:32:59Z</time>
      </trkpt>
      <trkpt lat="42.91739" lon="-0.50555">
        <ele>2486</ele>
        <time>2013-04-24T09:33:04Z</time>
      </trkpt>
      <trkpt lat="42.91738" lon="-0.50548">
        <ele>2487</ele>
        <time>2013-04-24T09:33:11Z</time>
      </trkpt>
      <trkpt lat="42.91738" lon="-0.50541">
        <ele>2488</ele>
        <time>2013-04-24T09:33:18Z</time>
      </trkpt>
      <trkpt lat="42.91737" lon="-0.50538">
        <ele>2488</ele>
        <time>2013-04-24T09:33:21Z</time>
      </trkpt>
      <trkpt lat="42.91737" lon="-0.50536">
        <ele>2489</ele>
        <time>2013-04-24T09:33:23Z</time>
      </trkpt>
      <trkpt lat="42.91736" lon="-0.50529">
        <ele>2489</ele>
        <time>2013-04-24T09:33:30Z</time>
      </trkpt>
      <trkpt lat="42.91735" lon="-0.50523">
        <ele>2490</ele>
        <time>2013-04-24T09:33:37Z</time>
      </trkpt>
      <trkpt lat="42.91736" lon="-0.50522">
        <ele>2491</ele>
        <time>2013-04-24T09:33:38Z</time>
      </trkpt>
      <trkpt lat="42.91736" lon="-0.50518">
        <ele>2492</ele>
        <time>2013-04-24T09:33:44Z</time>
      </trkpt>
      <trkpt lat="42.91737" lon="-0.50514">
        <ele>2493</ele>
        <time>2013-04-24T09:33:50Z</time>
      </trkpt>
      <trkpt lat="42.91738" lon="-0.50508">
        <ele>2495</ele>
        <time>2013-04-24T09:33:59Z</time>
      </trkpt>
      <trkpt lat="42.91738" lon="-0.50508">
        <ele>2495</ele>
        <time>2013-04-24T09:34:00Z</time>
      </trkpt>
      <trkpt lat="42.91741" lon="-0.505">
        <ele>2497</ele>
        <time>2013-04-24T09:34:08Z</time>
      </trkpt>
      <trkpt lat="42.91742" lon="-0.50497">
        <ele>2497</ele>
        <time>2013-04-24T09:34:12Z</time>
      </trkpt>
      <trkpt lat="42.91746" lon="-0.50491">
        <ele>2498</ele>
        <time>2013-04-24T09:34:20Z</time>
      </trkpt>
      <trkpt lat="42.91748" lon="-0.50488">
        <ele>2500</ele>
        <time>2013-04-24T09:34:25Z</time>
      </trkpt>
      <trkpt lat="42.91751" lon="-0.50483">
        <ele>2500</ele>
        <time>2013-04-24T09:34:33Z</time>
      </trkpt>
      <trkpt lat="42.91754" lon="-0.50478">
        <ele>2502</ele>
        <time>2013-04-24T09:34:40Z</time>
      </trkpt>
      <trkpt lat="42.91757" lon="-0.50473">
        <ele>2503</ele>
        <time>2013-04-24T09:34:49Z</time>
      </trkpt>
      <trkpt lat="42.9176" lon="-0.50469">
        <ele>2504</ele>
        <time>2013-04-24T09:34:57Z</time>
      </trkpt>
      <trkpt lat="42.91762" lon="-0.50464">
        <ele>2506</ele>
        <time>2013-04-24T09:35:05Z</time>
      </trkpt>
      <trkpt lat="42.91764" lon="-0.50459">
        <ele>2506</ele>
        <time>2013-04-24T09:35:12Z</time>
      </trkpt>
      <trkpt lat="42.91767" lon="-0.50452">
        <ele>2508</ele>
        <time>2013-04-24T09:35:22Z</time>
      </trkpt>
      <trkpt lat="42.91771" lon="-0.50451">
        <ele>2509</ele>
        <time>2013-04-24T09:35:30Z</time>
      </trkpt>
      <trkpt lat="42.91775" lon="-0.50452">
        <ele>2511</ele>
        <time>2013-04-24T09:35:38Z</time>
      </trkpt>
      <trkpt lat="42.9178" lon="-0.50455">
        <ele>2513</ele>
        <time>2013-04-24T09:35:46Z</time>
      </trkpt>
      <trkpt lat="42.91783" lon="-0.50457">
        <ele>2513</ele>
        <time>2013-04-24T09:35:53Z</time>
      </trkpt>
      <trkpt lat="42.91789" lon="-0.5046">
        <ele>2514</ele>
        <time>2013-04-24T09:36:00Z</time>
      </trkpt>
      <trkpt lat="42.91792" lon="-0.50463">
        <ele>2514</ele>
        <time>2013-04-24T09:36:06Z</time>
      </trkpt>
      <trkpt lat="42.91794" lon="-0.50465">
        <ele>2515</ele>
        <time>2013-04-24T09:36:09Z</time>
      </trkpt>
      <trkpt lat="42.91796" lon="-0.50467">
        <ele>2516</ele>
        <time>2013-04-24T09:36:12Z</time>
      </trkpt>
      <trkpt lat="42.91801" lon="-0.50472">
        <ele>2517</ele>
        <time>2013-04-24T09:36:19Z</time>
      </trkpt>
      <trkpt lat="42.91803" lon="-0.50473">
        <ele>2518</ele>
        <time>2013-04-24T09:36:22Z</time>
      </trkpt>
      <trkpt lat="42.91809" lon="-0.50475">
        <ele>2520</ele>
        <time>2013-04-24T09:36:30Z</time>
      </trkpt>
      <trkpt lat="42.91812" lon="-0.50478">
        <ele>2521</ele>
        <time>2013-04-24T09:36:37Z</time>
      </trkpt>
      <trkpt lat="42.91817" lon="-0.50481">
        <ele>2522</ele>
        <time>2013-04-24T09:36:46Z</time>
      </trkpt>
      <trkpt lat="42.9182" lon="-0.50484">
        <ele>2522</ele>
        <time>2013-04-24T09:36:51Z</time>
      </trkpt>
      <trkpt lat="42.91826" lon="-0.50486">
        <ele>2524</ele>
        <time>2013-04-24T09:36:58Z</time>
      </trkpt>
      <trkpt lat="42.91829" lon="-0.50489">
        <ele>2525</ele>
        <time>2013-04-24T09:37:06Z</time>
      </trkpt>
      <trkpt lat="42.91831" lon="-0.50491">
        <ele>2526</ele>
        <time>2013-04-24T09:37:12Z</time>
      </trkpt>
      <trkpt lat="42.91832" lon="-0.50491">
        <ele>2526</ele>
        <time>2013-04-24T09:37:24Z</time>
      </trkpt>
      <trkpt lat="42.91832" lon="-0.50492">
        <ele>2527</ele>
        <time>2013-04-24T09:37:45Z</time>
      </trkpt>
      <trkpt lat="42.91832" lon="-0.50491">
        <ele>2526</ele>
        <time>2013-04-24T09:37:50Z</time>
      </trkpt>
      <trkpt lat="42.91834" lon="-0.50493">
        <ele>2527</ele>
        <time>2013-04-24T09:37:56Z</time>
      </trkpt>
      <trkpt lat="42.91834" lon="-0.50493">
        <ele>2527</ele>
        <time>2013-04-24T09:37:57Z</time>
      </trkpt>
      <trkpt lat="42.91837" lon="-0.50495">
        <ele>2528</ele>
        <time>2013-04-24T09:38:03Z</time>
      </trkpt>
      <trkpt lat="42.91838" lon="-0.50499">
        <ele>2528</ele>
        <time>2013-04-24T09:38:09Z</time>
      </trkpt>
      <trkpt lat="42.91843" lon="-0.50501">
        <ele>2530</ele>
        <time>2013-04-24T09:38:16Z</time>
      </trkpt>
      <trkpt lat="42.91847" lon="-0.50503">
        <ele>2531</ele>
        <time>2013-04-24T09:38:22Z</time>
      </trkpt>
      <trkpt lat="42.91854" lon="-0.50507">
        <ele>2532</ele>
        <time>2013-04-24T09:38:30Z</time>
      </trkpt>
      <trkpt lat="42.91861" lon="-0.5051">
        <ele>2533</ele>
        <time>2013-04-24T09:38:38Z</time>
      </trkpt>
      <trkpt lat="42.91863" lon="-0.50513">
        <ele>2535</ele>
        <time>2013-04-24T09:38:44Z</time>
      </trkpt>
      <trkpt lat="42.91863" lon="-0.50515">
        <ele>2535</ele>
        <time>2013-04-24T09:38:51Z</time>
      </trkpt>
      <trkpt lat="42.91863" lon="-0.50517">
        <ele>2536</ele>
        <time>2013-04-24T09:38:53Z</time>
      </trkpt>
      <trkpt lat="42.91868" lon="-0.50518">
        <ele>2537</ele>
        <time>2013-04-24T09:39:00Z</time>
      </trkpt>
      <trkpt lat="42.91873" lon="-0.50517">
        <ele>2538</ele>
        <time>2013-04-24T09:39:06Z</time>
      </trkpt>
      <trkpt lat="42.91875" lon="-0.5052">
        <ele>2539</ele>
        <time>2013-04-24T09:39:11Z</time>
      </trkpt>
      <trkpt lat="42.91878" lon="-0.50521">
        <ele>2540</ele>
        <time>2013-04-24T09:39:17Z</time>
      </trkpt>
      <trkpt lat="42.91882" lon="-0.5052">
        <ele>2541</ele>
        <time>2013-04-24T09:39:23Z</time>
      </trkpt>
      <trkpt lat="42.91884" lon="-0.50523">
        <ele>2542</ele>
        <time>2013-04-24T09:39:31Z</time>
      </trkpt>
      <trkpt lat="42.91888" lon="-0.50525">
        <ele>2543</ele>
        <time>2013-04-24T09:39:37Z</time>
      </trkpt>
      <trkpt lat="42.91892" lon="-0.50525">
        <ele>2544</ele>
        <time>2013-04-24T09:39:42Z</time>
      </trkpt>
      <trkpt lat="42.91892" lon="-0.50525">
        <ele>2544</ele>
        <time>2013-04-24T09:39:50Z</time>
      </trkpt>
      <trkpt lat="42.91888" lon="-0.50524">
        <ele>2544</ele>
        <time>2013-04-24T09:39:58Z</time>
      </trkpt>
      <trkpt lat="42.91887" lon="-0.50525">
        <ele>2544</ele>
        <time>2013-04-24T09:40:10Z</time>
      </trkpt>
      <trkpt lat="42.91888" lon="-0.50526">
        <ele>2544</ele>
        <time>2013-04-24T09:40:27Z</time>
      </trkpt>
      <trkpt lat="42.91888" lon="-0.50524">
        <ele>2544</ele>
        <time>2013-04-24T09:40:46Z</time>
      </trkpt>
      <trkpt lat="42.91886" lon="-0.50525">
        <ele>2544</ele>
        <time>2013-04-24T09:40:56Z</time>
      </trkpt>
      <trkpt lat="42.91886" lon="-0.50525">
        <ele>2544</ele>
        <time>2013-04-24T09:40:58Z</time>
      </trkpt>
      <trkpt lat="42.91882" lon="-0.50517">
        <ele>2545</ele>
        <time>2013-04-24T09:41:05Z</time>
      </trkpt>
      <trkpt lat="42.91884" lon="-0.5051">
        <ele>2546</ele>
        <time>2013-04-24T09:41:12Z</time>
      </trkpt>
      <trkpt lat="42.91883" lon="-0.50504">
        <ele>2547</ele>
        <time>2013-04-24T09:41:17Z</time>
      </trkpt>
      <trkpt lat="42.91882" lon="-0.50498">
        <ele>2548</ele>
        <time>2013-04-24T09:41:25Z</time>
      </trkpt>
      <trkpt lat="42.91882" lon="-0.50496">
        <ele>2549</ele>
        <time>2013-04-24T09:41:28Z</time>
      </trkpt>
      <trkpt lat="42.9188" lon="-0.50491">
        <ele>2550</ele>
        <time>2013-04-24T09:41:35Z</time>
      </trkpt>
      <trkpt lat="42.9188" lon="-0.50491">
        <ele>2550</ele>
        <time>2013-04-24T09:41:36Z</time>
      </trkpt>
      <trkpt lat="42.91879" lon="-0.50488">
        <ele>2551</ele>
        <time>2013-04-24T09:41:38Z</time>
      </trkpt>
      <trkpt lat="42.91878" lon="-0.50484">
        <ele>2551</ele>
        <time>2013-04-24T09:41:46Z</time>
      </trkpt>
      <trkpt lat="42.91879" lon="-0.50486">
        <ele>2551</ele>
        <time>2013-04-24T09:41:54Z</time>
      </trkpt>
      <trkpt lat="42.91879" lon="-0.50488">
        <ele>2552</ele>
        <time>2013-04-24T09:42:07Z</time>
      </trkpt>
      <trkpt lat="42.9188" lon="-0.50489">
        <ele>2552</ele>
        <time>2013-04-24T09:42:09Z</time>
      </trkpt>
      <trkpt lat="42.91885" lon="-0.50491">
        <ele>2553</ele>
        <time>2013-04-24T09:42:17Z</time>
      </trkpt>
      <trkpt lat="42.91887" lon="-0.50492">
        <ele>2554</ele>
        <time>2013-04-24T09:42:23Z</time>
      </trkpt>
      <trkpt lat="42.91891" lon="-0.50496">
        <ele>2555</ele>
        <time>2013-04-24T09:42:31Z</time>
      </trkpt>
      <trkpt lat="42.91892" lon="-0.50498">
        <ele>2556</ele>
        <time>2013-04-24T09:42:39Z</time>
      </trkpt>
      <trkpt lat="42.91895" lon="-0.50498">
        <ele>2557</ele>
        <time>2013-04-24T09:42:42Z</time>
      </trkpt>
      <trkpt lat="42.91898" lon="-0.50498">
        <ele>2558</ele>
        <time>2013-04-24T09:42:49Z</time>
      </trkpt>
      <trkpt lat="42.919" lon="-0.50499">
        <ele>2560</ele>
        <time>2013-04-24T09:42:56Z</time>
      </trkpt>
      <trkpt lat="42.91901" lon="-0.50501">
        <ele>2559</ele>
        <time>2013-04-24T09:43:00Z</time>
      </trkpt>
      <trkpt lat="42.91903" lon="-0.50501">
        <ele>2561</ele>
        <time>2013-04-24T09:43:02Z</time>
      </trkpt>
      <trkpt lat="42.91905" lon="-0.50501">
        <ele>2562</ele>
        <time>2013-04-24T09:43:04Z</time>
      </trkpt>
      <trkpt lat="42.9191" lon="-0.505">
        <ele>2563</ele>
        <time>2013-04-24T09:43:10Z</time>
      </trkpt>
      <trkpt lat="42.91911" lon="-0.50503">
        <ele>2563</ele>
        <time>2013-04-24T09:43:17Z</time>
      </trkpt>
      <trkpt lat="42.91912" lon="-0.50503">
        <ele>2563</ele>
        <time>2013-04-24T09:43:24Z</time>
      </trkpt>
      <trkpt lat="42.91912" lon="-0.50502">
        <ele>2564</ele>
        <time>2013-04-24T09:43:33Z</time>
      </trkpt>
      <trkpt lat="42.9191" lon="-0.50501">
        <ele>2564</ele>
        <time>2013-04-24T09:43:44Z</time>
      </trkpt>
      <trkpt lat="42.9191" lon="-0.50497">
        <ele>2565</ele>
        <time>2013-04-24T09:43:51Z</time>
      </trkpt>
      <trkpt lat="42.91909" lon="-0.50492">
        <ele>2566</ele>
        <time>2013-04-24T09:43:58Z</time>
      </trkpt>
      <trkpt lat="42.91907" lon="-0.50488">
        <ele>2566</ele>
        <time>2013-04-24T09:44:03Z</time>
      </trkpt>
      <trkpt lat="42.91904" lon="-0.50484">
        <ele>2566</ele>
        <time>2013-04-24T09:44:11Z</time>
      </trkpt>
      <trkpt lat="42.91903" lon="-0.50479">
        <ele>2568</ele>
        <time>2013-04-24T09:44:18Z</time>
      </trkpt>
      <trkpt lat="42.91903" lon="-0.50478">
        <ele>2568</ele>
        <time>2013-04-24T09:44:19Z</time>
      </trkpt>
      <trkpt lat="42.91903" lon="-0.50475">
        <ele>2569</ele>
        <time>2013-04-24T09:44:21Z</time>
      </trkpt>
      <trkpt lat="42.919" lon="-0.50468">
        <ele>2571</ele>
        <time>2013-04-24T09:44:28Z</time>
      </trkpt>
      <trkpt lat="42.91899" lon="-0.50467">
        <ele>2571</ele>
        <time>2013-04-24T09:44:29Z</time>
      </trkpt>
      <trkpt lat="42.91898" lon="-0.50463">
        <ele>2572</ele>
        <time>2013-04-24T09:44:37Z</time>
      </trkpt>
      <trkpt lat="42.91899" lon="-0.50465">
        <ele>2572</ele>
        <time>2013-04-24T09:44:46Z</time>
      </trkpt>
      <trkpt lat="42.919" lon="-0.50462">
        <ele>2572</ele>
        <time>2013-04-24T09:44:50Z</time>
      </trkpt>
      <trkpt lat="42.91905" lon="-0.50468">
        <ele>2572</ele>
        <time>2013-04-24T09:44:57Z</time>
      </trkpt>
      <trkpt lat="42.91908" lon="-0.5047">
        <ele>2574</ele>
        <time>2013-04-24T09:45:03Z</time>
      </trkpt>
      <trkpt lat="42.91908" lon="-0.50472">
        <ele>2575</ele>
        <time>2013-04-24T09:45:09Z</time>
      </trkpt>
      <trkpt lat="42.91908" lon="-0.50471">
        <ele>2575</ele>
        <time>2013-04-24T09:45:17Z</time>
      </trkpt>
      <trkpt lat="42.91908" lon="-0.5047">
        <ele>2575</ele>
        <time>2013-04-24T09:45:21Z</time>
      </trkpt>
      <trkpt lat="42.91907" lon="-0.50467">
        <ele>2575</ele>
        <time>2013-04-24T09:45:23Z</time>
      </trkpt>
      <trkpt lat="42.91903" lon="-0.50461">
        <ele>2576</ele>
        <time>2013-04-24T09:45:29Z</time>
      </trkpt>
      <trkpt lat="42.919" lon="-0.50454">
        <ele>2576</ele>
        <time>2013-04-24T09:45:35Z</time>
      </trkpt>
      <trkpt lat="42.91898" lon="-0.50451">
        <ele>2576</ele>
        <time>2013-04-24T09:45:37Z</time>
      </trkpt>
      <trkpt lat="42.91898" lon="-0.50449">
        <ele>2577</ele>
        <time>2013-04-24T09:45:39Z</time>
      </trkpt>
      <trkpt lat="42.91898" lon="-0.50445">
        <ele>2578</ele>
        <time>2013-04-24T09:45:46Z</time>
      </trkpt>
      <trkpt lat="42.919" lon="-0.50447">
        <ele>2578</ele>
        <time>2013-04-24T09:45:53Z</time>
      </trkpt>
      <trkpt lat="42.91902" lon="-0.50449">
        <ele>2578</ele>
        <time>2013-04-24T09:46:00Z</time>
      </trkpt>
      <trkpt lat="42.91904" lon="-0.50452">
        <ele>2580</ele>
        <time>2013-04-24T09:46:06Z</time>
      </trkpt>
      <trkpt lat="42.91908" lon="-0.50452">
        <ele>2581</ele>
        <time>2013-04-24T09:46:12Z</time>
      </trkpt>
      <trkpt lat="42.91912" lon="-0.50454">
        <ele>2582</ele>
        <time>2013-04-24T09:46:18Z</time>
      </trkpt>
      <trkpt lat="42.91912" lon="-0.50453">
        <ele>2583</ele>
        <time>2013-04-24T09:46:25Z</time>
      </trkpt>
      <trkpt lat="42.91912" lon="-0.50452">
        <ele>2583</ele>
        <time>2013-04-24T09:46:34Z</time>
      </trkpt>
      <trkpt lat="42.91912" lon="-0.50448">
        <ele>2583</ele>
        <time>2013-04-24T09:46:41Z</time>
      </trkpt>
      <trkpt lat="42.9191" lon="-0.50444">
        <ele>2585</ele>
        <time>2013-04-24T09:46:46Z</time>
      </trkpt>
      <trkpt lat="42.91909" lon="-0.5044">
        <ele>2586</ele>
        <time>2013-04-24T09:46:52Z</time>
      </trkpt>
      <trkpt lat="42.91907" lon="-0.50435">
        <ele>2586</ele>
        <time>2013-04-24T09:46:57Z</time>
      </trkpt>
      <trkpt lat="42.91904" lon="-0.5043">
        <ele>2588</ele>
        <time>2013-04-24T09:47:04Z</time>
      </trkpt>
      <trkpt lat="42.91903" lon="-0.50424">
        <ele>2589</ele>
        <time>2013-04-24T09:47:10Z</time>
      </trkpt>
      <trkpt lat="42.91902" lon="-0.50418">
        <ele>2591</ele>
        <time>2013-04-24T09:47:18Z</time>
      </trkpt>
      <trkpt lat="42.91904" lon="-0.50421">
        <ele>2591</ele>
        <time>2013-04-24T09:47:27Z</time>
      </trkpt>
      <trkpt lat="42.91904" lon="-0.50421">
        <ele>2591</ele>
        <time>2013-04-24T09:47:35Z</time>
      </trkpt>
      <trkpt lat="42.91908" lon="-0.50421">
        <ele>2592</ele>
        <time>2013-04-24T09:47:43Z</time>
      </trkpt>
      <trkpt lat="42.91912" lon="-0.50421">
        <ele>2593</ele>
        <time>2013-04-24T09:47:47Z</time>
      </trkpt>
      <trkpt lat="42.9192" lon="-0.50424">
        <ele>2595</ele>
        <time>2013-04-24T09:47:56Z</time>
      </trkpt>
      <trkpt lat="42.91926" lon="-0.50426">
        <ele>2596</ele>
        <time>2013-04-24T09:48:04Z</time>
      </trkpt>
      <trkpt lat="42.91929" lon="-0.50429">
        <ele>2597</ele>
        <time>2013-04-24T09:48:11Z</time>
      </trkpt>
      <trkpt lat="42.91934" lon="-0.50429">
        <ele>2598</ele>
        <time>2013-04-24T09:48:18Z</time>
      </trkpt>
      <trkpt lat="42.91936" lon="-0.50429">
        <ele>2599</ele>
        <time>2013-04-24T09:48:24Z</time>
      </trkpt>
      <trkpt lat="42.91936" lon="-0.50429">
        <ele>2599</ele>
        <time>2013-04-24T09:48:30Z</time>
      </trkpt>
      <trkpt lat="42.91937" lon="-0.50425">
        <ele>2599</ele>
        <time>2013-04-24T09:48:35Z</time>
      </trkpt>
      <trkpt lat="42.91936" lon="-0.50424">
        <ele>2600</ele>
        <time>2013-04-24T09:48:37Z</time>
      </trkpt>
      <trkpt lat="42.91934" lon="-0.50422">
        <ele>2600</ele>
        <time>2013-04-24T09:48:39Z</time>
      </trkpt>
      <trkpt lat="42.91928" lon="-0.50415">
        <ele>2601</ele>
        <time>2013-04-24T09:48:47Z</time>
      </trkpt>
      <trkpt lat="42.91925" lon="-0.5041">
        <ele>2602</ele>
        <time>2013-04-24T09:48:54Z</time>
      </trkpt>
      <trkpt lat="42.91923" lon="-0.50404">
        <ele>2604</ele>
        <time>2013-04-24T09:49:02Z</time>
      </trkpt>
      <trkpt lat="42.91921" lon="-0.504">
        <ele>2605</ele>
        <time>2013-04-24T09:49:08Z</time>
      </trkpt>
      <trkpt lat="42.91919" lon="-0.50393">
        <ele>2605</ele>
        <time>2013-04-24T09:49:15Z</time>
      </trkpt>
      <trkpt lat="42.91916" lon="-0.50388">
        <ele>2605</ele>
        <time>2013-04-24T09:49:23Z</time>
      </trkpt>
      <trkpt lat="42.91918" lon="-0.50388">
        <ele>2606</ele>
        <time>2013-04-24T09:49:32Z</time>
      </trkpt>
      <trkpt lat="42.9192" lon="-0.50389">
        <ele>2607</ele>
        <time>2013-04-24T09:49:39Z</time>
      </trkpt>
      <trkpt lat="42.91921" lon="-0.50391">
        <ele>2607</ele>
        <time>2013-04-24T09:49:46Z</time>
      </trkpt>
      <trkpt lat="42.9192" lon="-0.50391">
        <ele>2607</ele>
        <time>2013-04-24T09:49:55Z</time>
      </trkpt>
      <trkpt lat="42.9192" lon="-0.50393">
        <ele>2607</ele>
        <time>2013-04-24T09:50:09Z</time>
      </trkpt>
      <trkpt lat="42.91922" lon="-0.50397">
        <ele>2606</ele>
        <time>2013-04-24T09:50:19Z</time>
      </trkpt>
      <trkpt lat="42.91921" lon="-0.50397">
        <ele>2606</ele>
        <time>2013-04-24T09:50:29Z</time>
      </trkpt>
      <trkpt lat="42.91921" lon="-0.50397">
        <ele>2606</ele>
        <time>2013-04-24T09:50:38Z</time>
      </trkpt>
      <trkpt lat="42.9192" lon="-0.50395">
        <ele>2606</ele>
        <time>2013-04-24T09:50:45Z</time>
      </trkpt>
      <trkpt lat="42.91919" lon="-0.50393">
        <ele>2606</ele>
        <time>2013-04-24T09:50:55Z</time>
      </trkpt>
      <trkpt lat="42.9192" lon="-0.50393">
        <ele>2606</ele>
        <time>2013-04-24T09:51:06Z</time>
      </trkpt>
      <trkpt lat="42.91922" lon="-0.50393">
        <ele>2606</ele>
        <time>2013-04-24T09:51:17Z</time>
      </trkpt>
      <trkpt lat="42.9192" lon="-0.50391">
        <ele>2606</ele>
        <time>2013-04-24T09:51:35Z</time>
      </trkpt>
      <trkpt lat="42.91919" lon="-0.50391">
        <ele>2606</ele>
        <time>2013-04-24T09:51:50Z</time>
      </trkpt>
      <trkpt lat="42.91918" lon="-0.50387">
        <ele>2606</ele>
        <time>2013-04-24T09:51:57Z</time>
      </trkpt>
      <trkpt lat="42.91919" lon="-0.50387">
        <ele>2606</ele>
        <time>2013-04-24T09:52:03Z</time>
      </trkpt>
      <trkpt lat="42.9192" lon="-0.50389">
        <ele>2607</ele>
        <time>2013-04-24T09:52:11Z</time>
      </trkpt>
      <trkpt lat="42.9192" lon="-0.50389">
        <ele>2607</ele>
        <time>2013-04-24T09:52:18Z</time>
      </trkpt>
      <trkpt lat="42.91919" lon="-0.50391">
        <ele>2606</ele>
        <time>2013-04-24T09:52:27Z</time>
      </trkpt>
      <trkpt lat="42.91918" lon="-0.50389">
        <ele>2605</ele>
        <time>2013-04-24T09:52:34Z</time>
      </trkpt>
      <trkpt lat="42.91918" lon="-0.50389">
        <ele>2605</ele>
        <time>2013-04-24T09:52:48Z</time>
      </trkpt>
      <trkpt lat="42.9192" lon="-0.50389">
        <ele>2605</ele>
        <time>2013-04-24T09:53:05Z</time>
      </trkpt>
      <trkpt lat="42.9192" lon="-0.50389">
        <ele>2605</ele>
        <time>2013-04-24T09:53:27Z</time>
      </trkpt>
      <trkpt lat="42.91919" lon="-0.50389">
        <ele>2606</ele>
        <time>2013-04-24T09:53:45Z</time>
      </trkpt>
      <trkpt lat="42.9192" lon="-0.50389">
        <ele>2606</ele>
        <time>2013-04-24T09:54:02Z</time>
      </trkpt>
      <trkpt lat="42.9192" lon="-0.5039">
        <ele>2605</ele>
        <time>2013-04-24T09:54:21Z</time>
      </trkpt>
      <trkpt lat="42.9192" lon="-0.50389">
        <ele>2605</ele>
        <time>2013-04-24T09:54:39Z</time>
      </trkpt>
      <trkpt lat="42.9192" lon="-0.50391">
        <ele>2606</ele>
        <time>2013-04-24T09:54:56Z</time>
      </trkpt>
      <trkpt lat="42.9192" lon="-0.5039">
        <ele>2606</ele>
        <time>2013-04-24T09:55:16Z</time>
      </trkpt>
      <trkpt lat="42.9192" lon="-0.5039">
        <ele>2606</ele>
        <time>2013-04-24T09:55:35Z</time>
      </trkpt>
      <trkpt lat="42.91919" lon="-0.50391">
        <ele>2606</ele>
        <time>2013-04-24T09:55:59Z</time>
      </trkpt>
      <trkpt lat="42.91919" lon="-0.50389">
        <ele>2606</ele>
        <time>2013-04-24T09:56:16Z</time>
      </trkpt>
      <trkpt lat="42.91919" lon="-0.50387">
        <ele>2606</ele>
        <time>2013-04-24T09:56:38Z</time>
      </trkpt>
      <trkpt lat="42.91919" lon="-0.50387">
        <ele>2606</ele>
        <time>2013-04-24T09:56:59Z</time>
      </trkpt>
      <trkpt lat="42.91919" lon="-0.50387">
        <ele>2606</ele>
        <time>2013-04-24T09:57:26Z</time>
      </trkpt>
      <trkpt lat="42.9192" lon="-0.50388">
        <ele>2607</ele>
        <time>2013-04-24T09:57:44Z</time>
      </trkpt>
      <trkpt lat="42.91921" lon="-0.50388">
        <ele>2606</ele>
        <time>2013-04-24T09:58:04Z</time>
      </trkpt>
      <trkpt lat="42.9192" lon="-0.50388">
        <ele>2606</ele>
        <time>2013-04-24T09:58:25Z</time>
      </trkpt>
      <trkpt lat="42.91919" lon="-0.50387">
        <ele>2606</ele>
        <time>2013-04-24T09:58:52Z</time>
      </trkpt>
      <trkpt lat="42.91921" lon="-0.5039">
        <ele>2606</ele>
        <time>2013-04-24T09:59:09Z</time>
      </trkpt>
      <trkpt lat="42.91922" lon="-0.5039">
        <ele>2607</ele>
        <time>2013-04-24T09:59:25Z</time>
      </trkpt>
      <trkpt lat="42.91923" lon="-0.5039">
        <ele>2608</ele>
        <time>2013-04-24T09:59:41Z</time>
      </trkpt>
      <trkpt lat="42.91923" lon="-0.5039">
        <ele>2607</ele>
        <time>2013-04-24T10:00:01Z</time>
      </trkpt>
      <trkpt lat="42.91923" lon="-0.50389">
        <ele>2606</ele>
        <time>2013-04-24T10:00:17Z</time>
      </trkpt>
      <trkpt lat="42.91922" lon="-0.50387">
        <ele>2607</ele>
        <time>2013-04-24T10:00:38Z</time>
      </trkpt>
      <trkpt lat="42.9192" lon="-0.50387">
        <ele>2607</ele>
        <time>2013-04-24T10:00:58Z</time>
      </trkpt>
      <trkpt lat="42.9192" lon="-0.50387">
        <ele>2607</ele>
        <time>2013-04-24T10:01:18Z</time>
      </trkpt>
      <trkpt lat="42.9192" lon="-0.50387">
        <ele>2607</ele>
        <time>2013-04-24T10:01:36Z</time>
      </trkpt>
      <trkpt lat="42.9192" lon="-0.50388">
        <ele>2607</ele>
        <time>2013-04-24T10:01:54Z</time>
      </trkpt>
      <trkpt lat="42.91919" lon="-0.50388">
        <ele>2607</ele>
        <time>2013-04-24T10:02:11Z</time>
      </trkpt>
      <trkpt lat="42.9192" lon="-0.50388">
        <ele>2607</ele>
        <time>2013-04-24T10:02:26Z</time>
      </trkpt>
      <trkpt lat="42.9192" lon="-0.50388">
        <ele>2607</ele>
        <time>2013-04-24T10:02:43Z</time>
      </trkpt>
      <trkpt lat="42.91921" lon="-0.50389">
        <ele>2607</ele>
        <time>2013-04-24T10:03:03Z</time>
      </trkpt>
      <trkpt lat="42.91921" lon="-0.5039">
        <ele>2607</ele>
        <time>2013-04-24T10:03:25Z</time>
      </trkpt>
      <trkpt lat="42.91921" lon="-0.50388">
        <ele>2608</ele>
        <time>2013-04-24T10:03:49Z</time>
      </trkpt>
      <trkpt lat="42.91921" lon="-0.50388">
        <ele>2608</ele>
        <time>2013-04-24T10:04:07Z</time>
      </trkpt>
      <trkpt lat="42.91919" lon="-0.50388">
        <ele>2608</ele>
        <time>2013-04-24T10:04:31Z</time>
      </trkpt>
      <trkpt lat="42.91919" lon="-0.50387">
        <ele>2607</ele>
        <time>2013-04-24T10:04:51Z</time>
      </trkpt>
      <trkpt lat="42.91921" lon="-0.50388">
        <ele>2608</ele>
        <time>2013-04-24T10:05:13Z</time>
      </trkpt>
      <trkpt lat="42.91922" lon="-0.50389">
        <ele>2608</ele>
        <time>2013-04-24T10:05:34Z</time>
      </trkpt>
      <trkpt lat="42.91921" lon="-0.50387">
        <ele>2608</ele>
        <time>2013-04-24T10:05:59Z</time>
      </trkpt>
      <trkpt lat="42.91921" lon="-0.50388">
        <ele>2608</ele>
        <time>2013-04-24T10:06:18Z</time>
      </trkpt>
      <trkpt lat="42.91921" lon="-0.50386">
        <ele>2608</ele>
        <time>2013-04-24T10:06:32Z</time>
      </trkpt>
      <trkpt lat="42.91921" lon="-0.50387">
        <ele>2608</ele>
        <time>2013-04-24T10:06:48Z</time>
      </trkpt>
      <trkpt lat="42.91921" lon="-0.50384">
        <ele>2609</ele>
        <time>2013-04-24T10:07:00Z</time>
      </trkpt>
      <trkpt lat="42.9192" lon="-0.50382">
        <ele>2608</ele>
        <time>2013-04-24T10:07:18Z</time>
      </trkpt>
      <trkpt lat="42.9192" lon="-0.5038">
        <ele>2608</ele>
        <time>2013-04-24T10:07:36Z</time>
      </trkpt>
      <trkpt lat="42.91919" lon="-0.50383">
        <ele>2609</ele>
        <time>2013-04-24T10:07:54Z</time>
      </trkpt>
      <trkpt lat="42.91919" lon="-0.50382">
        <ele>2609</ele>
        <time>2013-04-24T10:08:08Z</time>
      </trkpt>
      <trkpt lat="42.91918" lon="-0.50383">
        <ele>2609</ele>
        <time>2013-04-24T10:08:30Z</time>
      </trkpt>
      <trkpt lat="42.91917" lon="-0.50384">
        <ele>2609</ele>
        <time>2013-04-24T10:08:45Z</time>
      </trkpt>
      <trkpt lat="42.91918" lon="-0.50384">
        <ele>2609</ele>
        <time>2013-04-24T10:08:52Z</time>
      </trkpt>
      <trkpt lat="42.91917" lon="-0.50383">
        <ele>2608</ele>
        <time>2013-04-24T10:09:06Z</time>
      </trkpt>
      <trkpt lat="42.91917" lon="-0.50383">
        <ele>2609</ele>
        <time>2013-04-24T10:09:20Z</time>
      </trkpt>
      <trkpt lat="42.91917" lon="-0.50383">
        <ele>2609</ele>
        <time>2013-04-24T10:09:32Z</time>
      </trkpt>
      <trkpt lat="42.91917" lon="-0.50383">
        <ele>2608</ele>
        <time>2013-04-24T10:09:42Z</time>
      </trkpt>
      <trkpt lat="42.91918" lon="-0.50384">
        <ele>2609</ele>
        <time>2013-04-24T10:09:57Z</time>
      </trkpt>
      <trkpt lat="42.91918" lon="-0.50383">
        <ele>2609</ele>
        <time>2013-04-24T10:10:07Z</time>
      </trkpt>
      <trkpt lat="42.91918" lon="-0.50383">
        <ele>2609</ele>
        <time>2013-04-24T10:10:14Z</time>
      </trkpt>
      <trkpt lat="42.91919" lon="-0.50384">
        <ele>2610</ele>
        <time>2013-04-24T10:10:32Z</time>
      </trkpt>
      <trkpt lat="42.91919" lon="-0.50384">
        <ele>2610</ele>
        <time>2013-04-24T10:10:40Z</time>
      </trkpt>
      <trkpt lat="42.91918" lon="-0.50383">
        <ele>2609</ele>
        <time>2013-04-24T10:10:49Z</time>
      </trkpt>
      <trkpt lat="42.91918" lon="-0.50383">
        <ele>2610</ele>
        <time>2013-04-24T10:10:59Z</time>
      </trkpt>
      <trkpt lat="42.91919" lon="-0.50384">
        <ele>2610</ele>
        <time>2013-04-24T10:11:06Z</time>
      </trkpt>
      <trkpt lat="42.91919" lon="-0.50384">
        <ele>2609</ele>
        <time>2013-04-24T10:11:18Z</time>
      </trkpt>
      <trkpt lat="42.91919" lon="-0.50384">
        <ele>2609</ele>
        <time>2013-04-24T10:11:31Z</time>
      </trkpt>
      <trkpt lat="42.91919" lon="-0.50384">
        <ele>2609</ele>
        <time>2013-04-24T10:11:47Z</time>
      </trkpt>
      <trkpt lat="42.91919" lon="-0.50385">
        <ele>2609</ele>
        <time>2013-04-24T10:11:58Z</time>
      </trkpt>
      <trkpt lat="42.91919" lon="-0.50384">
        <ele>2609</ele>
        <time>2013-04-24T10:12:06Z</time>
      </trkpt>
      <trkpt lat="42.9192" lon="-0.50385">
        <ele>2609</ele>
        <time>2013-04-24T10:12:19Z</time>
      </trkpt>
      <trkpt lat="42.9192" lon="-0.50384">
        <ele>2609</ele>
        <time>2013-04-24T10:12:34Z</time>
      </trkpt>
      <trkpt lat="42.9192" lon="-0.50384">
        <ele>2609</ele>
        <time>2013-04-24T10:12:51Z</time>
      </trkpt>
      <trkpt lat="42.91919" lon="-0.50384">
        <ele>2609</ele>
        <time>2013-04-24T10:13:08Z</time>
      </trkpt>
      <trkpt lat="42.91919" lon="-0.50389">
        <ele>2609</ele>
        <time>2013-04-24T10:13:20Z</time>
      </trkpt>
      <trkpt lat="42.9192" lon="-0.50386">
        <ele>2610</ele>
        <time>2013-04-24T10:13:31Z</time>
      </trkpt>
      <trkpt lat="42.9192" lon="-0.50387">
        <ele>2611</ele>
        <time>2013-04-24T10:13:42Z</time>
      </trkpt>
      <trkpt lat="42.9192" lon="-0.50388">
        <ele>2610</ele>
        <time>2013-04-24T10:13:55Z</time>
      </trkpt>
      <trkpt lat="42.91921" lon="-0.50387">
        <ele>2610</ele>
        <time>2013-04-24T10:14:13Z</time>
      </trkpt>
      <trkpt lat="42.91921" lon="-0.50387">
        <ele>2610</ele>
        <time>2013-04-24T10:14:36Z</time>
      </trkpt>
      <trkpt lat="42.91921" lon="-0.50387">
        <ele>2610</ele>
        <time>2013-04-24T10:14:54Z</time>
      </trkpt>
      <trkpt lat="42.91921" lon="-0.50387">
        <ele>2610</ele>
        <time>2013-04-24T10:15:15Z</time>
      </trkpt>
      <trkpt lat="42.91921" lon="-0.50387">
        <ele>2610</ele>
        <time>2013-04-24T10:15:42Z</time>
      </trkpt>
      <trkpt lat="42.91921" lon="-0.50386">
        <ele>2611</ele>
        <time>2013-04-24T10:16:05Z</time>
      </trkpt>
      <trkpt lat="42.91921" lon="-0.50386">
        <ele>2611</ele>
        <time>2013-04-24T10:16:25Z</time>
      </trkpt>
      <trkpt lat="42.91922" lon="-0.50385">
        <ele>2611</ele>
        <time>2013-04-24T10:16:47Z</time>
      </trkpt>
      <trkpt lat="42.91922" lon="-0.50386">
        <ele>2611</ele>
        <time>2013-04-24T10:17:14Z</time>
      </trkpt>
      <trkpt lat="42.91922" lon="-0.50386">
        <ele>2611</ele>
        <time>2013-04-24T10:17:34Z</time>
      </trkpt>
      <trkpt lat="42.91922" lon="-0.50387">
        <ele>2611</ele>
        <time>2013-04-24T10:17:56Z</time>
      </trkpt>
      <trkpt lat="42.91921" lon="-0.50388">
        <ele>2611</ele>
        <time>2013-04-24T10:18:07Z</time>
      </trkpt>
      <trkpt lat="42.91921" lon="-0.50388">
        <ele>2611</ele>
        <time>2013-04-24T10:18:21Z</time>
      </trkpt>
      <trkpt lat="42.91921" lon="-0.50388">
        <ele>2612</ele>
        <time>2013-04-24T10:18:26Z</time>
      </trkpt>
      <trkpt lat="42.91919" lon="-0.50388">
        <ele>2612</ele>
        <time>2013-04-24T10:18:33Z</time>
      </trkpt>
      <trkpt lat="42.9192" lon="-0.50388">
        <ele>2612</ele>
        <time>2013-04-24T10:18:44Z</time>
      </trkpt>
      <trkpt lat="42.91919" lon="-0.50388">
        <ele>2612</ele>
        <time>2013-04-24T10:18:55Z</time>
      </trkpt>
      <trkpt lat="42.91919" lon="-0.50388">
        <ele>2612</ele>
        <time>2013-04-24T10:19:04Z</time>
      </trkpt>
      <trkpt lat="42.91919" lon="-0.50388">
        <ele>2612</ele>
        <time>2013-04-24T10:19:14Z</time>
      </trkpt>
      <trkpt lat="42.91919" lon="-0.50387">
        <ele>2612</ele>
        <time>2013-04-24T10:19:24Z</time>
      </trkpt>
      <trkpt lat="42.91919" lon="-0.50387">
        <ele>2612</ele>
        <time>2013-04-24T10:19:32Z</time>
      </trkpt>
      <trkpt lat="42.91919" lon="-0.50388">
        <ele>2612</ele>
        <time>2013-04-24T10:19:45Z</time>
      </trkpt>
      <trkpt lat="42.9192" lon="-0.50388">
        <ele>2612</ele>
        <time>2013-04-24T10:19:57Z</time>
      </trkpt>
      <trkpt lat="42.9192" lon="-0.50389">
        <ele>2612</ele>
        <time>2013-04-24T10:20:06Z</time>
      </trkpt>
      <trkpt lat="42.9192" lon="-0.5039">
        <ele>2612</ele>
        <time>2013-04-24T10:20:20Z</time>
      </trkpt>
      <trkpt lat="42.9192" lon="-0.50388">
        <ele>2612</ele>
        <time>2013-04-24T10:20:28Z</time>
      </trkpt>
      <trkpt lat="42.91922" lon="-0.50387">
        <ele>2611</ele>
        <time>2013-04-24T10:20:40Z</time>
      </trkpt>
      <trkpt lat="42.91921" lon="-0.50388">
        <ele>2613</ele>
        <time>2013-04-24T10:20:44Z</time>
      </trkpt>
      <trkpt lat="42.9192" lon="-0.50392">
        <ele>2611</ele>
        <time>2013-04-24T10:20:50Z</time>
      </trkpt>
      <trkpt lat="42.91918" lon="-0.50393">
        <ele>2612</ele>
        <time>2013-04-24T10:21:00Z</time>
      </trkpt>
      <trkpt lat="42.91918" lon="-0.50398">
        <ele>2611</ele>
        <time>2013-04-24T10:21:06Z</time>
      </trkpt>
      <trkpt lat="42.9192" lon="-0.50407">
        <ele>2609</ele>
        <time>2013-04-24T10:21:09Z</time>
      </trkpt>
      <trkpt lat="42.91916" lon="-0.50411">
        <ele>2607</ele>
        <time>2013-04-24T10:21:11Z</time>
      </trkpt>
      <trkpt lat="42.91916" lon="-0.50421">
        <ele>2603</ele>
        <time>2013-04-24T10:21:14Z</time>
      </trkpt>
      <trkpt lat="42.91917" lon="-0.50428">
        <ele>2602</ele>
        <time>2013-04-24T10:21:16Z</time>
      </trkpt>
      <trkpt lat="42.91911" lon="-0.50436">
        <ele>2597</ele>
        <time>2013-04-24T10:21:19Z</time>
      </trkpt>
      <trkpt lat="42.91907" lon="-0.50445">
        <ele>2593</ele>
        <time>2013-04-24T10:21:22Z</time>
      </trkpt>
      <trkpt lat="42.91905" lon="-0.50445">
        <ele>2590</ele>
        <time>2013-04-24T10:21:23Z</time>
      </trkpt>
      <trkpt lat="42.91901" lon="-0.50447">
        <ele>2587</ele>
        <time>2013-04-24T10:21:25Z</time>
      </trkpt>
      <trkpt lat="42.91901" lon="-0.5045">
        <ele>2586</ele>
        <time>2013-04-24T10:21:26Z</time>
      </trkpt>
      <trkpt lat="42.91897" lon="-0.50456">
        <ele>2582</ele>
        <time>2013-04-24T10:21:30Z</time>
      </trkpt>
      <trkpt lat="42.91893" lon="-0.5046">
        <ele>2579</ele>
        <time>2013-04-24T10:21:33Z</time>
      </trkpt>
      <trkpt lat="42.91894" lon="-0.50461">
        <ele>2579</ele>
        <time>2013-04-24T10:21:34Z</time>
      </trkpt>
      <trkpt lat="42.91892" lon="-0.50473">
        <ele>2575</ele>
        <time>2013-04-24T10:21:39Z</time>
      </trkpt>
      <trkpt lat="42.91887" lon="-0.50472">
        <ele>2571</ele>
        <time>2013-04-24T10:21:41Z</time>
      </trkpt>
      <trkpt lat="42.91882" lon="-0.50482">
        <ele>2569</ele>
        <time>2013-04-24T10:21:44Z</time>
      </trkpt>
      <trkpt lat="42.91875" lon="-0.50481">
        <ele>2563</ele>
        <time>2013-04-24T10:21:46Z</time>
      </trkpt>
      <trkpt lat="42.91873" lon="-0.50488">
        <ele>2559</ele>
        <time>2013-04-24T10:21:48Z</time>
      </trkpt>
      <trkpt lat="42.91868" lon="-0.50494">
        <ele>2554</ele>
        <time>2013-04-24T10:21:50Z</time>
      </trkpt>
      <trkpt lat="42.91863" lon="-0.50501">
        <ele>2550</ele>
        <time>2013-04-24T10:21:52Z</time>
      </trkpt>
      <trkpt lat="42.91862" lon="-0.50506">
        <ele>2550</ele>
        <time>2013-04-24T10:21:53Z</time>
      </trkpt>
      <trkpt lat="42.91859" lon="-0.50509">
        <ele>2546</ele>
        <time>2013-04-24T10:21:54Z</time>
      </trkpt>
      <trkpt lat="42.91854" lon="-0.50516">
        <ele>2541</ele>
        <time>2013-04-24T10:21:56Z</time>
      </trkpt>
      <trkpt lat="42.9185" lon="-0.50525">
        <ele>2537</ele>
        <time>2013-04-24T10:21:58Z</time>
      </trkpt>
      <trkpt lat="42.91845" lon="-0.50533">
        <ele>2532</ele>
        <time>2013-04-24T10:22:00Z</time>
      </trkpt>
      <trkpt lat="42.91842" lon="-0.50537">
        <ele>2532</ele>
        <time>2013-04-24T10:22:01Z</time>
      </trkpt>
      <trkpt lat="42.91825" lon="-0.50558">
        <ele>2521</ele>
        <time>2013-04-24T10:22:06Z</time>
      </trkpt>
      <trkpt lat="42.91817" lon="-0.50573">
        <ele>2515</ele>
        <time>2013-04-24T10:22:09Z</time>
      </trkpt>
      <trkpt lat="42.91805" lon="-0.50589">
        <ele>2508</ele>
        <time>2013-04-24T10:22:12Z</time>
      </trkpt>
      <trkpt lat="42.91792" lon="-0.50593">
        <ele>2503</ele>
        <time>2013-04-24T10:22:15Z</time>
      </trkpt>
      <trkpt lat="42.91789" lon="-0.50595">
        <ele>2504</ele>
        <time>2013-04-24T10:22:16Z</time>
      </trkpt>
      <trkpt lat="42.91783" lon="-0.50612">
        <ele>2501</ele>
        <time>2013-04-24T10:22:19Z</time>
      </trkpt>
      <trkpt lat="42.91784" lon="-0.50626">
        <ele>2500</ele>
        <time>2013-04-24T10:22:21Z</time>
      </trkpt>
      <trkpt lat="42.91777" lon="-0.50644">
        <ele>2497</ele>
        <time>2013-04-24T10:22:24Z</time>
      </trkpt>
      <trkpt lat="42.91769" lon="-0.50655">
        <ele>2493</ele>
        <time>2013-04-24T10:22:26Z</time>
      </trkpt>
      <trkpt lat="42.91763" lon="-0.50664">
        <ele>2490</ele>
        <time>2013-04-24T10:22:28Z</time>
      </trkpt>
      <trkpt lat="42.91758" lon="-0.50667">
        <ele>2488</ele>
        <time>2013-04-24T10:22:29Z</time>
      </trkpt>
      <trkpt lat="42.91736" lon="-0.50683">
        <ele>2478</ele>
        <time>2013-04-24T10:22:33Z</time>
      </trkpt>
      <trkpt lat="42.91727" lon="-0.50695">
        <ele>2475</ele>
        <time>2013-04-24T10:22:35Z</time>
      </trkpt>
      <trkpt lat="42.91724" lon="-0.50706">
        <ele>2471</ele>
        <time>2013-04-24T10:22:37Z</time>
      </trkpt>
      <trkpt lat="42.91725" lon="-0.50707">
        <ele>2471</ele>
        <time>2013-04-24T10:22:38Z</time>
      </trkpt>
      <trkpt lat="42.91726" lon="-0.50705">
        <ele>2472</ele>
        <time>2013-04-24T10:22:45Z</time>
      </trkpt>
      <trkpt lat="42.91727" lon="-0.50704">
        <ele>2471</ele>
        <time>2013-04-24T10:22:53Z</time>
      </trkpt>
      <trkpt lat="42.91727" lon="-0.50704">
        <ele>2471</ele>
        <time>2013-04-24T10:22:54Z</time>
      </trkpt>
      <trkpt lat="42.91723" lon="-0.50721">
        <ele>2470</ele>
        <time>2013-04-24T10:22:59Z</time>
      </trkpt>
      <trkpt lat="42.91722" lon="-0.5073">
        <ele>2469</ele>
        <time>2013-04-24T10:23:01Z</time>
      </trkpt>
      <trkpt lat="42.91711" lon="-0.50743">
        <ele>2465</ele>
        <time>2013-04-24T10:23:05Z</time>
      </trkpt>
      <trkpt lat="42.91707" lon="-0.50758">
        <ele>2463</ele>
        <time>2013-04-24T10:23:08Z</time>
      </trkpt>
      <trkpt lat="42.917" lon="-0.50763">
        <ele>2459</ele>
        <time>2013-04-24T10:23:10Z</time>
      </trkpt>
      <trkpt lat="42.91692" lon="-0.50773">
        <ele>2455</ele>
        <time>2013-04-24T10:23:12Z</time>
      </trkpt>
      <trkpt lat="42.91686" lon="-0.50774">
        <ele>2451</ele>
        <time>2013-04-24T10:23:13Z</time>
      </trkpt>
      <trkpt lat="42.91677" lon="-0.50779">
        <ele>2446</ele>
        <time>2013-04-24T10:23:15Z</time>
      </trkpt>
      <trkpt lat="42.91667" lon="-0.50787">
        <ele>2443</ele>
        <time>2013-04-24T10:23:17Z</time>
      </trkpt>
      <trkpt lat="42.91656" lon="-0.50792">
        <ele>2437</ele>
        <time>2013-04-24T10:23:19Z</time>
      </trkpt>
      <trkpt lat="42.91639" lon="-0.508">
        <ele>2432</ele>
        <time>2013-04-24T10:23:22Z</time>
      </trkpt>
      <trkpt lat="42.9163" lon="-0.50804">
        <ele>2431</ele>
        <time>2013-04-24T10:23:24Z</time>
      </trkpt>
      <trkpt lat="42.91619" lon="-0.508">
        <ele>2427</ele>
        <time>2013-04-24T10:23:26Z</time>
      </trkpt>
      <trkpt lat="42.91614" lon="-0.50802">
        <ele>2427</ele>
        <time>2013-04-24T10:23:27Z</time>
      </trkpt>
      <trkpt lat="42.91603" lon="-0.50802">
        <ele>2425</ele>
        <time>2013-04-24T10:23:30Z</time>
      </trkpt>
      <trkpt lat="42.91599" lon="-0.50796">
        <ele>2423</ele>
        <time>2013-04-24T10:23:35Z</time>
      </trkpt>
      <trkpt lat="42.91587" lon="-0.50796">
        <ele>2419</ele>
        <time>2013-04-24T10:23:38Z</time>
      </trkpt>
      <trkpt lat="42.91577" lon="-0.50801">
        <ele>2416</ele>
        <time>2013-04-24T10:23:40Z</time>
      </trkpt>
      <trkpt lat="42.91565" lon="-0.50802">
        <ele>2411</ele>
        <time>2013-04-24T10:23:42Z</time>
      </trkpt>
      <trkpt lat="42.91559" lon="-0.50803">
        <ele>2411</ele>
        <time>2013-04-24T10:23:43Z</time>
      </trkpt>
      <trkpt lat="42.91548" lon="-0.50807">
        <ele>2406</ele>
        <time>2013-04-24T10:23:45Z</time>
      </trkpt>
      <trkpt lat="42.91538" lon="-0.50811">
        <ele>2405</ele>
        <time>2013-04-24T10:23:47Z</time>
      </trkpt>
      <trkpt lat="42.91527" lon="-0.50817">
        <ele>2401</ele>
        <time>2013-04-24T10:23:49Z</time>
      </trkpt>
      <trkpt lat="42.91517" lon="-0.50826">
        <ele>2400</ele>
        <time>2013-04-24T10:23:51Z</time>
      </trkpt>
      <trkpt lat="42.91508" lon="-0.50833">
        <ele>2396</ele>
        <time>2013-04-24T10:23:53Z</time>
      </trkpt>
      <trkpt lat="42.91503" lon="-0.50837">
        <ele>2396</ele>
        <time>2013-04-24T10:23:54Z</time>
      </trkpt>
      <trkpt lat="42.91494" lon="-0.50847">
        <ele>2394</ele>
        <time>2013-04-24T10:23:56Z</time>
      </trkpt>
      <trkpt lat="42.91484" lon="-0.50854">
        <ele>2392</ele>
        <time>2013-04-24T10:23:58Z</time>
      </trkpt>
      <trkpt lat="42.91478" lon="-0.50857">
        <ele>2390</ele>
        <time>2013-04-24T10:23:59Z</time>
      </trkpt>
      <trkpt lat="42.9146" lon="-0.50865">
        <ele>2388</ele>
        <time>2013-04-24T10:24:02Z</time>
      </trkpt>
      <trkpt lat="42.91447" lon="-0.50878">
        <ele>2382</ele>
        <time>2013-04-24T10:24:05Z</time>
      </trkpt>
      <trkpt lat="42.91444" lon="-0.5088">
        <ele>2380</ele>
        <time>2013-04-24T10:24:07Z</time>
      </trkpt>
      <trkpt lat="42.91443" lon="-0.50881">
        <ele>2378</ele>
        <time>2013-04-24T10:24:09Z</time>
      </trkpt>
      <trkpt lat="42.91441" lon="-0.50882">
        <ele>2378</ele>
        <time>2013-04-24T10:24:16Z</time>
      </trkpt>
      <trkpt lat="42.9144" lon="-0.5088">
        <ele>2378</ele>
        <time>2013-04-24T10:24:26Z</time>
      </trkpt>
      <trkpt lat="42.91439" lon="-0.5088">
        <ele>2378</ele>
        <time>2013-04-24T10:24:38Z</time>
      </trkpt>
      <trkpt lat="42.91439" lon="-0.5088">
        <ele>2377</ele>
        <time>2013-04-24T10:24:42Z</time>
      </trkpt>
      <trkpt lat="42.91427" lon="-0.50885">
        <ele>2376</ele>
        <time>2013-04-24T10:24:48Z</time>
      </trkpt>
      <trkpt lat="42.9142" lon="-0.50901">
        <ele>2374</ele>
        <time>2013-04-24T10:24:51Z</time>
      </trkpt>
      <trkpt lat="42.91414" lon="-0.50915">
        <ele>2368</ele>
        <time>2013-04-24T10:24:53Z</time>
      </trkpt>
      <trkpt lat="42.91406" lon="-0.50923">
        <ele>2365</ele>
        <time>2013-04-24T10:24:55Z</time>
      </trkpt>
      <trkpt lat="42.91395" lon="-0.50921">
        <ele>2362</ele>
        <time>2013-04-24T10:24:57Z</time>
      </trkpt>
      <trkpt lat="42.91386" lon="-0.50928">
        <ele>2358</ele>
        <time>2013-04-24T10:24:59Z</time>
      </trkpt>
      <trkpt lat="42.91369" lon="-0.50961">
        <ele>2348</ele>
        <time>2013-04-24T10:25:03Z</time>
      </trkpt>
      <trkpt lat="42.91365" lon="-0.50968">
        <ele>2347</ele>
        <time>2013-04-24T10:25:04Z</time>
      </trkpt>
      <trkpt lat="42.91359" lon="-0.50993">
        <ele>2343</ele>
        <time>2013-04-24T10:25:07Z</time>
      </trkpt>
      <trkpt lat="42.91352" lon="-0.51021">
        <ele>2340</ele>
        <time>2013-04-24T10:25:11Z</time>
      </trkpt>
      <trkpt lat="42.91341" lon="-0.51048">
        <ele>2337</ele>
        <time>2013-04-24T10:25:15Z</time>
      </trkpt>
      <trkpt lat="42.91327" lon="-0.51082">
        <ele>2334</ele>
        <time>2013-04-24T10:25:22Z</time>
      </trkpt>
      <trkpt lat="42.91327" lon="-0.51093">
        <ele>2334</ele>
        <time>2013-04-24T10:25:26Z</time>
      </trkpt>
      <trkpt lat="42.91327" lon="-0.51092">
        <ele>2334</ele>
        <time>2013-04-24T10:25:34Z</time>
      </trkpt>
      <trkpt lat="42.91327" lon="-0.51093">
        <ele>2334</ele>
        <time>2013-04-24T10:25:42Z</time>
      </trkpt>
      <trkpt lat="42.91325" lon="-0.51115">
        <ele>2332</ele>
        <time>2013-04-24T10:25:49Z</time>
      </trkpt>
      <trkpt lat="42.91325" lon="-0.5112">
        <ele>2332</ele>
        <time>2013-04-24T10:25:50Z</time>
      </trkpt>
      <trkpt lat="42.9132" lon="-0.51132">
        <ele>2329</ele>
        <time>2013-04-24T10:25:53Z</time>
      </trkpt>
      <trkpt lat="42.91317" lon="-0.51138">
        <ele>2327</ele>
        <time>2013-04-24T10:25:54Z</time>
      </trkpt>
      <trkpt lat="42.91308" lon="-0.5116">
        <ele>2320</ele>
        <time>2013-04-24T10:25:58Z</time>
      </trkpt>
      <trkpt lat="42.91306" lon="-0.51167">
        <ele>2319</ele>
        <time>2013-04-24T10:25:59Z</time>
      </trkpt>
      <trkpt lat="42.91291" lon="-0.512">
        <ele>2312</ele>
        <time>2013-04-24T10:26:04Z</time>
      </trkpt>
      <trkpt lat="42.9128" lon="-0.51218">
        <ele>2309</ele>
        <time>2013-04-24T10:26:08Z</time>
      </trkpt>
      <trkpt lat="42.91273" lon="-0.51239">
        <ele>2306</ele>
        <time>2013-04-24T10:26:13Z</time>
      </trkpt>
      <trkpt lat="42.91269" lon="-0.51248">
        <ele>2304</ele>
        <time>2013-04-24T10:26:17Z</time>
      </trkpt>
      <trkpt lat="42.91267" lon="-0.51247">
        <ele>2303</ele>
        <time>2013-04-24T10:26:20Z</time>
      </trkpt>
      <trkpt lat="42.91268" lon="-0.51246">
        <ele>2302</ele>
        <time>2013-04-24T10:26:29Z</time>
      </trkpt>
      <trkpt lat="42.91269" lon="-0.51245">
        <ele>2302</ele>
        <time>2013-04-24T10:26:38Z</time>
      </trkpt>
      <trkpt lat="42.91266" lon="-0.51244">
        <ele>2302</ele>
        <time>2013-04-24T10:26:40Z</time>
      </trkpt>
      <trkpt lat="42.91248" lon="-0.51249">
        <ele>2297</ele>
        <time>2013-04-24T10:26:44Z</time>
      </trkpt>
      <trkpt lat="42.91237" lon="-0.51253">
        <ele>2293</ele>
        <time>2013-04-24T10:26:46Z</time>
      </trkpt>
      <trkpt lat="42.91225" lon="-0.51255">
        <ele>2289</ele>
        <time>2013-04-24T10:26:48Z</time>
      </trkpt>
      <trkpt lat="42.91218" lon="-0.51256">
        <ele>2286</ele>
        <time>2013-04-24T10:26:49Z</time>
      </trkpt>
      <trkpt lat="42.91206" lon="-0.51256">
        <ele>2281</ele>
        <time>2013-04-24T10:26:51Z</time>
      </trkpt>
      <trkpt lat="42.91194" lon="-0.51254">
        <ele>2277</ele>
        <time>2013-04-24T10:26:53Z</time>
      </trkpt>
      <trkpt lat="42.91181" lon="-0.51244">
        <ele>2272</ele>
        <time>2013-04-24T10:26:56Z</time>
      </trkpt>
      <trkpt lat="42.91175" lon="-0.51234">
        <ele>2271</ele>
        <time>2013-04-24T10:26:58Z</time>
      </trkpt>
      <trkpt lat="42.91165" lon="-0.51218">
        <ele>2267</ele>
        <time>2013-04-24T10:27:01Z</time>
      </trkpt>
      <trkpt lat="42.91153" lon="-0.51199">
        <ele>2265</ele>
        <time>2013-04-24T10:27:04Z</time>
      </trkpt>
      <trkpt lat="42.91134" lon="-0.51179">
        <ele>2262</ele>
        <time>2013-04-24T10:27:08Z</time>
      </trkpt>
      <trkpt lat="42.91108" lon="-0.51149">
        <ele>2257</ele>
        <time>2013-04-24T10:27:13Z</time>
      </trkpt>
      <trkpt lat="42.91084" lon="-0.51127">
        <ele>2254</ele>
        <time>2013-04-24T10:27:17Z</time>
      </trkpt>
      <trkpt lat="42.91067" lon="-0.51118">
        <ele>2252</ele>
        <time>2013-04-24T10:27:21Z</time>
      </trkpt>
      <trkpt lat="42.91058" lon="-0.51115">
        <ele>2251</ele>
        <time>2013-04-24T10:27:23Z</time>
      </trkpt>
      <trkpt lat="42.91052" lon="-0.51123">
        <ele>2248</ele>
        <time>2013-04-24T10:27:25Z</time>
      </trkpt>
      <trkpt lat="42.91052" lon="-0.5114">
        <ele>2248</ele>
        <time>2013-04-24T10:27:33Z</time>
      </trkpt>
      <trkpt lat="42.91052" lon="-0.5114">
        <ele>2248</ele>
        <time>2013-04-24T10:27:44Z</time>
      </trkpt>
      <trkpt lat="42.91051" lon="-0.5114">
        <ele>2248</ele>
        <time>2013-04-24T10:27:54Z</time>
      </trkpt>
      <trkpt lat="42.91051" lon="-0.5114">
        <ele>2247</ele>
        <time>2013-04-24T10:28:01Z</time>
      </trkpt>
      <trkpt lat="42.91043" lon="-0.51137">
        <ele>2246</ele>
        <time>2013-04-24T10:28:05Z</time>
      </trkpt>
      <trkpt lat="42.91041" lon="-0.51133">
        <ele>2246</ele>
        <time>2013-04-24T10:28:06Z</time>
      </trkpt>
      <trkpt lat="42.91029" lon="-0.51116">
        <ele>2242</ele>
        <time>2013-04-24T10:28:11Z</time>
      </trkpt>
      <trkpt lat="42.91012" lon="-0.51097">
        <ele>2240</ele>
        <time>2013-04-24T10:28:16Z</time>
      </trkpt>
      <trkpt lat="42.90994" lon="-0.51082">
        <ele>2236</ele>
        <time>2013-04-24T10:28:22Z</time>
      </trkpt>
      <trkpt lat="42.90991" lon="-0.51079">
        <ele>2236</ele>
        <time>2013-04-24T10:28:23Z</time>
      </trkpt>
      <trkpt lat="42.90987" lon="-0.51079">
        <ele>2235</ele>
        <time>2013-04-24T10:28:24Z</time>
      </trkpt>
      <trkpt lat="42.90981" lon="-0.5109">
        <ele>2231</ele>
        <time>2013-04-24T10:28:27Z</time>
      </trkpt>
      <trkpt lat="42.90973" lon="-0.51095">
        <ele>2225</ele>
        <time>2013-04-24T10:28:29Z</time>
      </trkpt>
      <trkpt lat="42.9097" lon="-0.51103">
        <ele>2221</ele>
        <time>2013-04-24T10:28:31Z</time>
      </trkpt>
      <trkpt lat="42.90965" lon="-0.51108">
        <ele>2215</ele>
        <time>2013-04-24T10:28:33Z</time>
      </trkpt>
      <trkpt lat="42.90961" lon="-0.5111">
        <ele>2211</ele>
        <time>2013-04-24T10:28:34Z</time>
      </trkpt>
      <trkpt lat="42.90957" lon="-0.5112">
        <ele>2205</ele>
        <time>2013-04-24T10:28:37Z</time>
      </trkpt>
      <trkpt lat="42.90952" lon="-0.51124">
        <ele>2201</ele>
        <time>2013-04-24T10:28:39Z</time>
      </trkpt>
      <trkpt lat="42.90951" lon="-0.51131">
        <ele>2197</ele>
        <time>2013-04-24T10:28:41Z</time>
      </trkpt>
      <trkpt lat="42.90947" lon="-0.51132">
        <ele>2194</ele>
        <time>2013-04-24T10:28:42Z</time>
      </trkpt>
      <trkpt lat="42.90938" lon="-0.51142">
        <ele>2186</ele>
        <time>2013-04-24T10:28:46Z</time>
      </trkpt>
      <trkpt lat="42.90935" lon="-0.51144">
        <ele>2182</ele>
        <time>2013-04-24T10:28:47Z</time>
      </trkpt>
      <trkpt lat="42.90925" lon="-0.51154">
        <ele>2175</ele>
        <time>2013-04-24T10:28:51Z</time>
      </trkpt>
      <trkpt lat="42.9092" lon="-0.51157">
        <ele>2171</ele>
        <time>2013-04-24T10:28:52Z</time>
      </trkpt>
      <trkpt lat="42.90914" lon="-0.51163">
        <ele>2166</ele>
        <time>2013-04-24T10:28:54Z</time>
      </trkpt>
      <trkpt lat="42.90909" lon="-0.51172">
        <ele>2163</ele>
        <time>2013-04-24T10:28:56Z</time>
      </trkpt>
      <trkpt lat="42.90897" lon="-0.51173">
        <ele>2158</ele>
        <time>2013-04-24T10:28:58Z</time>
      </trkpt>
      <trkpt lat="42.90894" lon="-0.51186">
        <ele>2155</ele>
        <time>2013-04-24T10:29:00Z</time>
      </trkpt>
      <trkpt lat="42.90888" lon="-0.51216">
        <ele>2146</ele>
        <time>2013-04-24T10:29:04Z</time>
      </trkpt>
      <trkpt lat="42.90885" lon="-0.51217">
        <ele>2144</ele>
        <time>2013-04-24T10:29:07Z</time>
      </trkpt>
      <trkpt lat="42.90886" lon="-0.51215">
        <ele>2144</ele>
        <time>2013-04-24T10:29:18Z</time>
      </trkpt>
      <trkpt lat="42.90885" lon="-0.51215">
        <ele>2145</ele>
        <time>2013-04-24T10:29:20Z</time>
      </trkpt>
      <trkpt lat="42.90885" lon="-0.51221">
        <ele>2144</ele>
        <time>2013-04-24T10:29:26Z</time>
      </trkpt>
      <trkpt lat="42.90885" lon="-0.51222">
        <ele>2143</ele>
        <time>2013-04-24T10:29:37Z</time>
      </trkpt>
      <trkpt lat="42.90879" lon="-0.51235">
        <ele>2142</ele>
        <time>2013-04-24T10:29:41Z</time>
      </trkpt>
      <trkpt lat="42.90869" lon="-0.51241">
        <ele>2141</ele>
        <time>2013-04-24T10:29:43Z</time>
      </trkpt>
      <trkpt lat="42.90852" lon="-0.51263">
        <ele>2136</ele>
        <time>2013-04-24T10:29:47Z</time>
      </trkpt>
      <trkpt lat="42.90853" lon="-0.51267">
        <ele>2136</ele>
        <time>2013-04-24T10:29:48Z</time>
      </trkpt>
      <trkpt lat="42.90855" lon="-0.51272">
        <ele>2136</ele>
        <time>2013-04-24T10:29:52Z</time>
      </trkpt>
      <trkpt lat="42.90854" lon="-0.51273">
        <ele>2136</ele>
        <time>2013-04-24T10:30:06Z</time>
      </trkpt>
      <trkpt lat="42.90854" lon="-0.51274">
        <ele>2135</ele>
        <time>2013-04-24T10:30:12Z</time>
      </trkpt>
      <trkpt lat="42.90848" lon="-0.51285">
        <ele>2134</ele>
        <time>2013-04-24T10:30:17Z</time>
      </trkpt>
      <trkpt lat="42.90841" lon="-0.51296">
        <ele>2133</ele>
        <time>2013-04-24T10:30:19Z</time>
      </trkpt>
      <trkpt lat="42.90818" lon="-0.51315">
        <ele>2126</ele>
        <time>2013-04-24T10:30:23Z</time>
      </trkpt>
      <trkpt lat="42.90799" lon="-0.51336">
        <ele>2122</ele>
        <time>2013-04-24T10:30:27Z</time>
      </trkpt>
      <trkpt lat="42.90787" lon="-0.51343">
        <ele>2120</ele>
        <time>2013-04-24T10:30:29Z</time>
      </trkpt>
      <trkpt lat="42.90759" lon="-0.51347">
        <ele>2117</ele>
        <time>2013-04-24T10:30:35Z</time>
      </trkpt>
      <trkpt lat="42.90753" lon="-0.51347">
        <ele>2117</ele>
        <time>2013-04-24T10:30:38Z</time>
      </trkpt>
      <trkpt lat="42.90749" lon="-0.51347">
        <ele>2118</ele>
        <time>2013-04-24T10:30:41Z</time>
      </trkpt>
      <trkpt lat="42.90743" lon="-0.51343">
        <ele>2119</ele>
        <time>2013-04-24T10:30:48Z</time>
      </trkpt>
      <trkpt lat="42.90742" lon="-0.51339">
        <ele>2119</ele>
        <time>2013-04-24T10:30:55Z</time>
      </trkpt>
      <trkpt lat="42.9073" lon="-0.5133">
        <ele>2119</ele>
        <time>2013-04-24T10:31:02Z</time>
      </trkpt>
      <trkpt lat="42.90712" lon="-0.51322">
        <ele>2116</ele>
        <time>2013-04-24T10:31:07Z</time>
      </trkpt>
      <trkpt lat="42.90707" lon="-0.51321">
        <ele>2115</ele>
        <time>2013-04-24T10:31:08Z</time>
      </trkpt>
      <trkpt lat="42.90676" lon="-0.5132">
        <ele>2110</ele>
        <time>2013-04-24T10:31:13Z</time>
      </trkpt>
      <trkpt lat="42.90642" lon="-0.51315">
        <ele>2106</ele>
        <time>2013-04-24T10:31:19Z</time>
      </trkpt>
      <trkpt lat="42.90623" lon="-0.51315">
        <ele>2103</ele>
        <time>2013-04-24T10:31:23Z</time>
      </trkpt>
      <trkpt lat="42.90607" lon="-0.51317">
        <ele>2101</ele>
        <time>2013-04-24T10:31:27Z</time>
      </trkpt>
      <trkpt lat="42.90604" lon="-0.51331">
        <ele>2097</ele>
        <time>2013-04-24T10:31:30Z</time>
      </trkpt>
      <trkpt lat="42.90607" lon="-0.51337">
        <ele>2095</ele>
        <time>2013-04-24T10:31:31Z</time>
      </trkpt>
      <trkpt lat="42.90608" lon="-0.51354">
        <ele>2087</ele>
        <time>2013-04-24T10:31:34Z</time>
      </trkpt>
      <trkpt lat="42.90607" lon="-0.51366">
        <ele>2081</ele>
        <time>2013-04-24T10:31:36Z</time>
      </trkpt>
      <trkpt lat="42.90606" lon="-0.5138">
        <ele>2076</ele>
        <time>2013-04-24T10:31:38Z</time>
      </trkpt>
      <trkpt lat="42.90606" lon="-0.51387">
        <ele>2073</ele>
        <time>2013-04-24T10:31:39Z</time>
      </trkpt>
      <trkpt lat="42.90602" lon="-0.51399">
        <ele>2066</ele>
        <time>2013-04-24T10:31:41Z</time>
      </trkpt>
      <trkpt lat="42.90599" lon="-0.51412">
        <ele>2061</ele>
        <time>2013-04-24T10:31:43Z</time>
      </trkpt>
      <trkpt lat="42.90595" lon="-0.51427">
        <ele>2054</ele>
        <time>2013-04-24T10:31:45Z</time>
      </trkpt>
      <trkpt lat="42.90587" lon="-0.51439">
        <ele>2048</ele>
        <time>2013-04-24T10:31:47Z</time>
      </trkpt>
      <trkpt lat="42.90585" lon="-0.51447">
        <ele>2044</ele>
        <time>2013-04-24T10:31:48Z</time>
      </trkpt>
      <trkpt lat="42.90578" lon="-0.5146">
        <ele>2038</ele>
        <time>2013-04-24T10:31:50Z</time>
      </trkpt>
      <trkpt lat="42.90576" lon="-0.51468">
        <ele>2033</ele>
        <time>2013-04-24T10:31:51Z</time>
      </trkpt>
      <trkpt lat="42.90574" lon="-0.51475">
        <ele>2031</ele>
        <time>2013-04-24T10:31:52Z</time>
      </trkpt>
      <trkpt lat="42.90557" lon="-0.515">
        <ele>2017</ele>
        <time>2013-04-24T10:31:56Z</time>
      </trkpt>
      <trkpt lat="42.90548" lon="-0.51507">
        <ele>2014</ele>
        <time>2013-04-24T10:31:58Z</time>
      </trkpt>
      <trkpt lat="42.90545" lon="-0.51519">
        <ele>2009</ele>
        <time>2013-04-24T10:32:00Z</time>
      </trkpt>
      <trkpt lat="42.90539" lon="-0.51528">
        <ele>2004</ele>
        <time>2013-04-24T10:32:02Z</time>
      </trkpt>
      <trkpt lat="42.90537" lon="-0.51535">
        <ele>2002</ele>
        <time>2013-04-24T10:32:03Z</time>
      </trkpt>
      <trkpt lat="42.90536" lon="-0.51542">
        <ele>2000</ele>
        <time>2013-04-24T10:32:04Z</time>
      </trkpt>
      <trkpt lat="42.90521" lon="-0.51571">
        <ele>1986</ele>
        <time>2013-04-24T10:32:08Z</time>
      </trkpt>
      <trkpt lat="42.90514" lon="-0.51585">
        <ele>1979</ele>
        <time>2013-04-24T10:32:10Z</time>
      </trkpt>
      <trkpt lat="42.90509" lon="-0.516">
        <ele>1973</ele>
        <time>2013-04-24T10:32:12Z</time>
      </trkpt>
      <trkpt lat="42.90505" lon="-0.51607">
        <ele>1971</ele>
        <time>2013-04-24T10:32:13Z</time>
      </trkpt>
      <trkpt lat="42.90495" lon="-0.51627">
        <ele>1960</ele>
        <time>2013-04-24T10:32:16Z</time>
      </trkpt>
      <trkpt lat="42.90489" lon="-0.51637">
        <ele>1955</ele>
        <time>2013-04-24T10:32:18Z</time>
      </trkpt>
      <trkpt lat="42.90488" lon="-0.51639">
        <ele>1952</ele>
        <time>2013-04-24T10:32:19Z</time>
      </trkpt>
      <trkpt lat="42.90489" lon="-0.51638">
        <ele>1954</ele>
        <time>2013-04-24T10:32:20Z</time>
      </trkpt>
      <trkpt lat="42.90492" lon="-0.51636">
        <ele>1953</ele>
        <time>2013-04-24T10:32:26Z</time>
      </trkpt>
      <trkpt lat="42.90491" lon="-0.51637">
        <ele>1954</ele>
        <time>2013-04-24T10:32:41Z</time>
      </trkpt>
      <trkpt lat="42.90493" lon="-0.51637">
        <ele>1954</ele>
        <time>2013-04-24T10:32:57Z</time>
      </trkpt>
      <trkpt lat="42.90495" lon="-0.51636">
        <ele>1953</ele>
        <time>2013-04-24T10:33:11Z</time>
      </trkpt>
      <trkpt lat="42.90495" lon="-0.51636">
        <ele>1954</ele>
        <time>2013-04-24T10:33:15Z</time>
      </trkpt>
      <trkpt lat="42.90488" lon="-0.51641">
        <ele>1950</ele>
        <time>2013-04-24T10:33:20Z</time>
      </trkpt>
      <trkpt lat="42.90482" lon="-0.51638">
        <ele>1949</ele>
        <time>2013-04-24T10:33:27Z</time>
      </trkpt>
      <trkpt lat="42.90478" lon="-0.51635">
        <ele>1948</ele>
        <time>2013-04-24T10:33:33Z</time>
      </trkpt>
      <trkpt lat="42.9047" lon="-0.51631">
        <ele>1947</ele>
        <time>2013-04-24T10:33:39Z</time>
      </trkpt>
      <trkpt lat="42.90458" lon="-0.51619">
        <ele>1943</ele>
        <time>2013-04-24T10:33:45Z</time>
      </trkpt>
      <trkpt lat="42.90447" lon="-0.51612">
        <ele>1942</ele>
        <time>2013-04-24T10:33:49Z</time>
      </trkpt>
      <trkpt lat="42.90444" lon="-0.5161">
        <ele>1941</ele>
        <time>2013-04-24T10:33:50Z</time>
      </trkpt>
      <trkpt lat="42.90436" lon="-0.51623">
        <ele>1935</ele>
        <time>2013-04-24T10:33:54Z</time>
      </trkpt>
      <trkpt lat="42.90432" lon="-0.51631">
        <ele>1929</ele>
        <time>2013-04-24T10:33:56Z</time>
      </trkpt>
      <trkpt lat="42.90427" lon="-0.51638">
        <ele>1924</ele>
        <time>2013-04-24T10:33:58Z</time>
      </trkpt>
      <trkpt lat="42.90432" lon="-0.51658">
        <ele>1919</ele>
        <time>2013-04-24T10:34:01Z</time>
      </trkpt>
      <trkpt lat="42.90438" lon="-0.5168">
        <ele>1915</ele>
        <time>2013-04-24T10:34:05Z</time>
      </trkpt>
      <trkpt lat="42.90429" lon="-0.51686">
        <ele>1912</ele>
        <time>2013-04-24T10:34:07Z</time>
      </trkpt>
      <trkpt lat="42.90425" lon="-0.51691">
        <ele>1908</ele>
        <time>2013-04-24T10:34:08Z</time>
      </trkpt>
      <trkpt lat="42.90415" lon="-0.51698">
        <ele>1903</ele>
        <time>2013-04-24T10:34:10Z</time>
      </trkpt>
      <trkpt lat="42.90407" lon="-0.51694">
        <ele>1899</ele>
        <time>2013-04-24T10:34:12Z</time>
      </trkpt>
      <trkpt lat="42.90404" lon="-0.51692">
        <ele>1898</ele>
        <time>2013-04-24T10:34:14Z</time>
      </trkpt>
      <trkpt lat="42.90404" lon="-0.51692">
        <ele>1898</ele>
        <time>2013-04-24T10:34:15Z</time>
      </trkpt>
      <trkpt lat="42.90393" lon="-0.51698">
        <ele>1896</ele>
        <time>2013-04-24T10:34:18Z</time>
      </trkpt>
      <trkpt lat="42.90378" lon="-0.51723">
        <ele>1891</ele>
        <time>2013-04-24T10:34:21Z</time>
      </trkpt>
      <trkpt lat="42.90377" lon="-0.51736">
        <ele>1891</ele>
        <time>2013-04-24T10:34:24Z</time>
      </trkpt>
      <trkpt lat="42.90378" lon="-0.51737">
        <ele>1893</ele>
        <time>2013-04-24T10:34:27Z</time>
      </trkpt>
      <trkpt lat="42.90379" lon="-0.51739">
        <ele>1893</ele>
        <time>2013-04-24T10:34:33Z</time>
      </trkpt>
      <trkpt lat="42.90379" lon="-0.5174">
        <ele>1894</ele>
        <time>2013-04-24T10:34:42Z</time>
      </trkpt>
      <trkpt lat="42.9038" lon="-0.51744">
        <ele>1893</ele>
        <time>2013-04-24T10:34:47Z</time>
      </trkpt>
      <trkpt lat="42.90382" lon="-0.51753">
        <ele>1893</ele>
        <time>2013-04-24T10:34:53Z</time>
      </trkpt>
      <trkpt lat="42.90382" lon="-0.51756">
        <ele>1893</ele>
        <time>2013-04-24T10:34:59Z</time>
      </trkpt>
      <trkpt lat="42.90384" lon="-0.5176">
        <ele>1895</ele>
        <time>2013-04-24T10:35:05Z</time>
      </trkpt>
      <trkpt lat="42.90386" lon="-0.51763">
        <ele>1894</ele>
        <time>2013-04-24T10:35:10Z</time>
      </trkpt>
      <trkpt lat="42.90384" lon="-0.5178">
        <ele>1894</ele>
        <time>2013-04-24T10:35:18Z</time>
      </trkpt>
      <trkpt lat="42.90385" lon="-0.51804">
        <ele>1893</ele>
        <time>2013-04-24T10:35:24Z</time>
      </trkpt>
      <trkpt lat="42.90386" lon="-0.51812">
        <ele>1893</ele>
        <time>2013-04-24T10:35:30Z</time>
      </trkpt>
      <trkpt lat="42.90392" lon="-0.51829">
        <ele>1892</ele>
        <time>2013-04-24T10:35:35Z</time>
      </trkpt>
      <trkpt lat="42.90395" lon="-0.5185">
        <ele>1890</ele>
        <time>2013-04-24T10:35:40Z</time>
      </trkpt>
      <trkpt lat="42.90395" lon="-0.5185">
        <ele>1891</ele>
        <time>2013-04-24T10:35:46Z</time>
      </trkpt>
      <trkpt lat="42.90394" lon="-0.5185">
        <ele>1891</ele>
        <time>2013-04-24T10:35:50Z</time>
      </trkpt>
      <trkpt lat="42.90381" lon="-0.51845">
        <ele>1888</ele>
        <time>2013-04-24T10:35:55Z</time>
      </trkpt>
      <trkpt lat="42.90378" lon="-0.51841">
        <ele>1888</ele>
        <time>2013-04-24T10:35:56Z</time>
      </trkpt>
      <trkpt lat="42.90375" lon="-0.51835">
        <ele>1887</ele>
        <time>2013-04-24T10:35:58Z</time>
      </trkpt>
      <trkpt lat="42.90373" lon="-0.51833">
        <ele>1887</ele>
        <time>2013-04-24T10:35:59Z</time>
      </trkpt>
      <trkpt lat="42.90369" lon="-0.51826">
        <ele>1886</ele>
        <time>2013-04-24T10:36:01Z</time>
      </trkpt>
      <trkpt lat="42.90362" lon="-0.51822">
        <ele>1883</ele>
        <time>2013-04-24T10:36:04Z</time>
      </trkpt>
      <trkpt lat="42.90361" lon="-0.51822">
        <ele>1883</ele>
        <time>2013-04-24T10:36:05Z</time>
      </trkpt>
      <trkpt lat="42.9036" lon="-0.51827">
        <ele>1879</ele>
        <time>2013-04-24T10:36:06Z</time>
      </trkpt>
      <trkpt lat="42.90359" lon="-0.51831">
        <ele>1877</ele>
        <time>2013-04-24T10:36:07Z</time>
      </trkpt>
      <trkpt lat="42.9036" lon="-0.51836">
        <ele>1877</ele>
        <time>2013-04-24T10:36:08Z</time>
      </trkpt>
      <trkpt lat="42.90362" lon="-0.5185">
        <ele>1875</ele>
        <time>2013-04-24T10:36:11Z</time>
      </trkpt>
      <trkpt lat="42.90364" lon="-0.51855">
        <ele>1873</ele>
        <time>2013-04-24T10:36:13Z</time>
      </trkpt>
      <trkpt lat="42.90366" lon="-0.51857">
        <ele>1872</ele>
        <time>2013-04-24T10:36:14Z</time>
      </trkpt>
      <trkpt lat="42.90361" lon="-0.51857">
        <ele>1869</ele>
        <time>2013-04-24T10:36:17Z</time>
      </trkpt>
      <trkpt lat="42.90359" lon="-0.51855">
        <ele>1868</ele>
        <time>2013-04-24T10:36:18Z</time>
      </trkpt>
      <trkpt lat="42.90354" lon="-0.51859">
        <ele>1866</ele>
        <time>2013-04-24T10:36:20Z</time>
      </trkpt>
      <trkpt lat="42.90353" lon="-0.51865">
        <ele>1866</ele>
        <time>2013-04-24T10:36:21Z</time>
      </trkpt>
      <trkpt lat="42.90353" lon="-0.51869">
        <ele>1863</ele>
        <time>2013-04-24T10:36:22Z</time>
      </trkpt>
      <trkpt lat="42.90353" lon="-0.51873">
        <ele>1863</ele>
        <time>2013-04-24T10:36:23Z</time>
      </trkpt>
      <trkpt lat="42.90352" lon="-0.51876">
        <ele>1863</ele>
        <time>2013-04-24T10:36:24Z</time>
      </trkpt>
      <trkpt lat="42.90355" lon="-0.51883">
        <ele>1860</ele>
        <time>2013-04-24T10:36:27Z</time>
      </trkpt>
      <trkpt lat="42.90357" lon="-0.51885">
        <ele>1861</ele>
        <time>2013-04-24T10:36:34Z</time>
      </trkpt>
      <trkpt lat="42.90359" lon="-0.51888">
        <ele>1861</ele>
        <time>2013-04-24T10:36:43Z</time>
      </trkpt>
      <trkpt lat="42.9036" lon="-0.5189">
        <ele>1861</ele>
        <time>2013-04-24T10:36:51Z</time>
      </trkpt>
      <trkpt lat="42.9036" lon="-0.51891">
        <ele>1861</ele>
        <time>2013-04-24T10:36:52Z</time>
      </trkpt>
      <trkpt lat="42.9036" lon="-0.51893">
        <ele>1860</ele>
        <time>2013-04-24T10:36:53Z</time>
      </trkpt>
      <trkpt lat="42.90368" lon="-0.51904">
        <ele>1858</ele>
        <time>2013-04-24T10:36:59Z</time>
      </trkpt>
      <trkpt lat="42.90362" lon="-0.51906">
        <ele>1855</ele>
        <time>2013-04-24T10:37:01Z</time>
      </trkpt>
      <trkpt lat="42.90348" lon="-0.519">
        <ele>1852</ele>
        <time>2013-04-24T10:37:05Z</time>
      </trkpt>
      <trkpt lat="42.90341" lon="-0.519">
        <ele>1850</ele>
        <time>2013-04-24T10:37:09Z</time>
      </trkpt>
      <trkpt lat="42.9034" lon="-0.51902">
        <ele>1847</ele>
        <time>2013-04-24T10:37:10Z</time>
      </trkpt>
      <trkpt lat="42.90339" lon="-0.51905">
        <ele>1847</ele>
        <time>2013-04-24T10:37:11Z</time>
      </trkpt>
      <trkpt lat="42.90339" lon="-0.51908">
        <ele>1845</ele>
        <time>2013-04-24T10:37:12Z</time>
      </trkpt>
      <trkpt lat="42.90339" lon="-0.51911">
        <ele>1845</ele>
        <time>2013-04-24T10:37:13Z</time>
      </trkpt>
      <trkpt lat="42.90337" lon="-0.51911">
        <ele>1843</ele>
        <time>2013-04-24T10:37:15Z</time>
      </trkpt>
      <trkpt lat="42.90339" lon="-0.51918">
        <ele>1842</ele>
        <time>2013-04-24T10:37:19Z</time>
      </trkpt>
      <trkpt lat="42.90353" lon="-0.51931">
        <ele>1839</ele>
        <time>2013-04-24T10:37:25Z</time>
      </trkpt>
      <trkpt lat="42.90364" lon="-0.5194">
        <ele>1837</ele>
        <time>2013-04-24T10:37:29Z</time>
      </trkpt>
      <trkpt lat="42.90372" lon="-0.51946">
        <ele>1835</ele>
        <time>2013-04-24T10:37:33Z</time>
      </trkpt>
      <trkpt lat="42.90375" lon="-0.51947">
        <ele>1834</ele>
        <time>2013-04-24T10:37:39Z</time>
      </trkpt>
      <trkpt lat="42.90378" lon="-0.51951">
        <ele>1833</ele>
        <time>2013-04-24T10:37:51Z</time>
      </trkpt>
      <trkpt lat="42.90379" lon="-0.51953">
        <ele>1831</ele>
        <time>2013-04-24T10:37:52Z</time>
      </trkpt>
      <trkpt lat="42.90381" lon="-0.51955">
        <ele>1831</ele>
        <time>2013-04-24T10:37:53Z</time>
      </trkpt>
      <trkpt lat="42.90382" lon="-0.51956">
        <ele>1830</ele>
        <time>2013-04-24T10:37:54Z</time>
      </trkpt>
      <trkpt lat="42.90384" lon="-0.51957">
        <ele>1830</ele>
        <time>2013-04-24T10:37:55Z</time>
      </trkpt>
      <trkpt lat="42.90385" lon="-0.51959">
        <ele>1829</ele>
        <time>2013-04-24T10:37:56Z</time>
      </trkpt>
      <trkpt lat="42.90387" lon="-0.51961">
        <ele>1829</ele>
        <time>2013-04-24T10:37:57Z</time>
      </trkpt>
      <trkpt lat="42.90396" lon="-0.51973">
        <ele>1825</ele>
        <time>2013-04-24T10:38:01Z</time>
      </trkpt>
      <trkpt lat="42.90405" lon="-0.51984">
        <ele>1823</ele>
        <time>2013-04-24T10:38:04Z</time>
      </trkpt>
      <trkpt lat="42.90408" lon="-0.51992">
        <ele>1821</ele>
        <time>2013-04-24T10:38:06Z</time>
      </trkpt>
      <trkpt lat="42.90408" lon="-0.51996">
        <ele>1821</ele>
        <time>2013-04-24T10:38:07Z</time>
      </trkpt>
      <trkpt lat="42.90406" lon="-0.51999">
        <ele>1820</ele>
        <time>2013-04-24T10:38:08Z</time>
      </trkpt>
      <trkpt lat="42.90406" lon="-0.52002">
        <ele>1818</ele>
        <time>2013-04-24T10:38:09Z</time>
      </trkpt>
      <trkpt lat="42.90407" lon="-0.52005">
        <ele>1817</ele>
        <time>2013-04-24T10:38:10Z</time>
      </trkpt>
      <trkpt lat="42.90409" lon="-0.52008">
        <ele>1815</ele>
        <time>2013-04-24T10:38:11Z</time>
      </trkpt>
      <trkpt lat="42.9041" lon="-0.5201">
        <ele>1814</ele>
        <time>2013-04-24T10:38:12Z</time>
      </trkpt>
      <trkpt lat="42.90412" lon="-0.52012">
        <ele>1813</ele>
        <time>2013-04-24T10:38:13Z</time>
      </trkpt>
      <trkpt lat="42.90413" lon="-0.52013">
        <ele>1813</ele>
        <time>2013-04-24T10:38:14Z</time>
      </trkpt>
      <trkpt lat="42.90414" lon="-0.52015">
        <ele>1812</ele>
        <time>2013-04-24T10:38:17Z</time>
      </trkpt>
      <trkpt lat="42.90415" lon="-0.52018">
        <ele>1811</ele>
        <time>2013-04-24T10:38:23Z</time>
      </trkpt>
      <trkpt lat="42.90416" lon="-0.52021">
        <ele>1811</ele>
        <time>2013-04-24T10:38:30Z</time>
      </trkpt>
      <trkpt lat="42.90415" lon="-0.52023">
        <ele>1809</ele>
        <time>2013-04-24T10:38:35Z</time>
      </trkpt>
      <trkpt lat="42.90415" lon="-0.52024">
        <ele>1808</ele>
        <time>2013-04-24T10:38:43Z</time>
      </trkpt>
      <trkpt lat="42.90414" lon="-0.52024">
        <ele>1808</ele>
        <time>2013-04-24T10:38:58Z</time>
      </trkpt>
      <trkpt lat="42.90414" lon="-0.52024">
        <ele>1808</ele>
        <time>2013-04-24T10:39:12Z</time>
      </trkpt>
      <trkpt lat="42.90414" lon="-0.52025">
        <ele>1808</ele>
        <time>2013-04-24T10:39:22Z</time>
      </trkpt>
      <trkpt lat="42.90415" lon="-0.52025">
        <ele>1807</ele>
        <time>2013-04-24T10:39:33Z</time>
      </trkpt>
      <trkpt lat="42.90414" lon="-0.52025">
        <ele>1808</ele>
        <time>2013-04-24T10:39:40Z</time>
      </trkpt>
      <trkpt lat="42.90414" lon="-0.5203">
        <ele>1806</ele>
        <time>2013-04-24T10:39:47Z</time>
      </trkpt>
      <trkpt lat="42.90414" lon="-0.52033">
        <ele>1805</ele>
        <time>2013-04-24T10:39:52Z</time>
      </trkpt>
      <trkpt lat="42.90413" lon="-0.52034">
        <ele>1805</ele>
        <time>2013-04-24T10:39:53Z</time>
      </trkpt>
      <trkpt lat="42.90413" lon="-0.52039">
        <ele>1804</ele>
        <time>2013-04-24T10:40:01Z</time>
      </trkpt>
      <trkpt lat="42.90413" lon="-0.5204">
        <ele>1804</ele>
        <time>2013-04-24T10:40:07Z</time>
      </trkpt>
      <trkpt lat="42.90413" lon="-0.52042">
        <ele>1803</ele>
        <time>2013-04-24T10:40:14Z</time>
      </trkpt>
      <trkpt lat="42.90412" lon="-0.5204">
        <ele>1801</ele>
        <time>2013-04-24T10:40:20Z</time>
      </trkpt>
      <trkpt lat="42.90411" lon="-0.52042">
        <ele>1801</ele>
        <time>2013-04-24T10:40:28Z</time>
      </trkpt>
      <trkpt lat="42.9041" lon="-0.52045">
        <ele>1800</ele>
        <time>2013-04-24T10:40:35Z</time>
      </trkpt>
      <trkpt lat="42.90409" lon="-0.52046">
        <ele>1799</ele>
        <time>2013-04-24T10:40:44Z</time>
      </trkpt>
      <trkpt lat="42.90409" lon="-0.52047">
        <ele>1799</ele>
        <time>2013-04-24T10:40:52Z</time>
      </trkpt>
      <trkpt lat="42.90409" lon="-0.52047">
        <ele>1799</ele>
        <time>2013-04-24T10:41:05Z</time>
      </trkpt>
      <trkpt lat="42.90409" lon="-0.5205">
        <ele>1798</ele>
        <time>2013-04-24T10:41:16Z</time>
      </trkpt>
      <trkpt lat="42.9041" lon="-0.52051">
        <ele>1799</ele>
        <time>2013-04-24T10:41:24Z</time>
      </trkpt>
      <trkpt lat="42.9041" lon="-0.52051">
        <ele>1798</ele>
        <time>2013-04-24T10:41:34Z</time>
      </trkpt>
      <trkpt lat="42.9041" lon="-0.52051">
        <ele>1798</ele>
        <time>2013-04-24T10:41:44Z</time>
      </trkpt>
      <trkpt lat="42.9041" lon="-0.52052">
        <ele>1798</ele>
        <time>2013-04-24T10:41:58Z</time>
      </trkpt>
      <trkpt lat="42.90409" lon="-0.52051">
        <ele>1798</ele>
        <time>2013-04-24T10:42:07Z</time>
      </trkpt>
      <trkpt lat="42.9041" lon="-0.52051">
        <ele>1798</ele>
        <time>2013-04-24T10:42:20Z</time>
      </trkpt>
      <trkpt lat="42.90411" lon="-0.52051">
        <ele>1798</ele>
        <time>2013-04-24T10:42:31Z</time>
      </trkpt>
      <trkpt lat="42.9041" lon="-0.52054">
        <ele>1797</ele>
        <time>2013-04-24T10:42:41Z</time>
      </trkpt>
      <trkpt lat="42.90411" lon="-0.52058">
        <ele>1797</ele>
        <time>2013-04-24T10:42:50Z</time>
      </trkpt>
      <trkpt lat="42.90413" lon="-0.52073">
        <ele>1794</ele>
        <time>2013-04-24T10:42:57Z</time>
      </trkpt>
      <trkpt lat="42.90413" lon="-0.5209">
        <ele>1793</ele>
        <time>2013-04-24T10:43:03Z</time>
      </trkpt>
      <trkpt lat="42.90411" lon="-0.52108">
        <ele>1790</ele>
        <time>2013-04-24T10:43:10Z</time>
      </trkpt>
      <trkpt lat="42.90409" lon="-0.52108">
        <ele>1790</ele>
        <time>2013-04-24T10:43:11Z</time>
      </trkpt>
      <trkpt lat="42.90407" lon="-0.52106">
        <ele>1788</ele>
        <time>2013-04-24T10:43:12Z</time>
      </trkpt>
      <trkpt lat="42.90406" lon="-0.52103">
        <ele>1787</ele>
        <time>2013-04-24T10:43:13Z</time>
      </trkpt>
      <trkpt lat="42.90404" lon="-0.521">
        <ele>1786</ele>
        <time>2013-04-24T10:43:14Z</time>
      </trkpt>
      <trkpt lat="42.90402" lon="-0.52094">
        <ele>1786</ele>
        <time>2013-04-24T10:43:16Z</time>
      </trkpt>
      <trkpt lat="42.90397" lon="-0.52097">
        <ele>1783</ele>
        <time>2013-04-24T10:43:19Z</time>
      </trkpt>
      <trkpt lat="42.90395" lon="-0.52107">
        <ele>1780</ele>
        <time>2013-04-24T10:43:22Z</time>
      </trkpt>
      <trkpt lat="42.90394" lon="-0.52109">
        <ele>1780</ele>
        <time>2013-04-24T10:43:23Z</time>
      </trkpt>
      <trkpt lat="42.9039" lon="-0.52109">
        <ele>1779</ele>
        <time>2013-04-24T10:43:24Z</time>
      </trkpt>
      <trkpt lat="42.90387" lon="-0.52105">
        <ele>1778</ele>
        <time>2013-04-24T10:43:25Z</time>
      </trkpt>
      <trkpt lat="42.90386" lon="-0.52101">
        <ele>1776</ele>
        <time>2013-04-24T10:43:26Z</time>
      </trkpt>
      <trkpt lat="42.90384" lon="-0.52096">
        <ele>1775</ele>
        <time>2013-04-24T10:43:27Z</time>
      </trkpt>
      <trkpt lat="42.90381" lon="-0.52091">
        <ele>1775</ele>
        <time>2013-04-24T10:43:28Z</time>
      </trkpt>
      <trkpt lat="42.90379" lon="-0.52086">
        <ele>1775</ele>
        <time>2013-04-24T10:43:29Z</time>
      </trkpt>
      <trkpt lat="42.90377" lon="-0.5208">
        <ele>1773</ele>
        <time>2013-04-24T10:43:30Z</time>
      </trkpt>
      <trkpt lat="42.90372" lon="-0.52071">
        <ele>1772</ele>
        <time>2013-04-24T10:43:32Z</time>
      </trkpt>
      <trkpt lat="42.90366" lon="-0.52063">
        <ele>1772</ele>
        <time>2013-04-24T10:43:35Z</time>
      </trkpt>
      <trkpt lat="42.90363" lon="-0.52063">
        <ele>1771</ele>
        <time>2013-04-24T10:43:36Z</time>
      </trkpt>
      <trkpt lat="42.9036" lon="-0.52066">
        <ele>1769</ele>
        <time>2013-04-24T10:43:37Z</time>
      </trkpt>
      <trkpt lat="42.90357" lon="-0.52071">
        <ele>1769</ele>
        <time>2013-04-24T10:43:38Z</time>
      </trkpt>
      <trkpt lat="42.90347" lon="-0.5209">
        <ele>1767</ele>
        <time>2013-04-24T10:43:43Z</time>
      </trkpt>
      <trkpt lat="42.90344" lon="-0.52087">
        <ele>1766</ele>
        <time>2013-04-24T10:43:44Z</time>
      </trkpt>
      <trkpt lat="42.90341" lon="-0.52078">
        <ele>1765</ele>
        <time>2013-04-24T10:43:46Z</time>
      </trkpt>
      <trkpt lat="42.90338" lon="-0.52069">
        <ele>1763</ele>
        <time>2013-04-24T10:43:48Z</time>
      </trkpt>
      <trkpt lat="42.90335" lon="-0.52068">
        <ele>1763</ele>
        <time>2013-04-24T10:43:49Z</time>
      </trkpt>
      <trkpt lat="42.90327" lon="-0.52069">
        <ele>1760</ele>
        <time>2013-04-24T10:43:51Z</time>
      </trkpt>
      <trkpt lat="42.90323" lon="-0.52066">
        <ele>1758</ele>
        <time>2013-04-24T10:43:52Z</time>
      </trkpt>
      <trkpt lat="42.90317" lon="-0.52065">
        <ele>1757</ele>
        <time>2013-04-24T10:43:53Z</time>
      </trkpt>
      <trkpt lat="42.90311" lon="-0.52068">
        <ele>1756</ele>
        <time>2013-04-24T10:43:54Z</time>
      </trkpt>
      <trkpt lat="42.90306" lon="-0.52072">
        <ele>1755</ele>
        <time>2013-04-24T10:43:55Z</time>
      </trkpt>
      <trkpt lat="42.90301" lon="-0.52076">
        <ele>1755</ele>
        <time>2013-04-24T10:43:56Z</time>
      </trkpt>
      <trkpt lat="42.903" lon="-0.52078">
        <ele>1755</ele>
        <time>2013-04-24T10:43:57Z</time>
      </trkpt>
      <trkpt lat="42.903" lon="-0.5208">
        <ele>1755</ele>
        <time>2013-04-24T10:43:58Z</time>
      </trkpt>
      <trkpt lat="42.90301" lon="-0.52081">
        <ele>1755</ele>
        <time>2013-04-24T10:43:59Z</time>
      </trkpt>
      <trkpt lat="42.90304" lon="-0.5209">
        <ele>1754</ele>
        <time>2013-04-24T10:44:05Z</time>
      </trkpt>
      <trkpt lat="42.90306" lon="-0.52092">
        <ele>1754</ele>
        <time>2013-04-24T10:44:18Z</time>
      </trkpt>
      <trkpt lat="42.90308" lon="-0.52091">
        <ele>1753</ele>
        <time>2013-04-24T10:44:28Z</time>
      </trkpt>
      <trkpt lat="42.90308" lon="-0.52097">
        <ele>1751</ele>
        <time>2013-04-24T10:44:34Z</time>
      </trkpt>
      <trkpt lat="42.90309" lon="-0.521">
        <ele>1750</ele>
        <time>2013-04-24T10:44:35Z</time>
      </trkpt>
      <trkpt lat="42.90311" lon="-0.52103">
        <ele>1749</ele>
        <time>2013-04-24T10:44:36Z</time>
      </trkpt>
      <trkpt lat="42.90312" lon="-0.52106">
        <ele>1749</ele>
        <time>2013-04-24T10:44:37Z</time>
      </trkpt>
      <trkpt lat="42.90312" lon="-0.52109">
        <ele>1748</ele>
        <time>2013-04-24T10:44:38Z</time>
      </trkpt>
      <trkpt lat="42.90311" lon="-0.52109">
        <ele>1747</ele>
        <time>2013-04-24T10:44:40Z</time>
      </trkpt>
      <trkpt lat="42.90312" lon="-0.52109">
        <ele>1747</ele>
        <time>2013-04-24T10:44:49Z</time>
      </trkpt>
      <trkpt lat="42.90312" lon="-0.52111">
        <ele>1746</ele>
        <time>2013-04-24T10:45:03Z</time>
      </trkpt>
      <trkpt lat="42.90312" lon="-0.52117">
        <ele>1744</ele>
        <time>2013-04-24T10:45:10Z</time>
      </trkpt>
      <trkpt lat="42.9031" lon="-0.52117">
        <ele>1744</ele>
        <time>2013-04-24T10:45:15Z</time>
      </trkpt>
      <trkpt lat="42.9031" lon="-0.52118">
        <ele>1743</ele>
        <time>2013-04-24T10:45:25Z</time>
      </trkpt>
      <trkpt lat="42.90308" lon="-0.52117">
        <ele>1743</ele>
        <time>2013-04-24T10:45:36Z</time>
      </trkpt>
      <trkpt lat="42.90308" lon="-0.52118">
        <ele>1744</ele>
        <time>2013-04-24T10:45:38Z</time>
      </trkpt>
      <trkpt lat="42.90308" lon="-0.52119">
        <ele>1743</ele>
        <time>2013-04-24T10:45:48Z</time>
      </trkpt>
      <trkpt lat="42.90308" lon="-0.52118">
        <ele>1744</ele>
        <time>2013-04-24T10:45:58Z</time>
      </trkpt>
      <trkpt lat="42.90307" lon="-0.52119">
        <ele>1743</ele>
        <time>2013-04-24T10:46:05Z</time>
      </trkpt>
      <trkpt lat="42.90308" lon="-0.5212">
        <ele>1742</ele>
        <time>2013-04-24T10:46:14Z</time>
      </trkpt>
      <trkpt lat="42.90307" lon="-0.5212">
        <ele>1742</ele>
        <time>2013-04-24T10:46:24Z</time>
      </trkpt>
      <trkpt lat="42.90307" lon="-0.52119">
        <ele>1741</ele>
        <time>2013-04-24T10:46:26Z</time>
      </trkpt>
      <trkpt lat="42.90307" lon="-0.5212">
        <ele>1741</ele>
        <time>2013-04-24T10:46:32Z</time>
      </trkpt>
      <trkpt lat="42.90307" lon="-0.5212">
        <ele>1742</ele>
        <time>2013-04-24T10:46:34Z</time>
      </trkpt>
      <trkpt lat="42.90306" lon="-0.5212">
        <ele>1741</ele>
        <time>2013-04-24T10:46:46Z</time>
      </trkpt>
      <trkpt lat="42.90306" lon="-0.52124">
        <ele>1740</ele>
        <time>2013-04-24T10:46:53Z</time>
      </trkpt>
      <trkpt lat="42.90305" lon="-0.52128">
        <ele>1738</ele>
        <time>2013-04-24T10:47:00Z</time>
      </trkpt>
      <trkpt lat="42.90304" lon="-0.52133">
        <ele>1737</ele>
        <time>2013-04-24T10:47:07Z</time>
      </trkpt>
      <trkpt lat="42.90304" lon="-0.52136">
        <ele>1736</ele>
        <time>2013-04-24T10:47:16Z</time>
      </trkpt>
      <trkpt lat="42.90305" lon="-0.52141">
        <ele>1736</ele>
        <time>2013-04-24T10:47:23Z</time>
      </trkpt>
      <trkpt lat="42.90303" lon="-0.52146">
        <ele>1735</ele>
        <time>2013-04-24T10:47:32Z</time>
      </trkpt>
      <trkpt lat="42.90304" lon="-0.52147">
        <ele>1735</ele>
        <time>2013-04-24T10:47:39Z</time>
      </trkpt>
      <trkpt lat="42.90305" lon="-0.52151">
        <ele>1732</ele>
        <time>2013-04-24T10:47:46Z</time>
      </trkpt>
      <trkpt lat="42.90306" lon="-0.52154">
        <ele>1733</ele>
        <time>2013-04-24T10:47:53Z</time>
      </trkpt>
      <trkpt lat="42.90306" lon="-0.52158">
        <ele>1731</ele>
        <time>2013-04-24T10:48:01Z</time>
      </trkpt>
      <trkpt lat="42.90305" lon="-0.52158">
        <ele>1732</ele>
        <time>2013-04-24T10:48:07Z</time>
      </trkpt>
      <trkpt lat="42.90304" lon="-0.52159">
        <ele>1731</ele>
        <time>2013-04-24T10:48:18Z</time>
      </trkpt>
      <trkpt lat="42.90303" lon="-0.52161">
        <ele>1731</ele>
        <time>2013-04-24T10:48:25Z</time>
      </trkpt>
      <trkpt lat="42.90304" lon="-0.52162">
        <ele>1730</ele>
        <time>2013-04-24T10:48:34Z</time>
      </trkpt>
      <trkpt lat="42.90304" lon="-0.52162">
        <ele>1731</ele>
        <time>2013-04-24T10:48:40Z</time>
      </trkpt>
      <trkpt lat="42.90303" lon="-0.52161">
        <ele>1731</ele>
        <time>2013-04-24T10:48:48Z</time>
      </trkpt>
      <trkpt lat="42.90304" lon="-0.52163">
        <ele>1731</ele>
        <time>2013-04-24T10:48:57Z</time>
      </trkpt>
      <trkpt lat="42.90307" lon="-0.52165">
        <ele>1730</ele>
        <time>2013-04-24T10:49:10Z</time>
      </trkpt>
      <trkpt lat="42.90304" lon="-0.52163">
        <ele>1731</ele>
        <time>2013-04-24T10:49:21Z</time>
      </trkpt>
      <trkpt lat="42.90304" lon="-0.52162">
        <ele>1730</ele>
        <time>2013-04-24T10:49:30Z</time>
      </trkpt>
      <trkpt lat="42.90303" lon="-0.52163">
        <ele>1730</ele>
        <time>2013-04-24T10:49:38Z</time>
      </trkpt>
      <trkpt lat="42.90304" lon="-0.52162">
        <ele>1731</ele>
        <time>2013-04-24T10:49:46Z</time>
      </trkpt>
      <trkpt lat="42.90303" lon="-0.52165">
        <ele>1731</ele>
        <time>2013-04-24T10:50:01Z</time>
      </trkpt>
      <trkpt lat="42.90303" lon="-0.52177">
        <ele>1728</ele>
        <time>2013-04-24T10:50:05Z</time>
      </trkpt>
      <trkpt lat="42.90303" lon="-0.52195">
        <ele>1725</ele>
        <time>2013-04-24T10:50:11Z</time>
      </trkpt>
      <trkpt lat="42.90304" lon="-0.52212">
        <ele>1721</ele>
        <time>2013-04-24T10:50:15Z</time>
      </trkpt>
      <trkpt lat="42.90305" lon="-0.52216">
        <ele>1722</ele>
        <time>2013-04-24T10:50:16Z</time>
      </trkpt>
      <trkpt lat="42.90306" lon="-0.52231">
        <ele>1718</ele>
        <time>2013-04-24T10:50:20Z</time>
      </trkpt>
      <trkpt lat="42.90308" lon="-0.52239">
        <ele>1716</ele>
        <time>2013-04-24T10:50:23Z</time>
      </trkpt>
      <trkpt lat="42.90306" lon="-0.52243">
        <ele>1716</ele>
        <time>2013-04-24T10:50:24Z</time>
      </trkpt>
      <trkpt lat="42.90303" lon="-0.52242">
        <ele>1714</ele>
        <time>2013-04-24T10:50:25Z</time>
      </trkpt>
      <trkpt lat="42.90298" lon="-0.5224">
        <ele>1712</ele>
        <time>2013-04-24T10:50:26Z</time>
      </trkpt>
      <trkpt lat="42.90294" lon="-0.52236">
        <ele>1711</ele>
        <time>2013-04-24T10:50:27Z</time>
      </trkpt>
      <trkpt lat="42.90286" lon="-0.52227">
        <ele>1709</ele>
        <time>2013-04-24T10:50:29Z</time>
      </trkpt>
      <trkpt lat="42.90283" lon="-0.52223">
        <ele>1708</ele>
        <time>2013-04-24T10:50:30Z</time>
      </trkpt>
      <trkpt lat="42.9028" lon="-0.52219">
        <ele>1708</ele>
        <time>2013-04-24T10:50:31Z</time>
      </trkpt>
      <trkpt lat="42.90277" lon="-0.52216">
        <ele>1707</ele>
        <time>2013-04-24T10:50:32Z</time>
      </trkpt>
      <trkpt lat="42.90269" lon="-0.52215">
        <ele>1703</ele>
        <time>2013-04-24T10:50:36Z</time>
      </trkpt>
      <trkpt lat="42.90268" lon="-0.52219">
        <ele>1704</ele>
        <time>2013-04-24T10:50:37Z</time>
      </trkpt>
      <trkpt lat="42.9027" lon="-0.52234">
        <ele>1700</ele>
        <time>2013-04-24T10:50:40Z</time>
      </trkpt>
      <trkpt lat="42.90269" lon="-0.52238">
        <ele>1698</ele>
        <time>2013-04-24T10:50:44Z</time>
      </trkpt>
      <trkpt lat="42.90268" lon="-0.52238">
        <ele>1697</ele>
        <time>2013-04-24T10:50:45Z</time>
      </trkpt>
      <trkpt lat="42.90267" lon="-0.52252">
        <ele>1695</ele>
        <time>2013-04-24T10:50:49Z</time>
      </trkpt>
      <trkpt lat="42.9027" lon="-0.52264">
        <ele>1691</ele>
        <time>2013-04-24T10:50:55Z</time>
      </trkpt>
      <trkpt lat="42.9027" lon="-0.52266">
        <ele>1690</ele>
        <time>2013-04-24T10:51:02Z</time>
      </trkpt>
      <trkpt lat="42.90271" lon="-0.52267">
        <ele>1689</ele>
        <time>2013-04-24T10:51:18Z</time>
      </trkpt>
      <trkpt lat="42.90269" lon="-0.52267">
        <ele>1689</ele>
        <time>2013-04-24T10:51:27Z</time>
      </trkpt>
      <trkpt lat="42.90268" lon="-0.52267">
        <ele>1689</ele>
        <time>2013-04-24T10:51:38Z</time>
      </trkpt>
      <trkpt lat="42.90269" lon="-0.52266">
        <ele>1688</ele>
        <time>2013-04-24T10:51:47Z</time>
      </trkpt>
      <trkpt lat="42.90269" lon="-0.52267">
        <ele>1690</ele>
        <time>2013-04-24T10:52:01Z</time>
      </trkpt>
      <trkpt lat="42.90269" lon="-0.52267">
        <ele>1689</ele>
        <time>2013-04-24T10:52:08Z</time>
      </trkpt>
      <trkpt lat="42.90268" lon="-0.5227">
        <ele>1687</ele>
        <time>2013-04-24T10:52:17Z</time>
      </trkpt>
      <trkpt lat="42.90269" lon="-0.52273">
        <ele>1686</ele>
        <time>2013-04-24T10:52:23Z</time>
      </trkpt>
      <trkpt lat="42.90268" lon="-0.52275">
        <ele>1685</ele>
        <time>2013-04-24T10:52:32Z</time>
      </trkpt>
      <trkpt lat="42.90269" lon="-0.52278">
        <ele>1684</ele>
        <time>2013-04-24T10:52:37Z</time>
      </trkpt>
      <trkpt lat="42.9027" lon="-0.52281">
        <ele>1684</ele>
        <time>2013-04-24T10:52:47Z</time>
      </trkpt>
      <trkpt lat="42.90271" lon="-0.52282">
        <ele>1683</ele>
        <time>2013-04-24T10:52:54Z</time>
      </trkpt>
      <trkpt lat="42.90271" lon="-0.52283">
        <ele>1683</ele>
        <time>2013-04-24T10:53:04Z</time>
      </trkpt>
      <trkpt lat="42.9027" lon="-0.52283">
        <ele>1683</ele>
        <time>2013-04-24T10:53:18Z</time>
      </trkpt>
      <trkpt lat="42.9027" lon="-0.52286">
        <ele>1682</ele>
        <time>2013-04-24T10:53:28Z</time>
      </trkpt>
      <trkpt lat="42.90271" lon="-0.52287">
        <ele>1681</ele>
        <time>2013-04-24T10:53:36Z</time>
      </trkpt>
      <trkpt lat="42.90271" lon="-0.52288">
        <ele>1682</ele>
        <time>2013-04-24T10:53:46Z</time>
      </trkpt>
      <trkpt lat="42.90271" lon="-0.52288">
        <ele>1682</ele>
        <time>2013-04-24T10:53:58Z</time>
      </trkpt>
      <trkpt lat="42.90272" lon="-0.52289">
        <ele>1681</ele>
        <time>2013-04-24T10:54:13Z</time>
      </trkpt>
      <trkpt lat="42.90272" lon="-0.5229">
        <ele>1681</ele>
        <time>2013-04-24T10:54:30Z</time>
      </trkpt>
      <trkpt lat="42.90271" lon="-0.52291">
        <ele>1682</ele>
        <time>2013-04-24T10:54:38Z</time>
      </trkpt>
      <trkpt lat="42.90271" lon="-0.5229">
        <ele>1682</ele>
        <time>2013-04-24T10:54:48Z</time>
      </trkpt>
      <trkpt lat="42.9027" lon="-0.52289">
        <ele>1682</ele>
        <time>2013-04-24T10:54:59Z</time>
      </trkpt>
      <trkpt lat="42.90271" lon="-0.52294">
        <ele>1681</ele>
        <time>2013-04-24T10:55:08Z</time>
      </trkpt>
      <trkpt lat="42.90273" lon="-0.52304">
        <ele>1679</ele>
        <time>2013-04-24T10:55:11Z</time>
      </trkpt>
      <trkpt lat="42.90275" lon="-0.52314">
        <ele>1677</ele>
        <time>2013-04-24T10:55:13Z</time>
      </trkpt>
      <trkpt lat="42.9028" lon="-0.52336">
        <ele>1673</ele>
        <time>2013-04-24T10:55:17Z</time>
      </trkpt>
      <trkpt lat="42.90284" lon="-0.52357">
        <ele>1671</ele>
        <time>2013-04-24T10:55:24Z</time>
      </trkpt>
      <trkpt lat="42.90284" lon="-0.52356">
        <ele>1672</ele>
        <time>2013-04-24T10:55:36Z</time>
      </trkpt>
      <trkpt lat="42.90284" lon="-0.52361">
        <ele>1672</ele>
        <time>2013-04-24T10:55:43Z</time>
      </trkpt>
      <trkpt lat="42.90285" lon="-0.52369">
        <ele>1672</ele>
        <time>2013-04-24T10:55:48Z</time>
      </trkpt>
      <trkpt lat="42.90285" lon="-0.52378">
        <ele>1671</ele>
        <time>2013-04-24T10:55:54Z</time>
      </trkpt>
      <trkpt lat="42.90287" lon="-0.52386">
        <ele>1672</ele>
        <time>2013-04-24T10:56:01Z</time>
      </trkpt>
      <trkpt lat="42.90288" lon="-0.52404">
        <ele>1671</ele>
        <time>2013-04-24T10:56:07Z</time>
      </trkpt>
      <trkpt lat="42.90286" lon="-0.52422">
        <ele>1670</ele>
        <time>2013-04-24T10:56:14Z</time>
      </trkpt>
      <trkpt lat="42.90285" lon="-0.52441">
        <ele>1668</ele>
        <time>2013-04-24T10:56:18Z</time>
      </trkpt>
      <trkpt lat="42.90285" lon="-0.52445">
        <ele>1668</ele>
        <time>2013-04-24T10:56:19Z</time>
      </trkpt>
      <trkpt lat="42.90286" lon="-0.52448">
        <ele>1668</ele>
        <time>2013-04-24T10:56:20Z</time>
      </trkpt>
      <trkpt lat="42.90286" lon="-0.5245">
        <ele>1668</ele>
        <time>2013-04-24T10:56:24Z</time>
      </trkpt>
      <trkpt lat="42.90286" lon="-0.52452">
        <ele>1668</ele>
        <time>2013-04-24T10:56:33Z</time>
      </trkpt>
      <trkpt lat="42.90286" lon="-0.52457">
        <ele>1668</ele>
        <time>2013-04-24T10:56:41Z</time>
      </trkpt>
      <trkpt lat="42.90283" lon="-0.52458">
        <ele>1668</ele>
        <time>2013-04-24T10:56:47Z</time>
      </trkpt>
      <trkpt lat="42.90284" lon="-0.52459">
        <ele>1668</ele>
        <time>2013-04-24T10:56:52Z</time>
      </trkpt>
      <trkpt lat="42.90283" lon="-0.52463">
        <ele>1669</ele>
        <time>2013-04-24T10:57:01Z</time>
      </trkpt>
      <trkpt lat="42.90283" lon="-0.52464">
        <ele>1669</ele>
        <time>2013-04-24T10:57:07Z</time>
      </trkpt>
      <trkpt lat="42.90284" lon="-0.52466">
        <ele>1670</ele>
        <time>2013-04-24T10:57:13Z</time>
      </trkpt>
      <trkpt lat="42.90285" lon="-0.52467">
        <ele>1670</ele>
        <time>2013-04-24T10:57:19Z</time>
      </trkpt>
      <trkpt lat="42.90286" lon="-0.52468">
        <ele>1671</ele>
        <time>2013-04-24T10:57:25Z</time>
      </trkpt>
      <trkpt lat="42.90287" lon="-0.52467">
        <ele>1670</ele>
        <time>2013-04-24T10:57:31Z</time>
      </trkpt>
      <trkpt lat="42.90288" lon="-0.52469">
        <ele>1672</ele>
        <time>2013-04-24T10:57:36Z</time>
      </trkpt>
      <trkpt lat="42.90288" lon="-0.52469">
        <ele>1671</ele>
        <time>2013-04-24T10:57:39Z</time>
      </trkpt>
      <trkpt lat="42.90288" lon="-0.52471">
        <ele>1672</ele>
        <time>2013-04-24T10:57:46Z</time>
      </trkpt>
      <trkpt lat="42.90288" lon="-0.52474">
        <ele>1673</ele>
        <time>2013-04-24T10:57:51Z</time>
      </trkpt>
      <trkpt lat="42.90289" lon="-0.52477">
        <ele>1671</ele>
        <time>2013-04-24T10:57:58Z</time>
      </trkpt>
      <trkpt lat="42.9029" lon="-0.5248">
        <ele>1673</ele>
        <time>2013-04-24T10:58:04Z</time>
      </trkpt>
      <trkpt lat="42.9029" lon="-0.52485">
        <ele>1673</ele>
        <time>2013-04-24T10:58:11Z</time>
      </trkpt>
      <trkpt lat="42.9029" lon="-0.52487">
        <ele>1673</ele>
        <time>2013-04-24T10:58:12Z</time>
      </trkpt>
      <trkpt lat="42.9029" lon="-0.52488">
        <ele>1672</ele>
        <time>2013-04-24T10:58:13Z</time>
      </trkpt>
      <trkpt lat="42.90295" lon="-0.52502">
        <ele>1671</ele>
        <time>2013-04-24T10:58:18Z</time>
      </trkpt>
      <trkpt lat="42.90298" lon="-0.52528">
        <ele>1667</ele>
        <time>2013-04-24T10:58:23Z</time>
      </trkpt>
      <trkpt lat="42.90298" lon="-0.52535">
        <ele>1666</ele>
        <time>2013-04-24T10:58:24Z</time>
      </trkpt>
      <trkpt lat="42.90296" lon="-0.52551">
        <ele>1663</ele>
        <time>2013-04-24T10:58:26Z</time>
      </trkpt>
      <trkpt lat="42.90293" lon="-0.52567">
        <ele>1660</ele>
        <time>2013-04-24T10:58:28Z</time>
      </trkpt>
      <trkpt lat="42.9029" lon="-0.52581">
        <ele>1656</ele>
        <time>2013-04-24T10:58:30Z</time>
      </trkpt>
      <trkpt lat="42.90289" lon="-0.52588">
        <ele>1656</ele>
        <time>2013-04-24T10:58:31Z</time>
      </trkpt>
      <trkpt lat="42.90289" lon="-0.52594">
        <ele>1654</ele>
        <time>2013-04-24T10:58:32Z</time>
      </trkpt>
      <trkpt lat="42.90289" lon="-0.52599">
        <ele>1655</ele>
        <time>2013-04-24T10:58:33Z</time>
      </trkpt>
      <trkpt lat="42.90289" lon="-0.52604">
        <ele>1654</ele>
        <time>2013-04-24T10:58:34Z</time>
      </trkpt>
      <trkpt lat="42.90288" lon="-0.52615">
        <ele>1653</ele>
        <time>2013-04-24T10:58:38Z</time>
      </trkpt>
      <trkpt lat="42.90289" lon="-0.52619">
        <ele>1653</ele>
        <time>2013-04-24T10:58:41Z</time>
      </trkpt>
      <trkpt lat="42.90291" lon="-0.5263">
        <ele>1654</ele>
        <time>2013-04-24T10:58:49Z</time>
      </trkpt>
      <trkpt lat="42.90293" lon="-0.52649">
        <ele>1652</ele>
        <time>2013-04-24T10:58:56Z</time>
      </trkpt>
      <trkpt lat="42.90294" lon="-0.52666">
        <ele>1649</ele>
        <time>2013-04-24T10:59:02Z</time>
      </trkpt>
      <trkpt lat="42.90296" lon="-0.52677">
        <ele>1646</ele>
        <time>2013-04-24T10:59:05Z</time>
      </trkpt>
      <trkpt lat="42.90293" lon="-0.52701">
        <ele>1642</ele>
        <time>2013-04-24T10:59:09Z</time>
      </trkpt>
      <trkpt lat="42.90292" lon="-0.52713">
        <ele>1640</ele>
        <time>2013-04-24T10:59:12Z</time>
      </trkpt>
      <trkpt lat="42.90292" lon="-0.52723">
        <ele>1638</ele>
        <time>2013-04-24T10:59:18Z</time>
      </trkpt>
      <trkpt lat="42.90291" lon="-0.52731">
        <ele>1639</ele>
        <time>2013-04-24T10:59:23Z</time>
      </trkpt>
      <trkpt lat="42.90291" lon="-0.52732">
        <ele>1640</ele>
        <time>2013-04-24T10:59:24Z</time>
      </trkpt>
      <trkpt lat="42.90286" lon="-0.52749">
        <ele>1638</ele>
        <time>2013-04-24T10:59:33Z</time>
      </trkpt>
      <trkpt lat="42.90273" lon="-0.52768">
        <ele>1636</ele>
        <time>2013-04-24T10:59:40Z</time>
      </trkpt>
      <trkpt lat="42.90266" lon="-0.52775">
        <ele>1635</ele>
        <time>2013-04-24T10:59:43Z</time>
      </trkpt>
      <trkpt lat="42.90253" lon="-0.52776">
        <ele>1633</ele>
        <time>2013-04-24T10:59:47Z</time>
      </trkpt>
      <trkpt lat="42.90244" lon="-0.52777">
        <ele>1632</ele>
        <time>2013-04-24T10:59:49Z</time>
      </trkpt>
      <trkpt lat="42.90216" lon="-0.52787">
        <ele>1629</ele>
        <time>2013-04-24T10:59:55Z</time>
      </trkpt>
      <trkpt lat="42.90203" lon="-0.52797">
        <ele>1627</ele>
        <time>2013-04-24T11:00:00Z</time>
      </trkpt>
      <trkpt lat="42.90201" lon="-0.52809">
        <ele>1627</ele>
        <time>2013-04-24T11:00:05Z</time>
      </trkpt>
      <trkpt lat="42.90199" lon="-0.52815">
        <ele>1626</ele>
        <time>2013-04-24T11:00:11Z</time>
      </trkpt>
      <trkpt lat="42.90198" lon="-0.52821">
        <ele>1627</ele>
        <time>2013-04-24T11:00:19Z</time>
      </trkpt>
      <trkpt lat="42.90199" lon="-0.52827">
        <ele>1627</ele>
        <time>2013-04-24T11:00:25Z</time>
      </trkpt>
      <trkpt lat="42.90201" lon="-0.5283">
        <ele>1628</ele>
        <time>2013-04-24T11:00:30Z</time>
      </trkpt>
      <trkpt lat="42.90202" lon="-0.52831">
        <ele>1628</ele>
        <time>2013-04-24T11:00:38Z</time>
      </trkpt>
      <trkpt lat="42.90202" lon="-0.52836">
        <ele>1629</ele>
        <time>2013-04-24T11:00:43Z</time>
      </trkpt>
      <trkpt lat="42.90203" lon="-0.52841">
        <ele>1629</ele>
        <time>2013-04-24T11:00:50Z</time>
      </trkpt>
      <trkpt lat="42.90204" lon="-0.52847">
        <ele>1629</ele>
        <time>2013-04-24T11:00:56Z</time>
      </trkpt>
      <trkpt lat="42.90203" lon="-0.52853">
        <ele>1630</ele>
        <time>2013-04-24T11:01:02Z</time>
      </trkpt>
      <trkpt lat="42.90203" lon="-0.52855">
        <ele>1630</ele>
        <time>2013-04-24T11:01:08Z</time>
      </trkpt>
      <trkpt lat="42.90203" lon="-0.5286">
        <ele>1630</ele>
        <time>2013-04-24T11:01:13Z</time>
      </trkpt>
      <trkpt lat="42.90204" lon="-0.52864">
        <ele>1631</ele>
        <time>2013-04-24T11:01:18Z</time>
      </trkpt>
      <trkpt lat="42.90203" lon="-0.52865">
        <ele>1630</ele>
        <time>2013-04-24T11:01:24Z</time>
      </trkpt>
      <trkpt lat="42.90203" lon="-0.52866">
        <ele>1631</ele>
        <time>2013-04-24T11:01:30Z</time>
      </trkpt>
      <trkpt lat="42.90203" lon="-0.52867">
        <ele>1631</ele>
        <time>2013-04-24T11:01:39Z</time>
      </trkpt>
      <trkpt lat="42.90203" lon="-0.52869">
        <ele>1631</ele>
        <time>2013-04-24T11:01:44Z</time>
      </trkpt>
      <trkpt lat="42.90206" lon="-0.52872">
        <ele>1631</ele>
        <time>2013-04-24T11:01:50Z</time>
      </trkpt>
      <trkpt lat="42.90204" lon="-0.52882">
        <ele>1630</ele>
        <time>2013-04-24T11:01:57Z</time>
      </trkpt>
      <trkpt lat="42.90202" lon="-0.52888">
        <ele>1630</ele>
        <time>2013-04-24T11:02:02Z</time>
      </trkpt>
      <trkpt lat="42.90199" lon="-0.52896">
        <ele>1630</ele>
        <time>2013-04-24T11:02:09Z</time>
      </trkpt>
      <trkpt lat="42.90185" lon="-0.529">
        <ele>1628</ele>
        <time>2013-04-24T11:02:14Z</time>
      </trkpt>
      <trkpt lat="42.90184" lon="-0.52901">
        <ele>1627</ele>
        <time>2013-04-24T11:02:15Z</time>
      </trkpt>
      <trkpt lat="42.90176" lon="-0.52902">
        <ele>1626</ele>
        <time>2013-04-24T11:02:21Z</time>
      </trkpt>
      <trkpt lat="42.90166" lon="-0.52905">
        <ele>1626</ele>
        <time>2013-04-24T11:02:28Z</time>
      </trkpt>
      <trkpt lat="42.90152" lon="-0.52912">
        <ele>1625</ele>
        <time>2013-04-24T11:02:33Z</time>
      </trkpt>
      <trkpt lat="42.90125" lon="-0.52924">
        <ele>1622</ele>
        <time>2013-04-24T11:02:40Z</time>
      </trkpt>
      <trkpt lat="42.90119" lon="-0.52927">
        <ele>1621</ele>
        <time>2013-04-24T11:02:41Z</time>
      </trkpt>
      <trkpt lat="42.90104" lon="-0.52933">
        <ele>1619</ele>
        <time>2013-04-24T11:02:44Z</time>
      </trkpt>
      <trkpt lat="42.90075" lon="-0.52945">
        <ele>1617</ele>
        <time>2013-04-24T11:02:51Z</time>
      </trkpt>
      <trkpt lat="42.90052" lon="-0.52953">
        <ele>1613</ele>
        <time>2013-04-24T11:02:55Z</time>
      </trkpt>
      <trkpt lat="42.90032" lon="-0.52961">
        <ele>1610</ele>
        <time>2013-04-24T11:02:58Z</time>
      </trkpt>
      <trkpt lat="42.90026" lon="-0.52962">
        <ele>1609</ele>
        <time>2013-04-24T11:02:59Z</time>
      </trkpt>
      <trkpt lat="42.90014" lon="-0.52967">
        <ele>1608</ele>
        <time>2013-04-24T11:03:01Z</time>
      </trkpt>
      <trkpt lat="42.89999" lon="-0.52972">
        <ele>1606</ele>
        <time>2013-04-24T11:03:06Z</time>
      </trkpt>
      <trkpt lat="42.89994" lon="-0.52967">
        <ele>1606</ele>
        <time>2013-04-24T11:03:13Z</time>
      </trkpt>
      <trkpt lat="42.89995" lon="-0.52967">
        <ele>1607</ele>
        <time>2013-04-24T11:03:15Z</time>
      </trkpt>
      <trkpt lat="42.89986" lon="-0.52981">
        <ele>1606</ele>
        <time>2013-04-24T11:03:23Z</time>
      </trkpt>
      <trkpt lat="42.89986" lon="-0.52984">
        <ele>1606</ele>
        <time>2013-04-24T11:03:31Z</time>
      </trkpt>
      <trkpt lat="42.89988" lon="-0.52984">
        <ele>1606</ele>
        <time>2013-04-24T11:03:42Z</time>
      </trkpt>
      <trkpt lat="42.89989" lon="-0.52984">
        <ele>1607</ele>
        <time>2013-04-24T11:03:49Z</time>
      </trkpt>
      <trkpt lat="42.89989" lon="-0.52982">
        <ele>1606</ele>
        <time>2013-04-24T11:04:02Z</time>
      </trkpt>
      <trkpt lat="42.8999" lon="-0.5298">
        <ele>1607</ele>
        <time>2013-04-24T11:04:13Z</time>
      </trkpt>
      <trkpt lat="42.8999" lon="-0.5298">
        <ele>1606</ele>
        <time>2013-04-24T11:04:18Z</time>
      </trkpt>
      <trkpt lat="42.89991" lon="-0.52981">
        <ele>1606</ele>
        <time>2013-04-24T11:04:31Z</time>
      </trkpt>
      <trkpt lat="42.89991" lon="-0.52979">
        <ele>1606</ele>
        <time>2013-04-24T11:04:41Z</time>
      </trkpt>
      <trkpt lat="42.8999" lon="-0.52978">
        <ele>1606</ele>
        <time>2013-04-24T11:05:04Z</time>
      </trkpt>
      <trkpt lat="42.8999" lon="-0.52978">
        <ele>1605</ele>
        <time>2013-04-24T11:05:25Z</time>
      </trkpt>
      <trkpt lat="42.89991" lon="-0.52977">
        <ele>1605</ele>
        <time>2013-04-24T11:05:37Z</time>
      </trkpt>
      <trkpt lat="42.89989" lon="-0.52979">
        <ele>1606</ele>
        <time>2013-04-24T11:05:55Z</time>
      </trkpt>
      <trkpt lat="42.89989" lon="-0.5298">
        <ele>1606</ele>
        <time>2013-04-24T11:06:15Z</time>
      </trkpt>
      <trkpt lat="42.8999" lon="-0.52979">
        <ele>1605</ele>
        <time>2013-04-24T11:06:32Z</time>
      </trkpt>
      <trkpt lat="42.89993" lon="-0.52975">
        <ele>1606</ele>
        <time>2013-04-24T11:06:50Z</time>
      </trkpt>
      <trkpt lat="42.89994" lon="-0.52975">
        <ele>1605</ele>
        <time>2013-04-24T11:07:06Z</time>
      </trkpt>
      <trkpt lat="42.89993" lon="-0.52975">
        <ele>1605</ele>
        <time>2013-04-24T11:07:21Z</time>
      </trkpt>
      <trkpt lat="42.89993" lon="-0.52976">
        <ele>1605</ele>
        <time>2013-04-24T11:07:41Z</time>
      </trkpt>
      <trkpt lat="42.89993" lon="-0.52976">
        <ele>1605</ele>
        <time>2013-04-24T11:07:57Z</time>
      </trkpt>
      <trkpt lat="42.89993" lon="-0.52976">
        <ele>1605</ele>
        <time>2013-04-24T11:08:06Z</time>
      </trkpt>
      <trkpt lat="42.89992" lon="-0.52976">
        <ele>1605</ele>
        <time>2013-04-24T11:08:25Z</time>
      </trkpt>
      <trkpt lat="42.89992" lon="-0.52976">
        <ele>1605</ele>
        <time>2013-04-24T11:08:45Z</time>
      </trkpt>
      <trkpt lat="42.89992" lon="-0.52976">
        <ele>1604</ele>
        <time>2013-04-24T11:09:00Z</time>
      </trkpt>
      <trkpt lat="42.89992" lon="-0.52976">
        <ele>1604</ele>
        <time>2013-04-24T11:09:11Z</time>
      </trkpt>
      <trkpt lat="42.89991" lon="-0.52977">
        <ele>1605</ele>
        <time>2013-04-24T11:09:27Z</time>
      </trkpt>
      <trkpt lat="42.89992" lon="-0.52976">
        <ele>1604</ele>
        <time>2013-04-24T11:09:41Z</time>
      </trkpt>
      <trkpt lat="42.89991" lon="-0.52977">
        <ele>1604</ele>
        <time>2013-04-24T11:09:55Z</time>
      </trkpt>
      <trkpt lat="42.89991" lon="-0.52976">
        <ele>1604</ele>
        <time>2013-04-24T11:10:15Z</time>
      </trkpt>
      <trkpt lat="42.89992" lon="-0.52976">
        <ele>1604</ele>
        <time>2013-04-24T11:10:28Z</time>
      </trkpt>
      <trkpt lat="42.89991" lon="-0.52976">
        <ele>1603</ele>
        <time>2013-04-24T11:10:41Z</time>
      </trkpt>
      <trkpt lat="42.89992" lon="-0.52977">
        <ele>1604</ele>
        <time>2013-04-24T11:11:00Z</time>
      </trkpt>
      <trkpt lat="42.89992" lon="-0.52976">
        <ele>1604</ele>
        <time>2013-04-24T11:11:23Z</time>
      </trkpt>
      <trkpt lat="42.89992" lon="-0.52975">
        <ele>1604</ele>
        <time>2013-04-24T11:11:38Z</time>
      </trkpt>
      <trkpt lat="42.89991" lon="-0.52976">
        <ele>1603</ele>
        <time>2013-04-24T11:11:56Z</time>
      </trkpt>
      <trkpt lat="42.89991" lon="-0.52975">
        <ele>1603</ele>
        <time>2013-04-24T11:12:08Z</time>
      </trkpt>
      <trkpt lat="42.89991" lon="-0.52975">
        <ele>1603</ele>
        <time>2013-04-24T11:12:25Z</time>
      </trkpt>
      <trkpt lat="42.89992" lon="-0.52975">
        <ele>1604</ele>
        <time>2013-04-24T11:12:37Z</time>
      </trkpt>
      <trkpt lat="42.89991" lon="-0.52976">
        <ele>1603</ele>
        <time>2013-04-24T11:12:54Z</time>
      </trkpt>
      <trkpt lat="42.89991" lon="-0.52975">
        <ele>1603</ele>
        <time>2013-04-24T11:13:19Z</time>
      </trkpt>
      <trkpt lat="42.89992" lon="-0.52975">
        <ele>1603</ele>
        <time>2013-04-24T11:13:34Z</time>
      </trkpt>
      <trkpt lat="42.89992" lon="-0.52974">
        <ele>1603</ele>
        <time>2013-04-24T11:13:53Z</time>
      </trkpt>
      <trkpt lat="42.89992" lon="-0.52974">
        <ele>1603</ele>
        <time>2013-04-24T11:14:12Z</time>
      </trkpt>
      <trkpt lat="42.89993" lon="-0.52974">
        <ele>1603</ele>
        <time>2013-04-24T11:14:34Z</time>
      </trkpt>
      <trkpt lat="42.89993" lon="-0.52975">
        <ele>1603</ele>
        <time>2013-04-24T11:14:49Z</time>
      </trkpt>
      <trkpt lat="42.89993" lon="-0.52976">
        <ele>1603</ele>
        <time>2013-04-24T11:15:07Z</time>
      </trkpt>
      <trkpt lat="42.89993" lon="-0.52976">
        <ele>1602</ele>
        <time>2013-04-24T11:15:15Z</time>
      </trkpt>
      <trkpt lat="42.89992" lon="-0.52976">
        <ele>1603</ele>
        <time>2013-04-24T11:15:34Z</time>
      </trkpt>
      <trkpt lat="42.89992" lon="-0.52976">
        <ele>1602</ele>
        <time>2013-04-24T11:15:54Z</time>
      </trkpt>
      <trkpt lat="42.89993" lon="-0.52974">
        <ele>1602</ele>
        <time>2013-04-24T11:16:10Z</time>
      </trkpt>
      <trkpt lat="42.89991" lon="-0.52974">
        <ele>1603</ele>
        <time>2013-04-24T11:16:22Z</time>
      </trkpt>
      <trkpt lat="42.89991" lon="-0.52974">
        <ele>1603</ele>
        <time>2013-04-24T11:16:38Z</time>
      </trkpt>
      <trkpt lat="42.89993" lon="-0.52974">
        <ele>1602</ele>
        <time>2013-04-24T11:16:56Z</time>
      </trkpt>
      <trkpt lat="42.89992" lon="-0.52974">
        <ele>1602</ele>
        <time>2013-04-24T11:17:11Z</time>
      </trkpt>
      <trkpt lat="42.89993" lon="-0.52975">
        <ele>1602</ele>
        <time>2013-04-24T11:17:27Z</time>
      </trkpt>
      <trkpt lat="42.89992" lon="-0.52974">
        <ele>1602</ele>
        <time>2013-04-24T11:17:43Z</time>
      </trkpt>
      <trkpt lat="42.89992" lon="-0.52974">
        <ele>1603</ele>
        <time>2013-04-24T11:18:03Z</time>
      </trkpt>
      <trkpt lat="42.89993" lon="-0.52974">
        <ele>1601</ele>
        <time>2013-04-24T11:18:24Z</time>
      </trkpt>
      <trkpt lat="42.89993" lon="-0.52972">
        <ele>1602</ele>
        <time>2013-04-24T11:18:52Z</time>
      </trkpt>
      <trkpt lat="42.89994" lon="-0.52972">
        <ele>1600</ele>
        <time>2013-04-24T11:19:12Z</time>
      </trkpt>
      <trkpt lat="42.89994" lon="-0.52972">
        <ele>1601</ele>
        <time>2013-04-24T11:19:31Z</time>
      </trkpt>
      <trkpt lat="42.89994" lon="-0.52973">
        <ele>1601</ele>
        <time>2013-04-24T11:19:58Z</time>
      </trkpt>
      <trkpt lat="42.89993" lon="-0.52974">
        <ele>1601</ele>
        <time>2013-04-24T11:20:15Z</time>
      </trkpt>
      <trkpt lat="42.89992" lon="-0.52973">
        <ele>1601</ele>
        <time>2013-04-24T11:20:31Z</time>
      </trkpt>
      <trkpt lat="42.89992" lon="-0.52974">
        <ele>1601</ele>
        <time>2013-04-24T11:20:51Z</time>
      </trkpt>
      <trkpt lat="42.89993" lon="-0.52973">
        <ele>1602</ele>
        <time>2013-04-24T11:21:04Z</time>
      </trkpt>
      <trkpt lat="42.89993" lon="-0.52973">
        <ele>1601</ele>
        <time>2013-04-24T11:21:32Z</time>
      </trkpt>
      <trkpt lat="42.89992" lon="-0.52972">
        <ele>1601</ele>
        <time>2013-04-24T11:22:00Z</time>
      </trkpt>
      <trkpt lat="42.89993" lon="-0.52973">
        <ele>1601</ele>
        <time>2013-04-24T11:22:14Z</time>
      </trkpt>
      <trkpt lat="42.89992" lon="-0.52974">
        <ele>1601</ele>
        <time>2013-04-24T11:22:39Z</time>
      </trkpt>
      <trkpt lat="42.89993" lon="-0.52975">
        <ele>1601</ele>
        <time>2013-04-24T11:23:02Z</time>
      </trkpt>
      <trkpt lat="42.89992" lon="-0.52975">
        <ele>1601</ele>
        <time>2013-04-24T11:23:23Z</time>
      </trkpt>
      <trkpt lat="42.89993" lon="-0.52974">
        <ele>1600</ele>
        <time>2013-04-24T11:23:44Z</time>
      </trkpt>
      <trkpt lat="42.89993" lon="-0.52973">
        <ele>1600</ele>
        <time>2013-04-24T11:24:12Z</time>
      </trkpt>
      <trkpt lat="42.89994" lon="-0.52973">
        <ele>1600</ele>
        <time>2013-04-24T11:24:39Z</time>
      </trkpt>
      <trkpt lat="42.89995" lon="-0.52974">
        <ele>1601</ele>
        <time>2013-04-24T11:25:02Z</time>
      </trkpt>
      <trkpt lat="42.89993" lon="-0.52974">
        <ele>1601</ele>
        <time>2013-04-24T11:25:24Z</time>
      </trkpt>
      <trkpt lat="42.89992" lon="-0.52974">
        <ele>1601</ele>
        <time>2013-04-24T11:25:51Z</time>
      </trkpt>
      <trkpt lat="42.89992" lon="-0.52974">
        <ele>1601</ele>
        <time>2013-04-24T11:26:21Z</time>
      </trkpt>
      <trkpt lat="42.89991" lon="-0.52974">
        <ele>1601</ele>
        <time>2013-04-24T11:26:50Z</time>
      </trkpt>
      <trkpt lat="42.89992" lon="-0.52973">
        <ele>1600</ele>
        <time>2013-04-24T11:27:08Z</time>
      </trkpt>
      <trkpt lat="42.89992" lon="-0.52973">
        <ele>1601</ele>
        <time>2013-04-24T11:27:15Z</time>
      </trkpt>
      <trkpt lat="42.89992" lon="-0.52975">
        <ele>1601</ele>
        <time>2013-04-24T11:27:26Z</time>
      </trkpt>
      <trkpt lat="42.89992" lon="-0.52975">
        <ele>1602</ele>
        <time>2013-04-24T11:27:37Z</time>
      </trkpt>
      <trkpt lat="42.89991" lon="-0.52976">
        <ele>1601</ele>
        <time>2013-04-24T11:27:50Z</time>
      </trkpt>
      <trkpt lat="42.8999" lon="-0.52976">
        <ele>1602</ele>
        <time>2013-04-24T11:28:04Z</time>
      </trkpt>
      <trkpt lat="42.89991" lon="-0.52975">
        <ele>1601</ele>
        <time>2013-04-24T11:28:16Z</time>
      </trkpt>
      <trkpt lat="42.8999" lon="-0.52972">
        <ele>1602</ele>
        <time>2013-04-24T11:28:24Z</time>
      </trkpt>
      <trkpt lat="42.8999" lon="-0.52971">
        <ele>1602</ele>
        <time>2013-04-24T11:28:34Z</time>
      </trkpt>
      <trkpt lat="42.89989" lon="-0.52969">
        <ele>1603</ele>
        <time>2013-04-24T11:28:41Z</time>
      </trkpt>
      <trkpt lat="42.89987" lon="-0.5297">
        <ele>1603</ele>
        <time>2013-04-24T11:28:48Z</time>
      </trkpt>
      <trkpt lat="42.89985" lon="-0.52971">
        <ele>1602</ele>
        <time>2013-04-24T11:28:56Z</time>
      </trkpt>
      <trkpt lat="42.89982" lon="-0.52975">
        <ele>1602</ele>
        <time>2013-04-24T11:29:03Z</time>
      </trkpt>
      <trkpt lat="42.89981" lon="-0.52979">
        <ele>1600</ele>
        <time>2013-04-24T11:29:10Z</time>
      </trkpt>
      <trkpt lat="42.8998" lon="-0.52985">
        <ele>1598</ele>
        <time>2013-04-24T11:29:18Z</time>
      </trkpt>
      <trkpt lat="42.8998" lon="-0.5299">
        <ele>1597</ele>
        <time>2013-04-24T11:29:25Z</time>
      </trkpt>
      <trkpt lat="42.89982" lon="-0.52993">
        <ele>1596</ele>
        <time>2013-04-24T11:29:29Z</time>
      </trkpt>
      <trkpt lat="42.89985" lon="-0.52997">
        <ele>1595</ele>
        <time>2013-04-24T11:29:35Z</time>
      </trkpt>
      <trkpt lat="42.89984" lon="-0.53003">
        <ele>1594</ele>
        <time>2013-04-24T11:29:43Z</time>
      </trkpt>
      <trkpt lat="42.89984" lon="-0.53009">
        <ele>1592</ele>
        <time>2013-04-24T11:29:48Z</time>
      </trkpt>
      <trkpt lat="42.89984" lon="-0.53017">
        <ele>1589</ele>
        <time>2013-04-24T11:29:53Z</time>
      </trkpt>
      <trkpt lat="42.89982" lon="-0.53022">
        <ele>1588</ele>
        <time>2013-04-24T11:30:00Z</time>
      </trkpt>
      <trkpt lat="42.89982" lon="-0.53028">
        <ele>1587</ele>
        <time>2013-04-24T11:30:08Z</time>
      </trkpt>
      <trkpt lat="42.89981" lon="-0.53033">
        <ele>1584</ele>
        <time>2013-04-24T11:30:17Z</time>
      </trkpt>
      <trkpt lat="42.8998" lon="-0.53037">
        <ele>1582</ele>
        <time>2013-04-24T11:30:26Z</time>
      </trkpt>
      <trkpt lat="42.89978" lon="-0.53039">
        <ele>1581</ele>
        <time>2013-04-24T11:30:34Z</time>
      </trkpt>
      <trkpt lat="42.89976" lon="-0.53041">
        <ele>1580</ele>
        <time>2013-04-24T11:30:41Z</time>
      </trkpt>
      <trkpt lat="42.89973" lon="-0.53044">
        <ele>1578</ele>
        <time>2013-04-24T11:30:50Z</time>
      </trkpt>
      <trkpt lat="42.89971" lon="-0.53046">
        <ele>1576</ele>
        <time>2013-04-24T11:30:57Z</time>
      </trkpt>
      <trkpt lat="42.89967" lon="-0.53048">
        <ele>1574</ele>
        <time>2013-04-24T11:31:05Z</time>
      </trkpt>
      <trkpt lat="42.89964" lon="-0.53049">
        <ele>1573</ele>
        <time>2013-04-24T11:31:13Z</time>
      </trkpt>
      <trkpt lat="42.89959" lon="-0.53051">
        <ele>1571</ele>
        <time>2013-04-24T11:31:19Z</time>
      </trkpt>
      <trkpt lat="42.89956" lon="-0.53055">
        <ele>1569</ele>
        <time>2013-04-24T11:31:24Z</time>
      </trkpt>
      <trkpt lat="42.89954" lon="-0.53061">
        <ele>1566</ele>
        <time>2013-04-24T11:31:31Z</time>
      </trkpt>
      <trkpt lat="42.89955" lon="-0.53068">
        <ele>1564</ele>
        <time>2013-04-24T11:31:39Z</time>
      </trkpt>
      <trkpt lat="42.89957" lon="-0.5308">
        <ele>1562</ele>
        <time>2013-04-24T11:31:49Z</time>
      </trkpt>
      <trkpt lat="42.89958" lon="-0.53089">
        <ele>1562</ele>
        <time>2013-04-24T11:31:56Z</time>
      </trkpt>
      <trkpt lat="42.89961" lon="-0.53098">
        <ele>1561</ele>
        <time>2013-04-24T11:32:03Z</time>
      </trkpt>
      <trkpt lat="42.89964" lon="-0.53109">
        <ele>1559</ele>
        <time>2013-04-24T11:32:11Z</time>
      </trkpt>
      <trkpt lat="42.89967" lon="-0.53115">
        <ele>1559</ele>
        <time>2013-04-24T11:32:19Z</time>
      </trkpt>
      <trkpt lat="42.89972" lon="-0.53118">
        <ele>1558</ele>
        <time>2013-04-24T11:32:27Z</time>
      </trkpt>
      <trkpt lat="42.89972" lon="-0.53122">
        <ele>1557</ele>
        <time>2013-04-24T11:32:34Z</time>
      </trkpt>
      <trkpt lat="42.89972" lon="-0.53128">
        <ele>1556</ele>
        <time>2013-04-24T11:32:41Z</time>
      </trkpt>
      <trkpt lat="42.89975" lon="-0.53133">
        <ele>1554</ele>
        <time>2013-04-24T11:32:51Z</time>
      </trkpt>
      <trkpt lat="42.89976" lon="-0.53136">
        <ele>1554</ele>
        <time>2013-04-24T11:33:03Z</time>
      </trkpt>
      <trkpt lat="42.89978" lon="-0.53138">
        <ele>1554</ele>
        <time>2013-04-24T11:33:11Z</time>
      </trkpt>
      <trkpt lat="42.8998" lon="-0.53147">
        <ele>1553</ele>
        <time>2013-04-24T11:33:22Z</time>
      </trkpt>
      <trkpt lat="42.89982" lon="-0.53154">
        <ele>1552</ele>
        <time>2013-04-24T11:33:30Z</time>
      </trkpt>
      <trkpt lat="42.89983" lon="-0.53157">
        <ele>1551</ele>
        <time>2013-04-24T11:33:40Z</time>
      </trkpt>
      <trkpt lat="42.89984" lon="-0.5316">
        <ele>1549</ele>
        <time>2013-04-24T11:33:50Z</time>
      </trkpt>
      <trkpt lat="42.89986" lon="-0.53161">
        <ele>1548</ele>
        <time>2013-04-24T11:33:57Z</time>
      </trkpt>
      <trkpt lat="42.89986" lon="-0.53167">
        <ele>1546</ele>
        <time>2013-04-24T11:34:07Z</time>
      </trkpt>
      <trkpt lat="42.89986" lon="-0.53165">
        <ele>1546</ele>
        <time>2013-04-24T11:34:19Z</time>
      </trkpt>
      <trkpt lat="42.89984" lon="-0.53167">
        <ele>1544</ele>
        <time>2013-04-24T11:34:27Z</time>
      </trkpt>
      <trkpt lat="42.89981" lon="-0.53172">
        <ele>1542</ele>
        <time>2013-04-24T11:34:35Z</time>
      </trkpt>
      <trkpt lat="42.89975" lon="-0.53172">
        <ele>1540</ele>
        <time>2013-04-24T11:34:43Z</time>
      </trkpt>
      <trkpt lat="42.89969" lon="-0.53173">
        <ele>1538</ele>
        <time>2013-04-24T11:34:51Z</time>
      </trkpt>
      <trkpt lat="42.89967" lon="-0.53175">
        <ele>1536</ele>
        <time>2013-04-24T11:34:59Z</time>
      </trkpt>
      <trkpt lat="42.89963" lon="-0.53171">
        <ele>1535</ele>
        <time>2013-04-24T11:35:08Z</time>
      </trkpt>
      <trkpt lat="42.89959" lon="-0.53169">
        <ele>1532</ele>
        <time>2013-04-24T11:35:15Z</time>
      </trkpt>
      <trkpt lat="42.89953" lon="-0.53164">
        <ele>1530</ele>
        <time>2013-04-24T11:35:24Z</time>
      </trkpt>
      <trkpt lat="42.89953" lon="-0.53165">
        <ele>1528</ele>
        <time>2013-04-24T11:35:30Z</time>
      </trkpt>
      <trkpt lat="42.89946" lon="-0.53163">
        <ele>1526</ele>
        <time>2013-04-24T11:35:37Z</time>
      </trkpt>
      <trkpt lat="42.89943" lon="-0.53162">
        <ele>1524</ele>
        <time>2013-04-24T11:35:41Z</time>
      </trkpt>
      <trkpt lat="42.89937" lon="-0.53162">
        <ele>1523</ele>
        <time>2013-04-24T11:35:47Z</time>
      </trkpt>
      <trkpt lat="42.89933" lon="-0.53156">
        <ele>1520</ele>
        <time>2013-04-24T11:35:56Z</time>
      </trkpt>
      <trkpt lat="42.89927" lon="-0.53153">
        <ele>1518</ele>
        <time>2013-04-24T11:36:04Z</time>
      </trkpt>
      <trkpt lat="42.89925" lon="-0.53148">
        <ele>1517</ele>
        <time>2013-04-24T11:36:12Z</time>
      </trkpt>
      <trkpt lat="42.89918" lon="-0.53137">
        <ele>1515</ele>
        <time>2013-04-24T11:36:21Z</time>
      </trkpt>
      <trkpt lat="42.89918" lon="-0.53137">
        <ele>1514</ele>
        <time>2013-04-24T11:36:22Z</time>
      </trkpt>
      <trkpt lat="42.89912" lon="-0.53134">
        <ele>1513</ele>
        <time>2013-04-24T11:36:29Z</time>
      </trkpt>
      <trkpt lat="42.89907" lon="-0.53128">
        <ele>1511</ele>
        <time>2013-04-24T11:36:37Z</time>
      </trkpt>
      <trkpt lat="42.89902" lon="-0.53125">
        <ele>1510</ele>
        <time>2013-04-24T11:36:44Z</time>
      </trkpt>
      <trkpt lat="42.89897" lon="-0.53121">
        <ele>1511</ele>
        <time>2013-04-24T11:36:53Z</time>
      </trkpt>
      <trkpt lat="42.89892" lon="-0.53117">
        <ele>1509</ele>
        <time>2013-04-24T11:37:01Z</time>
      </trkpt>
      <trkpt lat="42.89887" lon="-0.53112">
        <ele>1508</ele>
        <time>2013-04-24T11:37:09Z</time>
      </trkpt>
      <trkpt lat="42.89882" lon="-0.53108">
        <ele>1507</ele>
        <time>2013-04-24T11:37:17Z</time>
      </trkpt>
      <trkpt lat="42.89877" lon="-0.53101">
        <ele>1505</ele>
        <time>2013-04-24T11:37:25Z</time>
      </trkpt>
      <trkpt lat="42.89872" lon="-0.53091">
        <ele>1504</ele>
        <time>2013-04-24T11:37:33Z</time>
      </trkpt>
      <trkpt lat="42.89868" lon="-0.53082">
        <ele>1503</ele>
        <time>2013-04-24T11:37:40Z</time>
      </trkpt>
      <trkpt lat="42.89867" lon="-0.53075">
        <ele>1500</ele>
        <time>2013-04-24T11:37:47Z</time>
      </trkpt>
      <trkpt lat="42.89864" lon="-0.53068">
        <ele>1500</ele>
        <time>2013-04-24T11:37:54Z</time>
      </trkpt>
      <trkpt lat="42.89861" lon="-0.53064">
        <ele>1499</ele>
        <time>2013-04-24T11:38:01Z</time>
      </trkpt>
      <trkpt lat="42.89858" lon="-0.53066">
        <ele>1498</ele>
        <time>2013-04-24T11:38:08Z</time>
      </trkpt>
      <trkpt lat="42.89856" lon="-0.53072">
        <ele>1496</ele>
        <time>2013-04-24T11:38:15Z</time>
      </trkpt>
      <trkpt lat="42.89856" lon="-0.53073">
        <ele>1494</ele>
        <time>2013-04-24T11:38:16Z</time>
      </trkpt>
      <trkpt lat="42.89855" lon="-0.53077">
        <ele>1494</ele>
        <time>2013-04-24T11:38:20Z</time>
      </trkpt>
      <trkpt lat="42.89857" lon="-0.53085">
        <ele>1493</ele>
        <time>2013-04-24T11:38:28Z</time>
      </trkpt>
      <trkpt lat="42.89855" lon="-0.53103">
        <ele>1492</ele>
        <time>2013-04-24T11:38:35Z</time>
      </trkpt>
      <trkpt lat="42.89852" lon="-0.53104">
        <ele>1490</ele>
        <time>2013-04-24T11:38:43Z</time>
      </trkpt>
      <trkpt lat="42.89852" lon="-0.5311">
        <ele>1488</ele>
        <time>2013-04-24T11:38:50Z</time>
      </trkpt>
      <trkpt lat="42.89851" lon="-0.5311">
        <ele>1488</ele>
        <time>2013-04-24T11:39:04Z</time>
      </trkpt>
      <trkpt lat="42.89851" lon="-0.53112">
        <ele>1488</ele>
        <time>2013-04-24T11:39:13Z</time>
      </trkpt>
      <trkpt lat="42.89849" lon="-0.53117">
        <ele>1485</ele>
        <time>2013-04-24T11:39:21Z</time>
      </trkpt>
      <trkpt lat="42.89848" lon="-0.53125">
        <ele>1482</ele>
        <time>2013-04-24T11:39:31Z</time>
      </trkpt>
      <trkpt lat="42.89847" lon="-0.53134">
        <ele>1481</ele>
        <time>2013-04-24T11:39:41Z</time>
      </trkpt>
      <trkpt lat="42.89848" lon="-0.53138">
        <ele>1479</ele>
        <time>2013-04-24T11:39:46Z</time>
      </trkpt>
      <trkpt lat="42.89847" lon="-0.53143">
        <ele>1479</ele>
        <time>2013-04-24T11:39:53Z</time>
      </trkpt>
      <trkpt lat="42.89846" lon="-0.53146">
        <ele>1476</ele>
        <time>2013-04-24T11:39:58Z</time>
      </trkpt>
      <trkpt lat="42.89843" lon="-0.53152">
        <ele>1474</ele>
        <time>2013-04-24T11:40:07Z</time>
      </trkpt>
      <trkpt lat="42.89836" lon="-0.53153">
        <ele>1473</ele>
        <time>2013-04-24T11:40:15Z</time>
      </trkpt>
      <trkpt lat="42.89831" lon="-0.53149">
        <ele>1470</ele>
        <time>2013-04-24T11:40:25Z</time>
      </trkpt>
      <trkpt lat="42.89824" lon="-0.53143">
        <ele>1468</ele>
        <time>2013-04-24T11:40:35Z</time>
      </trkpt>
      <trkpt lat="42.8982" lon="-0.53147">
        <ele>1466</ele>
        <time>2013-04-24T11:40:44Z</time>
      </trkpt>
      <trkpt lat="42.89819" lon="-0.53148">
        <ele>1464</ele>
        <time>2013-04-24T11:40:47Z</time>
      </trkpt>
      <trkpt lat="42.89817" lon="-0.53146">
        <ele>1463</ele>
        <time>2013-04-24T11:40:52Z</time>
      </trkpt>
      <trkpt lat="42.89814" lon="-0.5315">
        <ele>1461</ele>
        <time>2013-04-24T11:40:59Z</time>
      </trkpt>
      <trkpt lat="42.89814" lon="-0.53151">
        <ele>1461</ele>
        <time>2013-04-24T11:41:00Z</time>
      </trkpt>
      <trkpt lat="42.89812" lon="-0.53153">
        <ele>1459</ele>
        <time>2013-04-24T11:41:07Z</time>
      </trkpt>
      <trkpt lat="42.89808" lon="-0.53152">
        <ele>1457</ele>
        <time>2013-04-24T11:41:15Z</time>
      </trkpt>
      <trkpt lat="42.89801" lon="-0.53151">
        <ele>1456</ele>
        <time>2013-04-24T11:41:23Z</time>
      </trkpt>
      <trkpt lat="42.89797" lon="-0.53154">
        <ele>1454</ele>
        <time>2013-04-24T11:41:29Z</time>
      </trkpt>
      <trkpt lat="42.89796" lon="-0.53162">
        <ele>1451</ele>
        <time>2013-04-24T11:41:38Z</time>
      </trkpt>
      <trkpt lat="42.89796" lon="-0.53169">
        <ele>1449</ele>
        <time>2013-04-24T11:41:46Z</time>
      </trkpt>
      <trkpt lat="42.89793" lon="-0.53174">
        <ele>1447</ele>
        <time>2013-04-24T11:41:53Z</time>
      </trkpt>
      <trkpt lat="42.89789" lon="-0.53176">
        <ele>1445</ele>
        <time>2013-04-24T11:42:01Z</time>
      </trkpt>
      <trkpt lat="42.89784" lon="-0.53172">
        <ele>1444</ele>
        <time>2013-04-24T11:42:08Z</time>
      </trkpt>
      <trkpt lat="42.89783" lon="-0.5317">
        <ele>1443</ele>
        <time>2013-04-24T11:42:10Z</time>
      </trkpt>
      <trkpt lat="42.89778" lon="-0.53164">
        <ele>1442</ele>
        <time>2013-04-24T11:42:17Z</time>
      </trkpt>
      <trkpt lat="42.89774" lon="-0.53157">
        <ele>1440</ele>
        <time>2013-04-24T11:42:25Z</time>
      </trkpt>
      <trkpt lat="42.89771" lon="-0.53157">
        <ele>1439</ele>
        <time>2013-04-24T11:42:31Z</time>
      </trkpt>
      <trkpt lat="42.89766" lon="-0.53154">
        <ele>1437</ele>
        <time>2013-04-24T11:42:37Z</time>
      </trkpt>
      <trkpt lat="42.89764" lon="-0.53154">
        <ele>1435</ele>
        <time>2013-04-24T11:42:43Z</time>
      </trkpt>
      <trkpt lat="42.89765" lon="-0.53156">
        <ele>1435</ele>
        <time>2013-04-24T11:42:45Z</time>
      </trkpt>
      <trkpt lat="42.89766" lon="-0.53167">
        <ele>1433</ele>
        <time>2013-04-24T11:42:53Z</time>
      </trkpt>
      <trkpt lat="42.89768" lon="-0.53177">
        <ele>1433</ele>
        <time>2013-04-24T11:43:00Z</time>
      </trkpt>
      <trkpt lat="42.89768" lon="-0.53185">
        <ele>1432</ele>
        <time>2013-04-24T11:43:07Z</time>
      </trkpt>
      <trkpt lat="42.89769" lon="-0.5319">
        <ele>1431</ele>
        <time>2013-04-24T11:43:13Z</time>
      </trkpt>
      <trkpt lat="42.89774" lon="-0.53203">
        <ele>1430</ele>
        <time>2013-04-24T11:43:21Z</time>
      </trkpt>
      <trkpt lat="42.89775" lon="-0.53206">
        <ele>1428</ele>
        <time>2013-04-24T11:43:27Z</time>
      </trkpt>
      <trkpt lat="42.89777" lon="-0.53208">
        <ele>1427</ele>
        <time>2013-04-24T11:43:29Z</time>
      </trkpt>
      <trkpt lat="42.89778" lon="-0.5321">
        <ele>1428</ele>
        <time>2013-04-24T11:43:32Z</time>
      </trkpt>
      <trkpt lat="42.89781" lon="-0.53216">
        <ele>1427</ele>
        <time>2013-04-24T11:43:36Z</time>
      </trkpt>
      <trkpt lat="42.8979" lon="-0.53226">
        <ele>1426</ele>
        <time>2013-04-24T11:43:44Z</time>
      </trkpt>
      <trkpt lat="42.89794" lon="-0.53233">
        <ele>1426</ele>
        <time>2013-04-24T11:43:51Z</time>
      </trkpt>
      <trkpt lat="42.89798" lon="-0.5324">
        <ele>1426</ele>
        <time>2013-04-24T11:43:59Z</time>
      </trkpt>
      <trkpt lat="42.89801" lon="-0.53242">
        <ele>1426</ele>
        <time>2013-04-24T11:44:05Z</time>
      </trkpt>
      <trkpt lat="42.89802" lon="-0.53245">
        <ele>1427</ele>
        <time>2013-04-24T11:44:12Z</time>
      </trkpt>
      <trkpt lat="42.89803" lon="-0.53245">
        <ele>1427</ele>
        <time>2013-04-24T11:44:19Z</time>
      </trkpt>
      <trkpt lat="42.89801" lon="-0.53248">
        <ele>1427</ele>
        <time>2013-04-24T11:44:26Z</time>
      </trkpt>
      <trkpt lat="42.89798" lon="-0.53251">
        <ele>1426</ele>
        <time>2013-04-24T11:44:32Z</time>
      </trkpt>
      <trkpt lat="42.89796" lon="-0.53252">
        <ele>1425</ele>
        <time>2013-04-24T11:44:34Z</time>
      </trkpt>
      <trkpt lat="42.89795" lon="-0.53252">
        <ele>1425</ele>
        <time>2013-04-24T11:44:35Z</time>
      </trkpt>
      <trkpt lat="42.89794" lon="-0.53253">
        <ele>1424</ele>
        <time>2013-04-24T11:44:36Z</time>
      </trkpt>
      <trkpt lat="42.89795" lon="-0.53257">
        <ele>1424</ele>
        <time>2013-04-24T11:44:39Z</time>
      </trkpt>
      <trkpt lat="42.89796" lon="-0.53259">
        <ele>1424</ele>
        <time>2013-04-24T11:44:45Z</time>
      </trkpt>
      <trkpt lat="42.89794" lon="-0.53264">
        <ele>1424</ele>
        <time>2013-04-24T11:44:52Z</time>
      </trkpt>
      <trkpt lat="42.89793" lon="-0.53268">
        <ele>1425</ele>
        <time>2013-04-24T11:44:58Z</time>
      </trkpt>
      <trkpt lat="42.89792" lon="-0.53275">
        <ele>1425</ele>
        <time>2013-04-24T11:45:03Z</time>
      </trkpt>
      <trkpt lat="42.89789" lon="-0.53281">
        <ele>1426</ele>
        <time>2013-04-24T11:45:10Z</time>
      </trkpt>
      <trkpt lat="42.89787" lon="-0.53289">
        <ele>1426</ele>
        <time>2013-04-24T11:45:18Z</time>
      </trkpt>
      <trkpt lat="42.89784" lon="-0.53293">
        <ele>1426</ele>
        <time>2013-04-24T11:45:23Z</time>
      </trkpt>
      <trkpt lat="42.89778" lon="-0.53292">
        <ele>1426</ele>
        <time>2013-04-24T11:45:30Z</time>
      </trkpt>
      <trkpt lat="42.89776" lon="-0.53293">
        <ele>1427</ele>
        <time>2013-04-24T11:45:32Z</time>
      </trkpt>
      <trkpt lat="42.89775" lon="-0.53294">
        <ele>1427</ele>
        <time>2013-04-24T11:45:33Z</time>
      </trkpt>
      <trkpt lat="42.8977" lon="-0.53299">
        <ele>1428</ele>
        <time>2013-04-24T11:45:38Z</time>
      </trkpt>
      <trkpt lat="42.89768" lon="-0.53304">
        <ele>1427</ele>
        <time>2013-04-24T11:45:46Z</time>
      </trkpt>
      <trkpt lat="42.89766" lon="-0.53307">
        <ele>1427</ele>
        <time>2013-04-24T11:45:56Z</time>
      </trkpt>
      <trkpt lat="42.89768" lon="-0.53309">
        <ele>1428</ele>
        <time>2013-04-24T11:46:12Z</time>
      </trkpt>
      <trkpt lat="42.89764" lon="-0.53307">
        <ele>1427</ele>
        <time>2013-04-24T11:46:26Z</time>
      </trkpt>
      <trkpt lat="42.89766" lon="-0.53305">
        <ele>1428</ele>
        <time>2013-04-24T11:46:34Z</time>
      </trkpt>
      <trkpt lat="42.89766" lon="-0.53305">
        <ele>1428</ele>
        <time>2013-04-24T11:46:41Z</time>
      </trkpt>
      <trkpt lat="42.89767" lon="-0.53302">
        <ele>1428</ele>
        <time>2013-04-24T11:46:56Z</time>
      </trkpt>
      <trkpt lat="42.89766" lon="-0.53302">
        <ele>1428</ele>
        <time>2013-04-24T11:47:05Z</time>
      </trkpt>
      <trkpt lat="42.89765" lon="-0.53298">
        <ele>1428</ele>
        <time>2013-04-24T11:47:23Z</time>
      </trkpt>
      <trkpt lat="42.89776" lon="-0.53304">
        <ele>1428</ele>
        <time>2013-04-24T11:47:44Z</time>
      </trkpt>
      <trkpt lat="42.89776" lon="-0.53305">
        <ele>1428</ele>
        <time>2013-04-24T11:48:00Z</time>
      </trkpt>
      <trkpt lat="42.89769" lon="-0.53289">
        <ele>1427</ele>
        <time>2013-04-24T11:48:19Z</time>
      </trkpt>
      <trkpt lat="42.89765" lon="-0.53282">
        <ele>1428</ele>
        <time>2013-04-24T11:48:43Z</time>
      </trkpt>
      <trkpt lat="42.89767" lon="-0.5327">
        <ele>1428</ele>
        <time>2013-04-24T11:49:01Z</time>
      </trkpt>
      <trkpt lat="42.89765" lon="-0.53271">
        <ele>1429</ele>
        <time>2013-04-24T11:49:18Z</time>
      </trkpt>
      <trkpt lat="42.89761" lon="-0.53276">
        <ele>1429</ele>
        <time>2013-04-24T11:49:39Z</time>
      </trkpt>
      <trkpt lat="42.89764" lon="-0.53277">
        <ele>1430</ele>
        <time>2013-04-24T11:49:58Z</time>
      </trkpt>
      <trkpt lat="42.89774" lon="-0.53271">
        <ele>1430</ele>
        <time>2013-04-24T11:50:21Z</time>
      </trkpt>
      <trkpt lat="42.89779" lon="-0.53281">
        <ele>1431</ele>
        <time>2013-04-24T11:50:33Z</time>
      </trkpt>
      <trkpt lat="42.89769" lon="-0.53297">
        <ele>1430</ele>
        <time>2013-04-24T11:50:41Z</time>
      </trkpt>
      <trkpt lat="42.89766" lon="-0.53303">
        <ele>1431</ele>
        <time>2013-04-24T11:50:49Z</time>
      </trkpt>
      <trkpt lat="42.8976" lon="-0.53304">
        <ele>1431</ele>
        <time>2013-04-24T11:50:57Z</time>
      </trkpt>
      <trkpt lat="42.89756" lon="-0.53305">
        <ele>1431</ele>
        <time>2013-04-24T11:51:04Z</time>
      </trkpt>
      <trkpt lat="42.89751" lon="-0.53308">
        <ele>1431</ele>
        <time>2013-04-24T11:51:11Z</time>
      </trkpt>
      <trkpt lat="42.89749" lon="-0.53315">
        <ele>1432</ele>
        <time>2013-04-24T11:51:18Z</time>
      </trkpt>
      <trkpt lat="42.89744" lon="-0.53321">
        <ele>1432</ele>
        <time>2013-04-24T11:51:23Z</time>
      </trkpt>
      <trkpt lat="42.89742" lon="-0.53322">
        <ele>1432</ele>
        <time>2013-04-24T11:51:24Z</time>
      </trkpt>
      <trkpt lat="42.89739" lon="-0.53327">
        <ele>1432</ele>
        <time>2013-04-24T11:51:28Z</time>
      </trkpt>
      <trkpt lat="42.89738" lon="-0.53328">
        <ele>1432</ele>
        <time>2013-04-24T11:51:29Z</time>
      </trkpt>
      <trkpt lat="42.89731" lon="-0.5333">
        <ele>1432</ele>
        <time>2013-04-24T11:51:37Z</time>
      </trkpt>
      <trkpt lat="42.89721" lon="-0.5333">
        <ele>1432</ele>
        <time>2013-04-24T11:51:43Z</time>
      </trkpt>
      <trkpt lat="42.8971" lon="-0.53339">
        <ele>1432</ele>
        <time>2013-04-24T11:51:51Z</time>
      </trkpt>
      <trkpt lat="42.89706" lon="-0.53343">
        <ele>1432</ele>
        <time>2013-04-24T11:51:54Z</time>
      </trkpt>
      <trkpt lat="42.89705" lon="-0.53345">
        <ele>1432</ele>
        <time>2013-04-24T11:51:55Z</time>
      </trkpt>
      <trkpt lat="42.89696" lon="-0.53357">
        <ele>1433</ele>
        <time>2013-04-24T11:52:04Z</time>
      </trkpt>
      <trkpt lat="42.89695" lon="-0.53358">
        <ele>1433</ele>
        <time>2013-04-24T11:52:05Z</time>
      </trkpt>
      <trkpt lat="42.89694" lon="-0.53359">
        <ele>1434</ele>
        <time>2013-04-24T11:52:06Z</time>
      </trkpt>
      <trkpt lat="42.89694" lon="-0.53361">
        <ele>1434</ele>
        <time>2013-04-24T11:52:07Z</time>
      </trkpt>
      <trkpt lat="42.89693" lon="-0.53362">
        <ele>1434</ele>
        <time>2013-04-24T11:52:08Z</time>
      </trkpt>
      <trkpt lat="42.89684" lon="-0.53373">
        <ele>1435</ele>
        <time>2013-04-24T11:52:17Z</time>
      </trkpt>
      <trkpt lat="42.89681" lon="-0.53386">
        <ele>1436</ele>
        <time>2013-04-24T11:52:26Z</time>
      </trkpt>
      <trkpt lat="42.89681" lon="-0.53388">
        <ele>1437</ele>
        <time>2013-04-24T11:52:33Z</time>
      </trkpt>
      <trkpt lat="42.89683" lon="-0.53391">
        <ele>1436</ele>
        <time>2013-04-24T11:52:43Z</time>
      </trkpt>
      <trkpt lat="42.89681" lon="-0.53394">
        <ele>1436</ele>
        <time>2013-04-24T11:52:50Z</time>
      </trkpt>
      <trkpt lat="42.89675" lon="-0.53396">
        <ele>1436</ele>
        <time>2013-04-24T11:52:56Z</time>
      </trkpt>
      <trkpt lat="42.89673" lon="-0.53397">
        <ele>1435</ele>
        <time>2013-04-24T11:52:58Z</time>
      </trkpt>
      <trkpt lat="42.89667" lon="-0.53407">
        <ele>1434</ele>
        <time>2013-04-24T11:53:06Z</time>
      </trkpt>
      <trkpt lat="42.8966" lon="-0.53414">
        <ele>1436</ele>
        <time>2013-04-24T11:53:15Z</time>
      </trkpt>
      <trkpt lat="42.89656" lon="-0.53422">
        <ele>1437</ele>
        <time>2013-04-24T11:53:23Z</time>
      </trkpt>
      <trkpt lat="42.89651" lon="-0.53428">
        <ele>1437</ele>
        <time>2013-04-24T11:53:30Z</time>
      </trkpt>
      <trkpt lat="42.89642" lon="-0.53436">
        <ele>1437</ele>
        <time>2013-04-24T11:53:39Z</time>
      </trkpt>
      <trkpt lat="42.89636" lon="-0.53445">
        <ele>1435</ele>
        <time>2013-04-24T11:53:45Z</time>
      </trkpt>
      <trkpt lat="42.89636" lon="-0.53446">
        <ele>1435</ele>
        <time>2013-04-24T11:53:46Z</time>
      </trkpt>
      <trkpt lat="42.89636" lon="-0.53448">
        <ele>1435</ele>
        <time>2013-04-24T11:53:47Z</time>
      </trkpt>
      <trkpt lat="42.89636" lon="-0.5345">
        <ele>1435</ele>
        <time>2013-04-24T11:53:48Z</time>
      </trkpt>
      <trkpt lat="42.89638" lon="-0.5346">
        <ele>1434</ele>
        <time>2013-04-24T11:53:56Z</time>
      </trkpt>
      <trkpt lat="42.89641" lon="-0.53466">
        <ele>1433</ele>
        <time>2013-04-24T11:54:03Z</time>
      </trkpt>
      <trkpt lat="42.8964" lon="-0.53475">
        <ele>1433</ele>
        <time>2013-04-24T11:54:12Z</time>
      </trkpt>
      <trkpt lat="42.89641" lon="-0.53484">
        <ele>1432</ele>
        <time>2013-04-24T11:54:20Z</time>
      </trkpt>
      <trkpt lat="42.89641" lon="-0.5349">
        <ele>1432</ele>
        <time>2013-04-24T11:54:27Z</time>
      </trkpt>
      <trkpt lat="42.89639" lon="-0.53495">
        <ele>1431</ele>
        <time>2013-04-24T11:54:33Z</time>
      </trkpt>
      <trkpt lat="42.89639" lon="-0.53498">
        <ele>1432</ele>
        <time>2013-04-24T11:54:35Z</time>
      </trkpt>
      <trkpt lat="42.89639" lon="-0.535">
        <ele>1432</ele>
        <time>2013-04-24T11:54:36Z</time>
      </trkpt>
      <trkpt lat="42.89642" lon="-0.53511">
        <ele>1432</ele>
        <time>2013-04-24T11:54:44Z</time>
      </trkpt>
      <trkpt lat="42.89642" lon="-0.53521">
        <ele>1433</ele>
        <time>2013-04-24T11:54:51Z</time>
      </trkpt>
      <trkpt lat="42.89642" lon="-0.5353">
        <ele>1434</ele>
        <time>2013-04-24T11:54:58Z</time>
      </trkpt>
      <trkpt lat="42.89643" lon="-0.53535">
        <ele>1434</ele>
        <time>2013-04-24T11:55:06Z</time>
      </trkpt>
      <trkpt lat="42.89643" lon="-0.53546">
        <ele>1434</ele>
        <time>2013-04-24T11:55:15Z</time>
      </trkpt>
      <trkpt lat="42.89643" lon="-0.5355">
        <ele>1433</ele>
        <time>2013-04-24T11:55:23Z</time>
      </trkpt>
      <trkpt lat="42.89641" lon="-0.53549">
        <ele>1433</ele>
        <time>2013-04-24T11:55:25Z</time>
      </trkpt>
      <trkpt lat="42.8964" lon="-0.53549">
        <ele>1433</ele>
        <time>2013-04-24T11:55:26Z</time>
      </trkpt>
      <trkpt lat="42.89637" lon="-0.53548">
        <ele>1432</ele>
        <time>2013-04-24T11:55:33Z</time>
      </trkpt>
      <trkpt lat="42.89636" lon="-0.53548">
        <ele>1433</ele>
        <time>2013-04-24T11:55:41Z</time>
      </trkpt>
      <trkpt lat="42.89634" lon="-0.53548">
        <ele>1432</ele>
        <time>2013-04-24T11:55:49Z</time>
      </trkpt>
      <trkpt lat="42.8963" lon="-0.53545">
        <ele>1432</ele>
        <time>2013-04-24T11:55:55Z</time>
      </trkpt>
      <trkpt lat="42.89627" lon="-0.53541">
        <ele>1432</ele>
        <time>2013-04-24T11:56:01Z</time>
      </trkpt>
      <trkpt lat="42.89622" lon="-0.53539">
        <ele>1431</ele>
        <time>2013-04-24T11:56:07Z</time>
      </trkpt>
      <trkpt lat="42.89617" lon="-0.53537">
        <ele>1430</ele>
        <time>2013-04-24T11:56:13Z</time>
      </trkpt>
      <trkpt lat="42.89609" lon="-0.53533">
        <ele>1430</ele>
        <time>2013-04-24T11:56:22Z</time>
      </trkpt>
      <trkpt lat="42.89603" lon="-0.53526">
        <ele>1429</ele>
        <time>2013-04-24T11:56:30Z</time>
      </trkpt>
      <trkpt lat="42.89597" lon="-0.53527">
        <ele>1430</ele>
        <time>2013-04-24T11:56:36Z</time>
      </trkpt>
      <trkpt lat="42.89592" lon="-0.53529">
        <ele>1429</ele>
        <time>2013-04-24T11:56:41Z</time>
      </trkpt>
      <trkpt lat="42.8959" lon="-0.53529">
        <ele>1430</ele>
        <time>2013-04-24T11:56:42Z</time>
      </trkpt>
      <trkpt lat="42.89589" lon="-0.53529">
        <ele>1430</ele>
        <time>2013-04-24T11:56:43Z</time>
      </trkpt>
      <trkpt lat="42.89586" lon="-0.5353">
        <ele>1430</ele>
        <time>2013-04-24T11:56:47Z</time>
      </trkpt>
      <trkpt lat="42.89585" lon="-0.5353">
        <ele>1429</ele>
        <time>2013-04-24T11:56:48Z</time>
      </trkpt>
      <trkpt lat="42.89583" lon="-0.53528">
        <ele>1430</ele>
        <time>2013-04-24T11:56:50Z</time>
      </trkpt>
      <trkpt lat="42.89581" lon="-0.53528">
        <ele>1429</ele>
        <time>2013-04-24T11:56:51Z</time>
      </trkpt>
      <trkpt lat="42.89573" lon="-0.53531">
        <ele>1430</ele>
        <time>2013-04-24T11:56:57Z</time>
      </trkpt>
      <trkpt lat="42.89568" lon="-0.53525">
        <ele>1431</ele>
        <time>2013-04-24T11:57:03Z</time>
      </trkpt>
      <trkpt lat="42.89563" lon="-0.53522">
        <ele>1430</ele>
        <time>2013-04-24T11:57:09Z</time>
      </trkpt>
      <trkpt lat="42.89551" lon="-0.53518">
        <ele>1432</ele>
        <time>2013-04-24T11:57:16Z</time>
      </trkpt>
      <trkpt lat="42.89547" lon="-0.53519">
        <ele>1433</ele>
        <time>2013-04-24T11:57:23Z</time>
      </trkpt>
      <trkpt lat="42.89534" lon="-0.5352">
        <ele>1433</ele>
        <time>2013-04-24T11:57:31Z</time>
      </trkpt>
      <trkpt lat="42.8953" lon="-0.53521">
        <ele>1434</ele>
        <time>2013-04-24T11:57:37Z</time>
      </trkpt>
      <trkpt lat="42.89528" lon="-0.53522">
        <ele>1435</ele>
        <time>2013-04-24T11:57:42Z</time>
      </trkpt>
      <trkpt lat="42.89524" lon="-0.53522">
        <ele>1436</ele>
        <time>2013-04-24T11:57:46Z</time>
      </trkpt>
      <trkpt lat="42.89515" lon="-0.53523">
        <ele>1438</ele>
        <time>2013-04-24T11:57:53Z</time>
      </trkpt>
      <trkpt lat="42.89509" lon="-0.53525">
        <ele>1438</ele>
        <time>2013-04-24T11:58:00Z</time>
      </trkpt>
      <trkpt lat="42.89504" lon="-0.53527">
        <ele>1438</ele>
        <time>2013-04-24T11:58:08Z</time>
      </trkpt>
      <trkpt lat="42.89501" lon="-0.53527">
        <ele>1439</ele>
        <time>2013-04-24T11:58:12Z</time>
      </trkpt>
      <trkpt lat="42.89493" lon="-0.53529">
        <ele>1440</ele>
        <time>2013-04-24T11:58:18Z</time>
      </trkpt>
      <trkpt lat="42.89479" lon="-0.53535">
        <ele>1441</ele>
        <time>2013-04-24T11:58:27Z</time>
      </trkpt>
      <trkpt lat="42.89472" lon="-0.53543">
        <ele>1442</ele>
        <time>2013-04-24T11:58:34Z</time>
      </trkpt>
      <trkpt lat="42.89465" lon="-0.53551">
        <ele>1442</ele>
        <time>2013-04-24T11:58:44Z</time>
      </trkpt>
      <trkpt lat="42.89465" lon="-0.53558">
        <ele>1441</ele>
        <time>2013-04-24T11:58:52Z</time>
      </trkpt>
      <trkpt lat="42.89463" lon="-0.53566">
        <ele>1440</ele>
        <time>2013-04-24T11:58:59Z</time>
      </trkpt>
      <trkpt lat="42.89461" lon="-0.53572">
        <ele>1439</ele>
        <time>2013-04-24T11:59:05Z</time>
      </trkpt>
      <trkpt lat="42.89459" lon="-0.53577">
        <ele>1438</ele>
        <time>2013-04-24T11:59:11Z</time>
      </trkpt>
      <trkpt lat="42.89456" lon="-0.53578">
        <ele>1438</ele>
        <time>2013-04-24T11:59:14Z</time>
      </trkpt>
      <trkpt lat="42.89452" lon="-0.53579">
        <ele>1436</ele>
        <time>2013-04-24T11:59:19Z</time>
      </trkpt>
      <trkpt lat="42.8945" lon="-0.53577">
        <ele>1435</ele>
        <time>2013-04-24T11:59:25Z</time>
      </trkpt>
      <trkpt lat="42.89447" lon="-0.5358">
        <ele>1433</ele>
        <time>2013-04-24T11:59:32Z</time>
      </trkpt>
      <trkpt lat="42.89439" lon="-0.53583">
        <ele>1431</ele>
        <time>2013-04-24T11:59:42Z</time>
      </trkpt>
      <trkpt lat="42.89436" lon="-0.53587">
        <ele>1429</ele>
        <time>2013-04-24T11:59:49Z</time>
      </trkpt>
      <trkpt lat="42.89434" lon="-0.5359">
        <ele>1428</ele>
        <time>2013-04-24T11:59:57Z</time>
      </trkpt>
      <trkpt lat="42.89437" lon="-0.53591">
        <ele>1428</ele>
        <time>2013-04-24T12:00:08Z</time>
      </trkpt>
      <trkpt lat="42.89432" lon="-0.53591">
        <ele>1426</ele>
        <time>2013-04-24T12:00:16Z</time>
      </trkpt>
      <trkpt lat="42.89426" lon="-0.53591">
        <ele>1425</ele>
        <time>2013-04-24T12:00:24Z</time>
      </trkpt>
      <trkpt lat="42.89422" lon="-0.53591">
        <ele>1425</ele>
        <time>2013-04-24T12:00:31Z</time>
      </trkpt>
      <trkpt lat="42.89418" lon="-0.53594">
        <ele>1424</ele>
        <time>2013-04-24T12:00:39Z</time>
      </trkpt>
      <trkpt lat="42.89413" lon="-0.53596">
        <ele>1422</ele>
        <time>2013-04-24T12:00:46Z</time>
      </trkpt>
      <trkpt lat="42.89408" lon="-0.53598">
        <ele>1422</ele>
        <time>2013-04-24T12:00:51Z</time>
      </trkpt>
      <trkpt lat="42.89405" lon="-0.53599">
        <ele>1421</ele>
        <time>2013-04-24T12:00:54Z</time>
      </trkpt>
      <trkpt lat="42.89402" lon="-0.53601">
        <ele>1421</ele>
        <time>2013-04-24T12:00:56Z</time>
      </trkpt>
      <trkpt lat="42.89399" lon="-0.53603">
        <ele>1421</ele>
        <time>2013-04-24T12:00:59Z</time>
      </trkpt>
      <trkpt lat="42.89396" lon="-0.53604">
        <ele>1421</ele>
        <time>2013-04-24T12:01:00Z</time>
      </trkpt>
      <trkpt lat="42.89387" lon="-0.53608">
        <ele>1420</ele>
        <time>2013-04-24T12:01:05Z</time>
      </trkpt>
      <trkpt lat="42.89382" lon="-0.53608">
        <ele>1420</ele>
        <time>2013-04-24T12:01:13Z</time>
      </trkpt>
      <trkpt lat="42.89376" lon="-0.53609">
        <ele>1419</ele>
        <time>2013-04-24T12:01:19Z</time>
      </trkpt>
      <trkpt lat="42.8937" lon="-0.53611">
        <ele>1420</ele>
        <time>2013-04-24T12:01:27Z</time>
      </trkpt>
      <trkpt lat="42.89365" lon="-0.53614">
        <ele>1420</ele>
        <time>2013-04-24T12:01:33Z</time>
      </trkpt>
      <trkpt lat="42.8936" lon="-0.53618">
        <ele>1420</ele>
        <time>2013-04-24T12:01:40Z</time>
      </trkpt>
      <trkpt lat="42.89358" lon="-0.5362">
        <ele>1419</ele>
        <time>2013-04-24T12:01:42Z</time>
      </trkpt>
      <trkpt lat="42.89348" lon="-0.53626">
        <ele>1420</ele>
        <time>2013-04-24T12:01:49Z</time>
      </trkpt>
      <trkpt lat="42.89344" lon="-0.53628">
        <ele>1418</ele>
        <time>2013-04-24T12:01:56Z</time>
      </trkpt>
      <trkpt lat="42.89337" lon="-0.53631">
        <ele>1417</ele>
        <time>2013-04-24T12:02:03Z</time>
      </trkpt>
      <trkpt lat="42.89335" lon="-0.53634">
        <ele>1416</ele>
        <time>2013-04-24T12:02:09Z</time>
      </trkpt>
      <trkpt lat="42.89335" lon="-0.53636">
        <ele>1415</ele>
        <time>2013-04-24T12:02:10Z</time>
      </trkpt>
      <trkpt lat="42.89334" lon="-0.53638">
        <ele>1414</ele>
        <time>2013-04-24T12:02:11Z</time>
      </trkpt>
      <trkpt lat="42.89327" lon="-0.5365">
        <ele>1413</ele>
        <time>2013-04-24T12:02:18Z</time>
      </trkpt>
      <trkpt lat="42.89322" lon="-0.53657">
        <ele>1414</ele>
        <time>2013-04-24T12:02:26Z</time>
      </trkpt>
      <trkpt lat="42.89316" lon="-0.5366">
        <ele>1414</ele>
        <time>2013-04-24T12:02:35Z</time>
      </trkpt>
      <trkpt lat="42.89315" lon="-0.53666">
        <ele>1414</ele>
        <time>2013-04-24T12:02:41Z</time>
      </trkpt>
      <trkpt lat="42.89312" lon="-0.53673">
        <ele>1414</ele>
        <time>2013-04-24T12:02:47Z</time>
      </trkpt>
      <trkpt lat="42.89308" lon="-0.53682">
        <ele>1414</ele>
        <time>2013-04-24T12:02:55Z</time>
      </trkpt>
      <trkpt lat="42.89307" lon="-0.53683">
        <ele>1414</ele>
        <time>2013-04-24T12:02:56Z</time>
      </trkpt>
      <trkpt lat="42.89307" lon="-0.53691">
        <ele>1415</ele>
        <time>2013-04-24T12:03:03Z</time>
      </trkpt>
      <trkpt lat="42.89306" lon="-0.537">
        <ele>1415</ele>
        <time>2013-04-24T12:03:09Z</time>
      </trkpt>
      <trkpt lat="42.89306" lon="-0.53707">
        <ele>1416</ele>
        <time>2013-04-24T12:03:13Z</time>
      </trkpt>
      <trkpt lat="42.89304" lon="-0.53718">
        <ele>1417</ele>
        <time>2013-04-24T12:03:22Z</time>
      </trkpt>
      <trkpt lat="42.89305" lon="-0.53722">
        <ele>1417</ele>
        <time>2013-04-24T12:03:28Z</time>
      </trkpt>
      <trkpt lat="42.89307" lon="-0.53725">
        <ele>1416</ele>
        <time>2013-04-24T12:03:33Z</time>
      </trkpt>
      <trkpt lat="42.89308" lon="-0.53734">
        <ele>1417</ele>
        <time>2013-04-24T12:03:38Z</time>
      </trkpt>
      <trkpt lat="42.89305" lon="-0.53745">
        <ele>1418</ele>
        <time>2013-04-24T12:03:45Z</time>
      </trkpt>
      <trkpt lat="42.89303" lon="-0.53748">
        <ele>1419</ele>
        <time>2013-04-24T12:03:49Z</time>
      </trkpt>
      <trkpt lat="42.89292" lon="-0.53764">
        <ele>1420</ele>
        <time>2013-04-24T12:03:57Z</time>
      </trkpt>
      <trkpt lat="42.89288" lon="-0.53772">
        <ele>1422</ele>
        <time>2013-04-24T12:04:05Z</time>
      </trkpt>
      <trkpt lat="42.89286" lon="-0.5378">
        <ele>1422</ele>
        <time>2013-04-24T12:04:11Z</time>
      </trkpt>
      <trkpt lat="42.89285" lon="-0.53783">
        <ele>1422</ele>
        <time>2013-04-24T12:04:17Z</time>
      </trkpt>
      <trkpt lat="42.89283" lon="-0.5379">
        <ele>1423</ele>
        <time>2013-04-24T12:04:23Z</time>
      </trkpt>
      <trkpt lat="42.89279" lon="-0.53797">
        <ele>1424</ele>
        <time>2013-04-24T12:04:29Z</time>
      </trkpt>
      <trkpt lat="42.89275" lon="-0.53804">
        <ele>1425</ele>
        <time>2013-04-24T12:04:35Z</time>
      </trkpt>
      <trkpt lat="42.89272" lon="-0.53809">
        <ele>1427</ele>
        <time>2013-04-24T12:04:41Z</time>
      </trkpt>
      <trkpt lat="42.89269" lon="-0.5381">
        <ele>1427</ele>
        <time>2013-04-24T12:04:48Z</time>
      </trkpt>
      <trkpt lat="42.89264" lon="-0.53823">
        <ele>1428</ele>
        <time>2013-04-24T12:04:56Z</time>
      </trkpt>
      <trkpt lat="42.8926" lon="-0.53828">
        <ele>1428</ele>
        <time>2013-04-24T12:05:03Z</time>
      </trkpt>
      <trkpt lat="42.89255" lon="-0.53834">
        <ele>1428</ele>
        <time>2013-04-24T12:05:09Z</time>
      </trkpt>
      <trkpt lat="42.89254" lon="-0.53834">
        <ele>1428</ele>
        <time>2013-04-24T12:05:10Z</time>
      </trkpt>
      <trkpt lat="42.89253" lon="-0.53835">
        <ele>1428</ele>
        <time>2013-04-24T12:05:11Z</time>
      </trkpt>
      <trkpt lat="42.89247" lon="-0.53845">
        <ele>1429</ele>
        <time>2013-04-24T12:05:21Z</time>
      </trkpt>
      <trkpt lat="42.89244" lon="-0.53848">
        <ele>1429</ele>
        <time>2013-04-24T12:05:25Z</time>
      </trkpt>
      <trkpt lat="42.89236" lon="-0.53863">
        <ele>1430</ele>
        <time>2013-04-24T12:05:34Z</time>
      </trkpt>
      <trkpt lat="42.89233" lon="-0.53874">
        <ele>1429</ele>
        <time>2013-04-24T12:05:41Z</time>
      </trkpt>
      <trkpt lat="42.89231" lon="-0.53884">
        <ele>1428</ele>
        <time>2013-04-24T12:05:48Z</time>
      </trkpt>
      <trkpt lat="42.89231" lon="-0.53885">
        <ele>1428</ele>
        <time>2013-04-24T12:05:49Z</time>
      </trkpt>
      <trkpt lat="42.89231" lon="-0.53887">
        <ele>1428</ele>
        <time>2013-04-24T12:05:50Z</time>
      </trkpt>
      <trkpt lat="42.89228" lon="-0.53899">
        <ele>1428</ele>
        <time>2013-04-24T12:05:56Z</time>
      </trkpt>
      <trkpt lat="42.8923" lon="-0.5391">
        <ele>1429</ele>
        <time>2013-04-24T12:06:03Z</time>
      </trkpt>
      <trkpt lat="42.89233" lon="-0.53918">
        <ele>1429</ele>
        <time>2013-04-24T12:06:11Z</time>
      </trkpt>
      <trkpt lat="42.89237" lon="-0.5392">
        <ele>1430</ele>
        <time>2013-04-24T12:06:18Z</time>
      </trkpt>
      <trkpt lat="42.89245" lon="-0.53925">
        <ele>1432</ele>
        <time>2013-04-24T12:06:26Z</time>
      </trkpt>
      <trkpt lat="42.8925" lon="-0.53934">
        <ele>1432</ele>
        <time>2013-04-24T12:06:35Z</time>
      </trkpt>
      <trkpt lat="42.89256" lon="-0.53943">
        <ele>1434</ele>
        <time>2013-04-24T12:06:42Z</time>
      </trkpt>
      <trkpt lat="42.89263" lon="-0.5395">
        <ele>1435</ele>
        <time>2013-04-24T12:06:52Z</time>
      </trkpt>
      <trkpt lat="42.89268" lon="-0.53952">
        <ele>1437</ele>
        <time>2013-04-24T12:06:58Z</time>
      </trkpt>
      <trkpt lat="42.89271" lon="-0.53956">
        <ele>1438</ele>
        <time>2013-04-24T12:07:05Z</time>
      </trkpt>
      <trkpt lat="42.89273" lon="-0.53958">
        <ele>1439</ele>
        <time>2013-04-24T12:07:10Z</time>
      </trkpt>
      <trkpt lat="42.89276" lon="-0.53957">
        <ele>1439</ele>
        <time>2013-04-24T12:07:17Z</time>
      </trkpt>
      <trkpt lat="42.89277" lon="-0.53959">
        <ele>1440</ele>
        <time>2013-04-24T12:07:23Z</time>
      </trkpt>
      <trkpt lat="42.8928" lon="-0.53958">
        <ele>1440</ele>
        <time>2013-04-24T12:07:29Z</time>
      </trkpt>
      <trkpt lat="42.89283" lon="-0.53959">
        <ele>1439</ele>
        <time>2013-04-24T12:07:36Z</time>
      </trkpt>
      <trkpt lat="42.89286" lon="-0.53963">
        <ele>1437</ele>
        <time>2013-04-24T12:07:44Z</time>
      </trkpt>
      <trkpt lat="42.89291" lon="-0.53969">
        <ele>1437</ele>
        <time>2013-04-24T12:07:52Z</time>
      </trkpt>
      <trkpt lat="42.89297" lon="-0.53974">
        <ele>1436</ele>
        <time>2013-04-24T12:07:59Z</time>
      </trkpt>
      <trkpt lat="42.89302" lon="-0.53976">
        <ele>1436</ele>
        <time>2013-04-24T12:08:06Z</time>
      </trkpt>
      <trkpt lat="42.89305" lon="-0.53983">
        <ele>1436</ele>
        <time>2013-04-24T12:08:14Z</time>
      </trkpt>
      <trkpt lat="42.89307" lon="-0.53989">
        <ele>1435</ele>
        <time>2013-04-24T12:08:21Z</time>
      </trkpt>
      <trkpt lat="42.8931" lon="-0.53998">
        <ele>1435</ele>
        <time>2013-04-24T12:08:24Z</time>
      </trkpt>
      <trkpt lat="42.89314" lon="-0.54008">
        <ele>1434</ele>
        <time>2013-04-24T12:08:30Z</time>
      </trkpt>
      <trkpt lat="42.89314" lon="-0.54014">
        <ele>1435</ele>
        <time>2013-04-24T12:08:36Z</time>
      </trkpt>
      <trkpt lat="42.89316" lon="-0.54018">
        <ele>1435</ele>
        <time>2013-04-24T12:08:40Z</time>
      </trkpt>
      <trkpt lat="42.89317" lon="-0.54025">
        <ele>1434</ele>
        <time>2013-04-24T12:08:45Z</time>
      </trkpt>
      <trkpt lat="42.89319" lon="-0.54028">
        <ele>1434</ele>
        <time>2013-04-24T12:08:52Z</time>
      </trkpt>
      <trkpt lat="42.89322" lon="-0.54035">
        <ele>1434</ele>
        <time>2013-04-24T12:08:56Z</time>
      </trkpt>
      <trkpt lat="42.89322" lon="-0.5404">
        <ele>1434</ele>
        <time>2013-04-24T12:09:02Z</time>
      </trkpt>
      <trkpt lat="42.89325" lon="-0.54049">
        <ele>1435</ele>
        <time>2013-04-24T12:09:10Z</time>
      </trkpt>
      <trkpt lat="42.89333" lon="-0.54062">
        <ele>1436</ele>
        <time>2013-04-24T12:09:16Z</time>
      </trkpt>
      <trkpt lat="42.8934" lon="-0.54074">
        <ele>1435</ele>
        <time>2013-04-24T12:09:24Z</time>
      </trkpt>
      <trkpt lat="42.89342" lon="-0.54082">
        <ele>1436</ele>
        <time>2013-04-24T12:09:31Z</time>
      </trkpt>
      <trkpt lat="42.89345" lon="-0.54086">
        <ele>1436</ele>
        <time>2013-04-24T12:09:37Z</time>
      </trkpt>
      <trkpt lat="42.89349" lon="-0.54095">
        <ele>1436</ele>
        <time>2013-04-24T12:09:42Z</time>
      </trkpt>
      <trkpt lat="42.89351" lon="-0.54102">
        <ele>1435</ele>
        <time>2013-04-24T12:09:46Z</time>
      </trkpt>
      <trkpt lat="42.89352" lon="-0.5411">
        <ele>1435</ele>
        <time>2013-04-24T12:09:52Z</time>
      </trkpt>
      <trkpt lat="42.89352" lon="-0.54114">
        <ele>1434</ele>
        <time>2013-04-24T12:09:56Z</time>
      </trkpt>
      <trkpt lat="42.89353" lon="-0.54118">
        <ele>1434</ele>
        <time>2013-04-24T12:09:59Z</time>
      </trkpt>
      <trkpt lat="42.89354" lon="-0.54133">
        <ele>1433</ele>
        <time>2013-04-24T12:10:07Z</time>
      </trkpt>
      <trkpt lat="42.89352" lon="-0.54146">
        <ele>1432</ele>
        <time>2013-04-24T12:10:14Z</time>
      </trkpt>
      <trkpt lat="42.89351" lon="-0.5416">
        <ele>1432</ele>
        <time>2013-04-24T12:10:21Z</time>
      </trkpt>
      <trkpt lat="42.89353" lon="-0.54168">
        <ele>1432</ele>
        <time>2013-04-24T12:10:28Z</time>
      </trkpt>
      <trkpt lat="42.89351" lon="-0.54169">
        <ele>1432</ele>
        <time>2013-04-24T12:10:30Z</time>
      </trkpt>
      <trkpt lat="42.89351" lon="-0.54172">
        <ele>1431</ele>
        <time>2013-04-24T12:10:33Z</time>
      </trkpt>
      <trkpt lat="42.89352" lon="-0.54181">
        <ele>1429</ele>
        <time>2013-04-24T12:10:40Z</time>
      </trkpt>
      <trkpt lat="42.89351" lon="-0.54193">
        <ele>1427</ele>
        <time>2013-04-24T12:10:48Z</time>
      </trkpt>
      <trkpt lat="42.8935" lon="-0.54197">
        <ele>1426</ele>
        <time>2013-04-24T12:10:51Z</time>
      </trkpt>
      <trkpt lat="42.8935" lon="-0.54199">
        <ele>1426</ele>
        <time>2013-04-24T12:10:53Z</time>
      </trkpt>
      <trkpt lat="42.89349" lon="-0.54204">
        <ele>1426</ele>
        <time>2013-04-24T12:10:56Z</time>
      </trkpt>
      <trkpt lat="42.89348" lon="-0.54208">
        <ele>1426</ele>
        <time>2013-04-24T12:11:00Z</time>
      </trkpt>
      <trkpt lat="42.89344" lon="-0.54218">
        <ele>1424</ele>
        <time>2013-04-24T12:11:08Z</time>
      </trkpt>
      <trkpt lat="42.89345" lon="-0.54229">
        <ele>1423</ele>
        <time>2013-04-24T12:11:16Z</time>
      </trkpt>
      <trkpt lat="42.89344" lon="-0.54241">
        <ele>1421</ele>
        <time>2013-04-24T12:11:24Z</time>
      </trkpt>
      <trkpt lat="42.89344" lon="-0.54247">
        <ele>1420</ele>
        <time>2013-04-24T12:11:30Z</time>
      </trkpt>
      <trkpt lat="42.89341" lon="-0.54255">
        <ele>1419</ele>
        <time>2013-04-24T12:11:38Z</time>
      </trkpt>
      <trkpt lat="42.89339" lon="-0.54258">
        <ele>1418</ele>
        <time>2013-04-24T12:11:40Z</time>
      </trkpt>
      <trkpt lat="42.89334" lon="-0.54262">
        <ele>1417</ele>
        <time>2013-04-24T12:11:46Z</time>
      </trkpt>
      <trkpt lat="42.89334" lon="-0.54265">
        <ele>1417</ele>
        <time>2013-04-24T12:11:49Z</time>
      </trkpt>
      <trkpt lat="42.89341" lon="-0.54301">
        <ele>1414</ele>
        <time>2013-04-24T12:12:00Z</time>
      </trkpt>
      <trkpt lat="42.8934" lon="-0.54303">
        <ele>1413</ele>
        <time>2013-04-24T12:12:02Z</time>
      </trkpt>
      <trkpt lat="42.89338" lon="-0.54313">
        <ele>1411</ele>
        <time>2013-04-24T12:12:10Z</time>
      </trkpt>
      <trkpt lat="42.89339" lon="-0.54317">
        <ele>1411</ele>
        <time>2013-04-24T12:12:14Z</time>
      </trkpt>
      <trkpt lat="42.89341" lon="-0.54323">
        <ele>1409</ele>
        <time>2013-04-24T12:12:21Z</time>
      </trkpt>
      <trkpt lat="42.89344" lon="-0.5433">
        <ele>1408</ele>
        <time>2013-04-24T12:12:28Z</time>
      </trkpt>
      <trkpt lat="42.89344" lon="-0.54338">
        <ele>1406</ele>
        <time>2013-04-24T12:12:34Z</time>
      </trkpt>
      <trkpt lat="42.89343" lon="-0.5434">
        <ele>1405</ele>
        <time>2013-04-24T12:12:36Z</time>
      </trkpt>
      <trkpt lat="42.89343" lon="-0.54343">
        <ele>1405</ele>
        <time>2013-04-24T12:12:39Z</time>
      </trkpt>
      <trkpt lat="42.89343" lon="-0.54344">
        <ele>1405</ele>
        <time>2013-04-24T12:12:40Z</time>
      </trkpt>
      <trkpt lat="42.89344" lon="-0.54346">
        <ele>1404</ele>
        <time>2013-04-24T12:12:42Z</time>
      </trkpt>
      <trkpt lat="42.89343" lon="-0.54348">
        <ele>1404</ele>
        <time>2013-04-24T12:12:43Z</time>
      </trkpt>
      <trkpt lat="42.89341" lon="-0.54357">
        <ele>1403</ele>
        <time>2013-04-24T12:12:50Z</time>
      </trkpt>
      <trkpt lat="42.89339" lon="-0.54366">
        <ele>1401</ele>
        <time>2013-04-24T12:12:56Z</time>
      </trkpt>
      <trkpt lat="42.89338" lon="-0.54367">
        <ele>1401</ele>
        <time>2013-04-24T12:12:57Z</time>
      </trkpt>
      <trkpt lat="42.89338" lon="-0.54371">
        <ele>1401</ele>
        <time>2013-04-24T12:13:00Z</time>
      </trkpt>
      <trkpt lat="42.89337" lon="-0.54372">
        <ele>1400</ele>
        <time>2013-04-24T12:13:01Z</time>
      </trkpt>
      <trkpt lat="42.89337" lon="-0.54373">
        <ele>1400</ele>
        <time>2013-04-24T12:13:02Z</time>
      </trkpt>
      <trkpt lat="42.89336" lon="-0.54375">
        <ele>1401</ele>
        <time>2013-04-24T12:13:03Z</time>
      </trkpt>
      <trkpt lat="42.89334" lon="-0.54381">
        <ele>1400</ele>
        <time>2013-04-24T12:13:08Z</time>
      </trkpt>
      <trkpt lat="42.89333" lon="-0.54387">
        <ele>1399</ele>
        <time>2013-04-24T12:13:14Z</time>
      </trkpt>
      <trkpt lat="42.89333" lon="-0.5439">
        <ele>1399</ele>
        <time>2013-04-24T12:13:16Z</time>
      </trkpt>
      <trkpt lat="42.89332" lon="-0.54392">
        <ele>1399</ele>
        <time>2013-04-24T12:13:17Z</time>
      </trkpt>
      <trkpt lat="42.89328" lon="-0.54407">
        <ele>1397</ele>
        <time>2013-04-24T12:13:27Z</time>
      </trkpt>
      <trkpt lat="42.89324" lon="-0.54422">
        <ele>1397</ele>
        <time>2013-04-24T12:13:37Z</time>
      </trkpt>
      <trkpt lat="42.89318" lon="-0.54436">
        <ele>1395</ele>
        <time>2013-04-24T12:13:46Z</time>
      </trkpt>
      <trkpt lat="42.89314" lon="-0.54448">
        <ele>1393</ele>
        <time>2013-04-24T12:13:54Z</time>
      </trkpt>
      <trkpt lat="42.89307" lon="-0.54455">
        <ele>1391</ele>
        <time>2013-04-24T12:14:01Z</time>
      </trkpt>
      <trkpt lat="42.89302" lon="-0.54468">
        <ele>1389</ele>
        <time>2013-04-24T12:14:10Z</time>
      </trkpt>
      <trkpt lat="42.89301" lon="-0.54471">
        <ele>1390</ele>
        <time>2013-04-24T12:14:12Z</time>
      </trkpt>
      <trkpt lat="42.89297" lon="-0.54493">
        <ele>1388</ele>
        <time>2013-04-24T12:14:24Z</time>
      </trkpt>
      <trkpt lat="42.89297" lon="-0.54495">
        <ele>1387</ele>
        <time>2013-04-24T12:14:25Z</time>
      </trkpt>
      <trkpt lat="42.89294" lon="-0.54506">
        <ele>1386</ele>
        <time>2013-04-24T12:14:33Z</time>
      </trkpt>
      <trkpt lat="42.89292" lon="-0.54508">
        <ele>1386</ele>
        <time>2013-04-24T12:14:39Z</time>
      </trkpt>
      <trkpt lat="42.89292" lon="-0.5451">
        <ele>1385</ele>
        <time>2013-04-24T12:14:40Z</time>
      </trkpt>
      <trkpt lat="42.89291" lon="-0.54512">
        <ele>1385</ele>
        <time>2013-04-24T12:14:41Z</time>
      </trkpt>
      <trkpt lat="42.8929" lon="-0.54522">
        <ele>1383</ele>
        <time>2013-04-24T12:14:50Z</time>
      </trkpt>
      <trkpt lat="42.89289" lon="-0.54529">
        <ele>1382</ele>
        <time>2013-04-24T12:14:56Z</time>
      </trkpt>
      <trkpt lat="42.89289" lon="-0.54536">
        <ele>1380</ele>
        <time>2013-04-24T12:15:03Z</time>
      </trkpt>
      <trkpt lat="42.89289" lon="-0.54546">
        <ele>1377</ele>
        <time>2013-04-24T12:15:11Z</time>
      </trkpt>
      <trkpt lat="42.8929" lon="-0.54552">
        <ele>1376</ele>
        <time>2013-04-24T12:15:18Z</time>
      </trkpt>
      <trkpt lat="42.8929" lon="-0.54557">
        <ele>1374</ele>
        <time>2013-04-24T12:15:26Z</time>
      </trkpt>
      <trkpt lat="42.89287" lon="-0.54562">
        <ele>1372</ele>
        <time>2013-04-24T12:15:32Z</time>
      </trkpt>
      <trkpt lat="42.89289" lon="-0.54567">
        <ele>1372</ele>
        <time>2013-04-24T12:15:40Z</time>
      </trkpt>
      <trkpt lat="42.89291" lon="-0.54571">
        <ele>1373</ele>
        <time>2013-04-24T12:15:48Z</time>
      </trkpt>
      <trkpt lat="42.89292" lon="-0.54571">
        <ele>1373</ele>
        <time>2013-04-24T12:15:50Z</time>
      </trkpt>
      <trkpt lat="42.89293" lon="-0.54571">
        <ele>1373</ele>
        <time>2013-04-24T12:15:51Z</time>
      </trkpt>
      <trkpt lat="42.89295" lon="-0.54576">
        <ele>1372</ele>
        <time>2013-04-24T12:15:54Z</time>
      </trkpt>
      <trkpt lat="42.89297" lon="-0.54578">
        <ele>1373</ele>
        <time>2013-04-24T12:15:56Z</time>
      </trkpt>
      <trkpt lat="42.89298" lon="-0.54581">
        <ele>1372</ele>
        <time>2013-04-24T12:15:59Z</time>
      </trkpt>
      <trkpt lat="42.89297" lon="-0.54584">
        <ele>1373</ele>
        <time>2013-04-24T12:16:02Z</time>
      </trkpt>
      <trkpt lat="42.89297" lon="-0.54587">
        <ele>1371</ele>
        <time>2013-04-24T12:16:05Z</time>
      </trkpt>
      <trkpt lat="42.89297" lon="-0.54589">
        <ele>1370</ele>
        <time>2013-04-24T12:16:08Z</time>
      </trkpt>
      <trkpt lat="42.89295" lon="-0.54591">
        <ele>1369</ele>
        <time>2013-04-24T12:16:13Z</time>
      </trkpt>
      <trkpt lat="42.89293" lon="-0.54597">
        <ele>1369</ele>
        <time>2013-04-24T12:16:19Z</time>
      </trkpt>
      <trkpt lat="42.89294" lon="-0.54605">
        <ele>1367</ele>
        <time>2013-04-24T12:16:25Z</time>
      </trkpt>
      <trkpt lat="42.89293" lon="-0.54614">
        <ele>1367</ele>
        <time>2013-04-24T12:16:33Z</time>
      </trkpt>
      <trkpt lat="42.89292" lon="-0.54624">
        <ele>1365</ele>
        <time>2013-04-24T12:16:40Z</time>
      </trkpt>
      <trkpt lat="42.89291" lon="-0.54625">
        <ele>1365</ele>
        <time>2013-04-24T12:16:41Z</time>
      </trkpt>
      <trkpt lat="42.89287" lon="-0.54639">
        <ele>1364</ele>
        <time>2013-04-24T12:16:47Z</time>
      </trkpt>
      <trkpt lat="42.89287" lon="-0.5464">
        <ele>1364</ele>
        <time>2013-04-24T12:16:48Z</time>
      </trkpt>
      <trkpt lat="42.89287" lon="-0.54644">
        <ele>1364</ele>
        <time>2013-04-24T12:16:54Z</time>
      </trkpt>
      <trkpt lat="42.89286" lon="-0.54653">
        <ele>1364</ele>
        <time>2013-04-24T12:17:01Z</time>
      </trkpt>
      <trkpt lat="42.8928" lon="-0.54663">
        <ele>1363</ele>
        <time>2013-04-24T12:17:09Z</time>
      </trkpt>
      <trkpt lat="42.89274" lon="-0.54679">
        <ele>1362</ele>
        <time>2013-04-24T12:17:17Z</time>
      </trkpt>
      <trkpt lat="42.89264" lon="-0.54688">
        <ele>1361</ele>
        <time>2013-04-24T12:17:26Z</time>
      </trkpt>
      <trkpt lat="42.8926" lon="-0.54695">
        <ele>1361</ele>
        <time>2013-04-24T12:17:32Z</time>
      </trkpt>
      <trkpt lat="42.89262" lon="-0.54701">
        <ele>1360</ele>
        <time>2013-04-24T12:17:39Z</time>
      </trkpt>
      <trkpt lat="42.89263" lon="-0.54704">
        <ele>1359</ele>
        <time>2013-04-24T12:17:41Z</time>
      </trkpt>
      <trkpt lat="42.89262" lon="-0.54712">
        <ele>1359</ele>
        <time>2013-04-24T12:17:47Z</time>
      </trkpt>
      <trkpt lat="42.89263" lon="-0.54726">
        <ele>1356</ele>
        <time>2013-04-24T12:17:55Z</time>
      </trkpt>
      <trkpt lat="42.89258" lon="-0.54731">
        <ele>1356</ele>
        <time>2013-04-24T12:17:59Z</time>
      </trkpt>
      <trkpt lat="42.89258" lon="-0.54736">
        <ele>1355</ele>
        <time>2013-04-24T12:18:02Z</time>
      </trkpt>
      <trkpt lat="42.89258" lon="-0.54737">
        <ele>1355</ele>
        <time>2013-04-24T12:18:03Z</time>
      </trkpt>
      <trkpt lat="42.89253" lon="-0.54738">
        <ele>1355</ele>
        <time>2013-04-24T12:18:05Z</time>
      </trkpt>
      <trkpt lat="42.8925" lon="-0.5474">
        <ele>1355</ele>
        <time>2013-04-24T12:18:07Z</time>
      </trkpt>
      <trkpt lat="42.89246" lon="-0.5475">
        <ele>1354</ele>
        <time>2013-04-24T12:18:15Z</time>
      </trkpt>
      <trkpt lat="42.89248" lon="-0.54761">
        <ele>1351</ele>
        <time>2013-04-24T12:18:24Z</time>
      </trkpt>
      <trkpt lat="42.89249" lon="-0.54762">
        <ele>1351</ele>
        <time>2013-04-24T12:18:25Z</time>
      </trkpt>
      <trkpt lat="42.89249" lon="-0.54768">
        <ele>1349</ele>
        <time>2013-04-24T12:18:32Z</time>
      </trkpt>
      <trkpt lat="42.89247" lon="-0.54768">
        <ele>1349</ele>
        <time>2013-04-24T12:18:33Z</time>
      </trkpt>
      <trkpt lat="42.89246" lon="-0.54769">
        <ele>1349</ele>
        <time>2013-04-24T12:18:35Z</time>
      </trkpt>
      <trkpt lat="42.89245" lon="-0.54776">
        <ele>1346</ele>
        <time>2013-04-24T12:18:43Z</time>
      </trkpt>
      <trkpt lat="42.89235" lon="-0.54785">
        <ele>1345</ele>
        <time>2013-04-24T12:18:50Z</time>
      </trkpt>
      <trkpt lat="42.89231" lon="-0.54789">
        <ele>1345</ele>
        <time>2013-04-24T12:18:53Z</time>
      </trkpt>
      <trkpt lat="42.89224" lon="-0.548">
        <ele>1343</ele>
        <time>2013-04-24T12:19:02Z</time>
      </trkpt>
      <trkpt lat="42.8922" lon="-0.54806">
        <ele>1341</ele>
        <time>2013-04-24T12:19:10Z</time>
      </trkpt>
      <trkpt lat="42.89217" lon="-0.54809">
        <ele>1340</ele>
        <time>2013-04-24T12:19:18Z</time>
      </trkpt>
      <trkpt lat="42.89218" lon="-0.54814">
        <ele>1339</ele>
        <time>2013-04-24T12:19:20Z</time>
      </trkpt>
      <trkpt lat="42.89211" lon="-0.54829">
        <ele>1339</ele>
        <time>2013-04-24T12:19:27Z</time>
      </trkpt>
      <trkpt lat="42.89211" lon="-0.5483">
        <ele>1339</ele>
        <time>2013-04-24T12:19:30Z</time>
      </trkpt>
      <trkpt lat="42.89203" lon="-0.54832">
        <ele>1336</ele>
        <time>2013-04-24T12:19:35Z</time>
      </trkpt>
      <trkpt lat="42.89203" lon="-0.54838">
        <ele>1335</ele>
        <time>2013-04-24T12:19:42Z</time>
      </trkpt>
      <trkpt lat="42.89203" lon="-0.54841">
        <ele>1334</ele>
        <time>2013-04-24T12:19:44Z</time>
      </trkpt>
      <trkpt lat="42.89198" lon="-0.54848">
        <ele>1334</ele>
        <time>2013-04-24T12:19:49Z</time>
      </trkpt>
      <trkpt lat="42.89195" lon="-0.54855">
        <ele>1334</ele>
        <time>2013-04-24T12:19:56Z</time>
      </trkpt>
      <trkpt lat="42.89186" lon="-0.54859">
        <ele>1333</ele>
        <time>2013-04-24T12:20:03Z</time>
      </trkpt>
      <trkpt lat="42.89182" lon="-0.54864">
        <ele>1333</ele>
        <time>2013-04-24T12:20:10Z</time>
      </trkpt>
      <trkpt lat="42.89177" lon="-0.54867">
        <ele>1333</ele>
        <time>2013-04-24T12:20:17Z</time>
      </trkpt>
      <trkpt lat="42.89169" lon="-0.54872">
        <ele>1331</ele>
        <time>2013-04-24T12:20:26Z</time>
      </trkpt>
      <trkpt lat="42.89161" lon="-0.54885">
        <ele>1329</ele>
        <time>2013-04-24T12:20:35Z</time>
      </trkpt>
      <trkpt lat="42.89158" lon="-0.54884">
        <ele>1328</ele>
        <time>2013-04-24T12:20:41Z</time>
      </trkpt>
      <trkpt lat="42.89154" lon="-0.54882">
        <ele>1327</ele>
        <time>2013-04-24T12:20:45Z</time>
      </trkpt>
      <trkpt lat="42.8915" lon="-0.54879">
        <ele>1325</ele>
        <time>2013-04-24T12:20:51Z</time>
      </trkpt>
      <trkpt lat="42.89148" lon="-0.54883">
        <ele>1322</ele>
        <time>2013-04-24T12:21:01Z</time>
      </trkpt>
      <trkpt lat="42.89147" lon="-0.54884">
        <ele>1321</ele>
        <time>2013-04-24T12:21:02Z</time>
      </trkpt>
      <trkpt lat="42.89147" lon="-0.54888">
        <ele>1320</ele>
        <time>2013-04-24T12:21:08Z</time>
      </trkpt>
      <trkpt lat="42.89144" lon="-0.54889">
        <ele>1318</ele>
        <time>2013-04-24T12:21:15Z</time>
      </trkpt>
      <trkpt lat="42.89144" lon="-0.54893">
        <ele>1316</ele>
        <time>2013-04-24T12:21:22Z</time>
      </trkpt>
      <trkpt lat="42.89143" lon="-0.54898">
        <ele>1315</ele>
        <time>2013-04-24T12:21:28Z</time>
      </trkpt>
      <trkpt lat="42.89139" lon="-0.549">
        <ele>1313</ele>
        <time>2013-04-24T12:21:34Z</time>
      </trkpt>
      <trkpt lat="42.89139" lon="-0.54905">
        <ele>1311</ele>
        <time>2013-04-24T12:21:41Z</time>
      </trkpt>
      <trkpt lat="42.89136" lon="-0.54909">
        <ele>1308</ele>
        <time>2013-04-24T12:21:48Z</time>
      </trkpt>
      <trkpt lat="42.89131" lon="-0.54919">
        <ele>1308</ele>
        <time>2013-04-24T12:21:56Z</time>
      </trkpt>
      <trkpt lat="42.89132" lon="-0.54926">
        <ele>1306</ele>
        <time>2013-04-24T12:22:01Z</time>
      </trkpt>
      <trkpt lat="42.89134" lon="-0.54936">
        <ele>1306</ele>
        <time>2013-04-24T12:22:08Z</time>
      </trkpt>
      <trkpt lat="42.89137" lon="-0.54945">
        <ele>1307</ele>
        <time>2013-04-24T12:22:15Z</time>
      </trkpt>
      <trkpt lat="42.8914" lon="-0.5495">
        <ele>1307</ele>
        <time>2013-04-24T12:22:20Z</time>
      </trkpt>
      <trkpt lat="42.8914" lon="-0.54963">
        <ele>1305</ele>
        <time>2013-04-24T12:22:29Z</time>
      </trkpt>
      <trkpt lat="42.89138" lon="-0.54973">
        <ele>1305</ele>
        <time>2013-04-24T12:22:37Z</time>
      </trkpt>
      <trkpt lat="42.89139" lon="-0.54977">
        <ele>1305</ele>
        <time>2013-04-24T12:22:39Z</time>
      </trkpt>
      <trkpt lat="42.89143" lon="-0.54993">
        <ele>1305</ele>
        <time>2013-04-24T12:22:49Z</time>
      </trkpt>
      <trkpt lat="42.89144" lon="-0.55">
        <ele>1305</ele>
        <time>2013-04-24T12:22:56Z</time>
      </trkpt>
      <trkpt lat="42.89142" lon="-0.55005">
        <ele>1304</ele>
        <time>2013-04-24T12:23:02Z</time>
      </trkpt>
      <trkpt lat="42.89142" lon="-0.55011">
        <ele>1305</ele>
        <time>2013-04-24T12:23:09Z</time>
      </trkpt>
      <trkpt lat="42.89144" lon="-0.55015">
        <ele>1305</ele>
        <time>2013-04-24T12:23:12Z</time>
      </trkpt>
      <trkpt lat="42.89145" lon="-0.55019">
        <ele>1304</ele>
        <time>2013-04-24T12:23:14Z</time>
      </trkpt>
      <trkpt lat="42.89147" lon="-0.5503">
        <ele>1304</ele>
        <time>2013-04-24T12:23:22Z</time>
      </trkpt>
      <trkpt lat="42.89148" lon="-0.55032">
        <ele>1302</ele>
        <time>2013-04-24T12:23:29Z</time>
      </trkpt>
      <trkpt lat="42.89149" lon="-0.55035">
        <ele>1300</ele>
        <time>2013-04-24T12:23:37Z</time>
      </trkpt>
      <trkpt lat="42.89146" lon="-0.55045">
        <ele>1300</ele>
        <time>2013-04-24T12:23:45Z</time>
      </trkpt>
      <trkpt lat="42.89147" lon="-0.55051">
        <ele>1298</ele>
        <time>2013-04-24T12:23:51Z</time>
      </trkpt>
      <trkpt lat="42.89151" lon="-0.55064">
        <ele>1298</ele>
        <time>2013-04-24T12:23:58Z</time>
      </trkpt>
      <trkpt lat="42.8915" lon="-0.55069">
        <ele>1298</ele>
        <time>2013-04-24T12:24:03Z</time>
      </trkpt>
      <trkpt lat="42.8915" lon="-0.55072">
        <ele>1298</ele>
        <time>2013-04-24T12:24:09Z</time>
      </trkpt>
      <trkpt lat="42.89151" lon="-0.55078">
        <ele>1298</ele>
        <time>2013-04-24T12:24:15Z</time>
      </trkpt>
      <trkpt lat="42.89151" lon="-0.55087">
        <ele>1296</ele>
        <time>2013-04-24T12:24:23Z</time>
      </trkpt>
      <trkpt lat="42.89152" lon="-0.55089">
        <ele>1295</ele>
        <time>2013-04-24T12:24:25Z</time>
      </trkpt>
      <trkpt lat="42.89153" lon="-0.55098">
        <ele>1295</ele>
        <time>2013-04-24T12:24:31Z</time>
      </trkpt>
      <trkpt lat="42.89153" lon="-0.55103">
        <ele>1294</ele>
        <time>2013-04-24T12:24:37Z</time>
      </trkpt>
      <trkpt lat="42.89153" lon="-0.55112">
        <ele>1293</ele>
        <time>2013-04-24T12:24:45Z</time>
      </trkpt>
      <trkpt lat="42.89156" lon="-0.55115">
        <ele>1292</ele>
        <time>2013-04-24T12:24:51Z</time>
      </trkpt>
      <trkpt lat="42.89157" lon="-0.55124">
        <ele>1292</ele>
        <time>2013-04-24T12:24:58Z</time>
      </trkpt>
      <trkpt lat="42.8916" lon="-0.5513">
        <ele>1290</ele>
        <time>2013-04-24T12:25:06Z</time>
      </trkpt>
      <trkpt lat="42.8916" lon="-0.55132">
        <ele>1290</ele>
        <time>2013-04-24T12:25:09Z</time>
      </trkpt>
      <trkpt lat="42.8916" lon="-0.55135">
        <ele>1289</ele>
        <time>2013-04-24T12:25:14Z</time>
      </trkpt>
      <trkpt lat="42.89162" lon="-0.55136">
        <ele>1288</ele>
        <time>2013-04-24T12:25:21Z</time>
      </trkpt>
      <trkpt lat="42.89164" lon="-0.55138">
        <ele>1286</ele>
        <time>2013-04-24T12:25:25Z</time>
      </trkpt>
      <trkpt lat="42.89166" lon="-0.55142">
        <ele>1285</ele>
        <time>2013-04-24T12:25:31Z</time>
      </trkpt>
      <trkpt lat="42.89167" lon="-0.55145">
        <ele>1285</ele>
        <time>2013-04-24T12:25:33Z</time>
      </trkpt>
      <trkpt lat="42.89171" lon="-0.55151">
        <ele>1284</ele>
        <time>2013-04-24T12:25:40Z</time>
      </trkpt>
      <trkpt lat="42.89174" lon="-0.5516">
        <ele>1284</ele>
        <time>2013-04-24T12:25:46Z</time>
      </trkpt>
      <trkpt lat="42.89177" lon="-0.55166">
        <ele>1283</ele>
        <time>2013-04-24T12:25:53Z</time>
      </trkpt>
      <trkpt lat="42.89178" lon="-0.5517">
        <ele>1285</ele>
        <time>2013-04-24T12:25:58Z</time>
      </trkpt>
      <trkpt lat="42.89183" lon="-0.55176">
        <ele>1285</ele>
        <time>2013-04-24T12:26:02Z</time>
      </trkpt>
      <trkpt lat="42.89188" lon="-0.55186">
        <ele>1286</ele>
        <time>2013-04-24T12:26:10Z</time>
      </trkpt>
      <trkpt lat="42.89193" lon="-0.55192">
        <ele>1285</ele>
        <time>2013-04-24T12:26:18Z</time>
      </trkpt>
      <trkpt lat="42.892" lon="-0.55198">
        <ele>1285</ele>
        <time>2013-04-24T12:26:25Z</time>
      </trkpt>
      <trkpt lat="42.89201" lon="-0.55198">
        <ele>1286</ele>
        <time>2013-04-24T12:26:26Z</time>
      </trkpt>
      <trkpt lat="42.89209" lon="-0.55204">
        <ele>1286</ele>
        <time>2013-04-24T12:26:34Z</time>
      </trkpt>
      <trkpt lat="42.89214" lon="-0.55213">
        <ele>1286</ele>
        <time>2013-04-24T12:26:41Z</time>
      </trkpt>
      <trkpt lat="42.89215" lon="-0.55216">
        <ele>1286</ele>
        <time>2013-04-24T12:26:45Z</time>
      </trkpt>
      <trkpt lat="42.89216" lon="-0.55224">
        <ele>1284</ele>
        <time>2013-04-24T12:26:55Z</time>
      </trkpt>
      <trkpt lat="42.89221" lon="-0.5523">
        <ele>1283</ele>
        <time>2013-04-24T12:27:02Z</time>
      </trkpt>
      <trkpt lat="42.89227" lon="-0.55237">
        <ele>1283</ele>
        <time>2013-04-24T12:27:08Z</time>
      </trkpt>
      <trkpt lat="42.89232" lon="-0.55237">
        <ele>1282</ele>
        <time>2013-04-24T12:27:16Z</time>
      </trkpt>
      <trkpt lat="42.89235" lon="-0.55238">
        <ele>1282</ele>
        <time>2013-04-24T12:27:21Z</time>
      </trkpt>
      <trkpt lat="42.89238" lon="-0.55243">
        <ele>1281</ele>
        <time>2013-04-24T12:27:25Z</time>
      </trkpt>
      <trkpt lat="42.89243" lon="-0.55247">
        <ele>1280</ele>
        <time>2013-04-24T12:27:31Z</time>
      </trkpt>
      <trkpt lat="42.8925" lon="-0.55252">
        <ele>1279</ele>
        <time>2013-04-24T12:27:39Z</time>
      </trkpt>
      <trkpt lat="42.89257" lon="-0.55255">
        <ele>1279</ele>
        <time>2013-04-24T12:27:46Z</time>
      </trkpt>
      <trkpt lat="42.8926" lon="-0.55258">
        <ele>1279</ele>
        <time>2013-04-24T12:27:49Z</time>
      </trkpt>
      <trkpt lat="42.89268" lon="-0.55266">
        <ele>1277</ele>
        <time>2013-04-24T12:27:58Z</time>
      </trkpt>
      <trkpt lat="42.89269" lon="-0.55267">
        <ele>1278</ele>
        <time>2013-04-24T12:27:59Z</time>
      </trkpt>
      <trkpt lat="42.89278" lon="-0.55272">
        <ele>1278</ele>
        <time>2013-04-24T12:28:08Z</time>
      </trkpt>
      <trkpt lat="42.89284" lon="-0.55273">
        <ele>1278</ele>
        <time>2013-04-24T12:28:17Z</time>
      </trkpt>
      <trkpt lat="42.89294" lon="-0.55275">
        <ele>1276</ele>
        <time>2013-04-24T12:28:26Z</time>
      </trkpt>
      <trkpt lat="42.89301" lon="-0.55277">
        <ele>1275</ele>
        <time>2013-04-24T12:28:34Z</time>
      </trkpt>
      <trkpt lat="42.89304" lon="-0.55279">
        <ele>1276</ele>
        <time>2013-04-24T12:28:36Z</time>
      </trkpt>
      <trkpt lat="42.89319" lon="-0.55294">
        <ele>1274</ele>
        <time>2013-04-24T12:28:46Z</time>
      </trkpt>
      <trkpt lat="42.89328" lon="-0.55302">
        <ele>1275</ele>
        <time>2013-04-24T12:28:55Z</time>
      </trkpt>
      <trkpt lat="42.89339" lon="-0.55306">
        <ele>1276</ele>
        <time>2013-04-24T12:29:04Z</time>
      </trkpt>
      <trkpt lat="42.89374" lon="-0.55384">
        <ele>1275</ele>
        <time>2013-04-24T12:29:29Z</time>
      </trkpt>
      <trkpt lat="42.89377" lon="-0.55383">
        <ele>1273</ele>
        <time>2013-04-24T12:29:31Z</time>
      </trkpt>
      <trkpt lat="42.89386" lon="-0.55385">
        <ele>1274</ele>
        <time>2013-04-24T12:29:37Z</time>
      </trkpt>
      <trkpt lat="42.89394" lon="-0.55386">
        <ele>1274</ele>
        <time>2013-04-24T12:29:43Z</time>
      </trkpt>
      <trkpt lat="42.89397" lon="-0.55384">
        <ele>1273</ele>
        <time>2013-04-24T12:29:46Z</time>
      </trkpt>
      <trkpt lat="42.89404" lon="-0.55373">
        <ele>1274</ele>
        <time>2013-04-24T12:29:54Z</time>
      </trkpt>
      <trkpt lat="42.89405" lon="-0.55371">
        <ele>1275</ele>
        <time>2013-04-24T12:29:55Z</time>
      </trkpt>
      <trkpt lat="42.89414" lon="-0.55366">
        <ele>1274</ele>
        <time>2013-04-24T12:30:01Z</time>
      </trkpt>
      <trkpt lat="42.89419" lon="-0.55368">
        <ele>1274</ele>
        <time>2013-04-24T12:30:04Z</time>
      </trkpt>
      <trkpt lat="42.89428" lon="-0.55374">
        <ele>1275</ele>
        <time>2013-04-24T12:30:12Z</time>
      </trkpt>
      <trkpt lat="42.89436" lon="-0.55367">
        <ele>1275</ele>
        <time>2013-04-24T12:30:20Z</time>
      </trkpt>
      <trkpt lat="42.89445" lon="-0.5537">
        <ele>1275</ele>
        <time>2013-04-24T12:30:27Z</time>
      </trkpt>
      <trkpt lat="42.89446" lon="-0.5537">
        <ele>1275</ele>
        <time>2013-04-24T12:30:28Z</time>
      </trkpt>
      <trkpt lat="42.89454" lon="-0.55372">
        <ele>1275</ele>
        <time>2013-04-24T12:30:37Z</time>
      </trkpt>
      <trkpt lat="42.89456" lon="-0.55373">
        <ele>1275</ele>
        <time>2013-04-24T12:30:41Z</time>
      </trkpt>
      <trkpt lat="42.89467" lon="-0.55371">
        <ele>1276</ele>
        <time>2013-04-24T12:30:48Z</time>
      </trkpt>
      <trkpt lat="42.89468" lon="-0.55371">
        <ele>1276</ele>
        <time>2013-04-24T12:30:49Z</time>
      </trkpt>
      <trkpt lat="42.89476" lon="-0.55383">
        <ele>1276</ele>
        <time>2013-04-24T12:30:54Z</time>
      </trkpt>
      <trkpt lat="42.89487" lon="-0.55384">
        <ele>1277</ele>
        <time>2013-04-24T12:31:03Z</time>
      </trkpt>
      <trkpt lat="42.89495" lon="-0.55387">
        <ele>1277</ele>
        <time>2013-04-24T12:31:11Z</time>
      </trkpt>
      <trkpt lat="42.89503" lon="-0.55389">
        <ele>1278</ele>
        <time>2013-04-24T12:31:19Z</time>
      </trkpt>
      <trkpt lat="42.89505" lon="-0.55387">
        <ele>1278</ele>
        <time>2013-04-24T12:31:24Z</time>
      </trkpt>
      <trkpt lat="42.89509" lon="-0.55386">
        <ele>1278</ele>
        <time>2013-04-24T12:31:29Z</time>
      </trkpt>
      <trkpt lat="42.89512" lon="-0.55387">
        <ele>1278</ele>
        <time>2013-04-24T12:31:32Z</time>
      </trkpt>
      <trkpt lat="42.89515" lon="-0.55395">
        <ele>1277</ele>
        <time>2013-04-24T12:31:34Z</time>
      </trkpt>
      <trkpt lat="42.89524" lon="-0.55408">
        <ele>1278</ele>
        <time>2013-04-24T12:31:40Z</time>
      </trkpt>
      <trkpt lat="42.89533" lon="-0.55414">
        <ele>1276</ele>
        <time>2013-04-24T12:31:47Z</time>
      </trkpt>
      <trkpt lat="42.89542" lon="-0.55418">
        <ele>1276</ele>
        <time>2013-04-24T12:31:54Z</time>
      </trkpt>
      <trkpt lat="42.89545" lon="-0.55418">
        <ele>1276</ele>
        <time>2013-04-24T12:31:57Z</time>
      </trkpt>
      <trkpt lat="42.89551" lon="-0.55424">
        <ele>1275</ele>
        <time>2013-04-24T12:32:03Z</time>
      </trkpt>
      <trkpt lat="42.89554" lon="-0.55426">
        <ele>1274</ele>
        <time>2013-04-24T12:32:05Z</time>
      </trkpt>
      <trkpt lat="42.89565" lon="-0.55419">
        <ele>1273</ele>
        <time>2013-04-24T12:32:14Z</time>
      </trkpt>
      <trkpt lat="42.89569" lon="-0.55417">
        <ele>1273</ele>
        <time>2013-04-24T12:32:20Z</time>
      </trkpt>
      <trkpt lat="42.89576" lon="-0.55409">
        <ele>1273</ele>
        <time>2013-04-24T12:32:27Z</time>
      </trkpt>
      <trkpt lat="42.89585" lon="-0.554">
        <ele>1274</ele>
        <time>2013-04-24T12:32:34Z</time>
      </trkpt>
      <trkpt lat="42.89594" lon="-0.55384">
        <ele>1277</ele>
        <time>2013-04-24T12:32:44Z</time>
      </trkpt>
      <trkpt lat="42.89599" lon="-0.55395">
        <ele>1278</ele>
        <time>2013-04-24T12:32:50Z</time>
      </trkpt>
      <trkpt lat="42.89604" lon="-0.55397">
        <ele>1276</ele>
        <time>2013-04-24T12:32:57Z</time>
      </trkpt>
      <trkpt lat="42.89608" lon="-0.55404">
        <ele>1275</ele>
        <time>2013-04-24T12:33:06Z</time>
      </trkpt>
      <trkpt lat="42.89609" lon="-0.55413">
        <ele>1273</ele>
        <time>2013-04-24T12:33:15Z</time>
      </trkpt>
      <trkpt lat="42.89608" lon="-0.55417">
        <ele>1272</ele>
        <time>2013-04-24T12:33:21Z</time>
      </trkpt>
      <trkpt lat="42.8961" lon="-0.55418">
        <ele>1272</ele>
        <time>2013-04-24T12:33:29Z</time>
      </trkpt>
      <trkpt lat="42.89613" lon="-0.55415">
        <ele>1270</ele>
        <time>2013-04-24T12:33:37Z</time>
      </trkpt>
      <trkpt lat="42.89617" lon="-0.55413">
        <ele>1268</ele>
        <time>2013-04-24T12:33:44Z</time>
      </trkpt>
      <trkpt lat="42.8962" lon="-0.55412">
        <ele>1266</ele>
        <time>2013-04-24T12:33:51Z</time>
      </trkpt>
      <trkpt lat="42.89624" lon="-0.55413">
        <ele>1265</ele>
        <time>2013-04-24T12:33:58Z</time>
      </trkpt>
      <trkpt lat="42.89627" lon="-0.55414">
        <ele>1263</ele>
        <time>2013-04-24T12:34:05Z</time>
      </trkpt>
      <trkpt lat="42.89628" lon="-0.55416">
        <ele>1262</ele>
        <time>2013-04-24T12:34:11Z</time>
      </trkpt>
      <trkpt lat="42.89631" lon="-0.55414">
        <ele>1260</ele>
        <time>2013-04-24T12:34:19Z</time>
      </trkpt>
      <trkpt lat="42.89637" lon="-0.5541">
        <ele>1258</ele>
        <time>2013-04-24T12:34:27Z</time>
      </trkpt>
      <trkpt lat="42.89642" lon="-0.55406">
        <ele>1256</ele>
        <time>2013-04-24T12:34:36Z</time>
      </trkpt>
      <trkpt lat="42.89646" lon="-0.55406">
        <ele>1254</ele>
        <time>2013-04-24T12:34:42Z</time>
      </trkpt>
      <trkpt lat="42.89649" lon="-0.55408">
        <ele>1253</ele>
        <time>2013-04-24T12:34:49Z</time>
      </trkpt>
      <trkpt lat="42.89654" lon="-0.55403">
        <ele>1251</ele>
        <time>2013-04-24T12:34:57Z</time>
      </trkpt>
      <trkpt lat="42.89656" lon="-0.55401">
        <ele>1249</ele>
        <time>2013-04-24T12:35:03Z</time>
      </trkpt>
      <trkpt lat="42.89657" lon="-0.55395">
        <ele>1247</ele>
        <time>2013-04-24T12:35:11Z</time>
      </trkpt>
      <trkpt lat="42.89661" lon="-0.55388">
        <ele>1245</ele>
        <time>2013-04-24T12:35:18Z</time>
      </trkpt>
      <trkpt lat="42.89676" lon="-0.55331">
        <ele>1243</ele>
        <time>2013-04-24T12:35:25Z</time>
      </trkpt>
      <trkpt lat="42.89679" lon="-0.55329">
        <ele>1241</ele>
        <time>2013-04-24T12:35:32Z</time>
      </trkpt>
      <trkpt lat="42.89682" lon="-0.55329">
        <ele>1239</ele>
        <time>2013-04-24T12:35:39Z</time>
      </trkpt>
      <trkpt lat="42.89685" lon="-0.55326">
        <ele>1236</ele>
        <time>2013-04-24T12:35:47Z</time>
      </trkpt>
      <trkpt lat="42.89692" lon="-0.55323">
        <ele>1234</ele>
        <time>2013-04-24T12:35:55Z</time>
      </trkpt>
      <trkpt lat="42.89697" lon="-0.55319">
        <ele>1232</ele>
        <time>2013-04-24T12:36:04Z</time>
      </trkpt>
      <trkpt lat="42.89702" lon="-0.55317">
        <ele>1231</ele>
        <time>2013-04-24T12:36:12Z</time>
      </trkpt>
      <trkpt lat="42.89706" lon="-0.55313">
        <ele>1228</ele>
        <time>2013-04-24T12:36:21Z</time>
      </trkpt>
      <trkpt lat="42.8971" lon="-0.55315">
        <ele>1227</ele>
        <time>2013-04-24T12:36:25Z</time>
      </trkpt>
      <trkpt lat="42.89718" lon="-0.55318">
        <ele>1225</ele>
        <time>2013-04-24T12:36:33Z</time>
      </trkpt>
      <trkpt lat="42.89726" lon="-0.5532">
        <ele>1223</ele>
        <time>2013-04-24T12:36:40Z</time>
      </trkpt>
      <trkpt lat="42.89735" lon="-0.55318">
        <ele>1221</ele>
        <time>2013-04-24T12:36:48Z</time>
      </trkpt>
      <trkpt lat="42.89738" lon="-0.55318">
        <ele>1221</ele>
        <time>2013-04-24T12:36:51Z</time>
      </trkpt>
      <trkpt lat="42.89746" lon="-0.5531">
        <ele>1217</ele>
        <time>2013-04-24T12:36:56Z</time>
      </trkpt>
      <trkpt lat="42.8975" lon="-0.55311">
        <ele>1216</ele>
        <time>2013-04-24T12:36:59Z</time>
      </trkpt>
      <trkpt lat="42.8975" lon="-0.55311">
        <ele>1216</ele>
        <time>2013-04-24T12:37:00Z</time>
      </trkpt>
      <trkpt lat="42.89762" lon="-0.5532">
        <ele>1215</ele>
        <time>2013-04-24T12:37:09Z</time>
      </trkpt>
      <trkpt lat="42.89763" lon="-0.55324">
        <ele>1216</ele>
        <time>2013-04-24T12:37:17Z</time>
      </trkpt>
      <trkpt lat="42.89767" lon="-0.55308">
        <ele>1215</ele>
        <time>2013-04-24T12:37:29Z</time>
      </trkpt>
      <trkpt lat="42.89772" lon="-0.55292">
        <ele>1215</ele>
        <time>2013-04-24T12:37:45Z</time>
      </trkpt>
      <trkpt lat="42.89771" lon="-0.55289">
        <ele>1215</ele>
        <time>2013-04-24T12:37:56Z</time>
      </trkpt>
      <trkpt lat="42.89774" lon="-0.5529">
        <ele>1214</ele>
        <time>2013-04-24T12:38:07Z</time>
      </trkpt>
      <trkpt lat="42.89776" lon="-0.5529">
        <ele>1214</ele>
        <time>2013-04-24T12:38:25Z</time>
      </trkpt>
      <trkpt lat="42.89777" lon="-0.5529">
        <ele>1214</ele>
        <time>2013-04-24T12:38:47Z</time>
      </trkpt>
      <trkpt lat="42.89776" lon="-0.55291">
        <ele>1214</ele>
        <time>2013-04-24T12:39:05Z</time>
      </trkpt>
      <trkpt lat="42.89776" lon="-0.55288">
        <ele>1214</ele>
        <time>2013-04-24T12:39:24Z</time>
      </trkpt>
      <trkpt lat="42.8978" lon="-0.55292">
        <ele>1213</ele>
        <time>2013-04-24T12:39:39Z</time>
      </trkpt>
      <trkpt lat="42.89782" lon="-0.55291">
        <ele>1213</ele>
        <time>2013-04-24T12:39:55Z</time>
      </trkpt>
      <trkpt lat="42.89778" lon="-0.55293">
        <ele>1213</ele>
        <time>2013-04-24T12:40:13Z</time>
      </trkpt>
      <trkpt lat="42.89779" lon="-0.55293">
        <ele>1213</ele>
        <time>2013-04-24T12:40:30Z</time>
      </trkpt>
      <trkpt lat="42.89775" lon="-0.55295">
        <ele>1212</ele>
        <time>2013-04-24T12:40:49Z</time>
      </trkpt>
      <trkpt lat="42.8978" lon="-0.55294">
        <ele>1211</ele>
        <time>2013-04-24T12:41:09Z</time>
      </trkpt>
      <trkpt lat="42.89779" lon="-0.55292">
        <ele>1213</ele>
        <time>2013-04-24T12:41:27Z</time>
      </trkpt>
      <trkpt lat="42.89778" lon="-0.55293">
        <ele>1212</ele>
        <time>2013-04-24T12:41:36Z</time>
      </trkpt>
      <trkpt lat="42.89777" lon="-0.55295">
        <ele>1212</ele>
        <time>2013-04-24T12:41:47Z</time>
      </trkpt>
      <trkpt lat="42.89777" lon="-0.55295">
        <ele>1211</ele>
        <time>2013-04-24T12:42:04Z</time>
      </trkpt>
      <trkpt lat="42.89779" lon="-0.55293">
        <ele>1211</ele>
        <time>2013-04-24T12:42:15Z</time>
      </trkpt>
      <trkpt lat="42.89784" lon="-0.55292">
        <ele>1212</ele>
        <time>2013-04-24T12:42:26Z</time>
      </trkpt>
      <trkpt lat="42.89783" lon="-0.55291">
        <ele>1211</ele>
        <time>2013-04-24T12:42:41Z</time>
      </trkpt>
      <trkpt lat="42.89778" lon="-0.55292">
        <ele>1211</ele>
        <time>2013-04-24T12:42:54Z</time>
      </trkpt>
      <trkpt lat="42.89781" lon="-0.5529">
        <ele>1211</ele>
        <time>2013-04-24T12:43:11Z</time>
      </trkpt>
      <trkpt lat="42.89781" lon="-0.55291">
        <ele>1209</ele>
        <time>2013-04-24T12:43:17Z</time>
      </trkpt>
    </trkseg>
  </trk>
</gpx>